<?xml version="1.0" encoding="UTF-8" standalone="no" ?>
<gpx xmlns="http://www.topografix.com/GPX/1/1" xmlns:xsi="http://www.w3.org/2001/XMLSchema-instance" xsi:schemaLocation="http://www.topografix.com/GPX/1/1 http://www.topografix.com/GPX/1/1/gpx.xsd" version="1.1" creator="VisuGPX - https://www.visugpx.com">
  <metadata>
    <name>col de la Madelaine</name>
    <desc><![CDATA[col de la Madelaine]]></desc>
  </metadata>
  <wpt lat="45.76334" lon="6.34321">
    <ele>461.5</ele>
    <name><![CDATA[Start]]></name>
    <desc><![CDATA[2013-08-03 04:52:04]]></desc>
  </wpt>
  <wpt lat="45.76337" lon="6.34333">
    <ele>461.9</ele>
    <name><![CDATA[Lap 1]]></name>
    <desc><![CDATA[129.70km, 337:59, 23.0kph]]></desc>
  </wpt>
  <trk>
    <name><![CDATA[03_08_2013 06_52_04_history]]></name>
    <desc><![CDATA[337:59 - 129.7km]]></desc>
    <trkseg>
      <trkpt lat="45.76334" lon="6.34321">
        <ele>464.628</ele>
        <time>2013-08-03T04:52:05Z</time>
      </trkpt>
      <trkpt lat="45.76334" lon="6.34321">
        <ele>464.628</ele>
        <time>2013-08-03T04:52:05Z</time>
      </trkpt>
      <trkpt lat="45.76318" lon="6.34315">
        <ele>464.63</ele>
        <time>2013-08-03T04:52:19Z</time>
      </trkpt>
      <trkpt lat="45.76317" lon="6.34302">
        <ele>464.668</ele>
        <time>2013-08-03T04:52:22Z</time>
      </trkpt>
      <trkpt lat="45.76315" lon="6.34283">
        <ele>464.756</ele>
        <time>2013-08-03T04:52:25Z</time>
      </trkpt>
      <trkpt lat="45.76309" lon="6.3426">
        <ele>465.339</ele>
        <time>2013-08-03T04:52:29Z</time>
      </trkpt>
      <trkpt lat="45.7631" lon="6.3424">
        <ele>465.323</ele>
        <time>2013-08-03T04:52:34Z</time>
      </trkpt>
      <trkpt lat="45.76309" lon="6.34235">
        <ele>465.353</ele>
        <time>2013-08-03T04:52:35Z</time>
      </trkpt>
      <trkpt lat="45.76303" lon="6.34189">
        <ele>466.141</ele>
        <time>2013-08-03T04:52:43Z</time>
      </trkpt>
      <trkpt lat="45.76294" lon="6.34143">
        <ele>466.893</ele>
        <time>2013-08-03T04:52:51Z</time>
      </trkpt>
      <trkpt lat="45.76289" lon="6.34118">
        <ele>467.021</ele>
        <time>2013-08-03T04:52:55Z</time>
      </trkpt>
      <trkpt lat="45.76279" lon="6.34052">
        <ele>468.301</ele>
        <time>2013-08-03T04:53:05Z</time>
      </trkpt>
      <trkpt lat="45.76267" lon="6.33993">
        <ele>469.138</ele>
        <time>2013-08-03T04:53:14Z</time>
      </trkpt>
      <trkpt lat="45.76251" lon="6.33918">
        <ele>470.532</ele>
        <time>2013-08-03T04:53:25Z</time>
      </trkpt>
      <trkpt lat="45.76233" lon="6.33825">
        <ele>471.868</ele>
        <time>2013-08-03T04:53:39Z</time>
      </trkpt>
      <trkpt lat="45.7622" lon="6.33757">
        <ele>472.851</ele>
        <time>2013-08-03T04:53:49Z</time>
      </trkpt>
      <trkpt lat="45.76206" lon="6.33688">
        <ele>473.882</ele>
        <time>2013-08-03T04:53:59Z</time>
      </trkpt>
      <trkpt lat="45.76196" lon="6.33646">
        <ele>474.308</ele>
        <time>2013-08-03T04:54:06Z</time>
      </trkpt>
      <trkpt lat="45.76194" lon="6.33639">
        <ele>474.57</ele>
        <time>2013-08-03T04:54:11Z</time>
      </trkpt>
      <trkpt lat="45.76194" lon="6.33639">
        <ele>474.663</ele>
        <time>2013-08-03T04:54:12Z</time>
      </trkpt>
      <trkpt lat="45.76194" lon="6.33639">
        <ele>475.078</ele>
        <time>2013-08-03T04:54:17Z</time>
      </trkpt>
      <trkpt lat="45.76196" lon="6.33598">
        <ele>475.149</ele>
        <time>2013-08-03T04:54:18Z</time>
      </trkpt>
      <trkpt lat="45.76188" lon="6.33558">
        <ele>475.708</ele>
        <time>2013-08-03T04:54:25Z</time>
      </trkpt>
      <trkpt lat="45.76176" lon="6.33497">
        <ele>476.718</ele>
        <time>2013-08-03T04:54:34Z</time>
      </trkpt>
      <trkpt lat="45.76166" lon="6.33435">
        <ele>477.629</ele>
        <time>2013-08-03T04:54:43Z</time>
      </trkpt>
      <trkpt lat="45.76156" lon="6.33382">
        <ele>478.494</ele>
        <time>2013-08-03T04:54:51Z</time>
      </trkpt>
      <trkpt lat="45.76145" lon="6.33323">
        <ele>479.472</ele>
        <time>2013-08-03T04:55:00Z</time>
      </trkpt>
      <trkpt lat="45.76133" lon="6.33263">
        <ele>480.547</ele>
        <time>2013-08-03T04:55:09Z</time>
      </trkpt>
      <trkpt lat="45.76122" lon="6.33202">
        <ele>481.338</ele>
        <time>2013-08-03T04:55:18Z</time>
      </trkpt>
      <trkpt lat="45.76108" lon="6.33129">
        <ele>482.373</ele>
        <time>2013-08-03T04:55:29Z</time>
      </trkpt>
      <trkpt lat="45.76096" lon="6.33067">
        <ele>483.219</ele>
        <time>2013-08-03T04:55:38Z</time>
      </trkpt>
      <trkpt lat="45.76083" lon="6.32997">
        <ele>484.002</ele>
        <time>2013-08-03T04:55:48Z</time>
      </trkpt>
      <trkpt lat="45.76068" lon="6.32918">
        <ele>485.223</ele>
        <time>2013-08-03T04:55:59Z</time>
      </trkpt>
      <trkpt lat="45.76052" lon="6.32839">
        <ele>486.503</ele>
        <time>2013-08-03T04:56:10Z</time>
      </trkpt>
      <trkpt lat="45.76037" lon="6.32761">
        <ele>487.597</ele>
        <time>2013-08-03T04:56:21Z</time>
      </trkpt>
      <trkpt lat="45.76022" lon="6.32677">
        <ele>488.612</ele>
        <time>2013-08-03T04:56:33Z</time>
      </trkpt>
      <trkpt lat="45.76007" lon="6.32599">
        <ele>489.641</ele>
        <time>2013-08-03T04:56:44Z</time>
      </trkpt>
      <trkpt lat="45.76" lon="6.3256">
        <ele>490.075</ele>
        <time>2013-08-03T04:56:50Z</time>
      </trkpt>
      <trkpt lat="45.75996" lon="6.32543">
        <ele>490.362</ele>
        <time>2013-08-03T04:56:54Z</time>
      </trkpt>
      <trkpt lat="45.75993" lon="6.32521">
        <ele>490.913</ele>
        <time>2013-08-03T04:56:59Z</time>
      </trkpt>
      <trkpt lat="45.75986" lon="6.32485">
        <ele>491.389</ele>
        <time>2013-08-03T04:57:06Z</time>
      </trkpt>
      <trkpt lat="45.75984" lon="6.32475">
        <ele>491.509</ele>
        <time>2013-08-03T04:57:08Z</time>
      </trkpt>
      <trkpt lat="45.75976" lon="6.3244">
        <ele>491.939</ele>
        <time>2013-08-03T04:57:14Z</time>
      </trkpt>
      <trkpt lat="45.75972" lon="6.32421">
        <ele>492.314</ele>
        <time>2013-08-03T04:57:17Z</time>
      </trkpt>
      <trkpt lat="45.75956" lon="6.32361">
        <ele>493.575</ele>
        <time>2013-08-03T04:57:26Z</time>
      </trkpt>
      <trkpt lat="45.75937" lon="6.32292">
        <ele>494.283</ele>
        <time>2013-08-03T04:57:36Z</time>
      </trkpt>
      <trkpt lat="45.75911" lon="6.3222">
        <ele>495.215</ele>
        <time>2013-08-03T04:57:47Z</time>
      </trkpt>
      <trkpt lat="45.75885" lon="6.32155">
        <ele>496.577</ele>
        <time>2013-08-03T04:57:57Z</time>
      </trkpt>
      <trkpt lat="45.75859" lon="6.32096">
        <ele>497.502</ele>
        <time>2013-08-03T04:58:06Z</time>
      </trkpt>
      <trkpt lat="45.75832" lon="6.32039">
        <ele>498.307</ele>
        <time>2013-08-03T04:58:15Z</time>
      </trkpt>
      <trkpt lat="45.75803" lon="6.31977">
        <ele>497.594</ele>
        <time>2013-08-03T04:58:24Z</time>
      </trkpt>
      <trkpt lat="45.75773" lon="6.31913">
        <ele>496.913</ele>
        <time>2013-08-03T04:58:33Z</time>
      </trkpt>
      <trkpt lat="45.7574" lon="6.31842">
        <ele>496.274</ele>
        <time>2013-08-03T04:58:43Z</time>
      </trkpt>
      <trkpt lat="45.75705" lon="6.31766">
        <ele>495.976</ele>
        <time>2013-08-03T04:58:54Z</time>
      </trkpt>
      <trkpt lat="45.75668" lon="6.31687">
        <ele>496.133</ele>
        <time>2013-08-03T04:59:05Z</time>
      </trkpt>
      <trkpt lat="45.75627" lon="6.31599">
        <ele>496.473</ele>
        <time>2013-08-03T04:59:17Z</time>
      </trkpt>
      <trkpt lat="45.75595" lon="6.31531">
        <ele>496.271</ele>
        <time>2013-08-03T04:59:26Z</time>
      </trkpt>
      <trkpt lat="45.75558" lon="6.31453">
        <ele>496.828</ele>
        <time>2013-08-03T04:59:36Z</time>
      </trkpt>
      <trkpt lat="45.75517" lon="6.31366">
        <ele>496.546</ele>
        <time>2013-08-03T04:59:47Z</time>
      </trkpt>
      <trkpt lat="45.75472" lon="6.3127">
        <ele>496.835</ele>
        <time>2013-08-03T04:59:59Z</time>
      </trkpt>
      <trkpt lat="45.75422" lon="6.31161">
        <ele>496.715</ele>
        <time>2013-08-03T05:00:13Z</time>
      </trkpt>
      <trkpt lat="45.75374" lon="6.31059">
        <ele>496.861</ele>
        <time>2013-08-03T05:00:26Z</time>
      </trkpt>
      <trkpt lat="45.75336" lon="6.30979">
        <ele>497.199</ele>
        <time>2013-08-03T05:00:36Z</time>
      </trkpt>
      <trkpt lat="45.75314" lon="6.30931">
        <ele>497.294</ele>
        <time>2013-08-03T05:00:42Z</time>
      </trkpt>
      <trkpt lat="45.75291" lon="6.30883">
        <ele>497.287</ele>
        <time>2013-08-03T05:00:49Z</time>
      </trkpt>
      <trkpt lat="45.75252" lon="6.30797">
        <ele>497.74</ele>
        <time>2013-08-03T05:01:01Z</time>
      </trkpt>
      <trkpt lat="45.75233" lon="6.30755">
        <ele>498.46</ele>
        <time>2013-08-03T05:01:07Z</time>
      </trkpt>
      <trkpt lat="45.75202" lon="6.30687">
        <ele>499.48</ele>
        <time>2013-08-03T05:01:17Z</time>
      </trkpt>
      <trkpt lat="45.75176" lon="6.3061">
        <ele>500.665</ele>
        <time>2013-08-03T05:01:28Z</time>
      </trkpt>
      <trkpt lat="45.75161" lon="6.30555">
        <ele>500.835</ele>
        <time>2013-08-03T05:01:36Z</time>
      </trkpt>
      <trkpt lat="45.75154" lon="6.30508">
        <ele>501.497</ele>
        <time>2013-08-03T05:01:43Z</time>
      </trkpt>
      <trkpt lat="45.75149" lon="6.30462">
        <ele>501.077</ele>
        <time>2013-08-03T05:01:50Z</time>
      </trkpt>
      <trkpt lat="45.75146" lon="6.30433">
        <ele>501.591</ele>
        <time>2013-08-03T05:01:55Z</time>
      </trkpt>
      <trkpt lat="45.75145" lon="6.30416">
        <ele>501.429</ele>
        <time>2013-08-03T05:02:00Z</time>
      </trkpt>
      <trkpt lat="45.75124" lon="6.30375">
        <ele>502.978</ele>
        <time>2013-08-03T05:02:08Z</time>
      </trkpt>
      <trkpt lat="45.75094" lon="6.30327">
        <ele>504.08</ele>
        <time>2013-08-03T05:02:16Z</time>
      </trkpt>
      <trkpt lat="45.75073" lon="6.30287">
        <ele>504.098</ele>
        <time>2013-08-03T05:02:23Z</time>
      </trkpt>
      <trkpt lat="45.75041" lon="6.30232">
        <ele>505.051</ele>
        <time>2013-08-03T05:02:33Z</time>
      </trkpt>
      <trkpt lat="45.75007" lon="6.30175">
        <ele>506.456</ele>
        <time>2013-08-03T05:02:43Z</time>
      </trkpt>
      <trkpt lat="45.74984" lon="6.30133">
        <ele>506.967</ele>
        <time>2013-08-03T05:02:51Z</time>
      </trkpt>
      <trkpt lat="45.74946" lon="6.30069">
        <ele>507.783</ele>
        <time>2013-08-03T05:03:02Z</time>
      </trkpt>
      <trkpt lat="45.74905" lon="6.29999">
        <ele>508.968</ele>
        <time>2013-08-03T05:03:14Z</time>
      </trkpt>
      <trkpt lat="45.74867" lon="6.29934">
        <ele>509.95</ele>
        <time>2013-08-03T05:03:25Z</time>
      </trkpt>
      <trkpt lat="45.74848" lon="6.299">
        <ele>509.938</ele>
        <time>2013-08-03T05:03:31Z</time>
      </trkpt>
      <trkpt lat="45.74833" lon="6.29874">
        <ele>510.355</ele>
        <time>2013-08-03T05:03:37Z</time>
      </trkpt>
      <trkpt lat="45.74822" lon="6.29857">
        <ele>510.676</ele>
        <time>2013-08-03T05:03:42Z</time>
      </trkpt>
      <trkpt lat="45.74804" lon="6.29826">
        <ele>510.912</ele>
        <time>2013-08-03T05:03:49Z</time>
      </trkpt>
      <trkpt lat="45.74782" lon="6.29787">
        <ele>511.415</ele>
        <time>2013-08-03T05:03:57Z</time>
      </trkpt>
      <trkpt lat="45.74768" lon="6.29761">
        <ele>511.853</ele>
        <time>2013-08-03T05:04:02Z</time>
      </trkpt>
      <trkpt lat="45.74751" lon="6.29733">
        <ele>512.372</ele>
        <time>2013-08-03T05:04:08Z</time>
      </trkpt>
      <trkpt lat="45.7473" lon="6.29698">
        <ele>513.271</ele>
        <time>2013-08-03T05:04:15Z</time>
      </trkpt>
      <trkpt lat="45.74727" lon="6.29693">
        <ele>513.281</ele>
        <time>2013-08-03T05:04:16Z</time>
      </trkpt>
      <trkpt lat="45.74703" lon="6.2965">
        <ele>513.878</ele>
        <time>2013-08-03T05:04:24Z</time>
      </trkpt>
      <trkpt lat="45.74684" lon="6.29613">
        <ele>514.345</ele>
        <time>2013-08-03T05:04:31Z</time>
      </trkpt>
      <trkpt lat="45.74662" lon="6.2957">
        <ele>515.024</ele>
        <time>2013-08-03T05:04:39Z</time>
      </trkpt>
      <trkpt lat="45.74638" lon="6.29542">
        <ele>515.059</ele>
        <time>2013-08-03T05:04:45Z</time>
      </trkpt>
      <trkpt lat="45.74609" lon="6.29516">
        <ele>515.493</ele>
        <time>2013-08-03T05:04:52Z</time>
      </trkpt>
      <trkpt lat="45.746" lon="6.29512">
        <ele>515.443</ele>
        <time>2013-08-03T05:04:54Z</time>
      </trkpt>
      <trkpt lat="45.74575" lon="6.2951">
        <ele>515.786</ele>
        <time>2013-08-03T05:04:59Z</time>
      </trkpt>
      <trkpt lat="45.74547" lon="6.2952">
        <ele>516.211</ele>
        <time>2013-08-03T05:05:05Z</time>
      </trkpt>
      <trkpt lat="45.74515" lon="6.29546">
        <ele>517.092</ele>
        <time>2013-08-03T05:05:12Z</time>
      </trkpt>
      <trkpt lat="45.74495" lon="6.29568">
        <ele>517.028</ele>
        <time>2013-08-03T05:05:17Z</time>
      </trkpt>
      <trkpt lat="45.74476" lon="6.29602">
        <ele>518.135</ele>
        <time>2013-08-03T05:05:23Z</time>
      </trkpt>
      <trkpt lat="45.74457" lon="6.29636">
        <ele>519.43</ele>
        <time>2013-08-03T05:05:30Z</time>
      </trkpt>
      <trkpt lat="45.74439" lon="6.29638">
        <ele>520.751</ele>
        <time>2013-08-03T05:05:35Z</time>
      </trkpt>
      <trkpt lat="45.74425" lon="6.29629">
        <ele>521.739</ele>
        <time>2013-08-03T05:05:40Z</time>
      </trkpt>
      <trkpt lat="45.7441" lon="6.29612">
        <ele>522.975</ele>
        <time>2013-08-03T05:05:45Z</time>
      </trkpt>
      <trkpt lat="45.74398" lon="6.29598">
        <ele>524.131</ele>
        <time>2013-08-03T05:05:50Z</time>
      </trkpt>
      <trkpt lat="45.74385" lon="6.29582">
        <ele>525.366</ele>
        <time>2013-08-03T05:05:55Z</time>
      </trkpt>
      <trkpt lat="45.74366" lon="6.2956">
        <ele>526.946</ele>
        <time>2013-08-03T05:06:02Z</time>
      </trkpt>
      <trkpt lat="45.74341" lon="6.29537">
        <ele>529.13</ele>
        <time>2013-08-03T05:06:10Z</time>
      </trkpt>
      <trkpt lat="45.74311" lon="6.29524">
        <ele>531.204</ele>
        <time>2013-08-03T05:06:18Z</time>
      </trkpt>
      <trkpt lat="45.74284" lon="6.29507">
        <ele>533.153</ele>
        <time>2013-08-03T05:06:26Z</time>
      </trkpt>
      <trkpt lat="45.74279" lon="6.29501">
        <ele>533.394</ele>
        <time>2013-08-03T05:06:28Z</time>
      </trkpt>
      <trkpt lat="45.7426" lon="6.29462">
        <ele>535.877</ele>
        <time>2013-08-03T05:06:38Z</time>
      </trkpt>
      <trkpt lat="45.74248" lon="6.29431">
        <ele>537.523</ele>
        <time>2013-08-03T05:06:45Z</time>
      </trkpt>
      <trkpt lat="45.74232" lon="6.2939">
        <ele>540.046</ele>
        <time>2013-08-03T05:06:55Z</time>
      </trkpt>
      <trkpt lat="45.74213" lon="6.29375">
        <ele>541.781</ele>
        <time>2013-08-03T05:07:02Z</time>
      </trkpt>
      <trkpt lat="45.74195" lon="6.29377">
        <ele>543.132</ele>
        <time>2013-08-03T05:07:08Z</time>
      </trkpt>
      <trkpt lat="45.74181" lon="6.29386">
        <ele>544.267</ele>
        <time>2013-08-03T05:07:14Z</time>
      </trkpt>
      <trkpt lat="45.7417" lon="6.29409">
        <ele>545.737</ele>
        <time>2013-08-03T05:07:21Z</time>
      </trkpt>
      <trkpt lat="45.74164" lon="6.29444">
        <ele>547.517</ele>
        <time>2013-08-03T05:07:29Z</time>
      </trkpt>
      <trkpt lat="45.74168" lon="6.29471">
        <ele>548.65</ele>
        <time>2013-08-03T05:07:35Z</time>
      </trkpt>
      <trkpt lat="45.74177" lon="6.29507">
        <ele>550.522</ele>
        <time>2013-08-03T05:07:43Z</time>
      </trkpt>
      <trkpt lat="45.74178" lon="6.29553">
        <ele>552.574</ele>
        <time>2013-08-03T05:07:52Z</time>
      </trkpt>
      <trkpt lat="45.74175" lon="6.29595">
        <ele>554.12</ele>
        <time>2013-08-03T05:08:00Z</time>
      </trkpt>
      <trkpt lat="45.74172" lon="6.29653">
        <ele>556.239</ele>
        <time>2013-08-03T05:08:11Z</time>
      </trkpt>
      <trkpt lat="45.74169" lon="6.29705">
        <ele>558.025</ele>
        <time>2013-08-03T05:08:21Z</time>
      </trkpt>
      <trkpt lat="45.74166" lon="6.29747">
        <ele>559.766</ele>
        <time>2013-08-03T05:08:29Z</time>
      </trkpt>
      <trkpt lat="45.74153" lon="6.29773">
        <ele>560.921</ele>
        <time>2013-08-03T05:08:35Z</time>
      </trkpt>
      <trkpt lat="45.74133" lon="6.29787">
        <ele>562.388</ele>
        <time>2013-08-03T05:08:41Z</time>
      </trkpt>
      <trkpt lat="45.7411" lon="6.29796">
        <ele>563.853</ele>
        <time>2013-08-03T05:08:48Z</time>
      </trkpt>
      <trkpt lat="45.74076" lon="6.29809">
        <ele>566.087</ele>
        <time>2013-08-03T05:08:58Z</time>
      </trkpt>
      <trkpt lat="45.74058" lon="6.29821">
        <ele>567.3</ele>
        <time>2013-08-03T05:09:04Z</time>
      </trkpt>
      <trkpt lat="45.74051" lon="6.29841">
        <ele>568.33</ele>
        <time>2013-08-03T05:09:09Z</time>
      </trkpt>
      <trkpt lat="45.74052" lon="6.29861">
        <ele>569.195</ele>
        <time>2013-08-03T05:09:14Z</time>
      </trkpt>
      <trkpt lat="45.74061" lon="6.2988">
        <ele>570.493</ele>
        <time>2013-08-03T05:09:19Z</time>
      </trkpt>
      <trkpt lat="45.74083" lon="6.29892">
        <ele>572.269</ele>
        <time>2013-08-03T05:09:26Z</time>
      </trkpt>
      <trkpt lat="45.74112" lon="6.29898">
        <ele>573.899</ele>
        <time>2013-08-03T05:09:34Z</time>
      </trkpt>
      <trkpt lat="45.74135" lon="6.2991">
        <ele>575.199</ele>
        <time>2013-08-03T05:09:40Z</time>
      </trkpt>
      <trkpt lat="45.74144" lon="6.29929">
        <ele>576.006</ele>
        <time>2013-08-03T05:09:44Z</time>
      </trkpt>
      <trkpt lat="45.74144" lon="6.29952">
        <ele>577.124</ele>
        <time>2013-08-03T05:09:48Z</time>
      </trkpt>
      <trkpt lat="45.74132" lon="6.29973">
        <ele>578.619</ele>
        <time>2013-08-03T05:09:53Z</time>
      </trkpt>
      <trkpt lat="45.74112" lon="6.29983">
        <ele>580.341</ele>
        <time>2013-08-03T05:09:59Z</time>
      </trkpt>
      <trkpt lat="45.74077" lon="6.29994">
        <ele>582.726</ele>
        <time>2013-08-03T05:10:10Z</time>
      </trkpt>
      <trkpt lat="45.74054" lon="6.30003">
        <ele>584.213</ele>
        <time>2013-08-03T05:10:17Z</time>
      </trkpt>
      <trkpt lat="45.74026" lon="6.30029">
        <ele>586.319</ele>
        <time>2013-08-03T05:10:27Z</time>
      </trkpt>
      <trkpt lat="45.73997" lon="6.30059">
        <ele>588.361</ele>
        <time>2013-08-03T05:10:37Z</time>
      </trkpt>
      <trkpt lat="45.73969" lon="6.30074">
        <ele>590.604</ele>
        <time>2013-08-03T05:10:46Z</time>
      </trkpt>
      <trkpt lat="45.73936" lon="6.30089">
        <ele>593.207</ele>
        <time>2013-08-03T05:10:56Z</time>
      </trkpt>
      <trkpt lat="45.73918" lon="6.3011">
        <ele>594.896</ele>
        <time>2013-08-03T05:11:03Z</time>
      </trkpt>
      <trkpt lat="45.73891" lon="6.3015">
        <ele>597.555</ele>
        <time>2013-08-03T05:11:14Z</time>
      </trkpt>
      <trkpt lat="45.73869" lon="6.30196">
        <ele>600.585</ele>
        <time>2013-08-03T05:11:25Z</time>
      </trkpt>
      <trkpt lat="45.73859" lon="6.30235">
        <ele>602.632</ele>
        <time>2013-08-03T05:11:33Z</time>
      </trkpt>
      <trkpt lat="45.73855" lon="6.30283">
        <ele>604.411</ele>
        <time>2013-08-03T05:11:42Z</time>
      </trkpt>
      <trkpt lat="45.73854" lon="6.30347">
        <ele>606.262</ele>
        <time>2013-08-03T05:11:53Z</time>
      </trkpt>
      <trkpt lat="45.73847" lon="6.30395">
        <ele>607.477</ele>
        <time>2013-08-03T05:12:01Z</time>
      </trkpt>
      <trkpt lat="45.73836" lon="6.30448">
        <ele>608.03</ele>
        <time>2013-08-03T05:12:09Z</time>
      </trkpt>
      <trkpt lat="45.73826" lon="6.30505">
        <ele>608.801</ele>
        <time>2013-08-03T05:12:17Z</time>
      </trkpt>
      <trkpt lat="45.7382" lon="6.30577">
        <ele>609.135</ele>
        <time>2013-08-03T05:12:27Z</time>
      </trkpt>
      <trkpt lat="45.7381" lon="6.30644">
        <ele>609.703</ele>
        <time>2013-08-03T05:12:36Z</time>
      </trkpt>
      <trkpt lat="45.73793" lon="6.30707">
        <ele>610.305</ele>
        <time>2013-08-03T05:12:45Z</time>
      </trkpt>
      <trkpt lat="45.73766" lon="6.30771">
        <ele>611.513</ele>
        <time>2013-08-03T05:12:55Z</time>
      </trkpt>
      <trkpt lat="45.73753" lon="6.30806">
        <ele>612.545</ele>
        <time>2013-08-03T05:13:01Z</time>
      </trkpt>
      <trkpt lat="45.73748" lon="6.30824">
        <ele>613.377</ele>
        <time>2013-08-03T05:13:04Z</time>
      </trkpt>
      <trkpt lat="45.73731" lon="6.30842">
        <ele>615.067</ele>
        <time>2013-08-03T05:13:09Z</time>
      </trkpt>
      <trkpt lat="45.73691" lon="6.30853">
        <ele>617.873</ele>
        <time>2013-08-03T05:13:18Z</time>
      </trkpt>
      <trkpt lat="45.73656" lon="6.30868">
        <ele>620.692</ele>
        <time>2013-08-03T05:13:27Z</time>
      </trkpt>
      <trkpt lat="45.73628" lon="6.3088">
        <ele>622.252</ele>
        <time>2013-08-03T05:13:35Z</time>
      </trkpt>
      <trkpt lat="45.73591" lon="6.30898">
        <ele>624.838</ele>
        <time>2013-08-03T05:13:46Z</time>
      </trkpt>
      <trkpt lat="45.73558" lon="6.30907">
        <ele>626.287</ele>
        <time>2013-08-03T05:13:55Z</time>
      </trkpt>
      <trkpt lat="45.73526" lon="6.30909">
        <ele>627.957</ele>
        <time>2013-08-03T05:14:03Z</time>
      </trkpt>
      <trkpt lat="45.73481" lon="6.30911">
        <ele>629.584</ele>
        <time>2013-08-03T05:14:14Z</time>
      </trkpt>
      <trkpt lat="45.73435" lon="6.30909">
        <ele>631.328</ele>
        <time>2013-08-03T05:14:25Z</time>
      </trkpt>
      <trkpt lat="45.7339" lon="6.30918">
        <ele>633.23</ele>
        <time>2013-08-03T05:14:36Z</time>
      </trkpt>
      <trkpt lat="45.73355" lon="6.30926">
        <ele>634.788</ele>
        <time>2013-08-03T05:14:45Z</time>
      </trkpt>
      <trkpt lat="45.73314" lon="6.30936">
        <ele>637.356</ele>
        <time>2013-08-03T05:14:56Z</time>
      </trkpt>
      <trkpt lat="45.73266" lon="6.30948">
        <ele>639.868</ele>
        <time>2013-08-03T05:15:09Z</time>
      </trkpt>
      <trkpt lat="45.73223" lon="6.30959">
        <ele>642.811</ele>
        <time>2013-08-03T05:15:21Z</time>
      </trkpt>
      <trkpt lat="45.73193" lon="6.30967">
        <ele>644.793</ele>
        <time>2013-08-03T05:15:30Z</time>
      </trkpt>
      <trkpt lat="45.73169" lon="6.30982">
        <ele>647.036</ele>
        <time>2013-08-03T05:15:38Z</time>
      </trkpt>
      <trkpt lat="45.73139" lon="6.31002">
        <ele>649.147</ele>
        <time>2013-08-03T05:15:48Z</time>
      </trkpt>
      <trkpt lat="45.73118" lon="6.31015">
        <ele>650.741</ele>
        <time>2013-08-03T05:15:55Z</time>
      </trkpt>
      <trkpt lat="45.7308" lon="6.31039">
        <ele>653.629</ele>
        <time>2013-08-03T05:16:07Z</time>
      </trkpt>
      <trkpt lat="45.73044" lon="6.31062">
        <ele>656.296</ele>
        <time>2013-08-03T05:16:19Z</time>
      </trkpt>
      <trkpt lat="45.73012" lon="6.31078">
        <ele>658.483</ele>
        <time>2013-08-03T05:16:29Z</time>
      </trkpt>
      <trkpt lat="45.72983" lon="6.31083">
        <ele>660.761</ele>
        <time>2013-08-03T05:16:38Z</time>
      </trkpt>
      <trkpt lat="45.7295" lon="6.31081">
        <ele>663.004</ele>
        <time>2013-08-03T05:16:48Z</time>
      </trkpt>
      <trkpt lat="45.72919" lon="6.31083">
        <ele>664.931</ele>
        <time>2013-08-03T05:16:57Z</time>
      </trkpt>
      <trkpt lat="45.72905" lon="6.31069">
        <ele>665.932</ele>
        <time>2013-08-03T05:17:02Z</time>
      </trkpt>
      <trkpt lat="45.72897" lon="6.31048">
        <ele>666.845</ele>
        <time>2013-08-03T05:17:07Z</time>
      </trkpt>
      <trkpt lat="45.72886" lon="6.31024">
        <ele>668.202</ele>
        <time>2013-08-03T05:17:13Z</time>
      </trkpt>
      <trkpt lat="45.72866" lon="6.31021">
        <ele>669.282</ele>
        <time>2013-08-03T05:17:19Z</time>
      </trkpt>
      <trkpt lat="45.72837" lon="6.31014">
        <ele>670.838</ele>
        <time>2013-08-03T05:17:27Z</time>
      </trkpt>
      <trkpt lat="45.72821" lon="6.30997">
        <ele>671.995</ele>
        <time>2013-08-03T05:17:33Z</time>
      </trkpt>
      <trkpt lat="45.72797" lon="6.30958">
        <ele>674.124</ele>
        <time>2013-08-03T05:17:43Z</time>
      </trkpt>
      <trkpt lat="45.72771" lon="6.3092">
        <ele>676.163</ele>
        <time>2013-08-03T05:17:54Z</time>
      </trkpt>
      <trkpt lat="45.72746" lon="6.30902">
        <ele>677.687</ele>
        <time>2013-08-03T05:18:02Z</time>
      </trkpt>
      <trkpt lat="45.72717" lon="6.30879">
        <ele>679.746</ele>
        <time>2013-08-03T05:18:11Z</time>
      </trkpt>
      <trkpt lat="45.72683" lon="6.30845">
        <ele>682.002</ele>
        <time>2013-08-03T05:18:22Z</time>
      </trkpt>
      <trkpt lat="45.72662" lon="6.30816">
        <ele>683.955</ele>
        <time>2013-08-03T05:18:30Z</time>
      </trkpt>
      <trkpt lat="45.72639" lon="6.3078">
        <ele>685.815</ele>
        <time>2013-08-03T05:18:39Z</time>
      </trkpt>
      <trkpt lat="45.72615" lon="6.30749">
        <ele>688.159</ele>
        <time>2013-08-03T05:18:48Z</time>
      </trkpt>
      <trkpt lat="45.72593" lon="6.30739">
        <ele>689.751</ele>
        <time>2013-08-03T05:18:55Z</time>
      </trkpt>
      <trkpt lat="45.72562" lon="6.30726">
        <ele>691.203</ele>
        <time>2013-08-03T05:19:04Z</time>
      </trkpt>
      <trkpt lat="45.72541" lon="6.30699">
        <ele>693.181</ele>
        <time>2013-08-03T05:19:12Z</time>
      </trkpt>
      <trkpt lat="45.72517" lon="6.30682">
        <ele>694.947</ele>
        <time>2013-08-03T05:19:20Z</time>
      </trkpt>
      <trkpt lat="45.72487" lon="6.30669">
        <ele>696.68</ele>
        <time>2013-08-03T05:19:29Z</time>
      </trkpt>
      <trkpt lat="45.72469" lon="6.30651">
        <ele>698.052</ele>
        <time>2013-08-03T05:19:35Z</time>
      </trkpt>
      <trkpt lat="45.72454" lon="6.30621">
        <ele>699.711</ele>
        <time>2013-08-03T05:19:42Z</time>
      </trkpt>
      <trkpt lat="45.72435" lon="6.30573">
        <ele>701.095</ele>
        <time>2013-08-03T05:19:52Z</time>
      </trkpt>
      <trkpt lat="45.72419" lon="6.30532">
        <ele>701.802</ele>
        <time>2013-08-03T05:20:00Z</time>
      </trkpt>
      <trkpt lat="45.72393" lon="6.30476">
        <ele>702.397</ele>
        <time>2013-08-03T05:20:10Z</time>
      </trkpt>
      <trkpt lat="45.72366" lon="6.30424">
        <ele>702.849</ele>
        <time>2013-08-03T05:20:19Z</time>
      </trkpt>
      <trkpt lat="45.72339" lon="6.30399">
        <ele>703.017</ele>
        <time>2013-08-03T05:20:25Z</time>
      </trkpt>
      <trkpt lat="45.72335" lon="6.30395">
        <ele>703.079</ele>
        <time>2013-08-03T05:20:26Z</time>
      </trkpt>
      <trkpt lat="45.72296" lon="6.30387">
        <ele>703.364</ele>
        <time>2013-08-03T05:20:33Z</time>
      </trkpt>
      <trkpt lat="45.72237" lon="6.30375">
        <ele>703.628</ele>
        <time>2013-08-03T05:20:43Z</time>
      </trkpt>
      <trkpt lat="45.72158" lon="6.30359">
        <ele>704.316</ele>
        <time>2013-08-03T05:20:56Z</time>
      </trkpt>
      <trkpt lat="45.72096" lon="6.30346">
        <ele>704.257</ele>
        <time>2013-08-03T05:21:06Z</time>
      </trkpt>
      <trkpt lat="45.72022" lon="6.30333">
        <ele>704.393</ele>
        <time>2013-08-03T05:21:18Z</time>
      </trkpt>
      <trkpt lat="45.71986" lon="6.30334">
        <ele>705.252</ele>
        <time>2013-08-03T05:21:24Z</time>
      </trkpt>
      <trkpt lat="45.71937" lon="6.30354">
        <ele>705.765</ele>
        <time>2013-08-03T05:21:33Z</time>
      </trkpt>
      <trkpt lat="45.71897" lon="6.30374">
        <ele>706.572</ele>
        <time>2013-08-03T05:21:41Z</time>
      </trkpt>
      <trkpt lat="45.71886" lon="6.30378">
        <ele>706.806</ele>
        <time>2013-08-03T05:21:43Z</time>
      </trkpt>
      <trkpt lat="45.7186" lon="6.30382">
        <ele>708.072</ele>
        <time>2013-08-03T05:21:48Z</time>
      </trkpt>
      <trkpt lat="45.7185" lon="6.30385">
        <ele>708.275</ele>
        <time>2013-08-03T05:21:50Z</time>
      </trkpt>
      <trkpt lat="45.71816" lon="6.30401">
        <ele>709.065</ele>
        <time>2013-08-03T05:21:57Z</time>
      </trkpt>
      <trkpt lat="45.71806" lon="6.30405">
        <ele>709.529</ele>
        <time>2013-08-03T05:21:59Z</time>
      </trkpt>
      <trkpt lat="45.71787" lon="6.30416">
        <ele>710.013</ele>
        <time>2013-08-03T05:22:03Z</time>
      </trkpt>
      <trkpt lat="45.71757" lon="6.30426">
        <ele>710.395</ele>
        <time>2013-08-03T05:22:09Z</time>
      </trkpt>
      <trkpt lat="45.71752" lon="6.30426">
        <ele>710.495</ele>
        <time>2013-08-03T05:22:10Z</time>
      </trkpt>
      <trkpt lat="45.7173" lon="6.30426">
        <ele>711.152</ele>
        <time>2013-08-03T05:22:14Z</time>
      </trkpt>
      <trkpt lat="45.71709" lon="6.30418">
        <ele>711.887</ele>
        <time>2013-08-03T05:22:18Z</time>
      </trkpt>
      <trkpt lat="45.71688" lon="6.30405">
        <ele>712.575</ele>
        <time>2013-08-03T05:22:22Z</time>
      </trkpt>
      <trkpt lat="45.71649" lon="6.30375">
        <ele>713.877</ele>
        <time>2013-08-03T05:22:30Z</time>
      </trkpt>
      <trkpt lat="45.71645" lon="6.30371">
        <ele>713.93</ele>
        <time>2013-08-03T05:22:31Z</time>
      </trkpt>
      <trkpt lat="45.71613" lon="6.30354">
        <ele>714.119</ele>
        <time>2013-08-03T05:22:37Z</time>
      </trkpt>
      <trkpt lat="45.71589" lon="6.3036">
        <ele>715.076</ele>
        <time>2013-08-03T05:22:42Z</time>
      </trkpt>
      <trkpt lat="45.71571" lon="6.30366">
        <ele>715.583</ele>
        <time>2013-08-03T05:22:46Z</time>
      </trkpt>
      <trkpt lat="45.71546" lon="6.30376">
        <ele>715.935</ele>
        <time>2013-08-03T05:22:51Z</time>
      </trkpt>
      <trkpt lat="45.71522" lon="6.30385">
        <ele>716.568</ele>
        <time>2013-08-03T05:22:56Z</time>
      </trkpt>
      <trkpt lat="45.71487" lon="6.30405">
        <ele>717.49</ele>
        <time>2013-08-03T05:23:03Z</time>
      </trkpt>
      <trkpt lat="45.71463" lon="6.30416">
        <ele>718.289</ele>
        <time>2013-08-03T05:23:08Z</time>
      </trkpt>
      <trkpt lat="45.71442" lon="6.30436">
        <ele>718.84</ele>
        <time>2013-08-03T05:23:13Z</time>
      </trkpt>
      <trkpt lat="45.71433" lon="6.30444">
        <ele>719.222</ele>
        <time>2013-08-03T05:23:15Z</time>
      </trkpt>
      <trkpt lat="45.71426" lon="6.3045">
        <ele>719.62</ele>
        <time>2013-08-03T05:23:17Z</time>
      </trkpt>
      <trkpt lat="45.71417" lon="6.30452">
        <ele>720.011</ele>
        <time>2013-08-03T05:23:19Z</time>
      </trkpt>
      <trkpt lat="45.71395" lon="6.30455">
        <ele>721.039</ele>
        <time>2013-08-03T05:23:24Z</time>
      </trkpt>
      <trkpt lat="45.71369" lon="6.30469">
        <ele>722.247</ele>
        <time>2013-08-03T05:23:31Z</time>
      </trkpt>
      <trkpt lat="45.71349" lon="6.30479">
        <ele>723.121</ele>
        <time>2013-08-03T05:23:36Z</time>
      </trkpt>
      <trkpt lat="45.7132" lon="6.3047">
        <ele>724.54</ele>
        <time>2013-08-03T05:23:43Z</time>
      </trkpt>
      <trkpt lat="45.71312" lon="6.30467">
        <ele>725.058</ele>
        <time>2013-08-03T05:23:45Z</time>
      </trkpt>
      <trkpt lat="45.71298" lon="6.30461">
        <ele>725.63</ele>
        <time>2013-08-03T05:23:48Z</time>
      </trkpt>
      <trkpt lat="45.71289" lon="6.30459">
        <ele>726.103</ele>
        <time>2013-08-03T05:23:50Z</time>
      </trkpt>
      <trkpt lat="45.71266" lon="6.30462">
        <ele>727.389</ele>
        <time>2013-08-03T05:23:56Z</time>
      </trkpt>
      <trkpt lat="45.71259" lon="6.30467">
        <ele>727.584</ele>
        <time>2013-08-03T05:23:58Z</time>
      </trkpt>
      <trkpt lat="45.71243" lon="6.30479">
        <ele>728.047</ele>
        <time>2013-08-03T05:24:02Z</time>
      </trkpt>
      <trkpt lat="45.71224" lon="6.30487">
        <ele>728.903</ele>
        <time>2013-08-03T05:24:06Z</time>
      </trkpt>
      <trkpt lat="45.71206" lon="6.30491">
        <ele>730.024</ele>
        <time>2013-08-03T05:24:10Z</time>
      </trkpt>
      <trkpt lat="45.71173" lon="6.30506">
        <ele>731.507</ele>
        <time>2013-08-03T05:24:17Z</time>
      </trkpt>
      <trkpt lat="45.71169" lon="6.30507">
        <ele>731.602</ele>
        <time>2013-08-03T05:24:18Z</time>
      </trkpt>
      <trkpt lat="45.71137" lon="6.30512">
        <ele>732.979</ele>
        <time>2013-08-03T05:24:25Z</time>
      </trkpt>
      <trkpt lat="45.71104" lon="6.30512">
        <ele>734.078</ele>
        <time>2013-08-03T05:24:32Z</time>
      </trkpt>
      <trkpt lat="45.71061" lon="6.30517">
        <ele>735.844</ele>
        <time>2013-08-03T05:24:41Z</time>
      </trkpt>
      <trkpt lat="45.71019" lon="6.30521">
        <ele>737.006</ele>
        <time>2013-08-03T05:24:50Z</time>
      </trkpt>
      <trkpt lat="45.71" lon="6.30527">
        <ele>737.564</ele>
        <time>2013-08-03T05:24:54Z</time>
      </trkpt>
      <trkpt lat="45.70957" lon="6.30558">
        <ele>738.438</ele>
        <time>2013-08-03T05:25:04Z</time>
      </trkpt>
      <trkpt lat="45.70926" lon="6.30584">
        <ele>738.853</ele>
        <time>2013-08-03T05:25:11Z</time>
      </trkpt>
      <trkpt lat="45.70921" lon="6.30587">
        <ele>738.945</ele>
        <time>2013-08-03T05:25:12Z</time>
      </trkpt>
      <trkpt lat="45.70908" lon="6.30594">
        <ele>739.52</ele>
        <time>2013-08-03T05:25:15Z</time>
      </trkpt>
      <trkpt lat="45.70867" lon="6.30606">
        <ele>741.107</ele>
        <time>2013-08-03T05:25:24Z</time>
      </trkpt>
      <trkpt lat="45.70831" lon="6.30613">
        <ele>742.633</ele>
        <time>2013-08-03T05:25:32Z</time>
      </trkpt>
      <trkpt lat="45.708" lon="6.3062">
        <ele>743.929</ele>
        <time>2013-08-03T05:25:39Z</time>
      </trkpt>
      <trkpt lat="45.70765" lon="6.30633">
        <ele>745.025</ele>
        <time>2013-08-03T05:25:47Z</time>
      </trkpt>
      <trkpt lat="45.70757" lon="6.30639">
        <ele>745.403</ele>
        <time>2013-08-03T05:25:49Z</time>
      </trkpt>
      <trkpt lat="45.70724" lon="6.30672">
        <ele>747.09</ele>
        <time>2013-08-03T05:25:58Z</time>
      </trkpt>
      <trkpt lat="45.70686" lon="6.30708">
        <ele>748.861</ele>
        <time>2013-08-03T05:26:08Z</time>
      </trkpt>
      <trkpt lat="45.70664" lon="6.30722">
        <ele>750.12</ele>
        <time>2013-08-03T05:26:13Z</time>
      </trkpt>
      <trkpt lat="45.70625" lon="6.30743">
        <ele>751.553</ele>
        <time>2013-08-03T05:26:22Z</time>
      </trkpt>
      <trkpt lat="45.70593" lon="6.30762">
        <ele>752.039</ele>
        <time>2013-08-03T05:26:29Z</time>
      </trkpt>
      <trkpt lat="45.70546" lon="6.30789">
        <ele>753.271</ele>
        <time>2013-08-03T05:26:39Z</time>
      </trkpt>
      <trkpt lat="45.70499" lon="6.30815">
        <ele>754.314</ele>
        <time>2013-08-03T05:26:49Z</time>
      </trkpt>
      <trkpt lat="45.7046" lon="6.30828">
        <ele>755.727</ele>
        <time>2013-08-03T05:26:57Z</time>
      </trkpt>
      <trkpt lat="45.70419" lon="6.30821">
        <ele>756.502</ele>
        <time>2013-08-03T05:27:05Z</time>
      </trkpt>
      <trkpt lat="45.7038" lon="6.30802">
        <ele>757.869</ele>
        <time>2013-08-03T05:27:13Z</time>
      </trkpt>
      <trkpt lat="45.7037" lon="6.30802">
        <ele>758.23</ele>
        <time>2013-08-03T05:27:15Z</time>
      </trkpt>
      <trkpt lat="45.70338" lon="6.3081">
        <ele>759.808</ele>
        <time>2013-08-03T05:27:22Z</time>
      </trkpt>
      <trkpt lat="45.70297" lon="6.30827">
        <ele>761.215</ele>
        <time>2013-08-03T05:27:31Z</time>
      </trkpt>
      <trkpt lat="45.70252" lon="6.30846">
        <ele>763.424</ele>
        <time>2013-08-03T05:27:41Z</time>
      </trkpt>
      <trkpt lat="45.70208" lon="6.30864">
        <ele>765.055</ele>
        <time>2013-08-03T05:27:51Z</time>
      </trkpt>
      <trkpt lat="45.70164" lon="6.30883">
        <ele>766.843</ele>
        <time>2013-08-03T05:28:01Z</time>
      </trkpt>
      <trkpt lat="45.70115" lon="6.30903">
        <ele>769.098</ele>
        <time>2013-08-03T05:28:12Z</time>
      </trkpt>
      <trkpt lat="45.70075" lon="6.30918">
        <ele>770.368</ele>
        <time>2013-08-03T05:28:21Z</time>
      </trkpt>
      <trkpt lat="45.70038" lon="6.30914">
        <ele>771.473</ele>
        <time>2013-08-03T05:28:29Z</time>
      </trkpt>
      <trkpt lat="45.69999" lon="6.30906">
        <ele>773.298</ele>
        <time>2013-08-03T05:28:38Z</time>
      </trkpt>
      <trkpt lat="45.69967" lon="6.30899">
        <ele>775.132</ele>
        <time>2013-08-03T05:28:45Z</time>
      </trkpt>
      <trkpt lat="45.69936" lon="6.30893">
        <ele>776.378</ele>
        <time>2013-08-03T05:28:52Z</time>
      </trkpt>
      <trkpt lat="45.69897" lon="6.30884">
        <ele>778.414</ele>
        <time>2013-08-03T05:29:01Z</time>
      </trkpt>
      <trkpt lat="45.69862" lon="6.30877">
        <ele>780.076</ele>
        <time>2013-08-03T05:29:09Z</time>
      </trkpt>
      <trkpt lat="45.69816" lon="6.30867">
        <ele>782.359</ele>
        <time>2013-08-03T05:29:20Z</time>
      </trkpt>
      <trkpt lat="45.69775" lon="6.30858">
        <ele>784.557</ele>
        <time>2013-08-03T05:29:30Z</time>
      </trkpt>
      <trkpt lat="45.69735" lon="6.30849">
        <ele>786.879</ele>
        <time>2013-08-03T05:29:40Z</time>
      </trkpt>
      <trkpt lat="45.69708" lon="6.30841">
        <ele>788.033</ele>
        <time>2013-08-03T05:29:47Z</time>
      </trkpt>
      <trkpt lat="45.69673" lon="6.30826">
        <ele>789.672</ele>
        <time>2013-08-03T05:29:56Z</time>
      </trkpt>
      <trkpt lat="45.69651" lon="6.30815">
        <ele>791.323</ele>
        <time>2013-08-03T05:30:02Z</time>
      </trkpt>
      <trkpt lat="45.69615" lon="6.30798">
        <ele>793.321</ele>
        <time>2013-08-03T05:30:12Z</time>
      </trkpt>
      <trkpt lat="45.69582" lon="6.30783">
        <ele>795.057</ele>
        <time>2013-08-03T05:30:21Z</time>
      </trkpt>
      <trkpt lat="45.69563" lon="6.30776">
        <ele>795.911</ele>
        <time>2013-08-03T05:30:26Z</time>
      </trkpt>
      <trkpt lat="45.69526" lon="6.30769">
        <ele>797.824</ele>
        <time>2013-08-03T05:30:35Z</time>
      </trkpt>
      <trkpt lat="45.69505" lon="6.30766">
        <ele>798.872</ele>
        <time>2013-08-03T05:30:40Z</time>
      </trkpt>
      <trkpt lat="45.6946" lon="6.30756">
        <ele>800.98</ele>
        <time>2013-08-03T05:30:51Z</time>
      </trkpt>
      <trkpt lat="45.69428" lon="6.30757">
        <ele>802.376</ele>
        <time>2013-08-03T05:30:59Z</time>
      </trkpt>
      <trkpt lat="45.69396" lon="6.30764">
        <ele>804.132</ele>
        <time>2013-08-03T05:31:07Z</time>
      </trkpt>
      <trkpt lat="45.69363" lon="6.3077">
        <ele>805.503</ele>
        <time>2013-08-03T05:31:15Z</time>
      </trkpt>
      <trkpt lat="45.69331" lon="6.30775">
        <ele>806.969</ele>
        <time>2013-08-03T05:31:23Z</time>
      </trkpt>
      <trkpt lat="45.69311" lon="6.30783">
        <ele>808.574</ele>
        <time>2013-08-03T05:31:31Z</time>
      </trkpt>
      <trkpt lat="45.69263" lon="6.30794">
        <ele>810.701</ele>
        <time>2013-08-03T05:31:40Z</time>
      </trkpt>
      <trkpt lat="45.69231" lon="6.30802">
        <ele>812.354</ele>
        <time>2013-08-03T05:31:48Z</time>
      </trkpt>
      <trkpt lat="45.69198" lon="6.30809">
        <ele>813.635</ele>
        <time>2013-08-03T05:31:56Z</time>
      </trkpt>
      <trkpt lat="45.69152" lon="6.30821">
        <ele>815.537</ele>
        <time>2013-08-03T05:32:07Z</time>
      </trkpt>
      <trkpt lat="45.69131" lon="6.30826">
        <ele>816.538</ele>
        <time>2013-08-03T05:32:12Z</time>
      </trkpt>
      <trkpt lat="45.69126" lon="6.30827">
        <ele>816.781</ele>
        <time>2013-08-03T05:32:13Z</time>
      </trkpt>
      <trkpt lat="45.69078" lon="6.30841">
        <ele>818.637</ele>
        <time>2013-08-03T05:32:24Z</time>
      </trkpt>
      <trkpt lat="45.69049" lon="6.30856">
        <ele>819.802</ele>
        <time>2013-08-03T05:32:31Z</time>
      </trkpt>
      <trkpt lat="45.69045" lon="6.30858">
        <ele>820.018</ele>
        <time>2013-08-03T05:32:32Z</time>
      </trkpt>
      <trkpt lat="45.69015" lon="6.30874">
        <ele>820.973</ele>
        <time>2013-08-03T05:32:39Z</time>
      </trkpt>
      <trkpt lat="45.68977" lon="6.30893">
        <ele>822.416</ele>
        <time>2013-08-03T05:32:48Z</time>
      </trkpt>
      <trkpt lat="45.68945" lon="6.30908">
        <ele>823.851</ele>
        <time>2013-08-03T05:32:56Z</time>
      </trkpt>
      <trkpt lat="45.68912" lon="6.30924">
        <ele>825.345</ele>
        <time>2013-08-03T05:33:04Z</time>
      </trkpt>
      <trkpt lat="45.6888" lon="6.30936">
        <ele>826.334</ele>
        <time>2013-08-03T05:33:11Z</time>
      </trkpt>
      <trkpt lat="45.68846" lon="6.30948">
        <ele>826.828</ele>
        <time>2013-08-03T05:33:18Z</time>
      </trkpt>
      <trkpt lat="45.68791" lon="6.30961">
        <ele>827.074</ele>
        <time>2013-08-03T05:33:28Z</time>
      </trkpt>
      <trkpt lat="45.68746" lon="6.30959">
        <ele>827.405</ele>
        <time>2013-08-03T05:33:36Z</time>
      </trkpt>
      <trkpt lat="45.68689" lon="6.30954">
        <ele>827.937</ele>
        <time>2013-08-03T05:33:46Z</time>
      </trkpt>
      <trkpt lat="45.68654" lon="6.30949">
        <ele>828.502</ele>
        <time>2013-08-03T05:33:52Z</time>
      </trkpt>
      <trkpt lat="45.68597" lon="6.30932">
        <ele>829.354</ele>
        <time>2013-08-03T05:34:02Z</time>
      </trkpt>
      <trkpt lat="45.68543" lon="6.30906">
        <ele>830.296</ele>
        <time>2013-08-03T05:34:12Z</time>
      </trkpt>
      <trkpt lat="45.68502" lon="6.30886">
        <ele>831.908</ele>
        <time>2013-08-03T05:34:20Z</time>
      </trkpt>
      <trkpt lat="45.68455" lon="6.30865">
        <ele>833.5</ele>
        <time>2013-08-03T05:34:29Z</time>
      </trkpt>
      <trkpt lat="45.68414" lon="6.30847">
        <ele>834.797</ele>
        <time>2013-08-03T05:34:37Z</time>
      </trkpt>
      <trkpt lat="45.68374" lon="6.30834">
        <ele>836.397</ele>
        <time>2013-08-03T05:34:45Z</time>
      </trkpt>
      <trkpt lat="45.68351" lon="6.30836">
        <ele>838.049</ele>
        <time>2013-08-03T05:34:51Z</time>
      </trkpt>
      <trkpt lat="45.68333" lon="6.30839">
        <ele>839.389</ele>
        <time>2013-08-03T05:34:56Z</time>
      </trkpt>
      <trkpt lat="45.68295" lon="6.30847">
        <ele>841.569</ele>
        <time>2013-08-03T05:35:06Z</time>
      </trkpt>
      <trkpt lat="45.68265" lon="6.30855">
        <ele>844.316</ele>
        <time>2013-08-03T05:35:15Z</time>
      </trkpt>
      <trkpt lat="45.68249" lon="6.30864">
        <ele>845.766</ele>
        <time>2013-08-03T05:35:21Z</time>
      </trkpt>
      <trkpt lat="45.6823" lon="6.30886">
        <ele>847.561</ele>
        <time>2013-08-03T05:35:28Z</time>
      </trkpt>
      <trkpt lat="45.68218" lon="6.30902">
        <ele>848.901</ele>
        <time>2013-08-03T05:35:33Z</time>
      </trkpt>
      <trkpt lat="45.68203" lon="6.30922">
        <ele>850.452</ele>
        <time>2013-08-03T05:35:39Z</time>
      </trkpt>
      <trkpt lat="45.68187" lon="6.30938">
        <ele>851.971</ele>
        <time>2013-08-03T05:35:45Z</time>
      </trkpt>
      <trkpt lat="45.68172" lon="6.30945">
        <ele>853.307</ele>
        <time>2013-08-03T05:35:50Z</time>
      </trkpt>
      <trkpt lat="45.68153" lon="6.30948">
        <ele>854.802</ele>
        <time>2013-08-03T05:35:56Z</time>
      </trkpt>
      <trkpt lat="45.68137" lon="6.30946">
        <ele>856.22</ele>
        <time>2013-08-03T05:36:01Z</time>
      </trkpt>
      <trkpt lat="45.68117" lon="6.3094">
        <ele>857.525</ele>
        <time>2013-08-03T05:36:07Z</time>
      </trkpt>
      <trkpt lat="45.68092" lon="6.30932">
        <ele>858.944</ele>
        <time>2013-08-03T05:36:14Z</time>
      </trkpt>
      <trkpt lat="45.68054" lon="6.30918">
        <ele>861.315</ele>
        <time>2013-08-03T05:36:25Z</time>
      </trkpt>
      <trkpt lat="45.68018" lon="6.30902">
        <ele>863.424</ele>
        <time>2013-08-03T05:36:36Z</time>
      </trkpt>
      <trkpt lat="45.67977" lon="6.30884">
        <ele>866.078</ele>
        <time>2013-08-03T05:36:48Z</time>
      </trkpt>
      <trkpt lat="45.67933" lon="6.30862">
        <ele>868.513</ele>
        <time>2013-08-03T05:37:01Z</time>
      </trkpt>
      <trkpt lat="45.67893" lon="6.30839">
        <ele>870.397</ele>
        <time>2013-08-03T05:37:13Z</time>
      </trkpt>
      <trkpt lat="45.67866" lon="6.30825">
        <ele>871.695</ele>
        <time>2013-08-03T05:37:21Z</time>
      </trkpt>
      <trkpt lat="45.67859" lon="6.30823">
        <ele>872.025</ele>
        <time>2013-08-03T05:37:23Z</time>
      </trkpt>
      <trkpt lat="45.67852" lon="6.3082">
        <ele>872.383</ele>
        <time>2013-08-03T05:37:25Z</time>
      </trkpt>
      <trkpt lat="45.6782" lon="6.3082">
        <ele>874.376</ele>
        <time>2013-08-03T05:37:33Z</time>
      </trkpt>
      <trkpt lat="45.67791" lon="6.30829">
        <ele>875.712</ele>
        <time>2013-08-03T05:37:40Z</time>
      </trkpt>
      <trkpt lat="45.67759" lon="6.30839">
        <ele>877.245</ele>
        <time>2013-08-03T05:37:49Z</time>
      </trkpt>
      <trkpt lat="45.67732" lon="6.30847">
        <ele>879.07</ele>
        <time>2013-08-03T05:37:57Z</time>
      </trkpt>
      <trkpt lat="45.67707" lon="6.30854">
        <ele>880.866</ele>
        <time>2013-08-03T05:38:05Z</time>
      </trkpt>
      <trkpt lat="45.67682" lon="6.30859">
        <ele>882.434</ele>
        <time>2013-08-03T05:38:13Z</time>
      </trkpt>
      <trkpt lat="45.67664" lon="6.30863">
        <ele>883.737</ele>
        <time>2013-08-03T05:38:19Z</time>
      </trkpt>
      <trkpt lat="45.67643" lon="6.30867">
        <ele>885.074</ele>
        <time>2013-08-03T05:38:25Z</time>
      </trkpt>
      <trkpt lat="45.67619" lon="6.30872">
        <ele>886.541</ele>
        <time>2013-08-03T05:38:32Z</time>
      </trkpt>
      <trkpt lat="45.67587" lon="6.30877">
        <ele>888.703</ele>
        <time>2013-08-03T05:38:41Z</time>
      </trkpt>
      <trkpt lat="45.67549" lon="6.30879">
        <ele>890.388</ele>
        <time>2013-08-03T05:38:52Z</time>
      </trkpt>
      <trkpt lat="45.67511" lon="6.30877">
        <ele>892.363</ele>
        <time>2013-08-03T05:39:03Z</time>
      </trkpt>
      <trkpt lat="45.6748" lon="6.30873">
        <ele>894.361</ele>
        <time>2013-08-03T05:39:12Z</time>
      </trkpt>
      <trkpt lat="45.67434" lon="6.30866">
        <ele>896.246</ele>
        <time>2013-08-03T05:39:25Z</time>
      </trkpt>
      <trkpt lat="45.67402" lon="6.30858">
        <ele>897.691</ele>
        <time>2013-08-03T05:39:34Z</time>
      </trkpt>
      <trkpt lat="45.67398" lon="6.30858">
        <ele>897.763</ele>
        <time>2013-08-03T05:39:35Z</time>
      </trkpt>
      <trkpt lat="45.67352" lon="6.3085">
        <ele>899.422</ele>
        <time>2013-08-03T05:39:46Z</time>
      </trkpt>
      <trkpt lat="45.67318" lon="6.30853">
        <ele>900.838</ele>
        <time>2013-08-03T05:39:54Z</time>
      </trkpt>
      <trkpt lat="45.67289" lon="6.30857">
        <ele>901.743</ele>
        <time>2013-08-03T05:40:01Z</time>
      </trkpt>
      <trkpt lat="45.67258" lon="6.30867">
        <ele>902.021</ele>
        <time>2013-08-03T05:40:08Z</time>
      </trkpt>
      <trkpt lat="45.67209" lon="6.30877">
        <ele>902.386</ele>
        <time>2013-08-03T05:40:18Z</time>
      </trkpt>
      <trkpt lat="45.67173" lon="6.30884">
        <ele>902.177</ele>
        <time>2013-08-03T05:40:25Z</time>
      </trkpt>
      <trkpt lat="45.67168" lon="6.30884">
        <ele>902.223</ele>
        <time>2013-08-03T05:40:26Z</time>
      </trkpt>
      <trkpt lat="45.67146" lon="6.3088">
        <ele>902.238</ele>
        <time>2013-08-03T05:40:30Z</time>
      </trkpt>
      <trkpt lat="45.67095" lon="6.30857">
        <ele>902.093</ele>
        <time>2013-08-03T05:40:39Z</time>
      </trkpt>
      <trkpt lat="45.67066" lon="6.30841">
        <ele>901.956</ele>
        <time>2013-08-03T05:40:45Z</time>
      </trkpt>
      <trkpt lat="45.67066" lon="6.30841">
        <ele>901.712</ele>
        <time>2013-08-03T05:40:47Z</time>
      </trkpt>
      <trkpt lat="45.67066" lon="6.30841">
        <ele>901.527</ele>
        <time>2013-08-03T05:41:13Z</time>
      </trkpt>
      <trkpt lat="45.67062" lon="6.30838">
        <ele>901.253</ele>
        <time>2013-08-03T05:43:46Z</time>
      </trkpt>
      <trkpt lat="45.67056" lon="6.30835">
        <ele>901.589</ele>
        <time>2013-08-03T05:44:28Z</time>
      </trkpt>
      <trkpt lat="45.67045" lon="6.30825">
        <ele>901.457</ele>
        <time>2013-08-03T05:44:36Z</time>
      </trkpt>
      <trkpt lat="45.67037" lon="6.30816">
        <ele>901.641</ele>
        <time>2013-08-03T05:44:41Z</time>
      </trkpt>
      <trkpt lat="45.67027" lon="6.30797">
        <ele>902.216</ele>
        <time>2013-08-03T05:44:49Z</time>
      </trkpt>
      <trkpt lat="45.67019" lon="6.30773">
        <ele>901.43</ele>
        <time>2013-08-03T05:44:55Z</time>
      </trkpt>
      <trkpt lat="45.67004" lon="6.3074">
        <ele>900.344</ele>
        <time>2013-08-03T05:45:01Z</time>
      </trkpt>
      <trkpt lat="45.66979" lon="6.30715">
        <ele>899.267</ele>
        <time>2013-08-03T05:45:06Z</time>
      </trkpt>
      <trkpt lat="45.66973" lon="6.30711">
        <ele>899.132</ele>
        <time>2013-08-03T05:45:07Z</time>
      </trkpt>
      <trkpt lat="45.6696" lon="6.30703">
        <ele>898.741</ele>
        <time>2013-08-03T05:45:09Z</time>
      </trkpt>
      <trkpt lat="45.66936" lon="6.30673">
        <ele>898.176</ele>
        <time>2013-08-03T05:45:13Z</time>
      </trkpt>
      <trkpt lat="45.66933" lon="6.30661">
        <ele>898.161</ele>
        <time>2013-08-03T05:45:14Z</time>
      </trkpt>
      <trkpt lat="45.66926" lon="6.30637">
        <ele>897.576</ele>
        <time>2013-08-03T05:45:16Z</time>
      </trkpt>
      <trkpt lat="45.66908" lon="6.3061">
        <ele>895.283</ele>
        <time>2013-08-03T05:45:19Z</time>
      </trkpt>
      <trkpt lat="45.66899" lon="6.30616">
        <ele>893.973</ele>
        <time>2013-08-03T05:45:21Z</time>
      </trkpt>
      <trkpt lat="45.66896" lon="6.30627">
        <ele>893.199</ele>
        <time>2013-08-03T05:45:22Z</time>
      </trkpt>
      <trkpt lat="45.66885" lon="6.30694">
        <ele>889.84</ele>
        <time>2013-08-03T05:45:27Z</time>
      </trkpt>
      <trkpt lat="45.66873" lon="6.30775">
        <ele>886.392</ele>
        <time>2013-08-03T05:45:32Z</time>
      </trkpt>
      <trkpt lat="45.66871" lon="6.3079">
        <ele>885.39</ele>
        <time>2013-08-03T05:45:33Z</time>
      </trkpt>
      <trkpt lat="45.66863" lon="6.30859">
        <ele>883.162</ele>
        <time>2013-08-03T05:45:37Z</time>
      </trkpt>
      <trkpt lat="45.66855" lon="6.30906">
        <ele>879.44</ele>
        <time>2013-08-03T05:45:41Z</time>
      </trkpt>
      <trkpt lat="45.66846" lon="6.30925">
        <ele>877.528</ele>
        <time>2013-08-03T05:45:43Z</time>
      </trkpt>
      <trkpt lat="45.66825" lon="6.30917">
        <ele>875.35</ele>
        <time>2013-08-03T05:45:46Z</time>
      </trkpt>
      <trkpt lat="45.66822" lon="6.30884">
        <ele>873.744</ele>
        <time>2013-08-03T05:45:49Z</time>
      </trkpt>
      <trkpt lat="45.66821" lon="6.30868">
        <ele>873.173</ele>
        <time>2013-08-03T05:45:50Z</time>
      </trkpt>
      <trkpt lat="45.6682" lon="6.30833">
        <ele>872.5</ele>
        <time>2013-08-03T05:45:52Z</time>
      </trkpt>
      <trkpt lat="45.66812" lon="6.30785">
        <ele>870.945</ele>
        <time>2013-08-03T05:45:55Z</time>
      </trkpt>
      <trkpt lat="45.66813" lon="6.30723">
        <ele>868.19</ele>
        <time>2013-08-03T05:45:59Z</time>
      </trkpt>
      <trkpt lat="45.66824" lon="6.3063">
        <ele>864.998</ele>
        <time>2013-08-03T05:46:04Z</time>
      </trkpt>
      <trkpt lat="45.66842" lon="6.30559">
        <ele>861.48</ele>
        <time>2013-08-03T05:46:08Z</time>
      </trkpt>
      <trkpt lat="45.66849" lon="6.30481">
        <ele>857.744</ele>
        <time>2013-08-03T05:46:12Z</time>
      </trkpt>
      <trkpt lat="45.66851" lon="6.304">
        <ele>853.743</ele>
        <time>2013-08-03T05:46:16Z</time>
      </trkpt>
      <trkpt lat="45.66838" lon="6.30305">
        <ele>846.831</ele>
        <time>2013-08-03T05:46:21Z</time>
      </trkpt>
      <trkpt lat="45.66837" lon="6.30286">
        <ele>846.078</ele>
        <time>2013-08-03T05:46:22Z</time>
      </trkpt>
      <trkpt lat="45.66837" lon="6.30223">
        <ele>840.631</ele>
        <time>2013-08-03T05:46:26Z</time>
      </trkpt>
      <trkpt lat="45.66839" lon="6.30191">
        <ele>838.719</ele>
        <time>2013-08-03T05:46:28Z</time>
      </trkpt>
      <trkpt lat="45.6682" lon="6.30153">
        <ele>836.122</ele>
        <time>2013-08-03T05:46:32Z</time>
      </trkpt>
      <trkpt lat="45.66813" lon="6.30141">
        <ele>835.349</ele>
        <time>2013-08-03T05:46:33Z</time>
      </trkpt>
      <trkpt lat="45.66779" lon="6.30075">
        <ele>832.002</ele>
        <time>2013-08-03T05:46:38Z</time>
      </trkpt>
      <trkpt lat="45.66753" lon="6.29994">
        <ele>827.495</ele>
        <time>2013-08-03T05:46:43Z</time>
      </trkpt>
      <trkpt lat="45.66747" lon="6.29978">
        <ele>826.616</ele>
        <time>2013-08-03T05:46:44Z</time>
      </trkpt>
      <trkpt lat="45.66708" lon="6.29907">
        <ele>822.785</ele>
        <time>2013-08-03T05:46:49Z</time>
      </trkpt>
      <trkpt lat="45.66677" lon="6.29873">
        <ele>820.359</ele>
        <time>2013-08-03T05:46:52Z</time>
      </trkpt>
      <trkpt lat="45.66651" lon="6.29827">
        <ele>817.91</ele>
        <time>2013-08-03T05:46:55Z</time>
      </trkpt>
      <trkpt lat="45.66637" lon="6.29796">
        <ele>815.559</ele>
        <time>2013-08-03T05:46:57Z</time>
      </trkpt>
      <trkpt lat="45.66614" lon="6.29791">
        <ele>813.137</ele>
        <time>2013-08-03T05:46:59Z</time>
      </trkpt>
      <trkpt lat="45.66577" lon="6.29802">
        <ele>810.625</ele>
        <time>2013-08-03T05:47:02Z</time>
      </trkpt>
      <trkpt lat="45.66549" lon="6.29839">
        <ele>806.985</ele>
        <time>2013-08-03T05:47:05Z</time>
      </trkpt>
      <trkpt lat="45.66539" lon="6.29871">
        <ele>804.817</ele>
        <time>2013-08-03T05:47:07Z</time>
      </trkpt>
      <trkpt lat="45.66515" lon="6.29891">
        <ele>801.661</ele>
        <time>2013-08-03T05:47:10Z</time>
      </trkpt>
      <trkpt lat="45.66518" lon="6.2991">
        <ele>800.27</ele>
        <time>2013-08-03T05:47:12Z</time>
      </trkpt>
      <trkpt lat="45.66525" lon="6.29914">
        <ele>799.837</ele>
        <time>2013-08-03T05:47:13Z</time>
      </trkpt>
      <trkpt lat="45.6656" lon="6.29914">
        <ele>798.693</ele>
        <time>2013-08-03T05:47:17Z</time>
      </trkpt>
      <trkpt lat="45.66578" lon="6.29929">
        <ele>797.945</ele>
        <time>2013-08-03T05:47:19Z</time>
      </trkpt>
      <trkpt lat="45.66588" lon="6.29975">
        <ele>796.049</ele>
        <time>2013-08-03T05:47:22Z</time>
      </trkpt>
      <trkpt lat="45.66586" lon="6.30009">
        <ele>794.594</ele>
        <time>2013-08-03T05:47:24Z</time>
      </trkpt>
      <trkpt lat="45.66592" lon="6.30055">
        <ele>792.57</ele>
        <time>2013-08-03T05:47:27Z</time>
      </trkpt>
      <trkpt lat="45.66608" lon="6.30103">
        <ele>790.052</ele>
        <time>2013-08-03T05:47:30Z</time>
      </trkpt>
      <trkpt lat="45.66619" lon="6.30131">
        <ele>788.844</ele>
        <time>2013-08-03T05:47:32Z</time>
      </trkpt>
      <trkpt lat="45.6663" lon="6.30137">
        <ele>788.041</ele>
        <time>2013-08-03T05:47:33Z</time>
      </trkpt>
      <trkpt lat="45.66676" lon="6.30166">
        <ele>782.64</ele>
        <time>2013-08-03T05:47:38Z</time>
      </trkpt>
      <trkpt lat="45.66676" lon="6.30187">
        <ele>781.431</ele>
        <time>2013-08-03T05:47:40Z</time>
      </trkpt>
      <trkpt lat="45.66654" lon="6.30194">
        <ele>780.093</ele>
        <time>2013-08-03T05:47:42Z</time>
      </trkpt>
      <trkpt lat="45.66607" lon="6.30173">
        <ele>777.394</ele>
        <time>2013-08-03T05:47:47Z</time>
      </trkpt>
      <trkpt lat="45.66571" lon="6.30171">
        <ele>774.786</ele>
        <time>2013-08-03T05:47:50Z</time>
      </trkpt>
      <trkpt lat="45.66527" lon="6.30154">
        <ele>770.545</ele>
        <time>2013-08-03T05:47:54Z</time>
      </trkpt>
      <trkpt lat="45.66482" lon="6.30141">
        <ele>768.09</ele>
        <time>2013-08-03T05:47:58Z</time>
      </trkpt>
      <trkpt lat="45.6647" lon="6.30141">
        <ele>767.341</ele>
        <time>2013-08-03T05:47:59Z</time>
      </trkpt>
      <trkpt lat="45.66435" lon="6.30127">
        <ele>763.904</ele>
        <time>2013-08-03T05:48:02Z</time>
      </trkpt>
      <trkpt lat="45.66408" lon="6.30099">
        <ele>760.586</ele>
        <time>2013-08-03T05:48:05Z</time>
      </trkpt>
      <trkpt lat="45.66394" lon="6.30105">
        <ele>758.778</ele>
        <time>2013-08-03T05:48:07Z</time>
      </trkpt>
      <trkpt lat="45.66388" lon="6.3013">
        <ele>757.362</ele>
        <time>2013-08-03T05:48:09Z</time>
      </trkpt>
      <trkpt lat="45.66388" lon="6.3021">
        <ele>754.137</ele>
        <time>2013-08-03T05:48:14Z</time>
      </trkpt>
      <trkpt lat="45.66397" lon="6.30307">
        <ele>748.753</ele>
        <time>2013-08-03T05:48:20Z</time>
      </trkpt>
      <trkpt lat="45.66383" lon="6.30353">
        <ele>745.558</ele>
        <time>2013-08-03T05:48:24Z</time>
      </trkpt>
      <trkpt lat="45.66361" lon="6.30345">
        <ele>744.458</ele>
        <time>2013-08-03T05:48:26Z</time>
      </trkpt>
      <trkpt lat="45.66354" lon="6.30335">
        <ele>743.997</ele>
        <time>2013-08-03T05:48:27Z</time>
      </trkpt>
      <trkpt lat="45.66318" lon="6.30253">
        <ele>740.888</ele>
        <time>2013-08-03T05:48:33Z</time>
      </trkpt>
      <trkpt lat="45.66296" lon="6.3022">
        <ele>738.714</ele>
        <time>2013-08-03T05:48:36Z</time>
      </trkpt>
      <trkpt lat="45.6628" lon="6.30219">
        <ele>736.294</ele>
        <time>2013-08-03T05:48:38Z</time>
      </trkpt>
      <trkpt lat="45.66264" lon="6.30234">
        <ele>734.248</ele>
        <time>2013-08-03T05:48:40Z</time>
      </trkpt>
      <trkpt lat="45.66253" lon="6.30274">
        <ele>733.098</ele>
        <time>2013-08-03T05:48:42Z</time>
      </trkpt>
      <trkpt lat="45.66304" lon="6.30357">
        <ele>728.451</ele>
        <time>2013-08-03T05:48:48Z</time>
      </trkpt>
      <trkpt lat="45.66337" lon="6.30439">
        <ele>723.534</ele>
        <time>2013-08-03T05:48:53Z</time>
      </trkpt>
      <trkpt lat="45.66366" lon="6.30488">
        <ele>719.065</ele>
        <time>2013-08-03T05:48:57Z</time>
      </trkpt>
      <trkpt lat="45.66375" lon="6.30493">
        <ele>718.128</ele>
        <time>2013-08-03T05:48:58Z</time>
      </trkpt>
      <trkpt lat="45.66385" lon="6.30521">
        <ele>714.521</ele>
        <time>2013-08-03T05:49:02Z</time>
      </trkpt>
      <trkpt lat="45.66334" lon="6.30568">
        <ele>713.31</ele>
        <time>2013-08-03T05:49:04Z</time>
      </trkpt>
      <trkpt lat="45.66276" lon="6.30452">
        <ele>712.593</ele>
        <time>2013-08-03T05:49:06Z</time>
      </trkpt>
      <trkpt lat="45.6632" lon="6.30491">
        <ele>711.121</ele>
        <time>2013-08-03T05:49:09Z</time>
      </trkpt>
      <trkpt lat="45.663" lon="6.30456">
        <ele>708.683</ele>
        <time>2013-08-03T05:49:12Z</time>
      </trkpt>
      <trkpt lat="45.66285" lon="6.30447">
        <ele>707.297</ele>
        <time>2013-08-03T05:49:14Z</time>
      </trkpt>
      <trkpt lat="45.66277" lon="6.30458">
        <ele>705.555</ele>
        <time>2013-08-03T05:49:16Z</time>
      </trkpt>
      <trkpt lat="45.66279" lon="6.30469">
        <ele>704.773</ele>
        <time>2013-08-03T05:49:17Z</time>
      </trkpt>
      <trkpt lat="45.66287" lon="6.30492">
        <ele>703.775</ele>
        <time>2013-08-03T05:49:19Z</time>
      </trkpt>
      <trkpt lat="45.66304" lon="6.30525">
        <ele>702.476</ele>
        <time>2013-08-03T05:49:22Z</time>
      </trkpt>
      <trkpt lat="45.66351" lon="6.30586">
        <ele>698.946</ele>
        <time>2013-08-03T05:49:28Z</time>
      </trkpt>
      <trkpt lat="45.66387" lon="6.30625">
        <ele>695.657</ele>
        <time>2013-08-03T05:49:32Z</time>
      </trkpt>
      <trkpt lat="45.66407" lon="6.30653">
        <ele>692.995</ele>
        <time>2013-08-03T05:49:35Z</time>
      </trkpt>
      <trkpt lat="45.66402" lon="6.30678">
        <ele>691.129</ele>
        <time>2013-08-03T05:49:37Z</time>
      </trkpt>
      <trkpt lat="45.66382" lon="6.30686">
        <ele>690.071</ele>
        <time>2013-08-03T05:49:39Z</time>
      </trkpt>
      <trkpt lat="45.66373" lon="6.30682">
        <ele>689.507</ele>
        <time>2013-08-03T05:49:40Z</time>
      </trkpt>
      <trkpt lat="45.66321" lon="6.30657">
        <ele>686.959</ele>
        <time>2013-08-03T05:49:45Z</time>
      </trkpt>
      <trkpt lat="45.66267" lon="6.30612">
        <ele>683.104</ele>
        <time>2013-08-03T05:49:50Z</time>
      </trkpt>
      <trkpt lat="45.66218" lon="6.30552">
        <ele>678.158</ele>
        <time>2013-08-03T05:49:55Z</time>
      </trkpt>
      <trkpt lat="45.66192" lon="6.30531">
        <ele>675.017</ele>
        <time>2013-08-03T05:49:58Z</time>
      </trkpt>
      <trkpt lat="45.66159" lon="6.30547">
        <ele>672.227</ele>
        <time>2013-08-03T05:50:01Z</time>
      </trkpt>
      <trkpt lat="45.66161" lon="6.30564">
        <ele>670.679</ele>
        <time>2013-08-03T05:50:03Z</time>
      </trkpt>
      <trkpt lat="45.66164" lon="6.3059">
        <ele>669.644</ele>
        <time>2013-08-03T05:50:05Z</time>
      </trkpt>
      <trkpt lat="45.66195" lon="6.30654">
        <ele>666.622</ele>
        <time>2013-08-03T05:50:10Z</time>
      </trkpt>
      <trkpt lat="45.66248" lon="6.30733">
        <ele>661.209</ele>
        <time>2013-08-03T05:50:16Z</time>
      </trkpt>
      <trkpt lat="45.66268" lon="6.30782">
        <ele>657.552</ele>
        <time>2013-08-03T05:50:19Z</time>
      </trkpt>
      <trkpt lat="45.66271" lon="6.30801">
        <ele>656.269</ele>
        <time>2013-08-03T05:50:20Z</time>
      </trkpt>
      <trkpt lat="45.66297" lon="6.30915">
        <ele>650.043</ele>
        <time>2013-08-03T05:50:26Z</time>
      </trkpt>
      <trkpt lat="45.66328" lon="6.31007">
        <ele>644.856</ele>
        <time>2013-08-03T05:50:31Z</time>
      </trkpt>
      <trkpt lat="45.66338" lon="6.31044">
        <ele>642.406</ele>
        <time>2013-08-03T05:50:33Z</time>
      </trkpt>
      <trkpt lat="45.66347" lon="6.31103">
        <ele>637.898</ele>
        <time>2013-08-03T05:50:37Z</time>
      </trkpt>
      <trkpt lat="45.66334" lon="6.31151">
        <ele>635.225</ele>
        <time>2013-08-03T05:50:41Z</time>
      </trkpt>
      <trkpt lat="45.66333" lon="6.31174">
        <ele>633.988</ele>
        <time>2013-08-03T05:50:43Z</time>
      </trkpt>
      <trkpt lat="45.66334" lon="6.31223">
        <ele>631.885</ele>
        <time>2013-08-03T05:50:47Z</time>
      </trkpt>
      <trkpt lat="45.66345" lon="6.31245">
        <ele>630.929</ele>
        <time>2013-08-03T05:50:49Z</time>
      </trkpt>
      <trkpt lat="45.66375" lon="6.313">
        <ele>628.092</ele>
        <time>2013-08-03T05:50:54Z</time>
      </trkpt>
      <trkpt lat="45.66403" lon="6.31348">
        <ele>624.491</ele>
        <time>2013-08-03T05:50:58Z</time>
      </trkpt>
      <trkpt lat="45.66428" lon="6.31409">
        <ele>620.942</ele>
        <time>2013-08-03T05:51:02Z</time>
      </trkpt>
      <trkpt lat="45.66445" lon="6.31488">
        <ele>617.23</ele>
        <time>2013-08-03T05:51:07Z</time>
      </trkpt>
      <trkpt lat="45.66457" lon="6.31515">
        <ele>615.736</ele>
        <time>2013-08-03T05:51:09Z</time>
      </trkpt>
      <trkpt lat="45.66478" lon="6.31555">
        <ele>613.53</ele>
        <time>2013-08-03T05:51:12Z</time>
      </trkpt>
      <trkpt lat="45.66487" lon="6.3156">
        <ele>613.124</ele>
        <time>2013-08-03T05:51:13Z</time>
      </trkpt>
      <trkpt lat="45.66544" lon="6.31584">
        <ele>608.581</ele>
        <time>2013-08-03T05:51:18Z</time>
      </trkpt>
      <trkpt lat="45.66565" lon="6.31625">
        <ele>606.276</ele>
        <time>2013-08-03T05:51:21Z</time>
      </trkpt>
      <trkpt lat="45.66583" lon="6.31707">
        <ele>603.079</ele>
        <time>2013-08-03T05:51:26Z</time>
      </trkpt>
      <trkpt lat="45.66608" lon="6.31766">
        <ele>600.467</ele>
        <time>2013-08-03T05:51:30Z</time>
      </trkpt>
      <trkpt lat="45.66652" lon="6.31836">
        <ele>595.974</ele>
        <time>2013-08-03T05:51:35Z</time>
      </trkpt>
      <trkpt lat="45.66705" lon="6.31901">
        <ele>590.933</ele>
        <time>2013-08-03T05:51:40Z</time>
      </trkpt>
      <trkpt lat="45.66712" lon="6.31914">
        <ele>589.205</ele>
        <time>2013-08-03T05:51:41Z</time>
      </trkpt>
      <trkpt lat="45.66724" lon="6.31948">
        <ele>584.678</ele>
        <time>2013-08-03T05:51:44Z</time>
      </trkpt>
      <trkpt lat="45.66718" lon="6.31969">
        <ele>583.271</ele>
        <time>2013-08-03T05:51:46Z</time>
      </trkpt>
      <trkpt lat="45.66696" lon="6.3197">
        <ele>581.743</ele>
        <time>2013-08-03T05:51:48Z</time>
      </trkpt>
      <trkpt lat="45.66687" lon="6.31968">
        <ele>581.26</ele>
        <time>2013-08-03T05:51:49Z</time>
      </trkpt>
      <trkpt lat="45.66668" lon="6.31964">
        <ele>580.34</ele>
        <time>2013-08-03T05:51:51Z</time>
      </trkpt>
      <trkpt lat="45.66622" lon="6.31952">
        <ele>578.244</ele>
        <time>2013-08-03T05:51:56Z</time>
      </trkpt>
      <trkpt lat="45.66595" lon="6.31938">
        <ele>577.305</ele>
        <time>2013-08-03T05:51:59Z</time>
      </trkpt>
      <trkpt lat="45.66541" lon="6.31918">
        <ele>574.548</ele>
        <time>2013-08-03T05:52:04Z</time>
      </trkpt>
      <trkpt lat="45.66482" lon="6.31885">
        <ele>569.802</ele>
        <time>2013-08-03T05:52:09Z</time>
      </trkpt>
      <trkpt lat="45.66445" lon="6.31844">
        <ele>565.852</ele>
        <time>2013-08-03T05:52:13Z</time>
      </trkpt>
      <trkpt lat="45.66427" lon="6.31836">
        <ele>562.472</ele>
        <time>2013-08-03T05:52:16Z</time>
      </trkpt>
      <trkpt lat="45.66427" lon="6.31855">
        <ele>561.009</ele>
        <time>2013-08-03T05:52:18Z</time>
      </trkpt>
      <trkpt lat="45.66444" lon="6.3192">
        <ele>558.17</ele>
        <time>2013-08-03T05:52:23Z</time>
      </trkpt>
      <trkpt lat="45.66444" lon="6.31935">
        <ele>557.825</ele>
        <time>2013-08-03T05:52:24Z</time>
      </trkpt>
      <trkpt lat="45.66444" lon="6.31964">
        <ele>556.419</ele>
        <time>2013-08-03T05:52:26Z</time>
      </trkpt>
      <trkpt lat="45.66455" lon="6.3202">
        <ele>554.259</ele>
        <time>2013-08-03T05:52:30Z</time>
      </trkpt>
      <trkpt lat="45.66482" lon="6.32087">
        <ele>551.852</ele>
        <time>2013-08-03T05:52:35Z</time>
      </trkpt>
      <trkpt lat="45.66519" lon="6.32154">
        <ele>547.945</ele>
        <time>2013-08-03T05:52:40Z</time>
      </trkpt>
      <trkpt lat="45.66556" lon="6.32201">
        <ele>544.304</ele>
        <time>2013-08-03T05:52:44Z</time>
      </trkpt>
      <trkpt lat="45.66602" lon="6.32237">
        <ele>540.255</ele>
        <time>2013-08-03T05:52:48Z</time>
      </trkpt>
      <trkpt lat="45.66659" lon="6.3229">
        <ele>536.063</ele>
        <time>2013-08-03T05:52:53Z</time>
      </trkpt>
      <trkpt lat="45.6667" lon="6.32302">
        <ele>535.311</ele>
        <time>2013-08-03T05:52:54Z</time>
      </trkpt>
      <trkpt lat="45.66698" lon="6.32344">
        <ele>532.857</ele>
        <time>2013-08-03T05:52:57Z</time>
      </trkpt>
      <trkpt lat="45.66703" lon="6.32363">
        <ele>531.491</ele>
        <time>2013-08-03T05:52:58Z</time>
      </trkpt>
      <trkpt lat="45.66716" lon="6.32505">
        <ele>523.512</ele>
        <time>2013-08-03T05:53:05Z</time>
      </trkpt>
      <trkpt lat="45.66731" lon="6.32585">
        <ele>519.883</ele>
        <time>2013-08-03T05:53:09Z</time>
      </trkpt>
      <trkpt lat="45.66762" lon="6.32691">
        <ele>516.549</ele>
        <time>2013-08-03T05:53:15Z</time>
      </trkpt>
      <trkpt lat="45.66771" lon="6.32743">
        <ele>515.329</ele>
        <time>2013-08-03T05:53:18Z</time>
      </trkpt>
      <trkpt lat="45.66773" lon="6.3281">
        <ele>513.987</ele>
        <time>2013-08-03T05:53:22Z</time>
      </trkpt>
      <trkpt lat="45.66741" lon="6.32925">
        <ele>509.898</ele>
        <time>2013-08-03T05:53:29Z</time>
      </trkpt>
      <trkpt lat="45.66737" lon="6.32997">
        <ele>506.785</ele>
        <time>2013-08-03T05:53:33Z</time>
      </trkpt>
      <trkpt lat="45.66749" lon="6.33049">
        <ele>504.168</ele>
        <time>2013-08-03T05:53:36Z</time>
      </trkpt>
      <trkpt lat="45.66757" lon="6.33082">
        <ele>502.942</ele>
        <time>2013-08-03T05:53:38Z</time>
      </trkpt>
      <trkpt lat="45.66774" lon="6.33143">
        <ele>502.017</ele>
        <time>2013-08-03T05:53:42Z</time>
      </trkpt>
      <trkpt lat="45.6677" lon="6.3319">
        <ele>501.273</ele>
        <time>2013-08-03T05:53:45Z</time>
      </trkpt>
      <trkpt lat="45.66753" lon="6.33231">
        <ele>500.453</ele>
        <time>2013-08-03T05:53:48Z</time>
      </trkpt>
      <trkpt lat="45.66746" lon="6.3326">
        <ele>500.149</ele>
        <time>2013-08-03T05:53:50Z</time>
      </trkpt>
      <trkpt lat="45.66732" lon="6.3335">
        <ele>498.95</ele>
        <time>2013-08-03T05:53:56Z</time>
      </trkpt>
      <trkpt lat="45.66713" lon="6.33421">
        <ele>497.263</ele>
        <time>2013-08-03T05:54:01Z</time>
      </trkpt>
      <trkpt lat="45.66678" lon="6.33494">
        <ele>496.495</ele>
        <time>2013-08-03T05:54:07Z</time>
      </trkpt>
      <trkpt lat="45.66664" lon="6.33517">
        <ele>496.118</ele>
        <time>2013-08-03T05:54:09Z</time>
      </trkpt>
      <trkpt lat="45.66647" lon="6.33554">
        <ele>495.312</ele>
        <time>2013-08-03T05:54:12Z</time>
      </trkpt>
      <trkpt lat="45.66648" lon="6.33583">
        <ele>494.729</ele>
        <time>2013-08-03T05:54:14Z</time>
      </trkpt>
      <trkpt lat="45.66651" lon="6.33598">
        <ele>494.301</ele>
        <time>2013-08-03T05:54:15Z</time>
      </trkpt>
      <trkpt lat="45.66697" lon="6.33693">
        <ele>490.12</ele>
        <time>2013-08-03T05:54:22Z</time>
      </trkpt>
      <trkpt lat="45.66735" lon="6.33765">
        <ele>486.27</ele>
        <time>2013-08-03T05:54:27Z</time>
      </trkpt>
      <trkpt lat="45.66799" lon="6.33861">
        <ele>480.983</ele>
        <time>2013-08-03T05:54:34Z</time>
      </trkpt>
      <trkpt lat="45.66856" lon="6.3394">
        <ele>476.196</ele>
        <time>2013-08-03T05:54:40Z</time>
      </trkpt>
      <trkpt lat="45.66879" lon="6.3398">
        <ele>473.712</ele>
        <time>2013-08-03T05:54:43Z</time>
      </trkpt>
      <trkpt lat="45.66876" lon="6.34012">
        <ele>471.498</ele>
        <time>2013-08-03T05:54:45Z</time>
      </trkpt>
      <trkpt lat="45.66855" lon="6.34032">
        <ele>469.871</ele>
        <time>2013-08-03T05:54:47Z</time>
      </trkpt>
      <trkpt lat="45.66801" lon="6.34054">
        <ele>467.494</ele>
        <time>2013-08-03T05:54:52Z</time>
      </trkpt>
      <trkpt lat="45.6677" lon="6.34085">
        <ele>464.968</ele>
        <time>2013-08-03T05:54:55Z</time>
      </trkpt>
      <trkpt lat="45.66738" lon="6.34136">
        <ele>461.853</ele>
        <time>2013-08-03T05:54:59Z</time>
      </trkpt>
      <trkpt lat="45.66729" lon="6.3419">
        <ele>459.607</ele>
        <time>2013-08-03T05:55:02Z</time>
      </trkpt>
      <trkpt lat="45.66727" lon="6.34208">
        <ele>458.831</ele>
        <time>2013-08-03T05:55:03Z</time>
      </trkpt>
      <trkpt lat="45.66731" lon="6.34266">
        <ele>456.217</ele>
        <time>2013-08-03T05:55:06Z</time>
      </trkpt>
      <trkpt lat="45.66728" lon="6.34327">
        <ele>453.263</ele>
        <time>2013-08-03T05:55:09Z</time>
      </trkpt>
      <trkpt lat="45.6671" lon="6.34354">
        <ele>450.675</ele>
        <time>2013-08-03T05:55:11Z</time>
      </trkpt>
      <trkpt lat="45.66614" lon="6.34439">
        <ele>444.423</ele>
        <time>2013-08-03T05:55:20Z</time>
      </trkpt>
      <trkpt lat="45.66603" lon="6.34449">
        <ele>444.141</ele>
        <time>2013-08-03T05:55:21Z</time>
      </trkpt>
      <trkpt lat="45.66593" lon="6.34459">
        <ele>443.406</ele>
        <time>2013-08-03T05:55:22Z</time>
      </trkpt>
      <trkpt lat="45.66565" lon="6.34495">
        <ele>440.568</ele>
        <time>2013-08-03T05:55:25Z</time>
      </trkpt>
      <trkpt lat="45.66549" lon="6.34551">
        <ele>438.42</ele>
        <time>2013-08-03T05:55:28Z</time>
      </trkpt>
      <trkpt lat="45.66556" lon="6.34604">
        <ele>434.953</ele>
        <time>2013-08-03T05:55:31Z</time>
      </trkpt>
      <trkpt lat="45.66571" lon="6.34636">
        <ele>433.131</ele>
        <time>2013-08-03T05:55:33Z</time>
      </trkpt>
      <trkpt lat="45.66636" lon="6.34743">
        <ele>426.522</ele>
        <time>2013-08-03T05:55:40Z</time>
      </trkpt>
      <trkpt lat="45.66707" lon="6.34814">
        <ele>420.76</ele>
        <time>2013-08-03T05:55:46Z</time>
      </trkpt>
      <trkpt lat="45.6679" lon="6.34895">
        <ele>413.495</ele>
        <time>2013-08-03T05:55:53Z</time>
      </trkpt>
      <trkpt lat="45.6684" lon="6.34929">
        <ele>408.857</ele>
        <time>2013-08-03T05:55:57Z</time>
      </trkpt>
      <trkpt lat="45.66866" lon="6.34945">
        <ele>406.966</ele>
        <time>2013-08-03T05:55:59Z</time>
      </trkpt>
      <trkpt lat="45.66894" lon="6.3498">
        <ele>402.65</ele>
        <time>2013-08-03T05:56:02Z</time>
      </trkpt>
      <trkpt lat="45.66897" lon="6.35016">
        <ele>400.893</ele>
        <time>2013-08-03T05:56:04Z</time>
      </trkpt>
      <trkpt lat="45.66893" lon="6.35089">
        <ele>397.105</ele>
        <time>2013-08-03T05:56:08Z</time>
      </trkpt>
      <trkpt lat="45.66898" lon="6.35163">
        <ele>394.384</ele>
        <time>2013-08-03T05:56:12Z</time>
      </trkpt>
      <trkpt lat="45.66908" lon="6.35197">
        <ele>392.722</ele>
        <time>2013-08-03T05:56:14Z</time>
      </trkpt>
      <trkpt lat="45.66915" lon="6.3527">
        <ele>390.047</ele>
        <time>2013-08-03T05:56:18Z</time>
      </trkpt>
      <trkpt lat="45.66906" lon="6.35302">
        <ele>388.965</ele>
        <time>2013-08-03T05:56:20Z</time>
      </trkpt>
      <trkpt lat="45.66895" lon="6.35333">
        <ele>388.241</ele>
        <time>2013-08-03T05:56:22Z</time>
      </trkpt>
      <trkpt lat="45.66863" lon="6.35381">
        <ele>387.597</ele>
        <time>2013-08-03T05:56:26Z</time>
      </trkpt>
      <trkpt lat="45.66795" lon="6.35438">
        <ele>385.266</ele>
        <time>2013-08-03T05:56:33Z</time>
      </trkpt>
      <trkpt lat="45.66741" lon="6.35487">
        <ele>383.519</ele>
        <time>2013-08-03T05:56:39Z</time>
      </trkpt>
      <trkpt lat="45.66663" lon="6.35564">
        <ele>380.822</ele>
        <time>2013-08-03T05:56:48Z</time>
      </trkpt>
      <trkpt lat="45.66595" lon="6.35631">
        <ele>378.592</ele>
        <time>2013-08-03T05:56:56Z</time>
      </trkpt>
      <trkpt lat="45.66504" lon="6.35724">
        <ele>375.532</ele>
        <time>2013-08-03T05:57:07Z</time>
      </trkpt>
      <trkpt lat="45.6644" lon="6.35791">
        <ele>372.973</ele>
        <time>2013-08-03T05:57:15Z</time>
      </trkpt>
      <trkpt lat="45.66384" lon="6.35848">
        <ele>370.937</ele>
        <time>2013-08-03T05:57:22Z</time>
      </trkpt>
      <trkpt lat="45.66329" lon="6.35903">
        <ele>368.947</ele>
        <time>2013-08-03T05:57:29Z</time>
      </trkpt>
      <trkpt lat="45.66269" lon="6.35964">
        <ele>365.821</ele>
        <time>2013-08-03T05:57:37Z</time>
      </trkpt>
      <trkpt lat="45.6623" lon="6.36004">
        <ele>364.922</ele>
        <time>2013-08-03T05:57:43Z</time>
      </trkpt>
      <trkpt lat="45.66217" lon="6.36018">
        <ele>364.252</ele>
        <time>2013-08-03T05:57:46Z</time>
      </trkpt>
      <trkpt lat="45.66212" lon="6.36023">
        <ele>364.144</ele>
        <time>2013-08-03T05:57:48Z</time>
      </trkpt>
      <trkpt lat="45.66214" lon="6.36027">
        <ele>364.114</ele>
        <time>2013-08-03T05:57:51Z</time>
      </trkpt>
      <trkpt lat="45.66227" lon="6.36052">
        <ele>363.897</ele>
        <time>2013-08-03T05:57:57Z</time>
      </trkpt>
      <trkpt lat="45.66229" lon="6.36058">
        <ele>363.331</ele>
        <time>2013-08-03T05:58:00Z</time>
      </trkpt>
      <trkpt lat="45.66232" lon="6.36066">
        <ele>362.825</ele>
        <time>2013-08-03T05:59:57Z</time>
      </trkpt>
      <trkpt lat="45.6624" lon="6.36083">
        <ele>363.059</ele>
        <time>2013-08-03T06:00:01Z</time>
      </trkpt>
      <trkpt lat="45.66261" lon="6.36128">
        <ele>362.8</ele>
        <time>2013-08-03T06:00:07Z</time>
      </trkpt>
      <trkpt lat="45.66289" lon="6.3619">
        <ele>361.64</ele>
        <time>2013-08-03T06:00:14Z</time>
      </trkpt>
      <trkpt lat="45.66318" lon="6.36257">
        <ele>361.125</ele>
        <time>2013-08-03T06:00:21Z</time>
      </trkpt>
      <trkpt lat="45.66331" lon="6.36286">
        <ele>360.578</ele>
        <time>2013-08-03T06:00:24Z</time>
      </trkpt>
      <trkpt lat="45.6634" lon="6.36305">
        <ele>360.126</ele>
        <time>2013-08-03T06:00:26Z</time>
      </trkpt>
      <trkpt lat="45.66367" lon="6.36364">
        <ele>359.402</ele>
        <time>2013-08-03T06:00:32Z</time>
      </trkpt>
      <trkpt lat="45.66393" lon="6.36424">
        <ele>358.954</ele>
        <time>2013-08-03T06:00:38Z</time>
      </trkpt>
      <trkpt lat="45.66438" lon="6.36523">
        <ele>356.446</ele>
        <time>2013-08-03T06:00:48Z</time>
      </trkpt>
      <trkpt lat="45.66473" lon="6.36598">
        <ele>354.431</ele>
        <time>2013-08-03T06:00:56Z</time>
      </trkpt>
      <trkpt lat="45.66511" lon="6.3668">
        <ele>353.804</ele>
        <time>2013-08-03T06:01:04Z</time>
      </trkpt>
      <trkpt lat="45.66536" lon="6.36738">
        <ele>352.317</ele>
        <time>2013-08-03T06:01:10Z</time>
      </trkpt>
      <trkpt lat="45.66555" lon="6.36767">
        <ele>351.472</ele>
        <time>2013-08-03T06:01:15Z</time>
      </trkpt>
      <trkpt lat="45.66564" lon="6.36774">
        <ele>350.287</ele>
        <time>2013-08-03T06:01:19Z</time>
      </trkpt>
      <trkpt lat="45.6657" lon="6.36778">
        <ele>350.148</ele>
        <time>2013-08-03T06:01:22Z</time>
      </trkpt>
      <trkpt lat="45.66575" lon="6.36806">
        <ele>349.864</ele>
        <time>2013-08-03T06:01:27Z</time>
      </trkpt>
      <trkpt lat="45.66594" lon="6.36866">
        <ele>350.136</ele>
        <time>2013-08-03T06:01:32Z</time>
      </trkpt>
      <trkpt lat="45.66621" lon="6.36927">
        <ele>349.548</ele>
        <time>2013-08-03T06:01:39Z</time>
      </trkpt>
      <trkpt lat="45.66658" lon="6.37007">
        <ele>349.308</ele>
        <time>2013-08-03T06:01:48Z</time>
      </trkpt>
      <trkpt lat="45.66674" lon="6.3704">
        <ele>349.406</ele>
        <time>2013-08-03T06:01:52Z</time>
      </trkpt>
      <trkpt lat="45.66689" lon="6.37072">
        <ele>349.32</ele>
        <time>2013-08-03T06:01:56Z</time>
      </trkpt>
      <trkpt lat="45.66697" lon="6.37087">
        <ele>349.318</ele>
        <time>2013-08-03T06:01:59Z</time>
      </trkpt>
      <trkpt lat="45.66697" lon="6.37087">
        <ele>349.278</ele>
        <time>2013-08-03T06:02:01Z</time>
      </trkpt>
      <trkpt lat="45.66732" lon="6.37174">
        <ele>348.621</ele>
        <time>2013-08-03T06:02:08Z</time>
      </trkpt>
      <trkpt lat="45.66771" lon="6.37255">
        <ele>348.106</ele>
        <time>2013-08-03T06:02:17Z</time>
      </trkpt>
      <trkpt lat="45.66805" lon="6.37329">
        <ele>348.736</ele>
        <time>2013-08-03T06:02:25Z</time>
      </trkpt>
      <trkpt lat="45.6683" lon="6.37384">
        <ele>349.309</ele>
        <time>2013-08-03T06:02:31Z</time>
      </trkpt>
      <trkpt lat="45.66867" lon="6.37461">
        <ele>349.498</ele>
        <time>2013-08-03T06:02:40Z</time>
      </trkpt>
      <trkpt lat="45.66901" lon="6.37537">
        <ele>348.719</ele>
        <time>2013-08-03T06:02:48Z</time>
      </trkpt>
      <trkpt lat="45.66942" lon="6.37626">
        <ele>348.859</ele>
        <time>2013-08-03T06:02:57Z</time>
      </trkpt>
      <trkpt lat="45.66979" lon="6.37708">
        <ele>349.09</ele>
        <time>2013-08-03T06:03:06Z</time>
      </trkpt>
      <trkpt lat="45.6699" lon="6.37733">
        <ele>349.239</ele>
        <time>2013-08-03T06:03:09Z</time>
      </trkpt>
      <trkpt lat="45.67004" lon="6.37763">
        <ele>349.406</ele>
        <time>2013-08-03T06:03:13Z</time>
      </trkpt>
      <trkpt lat="45.67004" lon="6.37763">
        <ele>349.745</ele>
        <time>2013-08-03T06:03:16Z</time>
      </trkpt>
      <trkpt lat="45.67024" lon="6.37808">
        <ele>349.558</ele>
        <time>2013-08-03T06:03:18Z</time>
      </trkpt>
      <trkpt lat="45.67059" lon="6.37891">
        <ele>349.505</ele>
        <time>2013-08-03T06:03:27Z</time>
      </trkpt>
      <trkpt lat="45.67109" lon="6.37995">
        <ele>350.392</ele>
        <time>2013-08-03T06:03:39Z</time>
      </trkpt>
      <trkpt lat="45.6713" lon="6.38044">
        <ele>350.496</ele>
        <time>2013-08-03T06:03:45Z</time>
      </trkpt>
      <trkpt lat="45.67166" lon="6.38119">
        <ele>351.149</ele>
        <time>2013-08-03T06:03:54Z</time>
      </trkpt>
      <trkpt lat="45.67193" lon="6.38179">
        <ele>351.302</ele>
        <time>2013-08-03T06:04:01Z</time>
      </trkpt>
      <trkpt lat="45.67224" lon="6.38247">
        <ele>351.445</ele>
        <time>2013-08-03T06:04:09Z</time>
      </trkpt>
      <trkpt lat="45.67231" lon="6.38263">
        <ele>351.403</ele>
        <time>2013-08-03T06:04:11Z</time>
      </trkpt>
      <trkpt lat="45.67259" lon="6.38326">
        <ele>351.311</ele>
        <time>2013-08-03T06:04:19Z</time>
      </trkpt>
      <trkpt lat="45.67269" lon="6.38347">
        <ele>351.002</ele>
        <time>2013-08-03T06:04:22Z</time>
      </trkpt>
      <trkpt lat="45.67278" lon="6.38366">
        <ele>351.213</ele>
        <time>2013-08-03T06:04:25Z</time>
      </trkpt>
      <trkpt lat="45.67299" lon="6.38409">
        <ele>351.467</ele>
        <time>2013-08-03T06:04:31Z</time>
      </trkpt>
      <trkpt lat="45.67309" lon="6.38435">
        <ele>351.94</ele>
        <time>2013-08-03T06:04:34Z</time>
      </trkpt>
      <trkpt lat="45.67336" lon="6.38495">
        <ele>352.245</ele>
        <time>2013-08-03T06:04:41Z</time>
      </trkpt>
      <trkpt lat="45.67366" lon="6.3856">
        <ele>352.376</ele>
        <time>2013-08-03T06:04:49Z</time>
      </trkpt>
      <trkpt lat="45.67393" lon="6.38622">
        <ele>352.943</ele>
        <time>2013-08-03T06:04:57Z</time>
      </trkpt>
      <trkpt lat="45.67418" lon="6.38675">
        <ele>353.204</ele>
        <time>2013-08-03T06:05:04Z</time>
      </trkpt>
      <trkpt lat="45.67446" lon="6.38736">
        <ele>353.496</ele>
        <time>2013-08-03T06:05:12Z</time>
      </trkpt>
      <trkpt lat="45.67463" lon="6.38771">
        <ele>353.076</ele>
        <time>2013-08-03T06:05:18Z</time>
      </trkpt>
      <trkpt lat="45.67464" lon="6.38774">
        <ele>353.054</ele>
        <time>2013-08-03T06:05:19Z</time>
      </trkpt>
      <trkpt lat="45.67468" lon="6.38782">
        <ele>353.177</ele>
        <time>2013-08-03T06:05:21Z</time>
      </trkpt>
      <trkpt lat="45.67488" lon="6.38822">
        <ele>353.768</ele>
        <time>2013-08-03T06:05:28Z</time>
      </trkpt>
      <trkpt lat="45.67502" lon="6.38851">
        <ele>353.39</ele>
        <time>2013-08-03T06:05:34Z</time>
      </trkpt>
      <trkpt lat="45.67521" lon="6.38879">
        <ele>353.459</ele>
        <time>2013-08-03T06:05:42Z</time>
      </trkpt>
      <trkpt lat="45.67537" lon="6.38894">
        <ele>353.585</ele>
        <time>2013-08-03T06:05:48Z</time>
      </trkpt>
      <trkpt lat="45.67552" lon="6.38908">
        <ele>353.766</ele>
        <time>2013-08-03T06:05:52Z</time>
      </trkpt>
      <trkpt lat="45.67575" lon="6.38936">
        <ele>354.021</ele>
        <time>2013-08-03T06:05:58Z</time>
      </trkpt>
      <trkpt lat="45.67605" lon="6.38977">
        <ele>354.324</ele>
        <time>2013-08-03T06:06:05Z</time>
      </trkpt>
      <trkpt lat="45.67635" lon="6.39015">
        <ele>354.547</ele>
        <time>2013-08-03T06:06:12Z</time>
      </trkpt>
      <trkpt lat="45.67639" lon="6.39019">
        <ele>354.537</ele>
        <time>2013-08-03T06:06:13Z</time>
      </trkpt>
      <trkpt lat="45.67639" lon="6.39034">
        <ele>354.462</ele>
        <time>2013-08-03T06:06:17Z</time>
      </trkpt>
      <trkpt lat="45.67625" lon="6.39049">
        <ele>354.356</ele>
        <time>2013-08-03T06:06:20Z</time>
      </trkpt>
      <trkpt lat="45.67585" lon="6.39096">
        <ele>355.015</ele>
        <time>2013-08-03T06:06:27Z</time>
      </trkpt>
      <trkpt lat="45.67543" lon="6.39149">
        <ele>355.167</ele>
        <time>2013-08-03T06:06:35Z</time>
      </trkpt>
      <trkpt lat="45.67529" lon="6.39167">
        <ele>355.429</ele>
        <time>2013-08-03T06:06:38Z</time>
      </trkpt>
      <trkpt lat="45.67514" lon="6.39181">
        <ele>355.477</ele>
        <time>2013-08-03T06:06:42Z</time>
      </trkpt>
      <trkpt lat="45.67503" lon="6.3925">
        <ele>355.528</ele>
        <time>2013-08-03T06:06:49Z</time>
      </trkpt>
      <trkpt lat="45.67499" lon="6.3927">
        <ele>355.47</ele>
        <time>2013-08-03T06:06:53Z</time>
      </trkpt>
      <trkpt lat="45.67499" lon="6.39272">
        <ele>355.333</ele>
        <time>2013-08-03T06:06:55Z</time>
      </trkpt>
      <trkpt lat="45.67499" lon="6.39272">
        <ele>355.153</ele>
        <time>2013-08-03T06:07:11Z</time>
      </trkpt>
      <trkpt lat="45.67482" lon="6.39276">
        <ele>355.637</ele>
        <time>2013-08-03T06:09:52Z</time>
      </trkpt>
      <trkpt lat="45.6746" lon="6.3927">
        <ele>355.689</ele>
        <time>2013-08-03T06:09:56Z</time>
      </trkpt>
      <trkpt lat="45.67401" lon="6.39253">
        <ele>355.932</ele>
        <time>2013-08-03T06:10:04Z</time>
      </trkpt>
      <trkpt lat="45.67346" lon="6.39233">
        <ele>355.611</ele>
        <time>2013-08-03T06:10:11Z</time>
      </trkpt>
      <trkpt lat="45.67272" lon="6.39207">
        <ele>355.255</ele>
        <time>2013-08-03T06:10:21Z</time>
      </trkpt>
      <trkpt lat="45.67195" lon="6.39178">
        <ele>354.407</ele>
        <time>2013-08-03T06:10:31Z</time>
      </trkpt>
      <trkpt lat="45.6713" lon="6.39155">
        <ele>354.154</ele>
        <time>2013-08-03T06:10:39Z</time>
      </trkpt>
      <trkpt lat="45.67057" lon="6.39128">
        <ele>353.688</ele>
        <time>2013-08-03T06:10:48Z</time>
      </trkpt>
      <trkpt lat="45.66994" lon="6.39105">
        <ele>353.223</ele>
        <time>2013-08-03T06:10:56Z</time>
      </trkpt>
      <trkpt lat="45.66943" lon="6.39088">
        <ele>353.119</ele>
        <time>2013-08-03T06:11:03Z</time>
      </trkpt>
      <trkpt lat="45.66904" lon="6.39074">
        <ele>352.808</ele>
        <time>2013-08-03T06:11:09Z</time>
      </trkpt>
      <trkpt lat="45.66898" lon="6.39071">
        <ele>352.751</ele>
        <time>2013-08-03T06:11:10Z</time>
      </trkpt>
      <trkpt lat="45.66882" lon="6.39065">
        <ele>352.162</ele>
        <time>2013-08-03T06:11:14Z</time>
      </trkpt>
      <trkpt lat="45.66882" lon="6.39065">
        <ele>352.098</ele>
        <time>2013-08-03T06:11:17Z</time>
      </trkpt>
      <trkpt lat="45.66879" lon="6.39072">
        <ele>352.201</ele>
        <time>2013-08-03T06:11:20Z</time>
      </trkpt>
      <trkpt lat="45.66876" lon="6.39082">
        <ele>352.176</ele>
        <time>2013-08-03T06:11:22Z</time>
      </trkpt>
      <trkpt lat="45.66871" lon="6.39103">
        <ele>352.378</ele>
        <time>2013-08-03T06:11:26Z</time>
      </trkpt>
      <trkpt lat="45.66871" lon="6.39103">
        <ele>352.427</ele>
        <time>2013-08-03T06:11:28Z</time>
      </trkpt>
      <trkpt lat="45.66868" lon="6.39113">
        <ele>352.539</ele>
        <time>2013-08-03T06:12:16Z</time>
      </trkpt>
      <trkpt lat="45.66865" lon="6.39128">
        <ele>352.931</ele>
        <time>2013-08-03T06:12:22Z</time>
      </trkpt>
      <trkpt lat="45.66861" lon="6.3916">
        <ele>353.863</ele>
        <time>2013-08-03T06:12:29Z</time>
      </trkpt>
      <trkpt lat="45.66858" lon="6.39188">
        <ele>354.351</ele>
        <time>2013-08-03T06:12:34Z</time>
      </trkpt>
      <trkpt lat="45.66854" lon="6.39232">
        <ele>354.446</ele>
        <time>2013-08-03T06:12:41Z</time>
      </trkpt>
      <trkpt lat="45.66849" lon="6.39286">
        <ele>353.707</ele>
        <time>2013-08-03T06:12:48Z</time>
      </trkpt>
      <trkpt lat="45.66841" lon="6.39359">
        <ele>353.257</ele>
        <time>2013-08-03T06:12:56Z</time>
      </trkpt>
      <trkpt lat="45.66832" lon="6.39437">
        <ele>353.926</ele>
        <time>2013-08-03T06:13:05Z</time>
      </trkpt>
      <trkpt lat="45.6683" lon="6.39464">
        <ele>353.38</ele>
        <time>2013-08-03T06:13:11Z</time>
      </trkpt>
      <trkpt lat="45.66811" lon="6.3953">
        <ele>352.94</ele>
        <time>2013-08-03T06:13:16Z</time>
      </trkpt>
      <trkpt lat="45.66785" lon="6.39605">
        <ele>352.205</ele>
        <time>2013-08-03T06:13:24Z</time>
      </trkpt>
      <trkpt lat="45.66769" lon="6.39673">
        <ele>352.395</ele>
        <time>2013-08-03T06:13:31Z</time>
      </trkpt>
      <trkpt lat="45.66766" lon="6.39722">
        <ele>351.906</ele>
        <time>2013-08-03T06:13:36Z</time>
      </trkpt>
      <trkpt lat="45.66766" lon="6.39811">
        <ele>351.844</ele>
        <time>2013-08-03T06:13:45Z</time>
      </trkpt>
      <trkpt lat="45.66773" lon="6.3988">
        <ele>351.603</ele>
        <time>2013-08-03T06:13:52Z</time>
      </trkpt>
      <trkpt lat="45.6679" lon="6.39976">
        <ele>351.076</ele>
        <time>2013-08-03T06:14:02Z</time>
      </trkpt>
      <trkpt lat="45.66794" lon="6.39994">
        <ele>350.869</ele>
        <time>2013-08-03T06:14:04Z</time>
      </trkpt>
      <trkpt lat="45.66832" lon="6.40062">
        <ele>351.117</ele>
        <time>2013-08-03T06:14:13Z</time>
      </trkpt>
      <trkpt lat="45.66867" lon="6.40122">
        <ele>351.705</ele>
        <time>2013-08-03T06:14:21Z</time>
      </trkpt>
      <trkpt lat="45.66881" lon="6.40177">
        <ele>351.872</ele>
        <time>2013-08-03T06:14:27Z</time>
      </trkpt>
      <trkpt lat="45.66897" lon="6.4027">
        <ele>351.947</ele>
        <time>2013-08-03T06:14:37Z</time>
      </trkpt>
      <trkpt lat="45.66898" lon="6.40328">
        <ele>351.872</ele>
        <time>2013-08-03T06:14:43Z</time>
      </trkpt>
      <trkpt lat="45.66889" lon="6.40382">
        <ele>352.108</ele>
        <time>2013-08-03T06:14:49Z</time>
      </trkpt>
      <trkpt lat="45.66869" lon="6.40467">
        <ele>353.235</ele>
        <time>2013-08-03T06:14:59Z</time>
      </trkpt>
      <trkpt lat="45.66867" lon="6.40476">
        <ele>353.176</ele>
        <time>2013-08-03T06:15:00Z</time>
      </trkpt>
      <trkpt lat="45.66862" lon="6.40534">
        <ele>353.377</ele>
        <time>2013-08-03T06:15:06Z</time>
      </trkpt>
      <trkpt lat="45.66862" lon="6.40622">
        <ele>352.838</ele>
        <time>2013-08-03T06:15:15Z</time>
      </trkpt>
      <trkpt lat="45.66861" lon="6.4065">
        <ele>352.721</ele>
        <time>2013-08-03T06:15:18Z</time>
      </trkpt>
      <trkpt lat="45.6686" lon="6.4067">
        <ele>352.541</ele>
        <time>2013-08-03T06:15:22Z</time>
      </trkpt>
      <trkpt lat="45.6686" lon="6.4067">
        <ele>352.506</ele>
        <time>2013-08-03T06:15:23Z</time>
      </trkpt>
      <trkpt lat="45.6685" lon="6.40785">
        <ele>352.837</ele>
        <time>2013-08-03T06:15:33Z</time>
      </trkpt>
      <trkpt lat="45.66841" lon="6.4087">
        <ele>353.084</ele>
        <time>2013-08-03T06:15:42Z</time>
      </trkpt>
      <trkpt lat="45.66831" lon="6.40948">
        <ele>353.429</ele>
        <time>2013-08-03T06:15:50Z</time>
      </trkpt>
      <trkpt lat="45.66821" lon="6.40985">
        <ele>353.329</ele>
        <time>2013-08-03T06:15:54Z</time>
      </trkpt>
      <trkpt lat="45.66788" lon="6.41035">
        <ele>352.903</ele>
        <time>2013-08-03T06:16:01Z</time>
      </trkpt>
      <trkpt lat="45.66771" lon="6.41052">
        <ele>352.765</ele>
        <time>2013-08-03T06:16:04Z</time>
      </trkpt>
      <trkpt lat="45.66752" lon="6.41084">
        <ele>352.806</ele>
        <time>2013-08-03T06:16:08Z</time>
      </trkpt>
      <trkpt lat="45.66736" lon="6.4116">
        <ele>353.162</ele>
        <time>2013-08-03T06:16:16Z</time>
      </trkpt>
      <trkpt lat="45.66719" lon="6.41205">
        <ele>353.284</ele>
        <time>2013-08-03T06:16:21Z</time>
      </trkpt>
      <trkpt lat="45.66672" lon="6.41282">
        <ele>353.811</ele>
        <time>2013-08-03T06:16:31Z</time>
      </trkpt>
      <trkpt lat="45.6664" lon="6.41349">
        <ele>353.842</ele>
        <time>2013-08-03T06:16:39Z</time>
      </trkpt>
      <trkpt lat="45.6662" lon="6.41419">
        <ele>353.872</ele>
        <time>2013-08-03T06:16:47Z</time>
      </trkpt>
      <trkpt lat="45.66601" lon="6.41507">
        <ele>354.189</ele>
        <time>2013-08-03T06:16:57Z</time>
      </trkpt>
      <trkpt lat="45.66593" lon="6.41549">
        <ele>354.472</ele>
        <time>2013-08-03T06:17:02Z</time>
      </trkpt>
      <trkpt lat="45.66584" lon="6.41619">
        <ele>354.748</ele>
        <time>2013-08-03T06:17:10Z</time>
      </trkpt>
      <trkpt lat="45.66572" lon="6.41661">
        <ele>354.952</ele>
        <time>2013-08-03T06:17:15Z</time>
      </trkpt>
      <trkpt lat="45.66549" lon="6.41733">
        <ele>355.536</ele>
        <time>2013-08-03T06:17:24Z</time>
      </trkpt>
      <trkpt lat="45.66545" lon="6.41757">
        <ele>355.46</ele>
        <time>2013-08-03T06:17:27Z</time>
      </trkpt>
      <trkpt lat="45.66542" lon="6.41815">
        <ele>355.692</ele>
        <time>2013-08-03T06:17:34Z</time>
      </trkpt>
      <trkpt lat="45.66535" lon="6.41884">
        <ele>355.811</ele>
        <time>2013-08-03T06:17:42Z</time>
      </trkpt>
      <trkpt lat="45.66521" lon="6.41964">
        <ele>356.106</ele>
        <time>2013-08-03T06:17:51Z</time>
      </trkpt>
      <trkpt lat="45.66508" lon="6.42033">
        <ele>355.922</ele>
        <time>2013-08-03T06:17:59Z</time>
      </trkpt>
      <trkpt lat="45.665" lon="6.42092">
        <ele>355.953</ele>
        <time>2013-08-03T06:18:06Z</time>
      </trkpt>
      <trkpt lat="45.66497" lon="6.42146">
        <ele>355.627</ele>
        <time>2013-08-03T06:18:12Z</time>
      </trkpt>
      <trkpt lat="45.66502" lon="6.42235">
        <ele>355.869</ele>
        <time>2013-08-03T06:18:22Z</time>
      </trkpt>
      <trkpt lat="45.66512" lon="6.42329">
        <ele>356.15</ele>
        <time>2013-08-03T06:18:33Z</time>
      </trkpt>
      <trkpt lat="45.66518" lon="6.42388">
        <ele>356.337</ele>
        <time>2013-08-03T06:18:40Z</time>
      </trkpt>
      <trkpt lat="45.66522" lon="6.42455">
        <ele>357.558</ele>
        <time>2013-08-03T06:18:48Z</time>
      </trkpt>
      <trkpt lat="45.66525" lon="6.42516">
        <ele>359.616</ele>
        <time>2013-08-03T06:18:56Z</time>
      </trkpt>
      <trkpt lat="45.66525" lon="6.42547">
        <ele>359.14</ele>
        <time>2013-08-03T06:19:00Z</time>
      </trkpt>
      <trkpt lat="45.66513" lon="6.42599">
        <ele>358.966</ele>
        <time>2013-08-03T06:19:06Z</time>
      </trkpt>
      <trkpt lat="45.66507" lon="6.42606">
        <ele>358.987</ele>
        <time>2013-08-03T06:19:07Z</time>
      </trkpt>
      <trkpt lat="45.66461" lon="6.42662">
        <ele>361.095</ele>
        <time>2013-08-03T06:19:17Z</time>
      </trkpt>
      <trkpt lat="45.66456" lon="6.42669">
        <ele>361.24</ele>
        <time>2013-08-03T06:19:18Z</time>
      </trkpt>
      <trkpt lat="45.66433" lon="6.4272">
        <ele>361.408</ele>
        <time>2013-08-03T06:19:25Z</time>
      </trkpt>
      <trkpt lat="45.66427" lon="6.42738">
        <ele>361.467</ele>
        <time>2013-08-03T06:19:27Z</time>
      </trkpt>
      <trkpt lat="45.6642" lon="6.42773">
        <ele>361.179</ele>
        <time>2013-08-03T06:19:31Z</time>
      </trkpt>
      <trkpt lat="45.66425" lon="6.42799">
        <ele>360.463</ele>
        <time>2013-08-03T06:19:34Z</time>
      </trkpt>
      <trkpt lat="45.66434" lon="6.42832">
        <ele>359.532</ele>
        <time>2013-08-03T06:19:37Z</time>
      </trkpt>
      <trkpt lat="45.66439" lon="6.42877">
        <ele>358.596</ele>
        <time>2013-08-03T06:19:41Z</time>
      </trkpt>
      <trkpt lat="45.66435" lon="6.42909">
        <ele>358.193</ele>
        <time>2013-08-03T06:19:44Z</time>
      </trkpt>
      <trkpt lat="45.66418" lon="6.42945">
        <ele>358.436</ele>
        <time>2013-08-03T06:19:48Z</time>
      </trkpt>
      <trkpt lat="45.66379" lon="6.4299">
        <ele>358.809</ele>
        <time>2013-08-03T06:19:55Z</time>
      </trkpt>
      <trkpt lat="45.66328" lon="6.43028">
        <ele>358.528</ele>
        <time>2013-08-03T06:20:03Z</time>
      </trkpt>
      <trkpt lat="45.66323" lon="6.43034">
        <ele>358.502</ele>
        <time>2013-08-03T06:20:04Z</time>
      </trkpt>
      <trkpt lat="45.66291" lon="6.43073">
        <ele>358.618</ele>
        <time>2013-08-03T06:20:10Z</time>
      </trkpt>
      <trkpt lat="45.66286" lon="6.43081">
        <ele>358.714</ele>
        <time>2013-08-03T06:20:11Z</time>
      </trkpt>
      <trkpt lat="45.66262" lon="6.43152">
        <ele>360.392</ele>
        <time>2013-08-03T06:20:19Z</time>
      </trkpt>
      <trkpt lat="45.66241" lon="6.43213">
        <ele>361.884</ele>
        <time>2013-08-03T06:20:27Z</time>
      </trkpt>
      <trkpt lat="45.66222" lon="6.43264">
        <ele>361.942</ele>
        <time>2013-08-03T06:20:34Z</time>
      </trkpt>
      <trkpt lat="45.66201" lon="6.43296">
        <ele>361.482</ele>
        <time>2013-08-03T06:20:39Z</time>
      </trkpt>
      <trkpt lat="45.66193" lon="6.43302">
        <ele>361.554</ele>
        <time>2013-08-03T06:20:40Z</time>
      </trkpt>
      <trkpt lat="45.66138" lon="6.43318">
        <ele>362.49</ele>
        <time>2013-08-03T06:20:48Z</time>
      </trkpt>
      <trkpt lat="45.66118" lon="6.43323">
        <ele>362.657</ele>
        <time>2013-08-03T06:20:51Z</time>
      </trkpt>
      <trkpt lat="45.66065" lon="6.43312">
        <ele>362.753</ele>
        <time>2013-08-03T06:20:59Z</time>
      </trkpt>
      <trkpt lat="45.66029" lon="6.43313">
        <ele>362.637</ele>
        <time>2013-08-03T06:21:04Z</time>
      </trkpt>
      <trkpt lat="45.65988" lon="6.43329">
        <ele>362.771</ele>
        <time>2013-08-03T06:21:10Z</time>
      </trkpt>
      <trkpt lat="45.65942" lon="6.43365">
        <ele>363.333</ele>
        <time>2013-08-03T06:21:18Z</time>
      </trkpt>
      <trkpt lat="45.65899" lon="6.43392">
        <ele>363.617</ele>
        <time>2013-08-03T06:21:25Z</time>
      </trkpt>
      <trkpt lat="45.65862" lon="6.43406">
        <ele>364.002</ele>
        <time>2013-08-03T06:21:31Z</time>
      </trkpt>
      <trkpt lat="45.65812" lon="6.43416">
        <ele>364.892</ele>
        <time>2013-08-03T06:21:39Z</time>
      </trkpt>
      <trkpt lat="45.65764" lon="6.43436">
        <ele>365.102</ele>
        <time>2013-08-03T06:21:47Z</time>
      </trkpt>
      <trkpt lat="45.65708" lon="6.43467">
        <ele>365.45</ele>
        <time>2013-08-03T06:21:56Z</time>
      </trkpt>
      <trkpt lat="45.65664" lon="6.43498">
        <ele>366.314</ele>
        <time>2013-08-03T06:22:04Z</time>
      </trkpt>
      <trkpt lat="45.65635" lon="6.43529">
        <ele>366.896</ele>
        <time>2013-08-03T06:22:10Z</time>
      </trkpt>
      <trkpt lat="45.65626" lon="6.43542">
        <ele>367.116</ele>
        <time>2013-08-03T06:22:12Z</time>
      </trkpt>
      <trkpt lat="45.65593" lon="6.43556">
        <ele>368.323</ele>
        <time>2013-08-03T06:22:18Z</time>
      </trkpt>
      <trkpt lat="45.65583" lon="6.43558">
        <ele>368.707</ele>
        <time>2013-08-03T06:22:20Z</time>
      </trkpt>
      <trkpt lat="45.65539" lon="6.43573">
        <ele>370.47</ele>
        <time>2013-08-03T06:22:28Z</time>
      </trkpt>
      <trkpt lat="45.65525" lon="6.4358">
        <ele>371.355</ele>
        <time>2013-08-03T06:22:31Z</time>
      </trkpt>
      <trkpt lat="45.65493" lon="6.43592">
        <ele>372.047</ele>
        <time>2013-08-03T06:22:37Z</time>
      </trkpt>
      <trkpt lat="45.65456" lon="6.43601">
        <ele>371.902</ele>
        <time>2013-08-03T06:22:43Z</time>
      </trkpt>
      <trkpt lat="45.65419" lon="6.43627">
        <ele>371.416</ele>
        <time>2013-08-03T06:22:49Z</time>
      </trkpt>
      <trkpt lat="45.65397" lon="6.43648">
        <ele>371.535</ele>
        <time>2013-08-03T06:22:53Z</time>
      </trkpt>
      <trkpt lat="45.65368" lon="6.43693">
        <ele>372.683</ele>
        <time>2013-08-03T06:23:00Z</time>
      </trkpt>
      <trkpt lat="45.65357" lon="6.43713">
        <ele>373.148</ele>
        <time>2013-08-03T06:23:03Z</time>
      </trkpt>
      <trkpt lat="45.65338" lon="6.43731">
        <ele>373.483</ele>
        <time>2013-08-03T06:23:07Z</time>
      </trkpt>
      <trkpt lat="45.6532" lon="6.43739">
        <ele>373.125</ele>
        <time>2013-08-03T06:23:10Z</time>
      </trkpt>
      <trkpt lat="45.65302" lon="6.43747">
        <ele>372.913</ele>
        <time>2013-08-03T06:23:13Z</time>
      </trkpt>
      <trkpt lat="45.65302" lon="6.43747">
        <ele>372.57</ele>
        <time>2013-08-03T06:23:16Z</time>
      </trkpt>
      <trkpt lat="45.65263" lon="6.43769">
        <ele>372.442</ele>
        <time>2013-08-03T06:23:20Z</time>
      </trkpt>
      <trkpt lat="45.65208" lon="6.43811">
        <ele>371.936</ele>
        <time>2013-08-03T06:23:29Z</time>
      </trkpt>
      <trkpt lat="45.65172" lon="6.43843">
        <ele>371.568</ele>
        <time>2013-08-03T06:23:35Z</time>
      </trkpt>
      <trkpt lat="45.65125" lon="6.43886">
        <ele>372.18</ele>
        <time>2013-08-03T06:23:43Z</time>
      </trkpt>
      <trkpt lat="45.65077" lon="6.43922">
        <ele>373.021</ele>
        <time>2013-08-03T06:23:51Z</time>
      </trkpt>
      <trkpt lat="45.65027" lon="6.43957">
        <ele>372.187</ele>
        <time>2013-08-03T06:23:59Z</time>
      </trkpt>
      <trkpt lat="45.6496" lon="6.43993">
        <ele>371.425</ele>
        <time>2013-08-03T06:24:08Z</time>
      </trkpt>
      <trkpt lat="45.64896" lon="6.44025">
        <ele>371.095</ele>
        <time>2013-08-03T06:24:17Z</time>
      </trkpt>
      <trkpt lat="45.64839" lon="6.44047">
        <ele>370.804</ele>
        <time>2013-08-03T06:24:25Z</time>
      </trkpt>
      <trkpt lat="45.64807" lon="6.44056">
        <ele>370.302</ele>
        <time>2013-08-03T06:24:30Z</time>
      </trkpt>
      <trkpt lat="45.64778" lon="6.44066">
        <ele>369.346</ele>
        <time>2013-08-03T06:24:35Z</time>
      </trkpt>
      <trkpt lat="45.64725" lon="6.44079">
        <ele>368.245</ele>
        <time>2013-08-03T06:24:42Z</time>
      </trkpt>
      <trkpt lat="45.6465" lon="6.44096">
        <ele>366.837</ele>
        <time>2013-08-03T06:24:51Z</time>
      </trkpt>
      <trkpt lat="45.6458" lon="6.4411">
        <ele>365.04</ele>
        <time>2013-08-03T06:24:59Z</time>
      </trkpt>
      <trkpt lat="45.645" lon="6.44127">
        <ele>363.768</ele>
        <time>2013-08-03T06:25:08Z</time>
      </trkpt>
      <trkpt lat="45.64391" lon="6.44153">
        <ele>363.985</ele>
        <time>2013-08-03T06:25:21Z</time>
      </trkpt>
      <trkpt lat="45.64313" lon="6.44173">
        <ele>364.354</ele>
        <time>2013-08-03T06:25:31Z</time>
      </trkpt>
      <trkpt lat="45.64263" lon="6.44186">
        <ele>364.611</ele>
        <time>2013-08-03T06:25:38Z</time>
      </trkpt>
      <trkpt lat="45.64205" lon="6.44202">
        <ele>364.915</ele>
        <time>2013-08-03T06:25:46Z</time>
      </trkpt>
      <trkpt lat="45.64154" lon="6.44216">
        <ele>365.503</ele>
        <time>2013-08-03T06:25:53Z</time>
      </trkpt>
      <trkpt lat="45.64068" lon="6.44241">
        <ele>366.281</ele>
        <time>2013-08-03T06:26:05Z</time>
      </trkpt>
      <trkpt lat="45.64006" lon="6.44257">
        <ele>366.763</ele>
        <time>2013-08-03T06:26:14Z</time>
      </trkpt>
      <trkpt lat="45.63946" lon="6.44271">
        <ele>368.237</ele>
        <time>2013-08-03T06:26:23Z</time>
      </trkpt>
      <trkpt lat="45.63899" lon="6.44291">
        <ele>369.469</ele>
        <time>2013-08-03T06:26:30Z</time>
      </trkpt>
      <trkpt lat="45.63886" lon="6.44298">
        <ele>369.323</ele>
        <time>2013-08-03T06:26:32Z</time>
      </trkpt>
      <trkpt lat="45.63844" lon="6.44326">
        <ele>368.183</ele>
        <time>2013-08-03T06:26:38Z</time>
      </trkpt>
      <trkpt lat="45.63784" lon="6.44366">
        <ele>367.27</ele>
        <time>2013-08-03T06:26:46Z</time>
      </trkpt>
      <trkpt lat="45.63735" lon="6.444">
        <ele>366.545</ele>
        <time>2013-08-03T06:26:53Z</time>
      </trkpt>
      <trkpt lat="45.63694" lon="6.44425">
        <ele>366.881</ele>
        <time>2013-08-03T06:26:59Z</time>
      </trkpt>
      <trkpt lat="45.63647" lon="6.44456">
        <ele>367.379</ele>
        <time>2013-08-03T06:27:06Z</time>
      </trkpt>
      <trkpt lat="45.63591" lon="6.44493">
        <ele>367.81</ele>
        <time>2013-08-03T06:27:14Z</time>
      </trkpt>
      <trkpt lat="45.63537" lon="6.44527">
        <ele>367.875</ele>
        <time>2013-08-03T06:27:22Z</time>
      </trkpt>
      <trkpt lat="45.63471" lon="6.4457">
        <ele>367.201</ele>
        <time>2013-08-03T06:27:32Z</time>
      </trkpt>
      <trkpt lat="45.63427" lon="6.44598">
        <ele>367.503</ele>
        <time>2013-08-03T06:27:39Z</time>
      </trkpt>
      <trkpt lat="45.63379" lon="6.44629">
        <ele>368.66</ele>
        <time>2013-08-03T06:27:47Z</time>
      </trkpt>
      <trkpt lat="45.6332" lon="6.44666">
        <ele>368.419</ele>
        <time>2013-08-03T06:27:56Z</time>
      </trkpt>
      <trkpt lat="45.63271" lon="6.44682">
        <ele>368.046</ele>
        <time>2013-08-03T06:28:03Z</time>
      </trkpt>
      <trkpt lat="45.6322" lon="6.44691">
        <ele>368.103</ele>
        <time>2013-08-03T06:28:10Z</time>
      </trkpt>
      <trkpt lat="45.63155" lon="6.44689">
        <ele>368.416</ele>
        <time>2013-08-03T06:28:19Z</time>
      </trkpt>
      <trkpt lat="45.63121" lon="6.44698">
        <ele>368.451</ele>
        <time>2013-08-03T06:28:24Z</time>
      </trkpt>
      <trkpt lat="45.63091" lon="6.44711">
        <ele>368.404</ele>
        <time>2013-08-03T06:28:29Z</time>
      </trkpt>
      <trkpt lat="45.63047" lon="6.44724">
        <ele>368.908</ele>
        <time>2013-08-03T06:28:36Z</time>
      </trkpt>
      <trkpt lat="45.63001" lon="6.44731">
        <ele>369.205</ele>
        <time>2013-08-03T06:28:43Z</time>
      </trkpt>
      <trkpt lat="45.62957" lon="6.44737">
        <ele>369.206</ele>
        <time>2013-08-03T06:28:50Z</time>
      </trkpt>
      <trkpt lat="45.62918" lon="6.44745">
        <ele>369.571</ele>
        <time>2013-08-03T06:28:56Z</time>
      </trkpt>
      <trkpt lat="45.62867" lon="6.44765">
        <ele>369.664</ele>
        <time>2013-08-03T06:29:04Z</time>
      </trkpt>
      <trkpt lat="45.62818" lon="6.44792">
        <ele>369.505</ele>
        <time>2013-08-03T06:29:12Z</time>
      </trkpt>
      <trkpt lat="45.62786" lon="6.44803">
        <ele>369.392</ele>
        <time>2013-08-03T06:29:17Z</time>
      </trkpt>
      <trkpt lat="45.62747" lon="6.44817">
        <ele>370.073</ele>
        <time>2013-08-03T06:29:23Z</time>
      </trkpt>
      <trkpt lat="45.6268" lon="6.4484">
        <ele>370.38</ele>
        <time>2013-08-03T06:29:33Z</time>
      </trkpt>
      <trkpt lat="45.62648" lon="6.4485">
        <ele>371.099</ele>
        <time>2013-08-03T06:29:38Z</time>
      </trkpt>
      <trkpt lat="45.62619" lon="6.44857">
        <ele>371.465</ele>
        <time>2013-08-03T06:29:43Z</time>
      </trkpt>
      <trkpt lat="45.62574" lon="6.44869">
        <ele>371.408</ele>
        <time>2013-08-03T06:29:50Z</time>
      </trkpt>
      <trkpt lat="45.625" lon="6.44885">
        <ele>372.208</ele>
        <time>2013-08-03T06:30:01Z</time>
      </trkpt>
      <trkpt lat="45.62442" lon="6.449">
        <ele>372.563</ele>
        <time>2013-08-03T06:30:10Z</time>
      </trkpt>
      <trkpt lat="45.62384" lon="6.44904">
        <ele>372.999</ele>
        <time>2013-08-03T06:30:19Z</time>
      </trkpt>
      <trkpt lat="45.62365" lon="6.44908">
        <ele>373.234</ele>
        <time>2013-08-03T06:30:22Z</time>
      </trkpt>
      <trkpt lat="45.62352" lon="6.44913">
        <ele>373.525</ele>
        <time>2013-08-03T06:30:26Z</time>
      </trkpt>
      <trkpt lat="45.62352" lon="6.44913">
        <ele>373.493</ele>
        <time>2013-08-03T06:30:27Z</time>
      </trkpt>
      <trkpt lat="45.62308" lon="6.44925">
        <ele>373.842</ele>
        <time>2013-08-03T06:30:32Z</time>
      </trkpt>
      <trkpt lat="45.62259" lon="6.44938">
        <ele>375.16</ele>
        <time>2013-08-03T06:30:40Z</time>
      </trkpt>
      <trkpt lat="45.62184" lon="6.44956">
        <ele>376.499</ele>
        <time>2013-08-03T06:30:52Z</time>
      </trkpt>
      <trkpt lat="45.62129" lon="6.44972">
        <ele>377.583</ele>
        <time>2013-08-03T06:31:01Z</time>
      </trkpt>
      <trkpt lat="45.62117" lon="6.44975">
        <ele>377.908</ele>
        <time>2013-08-03T06:31:03Z</time>
      </trkpt>
      <trkpt lat="45.62107" lon="6.44979">
        <ele>378.641</ele>
        <time>2013-08-03T06:31:08Z</time>
      </trkpt>
      <trkpt lat="45.62022" lon="6.4502">
        <ele>380.852</ele>
        <time>2013-08-03T06:31:20Z</time>
      </trkpt>
      <trkpt lat="45.61965" lon="6.45043">
        <ele>383.287</ele>
        <time>2013-08-03T06:31:31Z</time>
      </trkpt>
      <trkpt lat="45.6191" lon="6.45066">
        <ele>385.758</ele>
        <time>2013-08-03T06:31:42Z</time>
      </trkpt>
      <trkpt lat="45.61856" lon="6.45089">
        <ele>388.298</ele>
        <time>2013-08-03T06:31:53Z</time>
      </trkpt>
      <trkpt lat="45.61807" lon="6.45108">
        <ele>390.752</ele>
        <time>2013-08-03T06:32:03Z</time>
      </trkpt>
      <trkpt lat="45.61769" lon="6.45125">
        <ele>392.56</ele>
        <time>2013-08-03T06:32:11Z</time>
      </trkpt>
      <trkpt lat="45.61736" lon="6.45142">
        <ele>392.903</ele>
        <time>2013-08-03T06:32:18Z</time>
      </trkpt>
      <trkpt lat="45.61693" lon="6.45163">
        <ele>392.535</ele>
        <time>2013-08-03T06:32:26Z</time>
      </trkpt>
      <trkpt lat="45.61646" lon="6.45187">
        <ele>391.911</ele>
        <time>2013-08-03T06:32:34Z</time>
      </trkpt>
      <trkpt lat="45.61601" lon="6.45213">
        <ele>390.505</ele>
        <time>2013-08-03T06:32:41Z</time>
      </trkpt>
      <trkpt lat="45.61587" lon="6.45221">
        <ele>389.908</ele>
        <time>2013-08-03T06:32:43Z</time>
      </trkpt>
      <trkpt lat="45.61541" lon="6.45264">
        <ele>387.723</ele>
        <time>2013-08-03T06:32:50Z</time>
      </trkpt>
      <trkpt lat="45.61504" lon="6.45285">
        <ele>386.428</ele>
        <time>2013-08-03T06:32:55Z</time>
      </trkpt>
      <trkpt lat="45.61446" lon="6.45295">
        <ele>383.885</ele>
        <time>2013-08-03T06:33:02Z</time>
      </trkpt>
      <trkpt lat="45.6139" lon="6.45304">
        <ele>382.039</ele>
        <time>2013-08-03T06:33:09Z</time>
      </trkpt>
      <trkpt lat="45.61359" lon="6.45299">
        <ele>380.864</ele>
        <time>2013-08-03T06:33:13Z</time>
      </trkpt>
      <trkpt lat="45.61322" lon="6.45279">
        <ele>380.135</ele>
        <time>2013-08-03T06:33:18Z</time>
      </trkpt>
      <trkpt lat="45.61316" lon="6.45276">
        <ele>379.89</ele>
        <time>2013-08-03T06:33:19Z</time>
      </trkpt>
      <trkpt lat="45.61264" lon="6.45255">
        <ele>379.717</ele>
        <time>2013-08-03T06:33:26Z</time>
      </trkpt>
      <trkpt lat="45.61198" lon="6.45235">
        <ele>378.787</ele>
        <time>2013-08-03T06:33:35Z</time>
      </trkpt>
      <trkpt lat="45.61117" lon="6.45211">
        <ele>378.447</ele>
        <time>2013-08-03T06:33:46Z</time>
      </trkpt>
      <trkpt lat="45.61048" lon="6.4519">
        <ele>379.005</ele>
        <time>2013-08-03T06:33:56Z</time>
      </trkpt>
      <trkpt lat="45.61001" lon="6.45176">
        <ele>381.694</ele>
        <time>2013-08-03T06:34:04Z</time>
      </trkpt>
      <trkpt lat="45.60963" lon="6.4517">
        <ele>383.677</ele>
        <time>2013-08-03T06:34:11Z</time>
      </trkpt>
      <trkpt lat="45.60929" lon="6.45174">
        <ele>385.035</ele>
        <time>2013-08-03T06:34:17Z</time>
      </trkpt>
      <trkpt lat="45.60901" lon="6.45176">
        <ele>385.785</ele>
        <time>2013-08-03T06:34:24Z</time>
      </trkpt>
      <trkpt lat="45.60901" lon="6.45176">
        <ele>385.677</ele>
        <time>2013-08-03T06:34:26Z</time>
      </trkpt>
      <trkpt lat="45.60837" lon="6.45159">
        <ele>385.039</ele>
        <time>2013-08-03T06:34:33Z</time>
      </trkpt>
      <trkpt lat="45.60792" lon="6.45139">
        <ele>383.367</ele>
        <time>2013-08-03T06:34:39Z</time>
      </trkpt>
      <trkpt lat="45.60724" lon="6.45113">
        <ele>380.547</ele>
        <time>2013-08-03T06:34:47Z</time>
      </trkpt>
      <trkpt lat="45.60667" lon="6.45097">
        <ele>380.312</ele>
        <time>2013-08-03T06:34:54Z</time>
      </trkpt>
      <trkpt lat="45.606" lon="6.45075">
        <ele>380.208</ele>
        <time>2013-08-03T06:35:03Z</time>
      </trkpt>
      <trkpt lat="45.60531" lon="6.45052">
        <ele>380.965</ele>
        <time>2013-08-03T06:35:13Z</time>
      </trkpt>
      <trkpt lat="45.60434" lon="6.45024">
        <ele>381.466</ele>
        <time>2013-08-03T06:35:27Z</time>
      </trkpt>
      <trkpt lat="45.6037" lon="6.45006">
        <ele>381.488</ele>
        <time>2013-08-03T06:35:36Z</time>
      </trkpt>
      <trkpt lat="45.60297" lon="6.44983">
        <ele>381.581</ele>
        <time>2013-08-03T06:35:46Z</time>
      </trkpt>
      <trkpt lat="45.6024" lon="6.44964">
        <ele>382.048</ele>
        <time>2013-08-03T06:35:54Z</time>
      </trkpt>
      <trkpt lat="45.60184" lon="6.44946">
        <ele>381.823</ele>
        <time>2013-08-03T06:36:02Z</time>
      </trkpt>
      <trkpt lat="45.60128" lon="6.44932">
        <ele>381.883</ele>
        <time>2013-08-03T06:36:10Z</time>
      </trkpt>
      <trkpt lat="45.60096" lon="6.44935">
        <ele>382.52</ele>
        <time>2013-08-03T06:36:15Z</time>
      </trkpt>
      <trkpt lat="45.60064" lon="6.44939">
        <ele>383.781</ele>
        <time>2013-08-03T06:36:20Z</time>
      </trkpt>
      <trkpt lat="45.60025" lon="6.44926">
        <ele>383.981</ele>
        <time>2013-08-03T06:36:26Z</time>
      </trkpt>
      <trkpt lat="45.59989" lon="6.44895">
        <ele>383.431</ele>
        <time>2013-08-03T06:36:32Z</time>
      </trkpt>
      <trkpt lat="45.59983" lon="6.44889">
        <ele>383.256</ele>
        <time>2013-08-03T06:36:33Z</time>
      </trkpt>
      <trkpt lat="45.59936" lon="6.44871">
        <ele>383.322</ele>
        <time>2013-08-03T06:36:40Z</time>
      </trkpt>
      <trkpt lat="45.5987" lon="6.44852">
        <ele>383.952</ele>
        <time>2013-08-03T06:36:50Z</time>
      </trkpt>
      <trkpt lat="45.59827" lon="6.44839">
        <ele>384.217</ele>
        <time>2013-08-03T06:36:57Z</time>
      </trkpt>
      <trkpt lat="45.59786" lon="6.44827">
        <ele>386.18</ele>
        <time>2013-08-03T06:37:04Z</time>
      </trkpt>
      <trkpt lat="45.59734" lon="6.44808">
        <ele>387.516</ele>
        <time>2013-08-03T06:37:13Z</time>
      </trkpt>
      <trkpt lat="45.5966" lon="6.44786">
        <ele>387.735</ele>
        <time>2013-08-03T06:37:25Z</time>
      </trkpt>
      <trkpt lat="45.59609" lon="6.44773">
        <ele>387.664</ele>
        <time>2013-08-03T06:37:33Z</time>
      </trkpt>
      <trkpt lat="45.59567" lon="6.44784">
        <ele>387.874</ele>
        <time>2013-08-03T06:37:40Z</time>
      </trkpt>
      <trkpt lat="45.5953" lon="6.44801">
        <ele>387.834</ele>
        <time>2013-08-03T06:37:46Z</time>
      </trkpt>
      <trkpt lat="45.59483" lon="6.44814">
        <ele>388.036</ele>
        <time>2013-08-03T06:37:54Z</time>
      </trkpt>
      <trkpt lat="45.59473" lon="6.44817">
        <ele>388.356</ele>
        <time>2013-08-03T06:37:56Z</time>
      </trkpt>
      <trkpt lat="45.59455" lon="6.4482">
        <ele>389.491</ele>
        <time>2013-08-03T06:38:00Z</time>
      </trkpt>
      <trkpt lat="45.59446" lon="6.44816">
        <ele>390.268</ele>
        <time>2013-08-03T06:38:05Z</time>
      </trkpt>
      <trkpt lat="45.59446" lon="6.44816">
        <ele>390.367</ele>
        <time>2013-08-03T06:38:06Z</time>
      </trkpt>
      <trkpt lat="45.59446" lon="6.44816">
        <ele>390.643</ele>
        <time>2013-08-03T06:38:08Z</time>
      </trkpt>
      <trkpt lat="45.59423" lon="6.4477">
        <ele>391.097</ele>
        <time>2013-08-03T06:38:12Z</time>
      </trkpt>
      <trkpt lat="45.5942" lon="6.44757">
        <ele>391.379</ele>
        <time>2013-08-03T06:38:14Z</time>
      </trkpt>
      <trkpt lat="45.59419" lon="6.44723">
        <ele>391.561</ele>
        <time>2013-08-03T06:38:19Z</time>
      </trkpt>
      <trkpt lat="45.59436" lon="6.44713">
        <ele>390.696</ele>
        <time>2013-08-03T06:38:22Z</time>
      </trkpt>
      <trkpt lat="45.59453" lon="6.44706">
        <ele>389.879</ele>
        <time>2013-08-03T06:38:25Z</time>
      </trkpt>
      <trkpt lat="45.59457" lon="6.44692">
        <ele>389.224</ele>
        <time>2013-08-03T06:38:27Z</time>
      </trkpt>
      <trkpt lat="45.59453" lon="6.44677">
        <ele>388.917</ele>
        <time>2013-08-03T06:38:29Z</time>
      </trkpt>
      <trkpt lat="45.59429" lon="6.4464">
        <ele>389.112</ele>
        <time>2013-08-03T06:38:36Z</time>
      </trkpt>
      <trkpt lat="45.59414" lon="6.44618">
        <ele>389.152</ele>
        <time>2013-08-03T06:38:40Z</time>
      </trkpt>
      <trkpt lat="45.59401" lon="6.44606">
        <ele>389.418</ele>
        <time>2013-08-03T06:38:44Z</time>
      </trkpt>
      <trkpt lat="45.5938" lon="6.44607">
        <ele>389.449</ele>
        <time>2013-08-03T06:38:47Z</time>
      </trkpt>
      <trkpt lat="45.59363" lon="6.44606">
        <ele>389.84</ele>
        <time>2013-08-03T06:38:50Z</time>
      </trkpt>
      <trkpt lat="45.59337" lon="6.44611">
        <ele>390.504</ele>
        <time>2013-08-03T06:38:55Z</time>
      </trkpt>
      <trkpt lat="45.59332" lon="6.44612">
        <ele>390.579</ele>
        <time>2013-08-03T06:38:56Z</time>
      </trkpt>
      <trkpt lat="45.59303" lon="6.44624">
        <ele>391.118</ele>
        <time>2013-08-03T06:39:03Z</time>
      </trkpt>
      <trkpt lat="45.59275" lon="6.44638">
        <ele>391.546</ele>
        <time>2013-08-03T06:39:08Z</time>
      </trkpt>
      <trkpt lat="45.59272" lon="6.44639">
        <ele>391.788</ele>
        <time>2013-08-03T06:39:10Z</time>
      </trkpt>
      <trkpt lat="45.59255" lon="6.44644">
        <ele>391.864</ele>
        <time>2013-08-03T06:39:12Z</time>
      </trkpt>
      <trkpt lat="45.59233" lon="6.44644">
        <ele>392.381</ele>
        <time>2013-08-03T06:39:18Z</time>
      </trkpt>
      <trkpt lat="45.59193" lon="6.44638">
        <ele>394.159</ele>
        <time>2013-08-03T06:39:26Z</time>
      </trkpt>
      <trkpt lat="45.59143" lon="6.44634">
        <ele>396.178</ele>
        <time>2013-08-03T06:39:36Z</time>
      </trkpt>
      <trkpt lat="45.59109" lon="6.44627">
        <ele>397.141</ele>
        <time>2013-08-03T06:39:42Z</time>
      </trkpt>
      <trkpt lat="45.59087" lon="6.44624">
        <ele>397.863</ele>
        <time>2013-08-03T06:39:46Z</time>
      </trkpt>
      <trkpt lat="45.59071" lon="6.44622">
        <ele>398.467</ele>
        <time>2013-08-03T06:39:49Z</time>
      </trkpt>
      <trkpt lat="45.59035" lon="6.44614">
        <ele>399.229</ele>
        <time>2013-08-03T06:39:56Z</time>
      </trkpt>
      <trkpt lat="45.59006" lon="6.44607">
        <ele>399.385</ele>
        <time>2013-08-03T06:40:02Z</time>
      </trkpt>
      <trkpt lat="45.58972" lon="6.44601">
        <ele>399.362</ele>
        <time>2013-08-03T06:40:09Z</time>
      </trkpt>
      <trkpt lat="45.58934" lon="6.44595">
        <ele>398.78</ele>
        <time>2013-08-03T06:40:16Z</time>
      </trkpt>
      <trkpt lat="45.58895" lon="6.44589">
        <ele>398.216</ele>
        <time>2013-08-03T06:40:23Z</time>
      </trkpt>
      <trkpt lat="45.58859" lon="6.44583">
        <ele>397.244</ele>
        <time>2013-08-03T06:40:29Z</time>
      </trkpt>
      <trkpt lat="45.58815" lon="6.44585">
        <ele>396.141</ele>
        <time>2013-08-03T06:40:36Z</time>
      </trkpt>
      <trkpt lat="45.58768" lon="6.44591">
        <ele>395.239</ele>
        <time>2013-08-03T06:40:43Z</time>
      </trkpt>
      <trkpt lat="45.58721" lon="6.44598">
        <ele>394.582</ele>
        <time>2013-08-03T06:40:50Z</time>
      </trkpt>
      <trkpt lat="45.58708" lon="6.44601">
        <ele>394.521</ele>
        <time>2013-08-03T06:40:52Z</time>
      </trkpt>
      <trkpt lat="45.58671" lon="6.44628">
        <ele>394.304</ele>
        <time>2013-08-03T06:40:58Z</time>
      </trkpt>
      <trkpt lat="45.58638" lon="6.44677">
        <ele>394.12</ele>
        <time>2013-08-03T06:41:05Z</time>
      </trkpt>
      <trkpt lat="45.58597" lon="6.44742">
        <ele>393.657</ele>
        <time>2013-08-03T06:41:14Z</time>
      </trkpt>
      <trkpt lat="45.58565" lon="6.44791">
        <ele>393.38</ele>
        <time>2013-08-03T06:41:21Z</time>
      </trkpt>
      <trkpt lat="45.58537" lon="6.44833">
        <ele>393.359</ele>
        <time>2013-08-03T06:41:27Z</time>
      </trkpt>
      <trkpt lat="45.58496" lon="6.44887">
        <ele>393.745</ele>
        <time>2013-08-03T06:41:35Z</time>
      </trkpt>
      <trkpt lat="45.58451" lon="6.44962">
        <ele>394.264</ele>
        <time>2013-08-03T06:41:45Z</time>
      </trkpt>
      <trkpt lat="45.58433" lon="6.44992">
        <ele>394.692</ele>
        <time>2013-08-03T06:41:49Z</time>
      </trkpt>
      <trkpt lat="45.58387" lon="6.45045">
        <ele>395.086</ele>
        <time>2013-08-03T06:41:58Z</time>
      </trkpt>
      <trkpt lat="45.58349" lon="6.45084">
        <ele>397.017</ele>
        <time>2013-08-03T06:42:05Z</time>
      </trkpt>
      <trkpt lat="45.58327" lon="6.45115">
        <ele>397.085</ele>
        <time>2013-08-03T06:42:10Z</time>
      </trkpt>
      <trkpt lat="45.58306" lon="6.45153">
        <ele>396.764</ele>
        <time>2013-08-03T06:42:15Z</time>
      </trkpt>
      <trkpt lat="45.58296" lon="6.45167">
        <ele>396.742</ele>
        <time>2013-08-03T06:42:17Z</time>
      </trkpt>
      <trkpt lat="45.58273" lon="6.45189">
        <ele>396.536</ele>
        <time>2013-08-03T06:42:21Z</time>
      </trkpt>
      <trkpt lat="45.58221" lon="6.45199">
        <ele>396.266</ele>
        <time>2013-08-03T06:42:28Z</time>
      </trkpt>
      <trkpt lat="45.58187" lon="6.45217">
        <ele>396.017</ele>
        <time>2013-08-03T06:42:33Z</time>
      </trkpt>
      <trkpt lat="45.58166" lon="6.45247">
        <ele>395.696</ele>
        <time>2013-08-03T06:42:37Z</time>
      </trkpt>
      <trkpt lat="45.58147" lon="6.45305">
        <ele>395.376</ele>
        <time>2013-08-03T06:42:43Z</time>
      </trkpt>
      <trkpt lat="45.58142" lon="6.45336">
        <ele>395.148</ele>
        <time>2013-08-03T06:42:46Z</time>
      </trkpt>
      <trkpt lat="45.58129" lon="6.45373">
        <ele>395.22</ele>
        <time>2013-08-03T06:42:50Z</time>
      </trkpt>
      <trkpt lat="45.58106" lon="6.45395">
        <ele>395.687</ele>
        <time>2013-08-03T06:42:54Z</time>
      </trkpt>
      <trkpt lat="45.58045" lon="6.45422">
        <ele>396.673</ele>
        <time>2013-08-03T06:43:03Z</time>
      </trkpt>
      <trkpt lat="45.5798" lon="6.45465">
        <ele>397.267</ele>
        <time>2013-08-03T06:43:13Z</time>
      </trkpt>
      <trkpt lat="45.57921" lon="6.45522">
        <ele>397.646</ele>
        <time>2013-08-03T06:43:23Z</time>
      </trkpt>
      <trkpt lat="45.57883" lon="6.45564">
        <ele>397.959</ele>
        <time>2013-08-03T06:43:30Z</time>
      </trkpt>
      <trkpt lat="45.5785" lon="6.45618">
        <ele>399.024</ele>
        <time>2013-08-03T06:43:38Z</time>
      </trkpt>
      <trkpt lat="45.57812" lon="6.45684">
        <ele>399.491</ele>
        <time>2013-08-03T06:43:47Z</time>
      </trkpt>
      <trkpt lat="45.57766" lon="6.45755">
        <ele>399.819</ele>
        <time>2013-08-03T06:43:57Z</time>
      </trkpt>
      <trkpt lat="45.57731" lon="6.45799">
        <ele>400.51</ele>
        <time>2013-08-03T06:44:04Z</time>
      </trkpt>
      <trkpt lat="45.57694" lon="6.45839">
        <ele>400.641</ele>
        <time>2013-08-03T06:44:11Z</time>
      </trkpt>
      <trkpt lat="45.57634" lon="6.45901">
        <ele>401.194</ele>
        <time>2013-08-03T06:44:22Z</time>
      </trkpt>
      <trkpt lat="45.57579" lon="6.45952">
        <ele>402.238</ele>
        <time>2013-08-03T06:44:32Z</time>
      </trkpt>
      <trkpt lat="45.57511" lon="6.45997">
        <ele>401.7</ele>
        <time>2013-08-03T06:44:43Z</time>
      </trkpt>
      <trkpt lat="45.57446" lon="6.46039">
        <ele>401.787</ele>
        <time>2013-08-03T06:44:53Z</time>
      </trkpt>
      <trkpt lat="45.57397" lon="6.46074">
        <ele>401.911</ele>
        <time>2013-08-03T06:45:01Z</time>
      </trkpt>
      <trkpt lat="45.57375" lon="6.46089">
        <ele>401.908</ele>
        <time>2013-08-03T06:45:05Z</time>
      </trkpt>
      <trkpt lat="45.5735" lon="6.46116">
        <ele>402.618</ele>
        <time>2013-08-03T06:45:10Z</time>
      </trkpt>
      <trkpt lat="45.57346" lon="6.46131">
        <ele>403.348</ele>
        <time>2013-08-03T06:45:12Z</time>
      </trkpt>
      <trkpt lat="45.5733" lon="6.46154">
        <ele>403.799</ele>
        <time>2013-08-03T06:45:16Z</time>
      </trkpt>
      <trkpt lat="45.57272" lon="6.46201">
        <ele>403.331</ele>
        <time>2013-08-03T06:45:25Z</time>
      </trkpt>
      <trkpt lat="45.57224" lon="6.46229">
        <ele>403.657</ele>
        <time>2013-08-03T06:45:32Z</time>
      </trkpt>
      <trkpt lat="45.57218" lon="6.46232">
        <ele>403.72</ele>
        <time>2013-08-03T06:45:33Z</time>
      </trkpt>
      <trkpt lat="45.57187" lon="6.46239">
        <ele>403.778</ele>
        <time>2013-08-03T06:45:38Z</time>
      </trkpt>
      <trkpt lat="45.57152" lon="6.46271">
        <ele>404.212</ele>
        <time>2013-08-03T06:45:44Z</time>
      </trkpt>
      <trkpt lat="45.57123" lon="6.46293">
        <ele>404.5</ele>
        <time>2013-08-03T06:45:49Z</time>
      </trkpt>
      <trkpt lat="45.57099" lon="6.46311">
        <ele>404.683</ele>
        <time>2013-08-03T06:45:53Z</time>
      </trkpt>
      <trkpt lat="45.57061" lon="6.46337">
        <ele>404.89</ele>
        <time>2013-08-03T06:45:59Z</time>
      </trkpt>
      <trkpt lat="45.57031" lon="6.46353">
        <ele>404.953</ele>
        <time>2013-08-03T06:46:04Z</time>
      </trkpt>
      <trkpt lat="45.56993" lon="6.46367">
        <ele>405.567</ele>
        <time>2013-08-03T06:46:10Z</time>
      </trkpt>
      <trkpt lat="45.56986" lon="6.46371">
        <ele>405.619</ele>
        <time>2013-08-03T06:46:11Z</time>
      </trkpt>
      <trkpt lat="45.56943" lon="6.464">
        <ele>405.914</ele>
        <time>2013-08-03T06:46:18Z</time>
      </trkpt>
      <trkpt lat="45.56932" lon="6.46409">
        <ele>405.963</ele>
        <time>2013-08-03T06:46:20Z</time>
      </trkpt>
      <trkpt lat="45.56912" lon="6.46427">
        <ele>406.59</ele>
        <time>2013-08-03T06:46:24Z</time>
      </trkpt>
      <trkpt lat="45.56906" lon="6.46427">
        <ele>406.864</ele>
        <time>2013-08-03T06:46:25Z</time>
      </trkpt>
      <trkpt lat="45.56854" lon="6.46402">
        <ele>406.843</ele>
        <time>2013-08-03T06:46:33Z</time>
      </trkpt>
      <trkpt lat="45.56811" lon="6.46385">
        <ele>407.173</ele>
        <time>2013-08-03T06:46:40Z</time>
      </trkpt>
      <trkpt lat="45.56797" lon="6.46385">
        <ele>407.276</ele>
        <time>2013-08-03T06:46:42Z</time>
      </trkpt>
      <trkpt lat="45.56757" lon="6.46387">
        <ele>407.183</ele>
        <time>2013-08-03T06:46:48Z</time>
      </trkpt>
      <trkpt lat="45.56693" lon="6.46401">
        <ele>407.358</ele>
        <time>2013-08-03T06:46:57Z</time>
      </trkpt>
      <trkpt lat="45.56673" lon="6.46404">
        <ele>407.77</ele>
        <time>2013-08-03T06:47:00Z</time>
      </trkpt>
      <trkpt lat="45.56645" lon="6.46405">
        <ele>407.691</ele>
        <time>2013-08-03T06:47:04Z</time>
      </trkpt>
      <trkpt lat="45.56575" lon="6.46372">
        <ele>408.229</ele>
        <time>2013-08-03T06:47:15Z</time>
      </trkpt>
      <trkpt lat="45.56545" lon="6.46352">
        <ele>408.502</ele>
        <time>2013-08-03T06:47:20Z</time>
      </trkpt>
      <trkpt lat="45.56539" lon="6.46348">
        <ele>408.633</ele>
        <time>2013-08-03T06:47:21Z</time>
      </trkpt>
      <trkpt lat="45.56527" lon="6.46345">
        <ele>408.886</ele>
        <time>2013-08-03T06:47:23Z</time>
      </trkpt>
      <trkpt lat="45.56495" lon="6.4635">
        <ele>409.323</ele>
        <time>2013-08-03T06:47:28Z</time>
      </trkpt>
      <trkpt lat="45.56476" lon="6.46353">
        <ele>409.579</ele>
        <time>2013-08-03T06:47:31Z</time>
      </trkpt>
      <trkpt lat="45.56442" lon="6.4636">
        <ele>409.645</ele>
        <time>2013-08-03T06:47:36Z</time>
      </trkpt>
      <trkpt lat="45.56417" lon="6.46363">
        <ele>409.787</ele>
        <time>2013-08-03T06:47:40Z</time>
      </trkpt>
      <trkpt lat="45.56397" lon="6.46365">
        <ele>409.935</ele>
        <time>2013-08-03T06:47:43Z</time>
      </trkpt>
      <trkpt lat="45.56372" lon="6.4637">
        <ele>410.116</ele>
        <time>2013-08-03T06:47:47Z</time>
      </trkpt>
      <trkpt lat="45.56315" lon="6.46354">
        <ele>411.028</ele>
        <time>2013-08-03T06:47:56Z</time>
      </trkpt>
      <trkpt lat="45.56297" lon="6.46352">
        <ele>411.326</ele>
        <time>2013-08-03T06:47:59Z</time>
      </trkpt>
      <trkpt lat="45.56267" lon="6.46362">
        <ele>411.721</ele>
        <time>2013-08-03T06:48:04Z</time>
      </trkpt>
      <trkpt lat="45.56261" lon="6.46367">
        <ele>411.837</ele>
        <time>2013-08-03T06:48:05Z</time>
      </trkpt>
      <trkpt lat="45.56206" lon="6.46428">
        <ele>412.764</ele>
        <time>2013-08-03T06:48:16Z</time>
      </trkpt>
      <trkpt lat="45.56171" lon="6.46468">
        <ele>412.423</ele>
        <time>2013-08-03T06:48:23Z</time>
      </trkpt>
      <trkpt lat="45.56141" lon="6.46502">
        <ele>412.434</ele>
        <time>2013-08-03T06:48:29Z</time>
      </trkpt>
      <trkpt lat="45.5612" lon="6.46524">
        <ele>412.565</ele>
        <time>2013-08-03T06:48:33Z</time>
      </trkpt>
      <trkpt lat="45.56086" lon="6.46518">
        <ele>413</ele>
        <time>2013-08-03T06:48:39Z</time>
      </trkpt>
      <trkpt lat="45.56041" lon="6.46504">
        <ele>413.171</ele>
        <time>2013-08-03T06:48:46Z</time>
      </trkpt>
      <trkpt lat="45.55998" lon="6.46496">
        <ele>413.091</ele>
        <time>2013-08-03T06:48:52Z</time>
      </trkpt>
      <trkpt lat="45.55957" lon="6.46488">
        <ele>413.255</ele>
        <time>2013-08-03T06:48:58Z</time>
      </trkpt>
      <trkpt lat="45.55897" lon="6.46481">
        <ele>413.429</ele>
        <time>2013-08-03T06:49:05Z</time>
      </trkpt>
      <trkpt lat="45.55843" lon="6.46509">
        <ele>413.986</ele>
        <time>2013-08-03T06:49:13Z</time>
      </trkpt>
      <trkpt lat="45.55797" lon="6.46535">
        <ele>414.321</ele>
        <time>2013-08-03T06:49:20Z</time>
      </trkpt>
      <trkpt lat="45.55756" lon="6.46562">
        <ele>414.654</ele>
        <time>2013-08-03T06:49:27Z</time>
      </trkpt>
      <trkpt lat="45.55693" lon="6.46598">
        <ele>415.022</ele>
        <time>2013-08-03T06:49:37Z</time>
      </trkpt>
      <trkpt lat="45.55655" lon="6.46615">
        <ele>415.339</ele>
        <time>2013-08-03T06:49:43Z</time>
      </trkpt>
      <trkpt lat="45.556" lon="6.46642">
        <ele>416.703</ele>
        <time>2013-08-03T06:49:52Z</time>
      </trkpt>
      <trkpt lat="45.55552" lon="6.46663">
        <ele>418.383</ele>
        <time>2013-08-03T06:50:01Z</time>
      </trkpt>
      <trkpt lat="45.55523" lon="6.46675">
        <ele>419.38</ele>
        <time>2013-08-03T06:50:07Z</time>
      </trkpt>
      <trkpt lat="45.55488" lon="6.4669">
        <ele>421.008</ele>
        <time>2013-08-03T06:50:14Z</time>
      </trkpt>
      <trkpt lat="45.55442" lon="6.46711">
        <ele>421.649</ele>
        <time>2013-08-03T06:50:23Z</time>
      </trkpt>
      <trkpt lat="45.55399" lon="6.46733">
        <ele>421.219</ele>
        <time>2013-08-03T06:50:31Z</time>
      </trkpt>
      <trkpt lat="45.55352" lon="6.46757">
        <ele>420.934</ele>
        <time>2013-08-03T06:50:39Z</time>
      </trkpt>
      <trkpt lat="45.55292" lon="6.46788">
        <ele>420.746</ele>
        <time>2013-08-03T06:50:49Z</time>
      </trkpt>
      <trkpt lat="45.55214" lon="6.46828">
        <ele>420.645</ele>
        <time>2013-08-03T06:51:02Z</time>
      </trkpt>
      <trkpt lat="45.5517" lon="6.46837">
        <ele>420.836</ele>
        <time>2013-08-03T06:51:09Z</time>
      </trkpt>
      <trkpt lat="45.55126" lon="6.46831">
        <ele>420.906</ele>
        <time>2013-08-03T06:51:16Z</time>
      </trkpt>
      <trkpt lat="45.55077" lon="6.46816">
        <ele>421.423</ele>
        <time>2013-08-03T06:51:24Z</time>
      </trkpt>
      <trkpt lat="45.55031" lon="6.46795">
        <ele>421.974</ele>
        <time>2013-08-03T06:51:32Z</time>
      </trkpt>
      <trkpt lat="45.54996" lon="6.46765">
        <ele>422.873</ele>
        <time>2013-08-03T06:51:39Z</time>
      </trkpt>
      <trkpt lat="45.54968" lon="6.4674">
        <ele>424.691</ele>
        <time>2013-08-03T06:51:46Z</time>
      </trkpt>
      <trkpt lat="45.54938" lon="6.46713">
        <ele>427.014</ele>
        <time>2013-08-03T06:51:55Z</time>
      </trkpt>
      <trkpt lat="45.54918" lon="6.46695">
        <ele>428.19</ele>
        <time>2013-08-03T06:52:01Z</time>
      </trkpt>
      <trkpt lat="45.54904" lon="6.46683">
        <ele>429.175</ele>
        <time>2013-08-03T06:52:05Z</time>
      </trkpt>
      <trkpt lat="45.54881" lon="6.46661">
        <ele>430.962</ele>
        <time>2013-08-03T06:52:12Z</time>
      </trkpt>
      <trkpt lat="45.54857" lon="6.46641">
        <ele>432.68</ele>
        <time>2013-08-03T06:52:19Z</time>
      </trkpt>
      <trkpt lat="45.54839" lon="6.46625">
        <ele>434.473</ele>
        <time>2013-08-03T06:52:25Z</time>
      </trkpt>
      <trkpt lat="45.54821" lon="6.46609">
        <ele>435.884</ele>
        <time>2013-08-03T06:52:31Z</time>
      </trkpt>
      <trkpt lat="45.548" lon="6.4659">
        <ele>437.619</ele>
        <time>2013-08-03T06:52:38Z</time>
      </trkpt>
      <trkpt lat="45.54784" lon="6.46575">
        <ele>438.856</ele>
        <time>2013-08-03T06:52:44Z</time>
      </trkpt>
      <trkpt lat="45.54764" lon="6.46558">
        <ele>440.41</ele>
        <time>2013-08-03T06:52:51Z</time>
      </trkpt>
      <trkpt lat="45.5475" lon="6.46546">
        <ele>442.228</ele>
        <time>2013-08-03T06:52:57Z</time>
      </trkpt>
      <trkpt lat="45.54731" lon="6.4653">
        <ele>444.306</ele>
        <time>2013-08-03T06:53:05Z</time>
      </trkpt>
      <trkpt lat="45.54707" lon="6.46516">
        <ele>447.123</ele>
        <time>2013-08-03T06:53:14Z</time>
      </trkpt>
      <trkpt lat="45.5468" lon="6.46507">
        <ele>449.757</ele>
        <time>2013-08-03T06:53:24Z</time>
      </trkpt>
      <trkpt lat="45.54649" lon="6.46498">
        <ele>453.092</ele>
        <time>2013-08-03T06:53:35Z</time>
      </trkpt>
      <trkpt lat="45.54607" lon="6.46486">
        <ele>456.971</ele>
        <time>2013-08-03T06:53:49Z</time>
      </trkpt>
      <trkpt lat="45.54577" lon="6.46477">
        <ele>460.357</ele>
        <time>2013-08-03T06:54:00Z</time>
      </trkpt>
      <trkpt lat="45.54551" lon="6.46475">
        <ele>462.821</ele>
        <time>2013-08-03T06:54:09Z</time>
      </trkpt>
      <trkpt lat="45.54521" lon="6.46476">
        <ele>465.586</ele>
        <time>2013-08-03T06:54:19Z</time>
      </trkpt>
      <trkpt lat="45.5449" lon="6.46482">
        <ele>468.492</ele>
        <time>2013-08-03T06:54:29Z</time>
      </trkpt>
      <trkpt lat="45.54465" lon="6.46491">
        <ele>470.585</ele>
        <time>2013-08-03T06:54:37Z</time>
      </trkpt>
      <trkpt lat="45.5446" lon="6.46494">
        <ele>470.923</ele>
        <time>2013-08-03T06:54:40Z</time>
      </trkpt>
      <trkpt lat="45.54442" lon="6.465">
        <ele>471.674</ele>
        <time>2013-08-03T06:54:44Z</time>
      </trkpt>
      <trkpt lat="45.54455" lon="6.46495">
        <ele>472.385</ele>
        <time>2013-08-03T06:54:47Z</time>
      </trkpt>
      <trkpt lat="45.54459" lon="6.46494">
        <ele>472.791</ele>
        <time>2013-08-03T06:54:48Z</time>
      </trkpt>
      <trkpt lat="45.54488" lon="6.46482">
        <ele>475.072</ele>
        <time>2013-08-03T06:54:56Z</time>
      </trkpt>
      <trkpt lat="45.54502" lon="6.46478">
        <ele>476.288</ele>
        <time>2013-08-03T06:55:01Z</time>
      </trkpt>
      <trkpt lat="45.54519" lon="6.46476">
        <ele>477.824</ele>
        <time>2013-08-03T06:55:07Z</time>
      </trkpt>
      <trkpt lat="45.54537" lon="6.46475">
        <ele>479.299</ele>
        <time>2013-08-03T06:55:13Z</time>
      </trkpt>
      <trkpt lat="45.54554" lon="6.46475">
        <ele>480.719</ele>
        <time>2013-08-03T06:55:19Z</time>
      </trkpt>
      <trkpt lat="45.5457" lon="6.46476">
        <ele>482.127</ele>
        <time>2013-08-03T06:55:25Z</time>
      </trkpt>
      <trkpt lat="45.54586" lon="6.46479">
        <ele>483.4</ele>
        <time>2013-08-03T06:55:31Z</time>
      </trkpt>
      <trkpt lat="45.54608" lon="6.46431">
        <ele>485.215</ele>
        <time>2013-08-03T06:55:37Z</time>
      </trkpt>
      <trkpt lat="45.54622" lon="6.4643">
        <ele>486.703</ele>
        <time>2013-08-03T06:55:42Z</time>
      </trkpt>
      <trkpt lat="45.54643" lon="6.46425">
        <ele>488.195</ele>
        <time>2013-08-03T06:55:49Z</time>
      </trkpt>
      <trkpt lat="45.54659" lon="6.46423">
        <ele>489.969</ele>
        <time>2013-08-03T06:55:55Z</time>
      </trkpt>
      <trkpt lat="45.54673" lon="6.46425">
        <ele>491.66</ele>
        <time>2013-08-03T06:56:00Z</time>
      </trkpt>
      <trkpt lat="45.54688" lon="6.46427">
        <ele>493.432</ele>
        <time>2013-08-03T06:56:06Z</time>
      </trkpt>
      <trkpt lat="45.54703" lon="6.46427">
        <ele>495.706</ele>
        <time>2013-08-03T06:56:13Z</time>
      </trkpt>
      <trkpt lat="45.54708" lon="6.46425">
        <ele>496.229</ele>
        <time>2013-08-03T06:56:15Z</time>
      </trkpt>
      <trkpt lat="45.54711" lon="6.46421">
        <ele>497.641</ele>
        <time>2013-08-03T06:56:20Z</time>
      </trkpt>
      <trkpt lat="45.54711" lon="6.46419">
        <ele>497.769</ele>
        <time>2013-08-03T06:56:21Z</time>
      </trkpt>
      <trkpt lat="45.54688" lon="6.46427">
        <ele>499.152</ele>
        <time>2013-08-03T06:56:26Z</time>
      </trkpt>
      <trkpt lat="45.54667" lon="6.46423">
        <ele>501.434</ele>
        <time>2013-08-03T06:56:34Z</time>
      </trkpt>
      <trkpt lat="45.54652" lon="6.46423">
        <ele>503.562</ele>
        <time>2013-08-03T06:56:41Z</time>
      </trkpt>
      <trkpt lat="45.54629" lon="6.46428">
        <ele>507</ele>
        <time>2013-08-03T06:56:51Z</time>
      </trkpt>
      <trkpt lat="45.54611" lon="6.4643">
        <ele>508.624</ele>
        <time>2013-08-03T06:56:57Z</time>
      </trkpt>
      <trkpt lat="45.54596" lon="6.46433">
        <ele>509.814</ele>
        <time>2013-08-03T06:57:02Z</time>
      </trkpt>
      <trkpt lat="45.54582" lon="6.46434">
        <ele>510.561</ele>
        <time>2013-08-03T06:57:07Z</time>
      </trkpt>
      <trkpt lat="45.54565" lon="6.46436">
        <ele>511.568</ele>
        <time>2013-08-03T06:57:12Z</time>
      </trkpt>
      <trkpt lat="45.54543" lon="6.46437">
        <ele>512.75</ele>
        <time>2013-08-03T06:57:18Z</time>
      </trkpt>
      <trkpt lat="45.54523" lon="6.46439">
        <ele>513.893</ele>
        <time>2013-08-03T06:57:23Z</time>
      </trkpt>
      <trkpt lat="45.54493" lon="6.46446">
        <ele>515.333</ele>
        <time>2013-08-03T06:57:31Z</time>
      </trkpt>
      <trkpt lat="45.54471" lon="6.46455">
        <ele>516.373</ele>
        <time>2013-08-03T06:57:38Z</time>
      </trkpt>
      <trkpt lat="45.54446" lon="6.46468">
        <ele>517.404</ele>
        <time>2013-08-03T06:57:46Z</time>
      </trkpt>
      <trkpt lat="45.54435" lon="6.46473">
        <ele>517.623</ele>
        <time>2013-08-03T06:57:50Z</time>
      </trkpt>
      <trkpt lat="45.54447" lon="6.46468">
        <ele>518.302</ele>
        <time>2013-08-03T06:57:54Z</time>
      </trkpt>
      <trkpt lat="45.54443" lon="6.465">
        <ele>518.608</ele>
        <time>2013-08-03T06:57:56Z</time>
      </trkpt>
      <trkpt lat="45.54415" lon="6.46397">
        <ele>519.553</ele>
        <time>2013-08-03T06:58:00Z</time>
      </trkpt>
      <trkpt lat="45.54449" lon="6.46386">
        <ele>521.696</ele>
        <time>2013-08-03T06:58:09Z</time>
      </trkpt>
      <trkpt lat="45.54469" lon="6.46383">
        <ele>523.198</ele>
        <time>2013-08-03T06:58:15Z</time>
      </trkpt>
      <trkpt lat="45.54498" lon="6.46379">
        <ele>525.022</ele>
        <time>2013-08-03T06:58:23Z</time>
      </trkpt>
      <trkpt lat="45.54515" lon="6.46377">
        <ele>526.583</ele>
        <time>2013-08-03T06:58:28Z</time>
      </trkpt>
      <trkpt lat="45.54527" lon="6.46377">
        <ele>528.2</ele>
        <time>2013-08-03T06:58:33Z</time>
      </trkpt>
      <trkpt lat="45.54538" lon="6.46378">
        <ele>529.495</ele>
        <time>2013-08-03T06:58:37Z</time>
      </trkpt>
      <trkpt lat="45.54548" lon="6.46378">
        <ele>530.711</ele>
        <time>2013-08-03T06:58:41Z</time>
      </trkpt>
      <trkpt lat="45.54566" lon="6.46378">
        <ele>532.345</ele>
        <time>2013-08-03T06:58:47Z</time>
      </trkpt>
      <trkpt lat="45.54582" lon="6.46378">
        <ele>533.901</ele>
        <time>2013-08-03T06:58:52Z</time>
      </trkpt>
      <trkpt lat="45.54599" lon="6.46381">
        <ele>535.242</ele>
        <time>2013-08-03T06:58:57Z</time>
      </trkpt>
      <trkpt lat="45.54615" lon="6.46384">
        <ele>536.708</ele>
        <time>2013-08-03T06:59:02Z</time>
      </trkpt>
      <trkpt lat="45.54636" lon="6.46389">
        <ele>539.178</ele>
        <time>2013-08-03T06:59:09Z</time>
      </trkpt>
      <trkpt lat="45.54646" lon="6.46391">
        <ele>540.741</ele>
        <time>2013-08-03T06:59:14Z</time>
      </trkpt>
      <trkpt lat="45.54657" lon="6.46394">
        <ele>542.342</ele>
        <time>2013-08-03T06:59:19Z</time>
      </trkpt>
      <trkpt lat="45.54674" lon="6.46337">
        <ele>544.012</ele>
        <time>2013-08-03T06:59:25Z</time>
      </trkpt>
      <trkpt lat="45.5469" lon="6.46335">
        <ele>545.318</ele>
        <time>2013-08-03T06:59:30Z</time>
      </trkpt>
      <trkpt lat="45.54707" lon="6.46335">
        <ele>546.966</ele>
        <time>2013-08-03T06:59:36Z</time>
      </trkpt>
      <trkpt lat="45.54727" lon="6.46335">
        <ele>549.027</ele>
        <time>2013-08-03T06:59:43Z</time>
      </trkpt>
      <trkpt lat="45.54748" lon="6.46341">
        <ele>551.148</ele>
        <time>2013-08-03T06:59:50Z</time>
      </trkpt>
      <trkpt lat="45.54764" lon="6.46342">
        <ele>552.88</ele>
        <time>2013-08-03T06:59:56Z</time>
      </trkpt>
      <trkpt lat="45.54766" lon="6.46339">
        <ele>553.225</ele>
        <time>2013-08-03T06:59:57Z</time>
      </trkpt>
      <trkpt lat="45.54767" lon="6.46336">
        <ele>553.832</ele>
        <time>2013-08-03T06:59:59Z</time>
      </trkpt>
      <trkpt lat="45.54765" lon="6.46326">
        <ele>554.735</ele>
        <time>2013-08-03T07:00:03Z</time>
      </trkpt>
      <trkpt lat="45.54739" lon="6.46338">
        <ele>556.712</ele>
        <time>2013-08-03T07:00:11Z</time>
      </trkpt>
      <trkpt lat="45.54721" lon="6.46335">
        <ele>558.864</ele>
        <time>2013-08-03T07:00:18Z</time>
      </trkpt>
      <trkpt lat="45.54706" lon="6.46309">
        <ele>560.701</ele>
        <time>2013-08-03T07:00:24Z</time>
      </trkpt>
      <trkpt lat="45.54682" lon="6.463">
        <ele>563.146</ele>
        <time>2013-08-03T07:00:33Z</time>
      </trkpt>
      <trkpt lat="45.54665" lon="6.46294">
        <ele>564.629</ele>
        <time>2013-08-03T07:00:39Z</time>
      </trkpt>
      <trkpt lat="45.54649" lon="6.46289">
        <ele>566.508</ele>
        <time>2013-08-03T07:00:45Z</time>
      </trkpt>
      <trkpt lat="45.54627" lon="6.46284">
        <ele>568.845</ele>
        <time>2013-08-03T07:00:53Z</time>
      </trkpt>
      <trkpt lat="45.54612" lon="6.4628">
        <ele>570.592</ele>
        <time>2013-08-03T07:00:59Z</time>
      </trkpt>
      <trkpt lat="45.54596" lon="6.46273">
        <ele>572.792</ele>
        <time>2013-08-03T07:01:06Z</time>
      </trkpt>
      <trkpt lat="45.54586" lon="6.46269">
        <ele>574.521</ele>
        <time>2013-08-03T07:01:11Z</time>
      </trkpt>
      <trkpt lat="45.54575" lon="6.46264">
        <ele>576.373</ele>
        <time>2013-08-03T07:01:16Z</time>
      </trkpt>
      <trkpt lat="45.5455" lon="6.46255">
        <ele>579.055</ele>
        <time>2013-08-03T07:01:25Z</time>
      </trkpt>
      <trkpt lat="45.54534" lon="6.46251">
        <ele>581.164</ele>
        <time>2013-08-03T07:01:32Z</time>
      </trkpt>
      <trkpt lat="45.54515" lon="6.46249">
        <ele>583.518</ele>
        <time>2013-08-03T07:01:39Z</time>
      </trkpt>
      <trkpt lat="45.54493" lon="6.46253">
        <ele>585.634</ele>
        <time>2013-08-03T07:01:46Z</time>
      </trkpt>
      <trkpt lat="45.54489" lon="6.46255">
        <ele>585.924</ele>
        <time>2013-08-03T07:01:47Z</time>
      </trkpt>
      <trkpt lat="45.54487" lon="6.46256">
        <ele>587.067</ele>
        <time>2013-08-03T07:01:51Z</time>
      </trkpt>
      <trkpt lat="45.54489" lon="6.46255">
        <ele>587.654</ele>
        <time>2013-08-03T07:01:53Z</time>
      </trkpt>
      <trkpt lat="45.54515" lon="6.46249">
        <ele>590.765</ele>
        <time>2013-08-03T07:02:03Z</time>
      </trkpt>
      <trkpt lat="45.54538" lon="6.46253">
        <ele>593.265</ele>
        <time>2013-08-03T07:02:13Z</time>
      </trkpt>
      <trkpt lat="45.54564" lon="6.46229">
        <ele>595.865</ele>
        <time>2013-08-03T07:02:22Z</time>
      </trkpt>
      <trkpt lat="45.5457" lon="6.46262">
        <ele>597.48</ele>
        <time>2013-08-03T07:02:28Z</time>
      </trkpt>
      <trkpt lat="45.54585" lon="6.46234">
        <ele>598.683</ele>
        <time>2013-08-03T07:02:33Z</time>
      </trkpt>
      <trkpt lat="45.54599" lon="6.46236">
        <ele>600.372</ele>
        <time>2013-08-03T07:02:40Z</time>
      </trkpt>
      <trkpt lat="45.54614" lon="6.46239">
        <ele>601.995</ele>
        <time>2013-08-03T07:02:46Z</time>
      </trkpt>
      <trkpt lat="45.54629" lon="6.46239">
        <ele>603.34</ele>
        <time>2013-08-03T07:02:51Z</time>
      </trkpt>
      <trkpt lat="45.54645" lon="6.46239">
        <ele>605.018</ele>
        <time>2013-08-03T07:02:57Z</time>
      </trkpt>
      <trkpt lat="45.54662" lon="6.46241">
        <ele>607.198</ele>
        <time>2013-08-03T07:03:04Z</time>
      </trkpt>
      <trkpt lat="45.54677" lon="6.46245">
        <ele>609.272</ele>
        <time>2013-08-03T07:03:10Z</time>
      </trkpt>
      <trkpt lat="45.54702" lon="6.46254">
        <ele>612.153</ele>
        <time>2013-08-03T07:03:21Z</time>
      </trkpt>
      <trkpt lat="45.54723" lon="6.46253">
        <ele>614.684</ele>
        <time>2013-08-03T07:03:30Z</time>
      </trkpt>
      <trkpt lat="45.54731" lon="6.46247">
        <ele>616.079</ele>
        <time>2013-08-03T07:03:35Z</time>
      </trkpt>
      <trkpt lat="45.54747" lon="6.46239">
        <ele>617.57</ele>
        <time>2013-08-03T07:03:42Z</time>
      </trkpt>
      <trkpt lat="45.5476" lon="6.46234">
        <ele>619.192</ele>
        <time>2013-08-03T07:03:48Z</time>
      </trkpt>
      <trkpt lat="45.54769" lon="6.46228">
        <ele>620.62</ele>
        <time>2013-08-03T07:03:53Z</time>
      </trkpt>
      <trkpt lat="45.54785" lon="6.46223">
        <ele>622.032</ele>
        <time>2013-08-03T07:04:00Z</time>
      </trkpt>
      <trkpt lat="45.548" lon="6.46215">
        <ele>623.616</ele>
        <time>2013-08-03T07:04:06Z</time>
      </trkpt>
      <trkpt lat="45.54814" lon="6.46206">
        <ele>625.163</ele>
        <time>2013-08-03T07:04:12Z</time>
      </trkpt>
      <trkpt lat="45.54825" lon="6.46188">
        <ele>626.917</ele>
        <time>2013-08-03T07:04:18Z</time>
      </trkpt>
      <trkpt lat="45.54833" lon="6.46166">
        <ele>628.35</ele>
        <time>2013-08-03T07:04:24Z</time>
      </trkpt>
      <trkpt lat="45.54834" lon="6.46133">
        <ele>630.25</ele>
        <time>2013-08-03T07:04:33Z</time>
      </trkpt>
      <trkpt lat="45.54847" lon="6.4612">
        <ele>631.894</ele>
        <time>2013-08-03T07:04:39Z</time>
      </trkpt>
      <trkpt lat="45.54866" lon="6.46108">
        <ele>633.915</ele>
        <time>2013-08-03T07:04:47Z</time>
      </trkpt>
      <trkpt lat="45.54882" lon="6.46099">
        <ele>635.63</ele>
        <time>2013-08-03T07:04:54Z</time>
      </trkpt>
      <trkpt lat="45.54901" lon="6.46094">
        <ele>637.503</ele>
        <time>2013-08-03T07:05:01Z</time>
      </trkpt>
      <trkpt lat="45.54926" lon="6.46091">
        <ele>639.708</ele>
        <time>2013-08-03T07:05:10Z</time>
      </trkpt>
      <trkpt lat="45.54945" lon="6.46101">
        <ele>641.364</ele>
        <time>2013-08-03T07:05:17Z</time>
      </trkpt>
      <trkpt lat="45.54963" lon="6.46104">
        <ele>643.059</ele>
        <time>2013-08-03T07:05:23Z</time>
      </trkpt>
      <trkpt lat="45.5497" lon="6.46095">
        <ele>643.862</ele>
        <time>2013-08-03T07:05:27Z</time>
      </trkpt>
      <trkpt lat="45.54949" lon="6.4608">
        <ele>645.581</ele>
        <time>2013-08-03T07:05:33Z</time>
      </trkpt>
      <trkpt lat="45.54933" lon="6.46063">
        <ele>647.138</ele>
        <time>2013-08-03T07:05:39Z</time>
      </trkpt>
      <trkpt lat="45.54909" lon="6.46054">
        <ele>648.922</ele>
        <time>2013-08-03T07:05:47Z</time>
      </trkpt>
      <trkpt lat="45.54883" lon="6.4605">
        <ele>651.319</ele>
        <time>2013-08-03T07:05:56Z</time>
      </trkpt>
      <trkpt lat="45.54857" lon="6.46044">
        <ele>653.599</ele>
        <time>2013-08-03T07:06:05Z</time>
      </trkpt>
      <trkpt lat="45.54831" lon="6.46025">
        <ele>656.108</ele>
        <time>2013-08-03T07:06:15Z</time>
      </trkpt>
      <trkpt lat="45.54806" lon="6.46019">
        <ele>658.118</ele>
        <time>2013-08-03T07:06:24Z</time>
      </trkpt>
      <trkpt lat="45.54792" lon="6.46018">
        <ele>659.631</ele>
        <time>2013-08-03T07:06:29Z</time>
      </trkpt>
      <trkpt lat="45.54779" lon="6.4602">
        <ele>660.775</ele>
        <time>2013-08-03T07:06:34Z</time>
      </trkpt>
      <trkpt lat="45.54765" lon="6.46026">
        <ele>662.266</ele>
        <time>2013-08-03T07:06:40Z</time>
      </trkpt>
      <trkpt lat="45.54751" lon="6.46033">
        <ele>663.469</ele>
        <time>2013-08-03T07:06:45Z</time>
      </trkpt>
      <trkpt lat="45.54736" lon="6.4604">
        <ele>664.883</ele>
        <time>2013-08-03T07:06:50Z</time>
      </trkpt>
      <trkpt lat="45.5472" lon="6.46047">
        <ele>666.385</ele>
        <time>2013-08-03T07:06:56Z</time>
      </trkpt>
      <trkpt lat="45.54706" lon="6.46056">
        <ele>667.82</ele>
        <time>2013-08-03T07:07:01Z</time>
      </trkpt>
      <trkpt lat="45.54694" lon="6.46063">
        <ele>668.987</ele>
        <time>2013-08-03T07:07:05Z</time>
      </trkpt>
      <trkpt lat="45.54679" lon="6.46071">
        <ele>670.242</ele>
        <time>2013-08-03T07:07:10Z</time>
      </trkpt>
      <trkpt lat="45.54662" lon="6.46078">
        <ele>671.81</ele>
        <time>2013-08-03T07:07:16Z</time>
      </trkpt>
      <trkpt lat="45.54647" lon="6.46091">
        <ele>673.079</ele>
        <time>2013-08-03T07:07:21Z</time>
      </trkpt>
      <trkpt lat="45.5464" lon="6.46112">
        <ele>674.969</ele>
        <time>2013-08-03T07:07:27Z</time>
      </trkpt>
      <trkpt lat="45.54632" lon="6.46114">
        <ele>676.583</ele>
        <time>2013-08-03T07:07:31Z</time>
      </trkpt>
      <trkpt lat="45.54629" lon="6.46108">
        <ele>677.217</ele>
        <time>2013-08-03T07:07:33Z</time>
      </trkpt>
      <trkpt lat="45.54634" lon="6.46071">
        <ele>679.326</ele>
        <time>2013-08-03T07:07:41Z</time>
      </trkpt>
      <trkpt lat="45.5464" lon="6.46056">
        <ele>680.623</ele>
        <time>2013-08-03T07:07:45Z</time>
      </trkpt>
      <trkpt lat="45.54654" lon="6.46047">
        <ele>682.176</ele>
        <time>2013-08-03T07:07:50Z</time>
      </trkpt>
      <trkpt lat="45.54666" lon="6.46044">
        <ele>683.526</ele>
        <time>2013-08-03T07:07:55Z</time>
      </trkpt>
      <trkpt lat="45.54681" lon="6.46035">
        <ele>685.049</ele>
        <time>2013-08-03T07:08:01Z</time>
      </trkpt>
      <trkpt lat="45.54692" lon="6.46022">
        <ele>686.237</ele>
        <time>2013-08-03T07:08:07Z</time>
      </trkpt>
      <trkpt lat="45.54705" lon="6.46004">
        <ele>687.773</ele>
        <time>2013-08-03T07:08:13Z</time>
      </trkpt>
      <trkpt lat="45.54715" lon="6.45985">
        <ele>689.002</ele>
        <time>2013-08-03T07:08:19Z</time>
      </trkpt>
      <trkpt lat="45.54721" lon="6.45958">
        <ele>691.057</ele>
        <time>2013-08-03T07:08:26Z</time>
      </trkpt>
      <trkpt lat="45.54721" lon="6.45954">
        <ele>691.29</ele>
        <time>2013-08-03T07:08:27Z</time>
      </trkpt>
      <trkpt lat="45.54718" lon="6.45937">
        <ele>692.017</ele>
        <time>2013-08-03T07:08:31Z</time>
      </trkpt>
      <trkpt lat="45.54706" lon="6.45941">
        <ele>692.784</ele>
        <time>2013-08-03T07:08:34Z</time>
      </trkpt>
      <trkpt lat="45.54702" lon="6.45954">
        <ele>693.087</ele>
        <time>2013-08-03T07:08:37Z</time>
      </trkpt>
      <trkpt lat="45.54696" lon="6.45983">
        <ele>694.567</ele>
        <time>2013-08-03T07:08:43Z</time>
      </trkpt>
      <trkpt lat="45.54684" lon="6.45997">
        <ele>695.828</ele>
        <time>2013-08-03T07:08:48Z</time>
      </trkpt>
      <trkpt lat="45.54664" lon="6.46004">
        <ele>697.344</ele>
        <time>2013-08-03T07:08:55Z</time>
      </trkpt>
      <trkpt lat="45.54635" lon="6.46011">
        <ele>700.151</ele>
        <time>2013-08-03T07:09:05Z</time>
      </trkpt>
      <trkpt lat="45.54607" lon="6.46018">
        <ele>702.017</ele>
        <time>2013-08-03T07:09:14Z</time>
      </trkpt>
      <trkpt lat="45.54597" lon="6.46033">
        <ele>703.233</ele>
        <time>2013-08-03T07:09:19Z</time>
      </trkpt>
      <trkpt lat="45.54585" lon="6.46061">
        <ele>704.76</ele>
        <time>2013-08-03T07:09:26Z</time>
      </trkpt>
      <trkpt lat="45.54571" lon="6.46069">
        <ele>706.116</ele>
        <time>2013-08-03T07:09:31Z</time>
      </trkpt>
      <trkpt lat="45.54553" lon="6.46073">
        <ele>707.733</ele>
        <time>2013-08-03T07:09:37Z</time>
      </trkpt>
      <trkpt lat="45.54534" lon="6.46081">
        <ele>709.312</ele>
        <time>2013-08-03T07:09:44Z</time>
      </trkpt>
      <trkpt lat="45.54516" lon="6.4609">
        <ele>710.739</ele>
        <time>2013-08-03T07:09:50Z</time>
      </trkpt>
      <trkpt lat="45.54499" lon="6.46093">
        <ele>712.178</ele>
        <time>2013-08-03T07:09:56Z</time>
      </trkpt>
      <trkpt lat="45.54486" lon="6.46095">
        <ele>713.437</ele>
        <time>2013-08-03T07:10:01Z</time>
      </trkpt>
      <trkpt lat="45.54468" lon="6.46098">
        <ele>714.815</ele>
        <time>2013-08-03T07:10:06Z</time>
      </trkpt>
      <trkpt lat="45.54446" lon="6.46101">
        <ele>716.416</ele>
        <time>2013-08-03T07:10:12Z</time>
      </trkpt>
      <trkpt lat="45.54427" lon="6.46101">
        <ele>718.054</ele>
        <time>2013-08-03T07:10:18Z</time>
      </trkpt>
      <trkpt lat="45.54402" lon="6.46103">
        <ele>720.106</ele>
        <time>2013-08-03T07:10:26Z</time>
      </trkpt>
      <trkpt lat="45.5438" lon="6.46095">
        <ele>722.063</ele>
        <time>2013-08-03T07:10:33Z</time>
      </trkpt>
      <trkpt lat="45.54364" lon="6.46088">
        <ele>723.711</ele>
        <time>2013-08-03T07:10:40Z</time>
      </trkpt>
      <trkpt lat="45.54352" lon="6.4608">
        <ele>724.895</ele>
        <time>2013-08-03T07:10:45Z</time>
      </trkpt>
      <trkpt lat="45.54336" lon="6.46068">
        <ele>726.686</ele>
        <time>2013-08-03T07:10:51Z</time>
      </trkpt>
      <trkpt lat="45.54304" lon="6.46054">
        <ele>728.667</ele>
        <time>2013-08-03T07:11:00Z</time>
      </trkpt>
      <trkpt lat="45.54289" lon="6.46051">
        <ele>730.422</ele>
        <time>2013-08-03T07:11:06Z</time>
      </trkpt>
      <trkpt lat="45.54262" lon="6.46039">
        <ele>732.134</ele>
        <time>2013-08-03T07:11:14Z</time>
      </trkpt>
      <trkpt lat="45.54235" lon="6.46022">
        <ele>734.843</ele>
        <time>2013-08-03T07:11:22Z</time>
      </trkpt>
      <trkpt lat="45.54221" lon="6.46009">
        <ele>736.323</ele>
        <time>2013-08-03T07:11:27Z</time>
      </trkpt>
      <trkpt lat="45.54178" lon="6.45988">
        <ele>739.377</ele>
        <time>2013-08-03T07:11:37Z</time>
      </trkpt>
      <trkpt lat="45.54153" lon="6.45983">
        <ele>741.029</ele>
        <time>2013-08-03T07:11:44Z</time>
      </trkpt>
      <trkpt lat="45.54126" lon="6.45991">
        <ele>742.783</ele>
        <time>2013-08-03T07:11:50Z</time>
      </trkpt>
      <trkpt lat="45.5411" lon="6.46005">
        <ele>744.671</ele>
        <time>2013-08-03T07:11:58Z</time>
      </trkpt>
      <trkpt lat="45.54101" lon="6.46004">
        <ele>745.948</ele>
        <time>2013-08-03T07:12:03Z</time>
      </trkpt>
      <trkpt lat="45.54072" lon="6.45988">
        <ele>748.22</ele>
        <time>2013-08-03T07:12:12Z</time>
      </trkpt>
      <trkpt lat="45.54047" lon="6.4598">
        <ele>750.171</ele>
        <time>2013-08-03T07:12:19Z</time>
      </trkpt>
      <trkpt lat="45.54022" lon="6.45979">
        <ele>752.132</ele>
        <time>2013-08-03T07:12:26Z</time>
      </trkpt>
      <trkpt lat="45.54" lon="6.45966">
        <ele>754.022</ele>
        <time>2013-08-03T07:12:33Z</time>
      </trkpt>
      <trkpt lat="45.53965" lon="6.45962">
        <ele>756.252</ele>
        <time>2013-08-03T07:12:42Z</time>
      </trkpt>
      <trkpt lat="45.53939" lon="6.45964">
        <ele>757.837</ele>
        <time>2013-08-03T07:12:49Z</time>
      </trkpt>
      <trkpt lat="45.53921" lon="6.45964">
        <ele>758.663</ele>
        <time>2013-08-03T07:12:54Z</time>
      </trkpt>
      <trkpt lat="45.539" lon="6.45966">
        <ele>760.392</ele>
        <time>2013-08-03T07:13:00Z</time>
      </trkpt>
      <trkpt lat="45.53881" lon="6.45969">
        <ele>761.73</ele>
        <time>2013-08-03T07:13:05Z</time>
      </trkpt>
      <trkpt lat="45.53869" lon="6.45973">
        <ele>762.432</ele>
        <time>2013-08-03T07:13:08Z</time>
      </trkpt>
      <trkpt lat="45.53847" lon="6.45974">
        <ele>764.16</ele>
        <time>2013-08-03T07:13:14Z</time>
      </trkpt>
      <trkpt lat="45.53819" lon="6.45968">
        <ele>766.699</ele>
        <time>2013-08-03T07:13:23Z</time>
      </trkpt>
      <trkpt lat="45.53786" lon="6.45966">
        <ele>769.364</ele>
        <time>2013-08-03T07:13:33Z</time>
      </trkpt>
      <trkpt lat="45.53765" lon="6.4597">
        <ele>771.148</ele>
        <time>2013-08-03T07:13:40Z</time>
      </trkpt>
      <trkpt lat="45.53747" lon="6.45976">
        <ele>772.543</ele>
        <time>2013-08-03T07:13:46Z</time>
      </trkpt>
      <trkpt lat="45.53721" lon="6.4598">
        <ele>774.285</ele>
        <time>2013-08-03T07:13:54Z</time>
      </trkpt>
      <trkpt lat="45.53702" lon="6.45986">
        <ele>776.11</ele>
        <time>2013-08-03T07:14:00Z</time>
      </trkpt>
      <trkpt lat="45.53683" lon="6.46004">
        <ele>777.383</ele>
        <time>2013-08-03T07:14:05Z</time>
      </trkpt>
      <trkpt lat="45.53673" lon="6.4602">
        <ele>779.057</ele>
        <time>2013-08-03T07:14:10Z</time>
      </trkpt>
      <trkpt lat="45.53663" lon="6.46036">
        <ele>781.083</ele>
        <time>2013-08-03T07:14:16Z</time>
      </trkpt>
      <trkpt lat="45.53658" lon="6.46061">
        <ele>783.173</ele>
        <time>2013-08-03T07:14:22Z</time>
      </trkpt>
      <trkpt lat="45.53645" lon="6.46084">
        <ele>784.735</ele>
        <time>2013-08-03T07:14:27Z</time>
      </trkpt>
      <trkpt lat="45.53627" lon="6.4609">
        <ele>787.39</ele>
        <time>2013-08-03T07:14:35Z</time>
      </trkpt>
      <trkpt lat="45.53614" lon="6.46107">
        <ele>788.785</ele>
        <time>2013-08-03T07:14:41Z</time>
      </trkpt>
      <trkpt lat="45.536" lon="6.46127">
        <ele>790.826</ele>
        <time>2013-08-03T07:14:49Z</time>
      </trkpt>
      <trkpt lat="45.53587" lon="6.46148">
        <ele>792.399</ele>
        <time>2013-08-03T07:14:55Z</time>
      </trkpt>
      <trkpt lat="45.53571" lon="6.46169">
        <ele>794.126</ele>
        <time>2013-08-03T07:15:02Z</time>
      </trkpt>
      <trkpt lat="45.53555" lon="6.46189">
        <ele>795.676</ele>
        <time>2013-08-03T07:15:09Z</time>
      </trkpt>
      <trkpt lat="45.53537" lon="6.46197">
        <ele>796.84</ele>
        <time>2013-08-03T07:15:15Z</time>
      </trkpt>
      <trkpt lat="45.53511" lon="6.46203">
        <ele>798.622</ele>
        <time>2013-08-03T07:15:23Z</time>
      </trkpt>
      <trkpt lat="45.53494" lon="6.46208">
        <ele>799.72</ele>
        <time>2013-08-03T07:15:28Z</time>
      </trkpt>
      <trkpt lat="45.53476" lon="6.46211">
        <ele>800.661</ele>
        <time>2013-08-03T07:15:33Z</time>
      </trkpt>
      <trkpt lat="45.5346" lon="6.46211">
        <ele>801.771</ele>
        <time>2013-08-03T07:15:38Z</time>
      </trkpt>
      <trkpt lat="45.53443" lon="6.46211">
        <ele>802.842</ele>
        <time>2013-08-03T07:15:43Z</time>
      </trkpt>
      <trkpt lat="45.5343" lon="6.4621">
        <ele>803.925</ele>
        <time>2013-08-03T07:15:47Z</time>
      </trkpt>
      <trkpt lat="45.53415" lon="6.46206">
        <ele>804.613</ele>
        <time>2013-08-03T07:15:51Z</time>
      </trkpt>
      <trkpt lat="45.53391" lon="6.46215">
        <ele>805.649</ele>
        <time>2013-08-03T07:15:56Z</time>
      </trkpt>
      <trkpt lat="45.53373" lon="6.46242">
        <ele>807.555</ele>
        <time>2013-08-03T07:16:02Z</time>
      </trkpt>
      <trkpt lat="45.53367" lon="6.46272">
        <ele>809.073</ele>
        <time>2013-08-03T07:16:08Z</time>
      </trkpt>
      <trkpt lat="45.5336" lon="6.46285">
        <ele>810.37</ele>
        <time>2013-08-03T07:16:12Z</time>
      </trkpt>
      <trkpt lat="45.5334" lon="6.46293">
        <ele>811.947</ele>
        <time>2013-08-03T07:16:18Z</time>
      </trkpt>
      <trkpt lat="45.53308" lon="6.46295">
        <ele>813.815</ele>
        <time>2013-08-03T07:16:26Z</time>
      </trkpt>
      <trkpt lat="45.53295" lon="6.46295">
        <ele>814.587</ele>
        <time>2013-08-03T07:16:29Z</time>
      </trkpt>
      <trkpt lat="45.53262" lon="6.46298">
        <ele>816.482</ele>
        <time>2013-08-03T07:16:37Z</time>
      </trkpt>
      <trkpt lat="45.5323" lon="6.46312">
        <ele>818.124</ele>
        <time>2013-08-03T07:16:45Z</time>
      </trkpt>
      <trkpt lat="45.53202" lon="6.46321">
        <ele>819.688</ele>
        <time>2013-08-03T07:16:52Z</time>
      </trkpt>
      <trkpt lat="45.53185" lon="6.46329">
        <ele>820.505</ele>
        <time>2013-08-03T07:16:56Z</time>
      </trkpt>
      <trkpt lat="45.53153" lon="6.4634">
        <ele>822.111</ele>
        <time>2013-08-03T07:17:03Z</time>
      </trkpt>
      <trkpt lat="45.5312" lon="6.46359">
        <ele>824.195</ele>
        <time>2013-08-03T07:17:11Z</time>
      </trkpt>
      <trkpt lat="45.53089" lon="6.46376">
        <ele>826.062</ele>
        <time>2013-08-03T07:17:19Z</time>
      </trkpt>
      <trkpt lat="45.53084" lon="6.46378">
        <ele>826.256</ele>
        <time>2013-08-03T07:17:20Z</time>
      </trkpt>
      <trkpt lat="45.53072" lon="6.46382">
        <ele>827.017</ele>
        <time>2013-08-03T07:17:23Z</time>
      </trkpt>
      <trkpt lat="45.53046" lon="6.46381">
        <ele>829.09</ele>
        <time>2013-08-03T07:17:30Z</time>
      </trkpt>
      <trkpt lat="45.5303" lon="6.46376">
        <ele>830.08</ele>
        <time>2013-08-03T07:17:34Z</time>
      </trkpt>
      <trkpt lat="45.53009" lon="6.4638">
        <ele>830.928</ele>
        <time>2013-08-03T07:17:38Z</time>
      </trkpt>
      <trkpt lat="45.52992" lon="6.46387">
        <ele>832.669</ele>
        <time>2013-08-03T07:17:43Z</time>
      </trkpt>
      <trkpt lat="45.52975" lon="6.4638">
        <ele>834.968</ele>
        <time>2013-08-03T07:17:49Z</time>
      </trkpt>
      <trkpt lat="45.52957" lon="6.46368">
        <ele>836.687</ele>
        <time>2013-08-03T07:17:55Z</time>
      </trkpt>
      <trkpt lat="45.52937" lon="6.46355">
        <ele>838.2</ele>
        <time>2013-08-03T07:18:01Z</time>
      </trkpt>
      <trkpt lat="45.52913" lon="6.46339">
        <ele>839.473</ele>
        <time>2013-08-03T07:18:08Z</time>
      </trkpt>
      <trkpt lat="45.52898" lon="6.46328">
        <ele>840.515</ele>
        <time>2013-08-03T07:18:13Z</time>
      </trkpt>
      <trkpt lat="45.52873" lon="6.46305">
        <ele>842.138</ele>
        <time>2013-08-03T07:18:22Z</time>
      </trkpt>
      <trkpt lat="45.52866" lon="6.46298">
        <ele>842.675</ele>
        <time>2013-08-03T07:18:24Z</time>
      </trkpt>
      <trkpt lat="45.52853" lon="6.46283">
        <ele>843.435</ele>
        <time>2013-08-03T07:18:28Z</time>
      </trkpt>
      <trkpt lat="45.52828" lon="6.46251">
        <ele>845.292</ele>
        <time>2013-08-03T07:18:36Z</time>
      </trkpt>
      <trkpt lat="45.52803" lon="6.46211">
        <ele>847.952</ele>
        <time>2013-08-03T07:18:45Z</time>
      </trkpt>
      <trkpt lat="45.52789" lon="6.46191">
        <ele>848.923</ele>
        <time>2013-08-03T07:18:50Z</time>
      </trkpt>
      <trkpt lat="45.52764" lon="6.46152">
        <ele>851.158</ele>
        <time>2013-08-03T07:18:59Z</time>
      </trkpt>
      <trkpt lat="45.52755" lon="6.4613">
        <ele>852.143</ele>
        <time>2013-08-03T07:19:03Z</time>
      </trkpt>
      <trkpt lat="45.52718" lon="6.46104">
        <ele>854.029</ele>
        <time>2013-08-03T07:19:11Z</time>
      </trkpt>
      <trkpt lat="45.52701" lon="6.46101">
        <ele>855.349</ele>
        <time>2013-08-03T07:19:15Z</time>
      </trkpt>
      <trkpt lat="45.52668" lon="6.46096">
        <ele>857.057</ele>
        <time>2013-08-03T07:19:23Z</time>
      </trkpt>
      <trkpt lat="45.52664" lon="6.46095">
        <ele>857.309</ele>
        <time>2013-08-03T07:19:24Z</time>
      </trkpt>
      <trkpt lat="45.52641" lon="6.46092">
        <ele>858.626</ele>
        <time>2013-08-03T07:19:30Z</time>
      </trkpt>
      <trkpt lat="45.52613" lon="6.46088">
        <ele>860.139</ele>
        <time>2013-08-03T07:19:37Z</time>
      </trkpt>
      <trkpt lat="45.52596" lon="6.46086">
        <ele>861.303</ele>
        <time>2013-08-03T07:19:42Z</time>
      </trkpt>
      <trkpt lat="45.52578" lon="6.46083">
        <ele>862.465</ele>
        <time>2013-08-03T07:19:47Z</time>
      </trkpt>
      <trkpt lat="45.52552" lon="6.46082">
        <ele>863.867</ele>
        <time>2013-08-03T07:19:54Z</time>
      </trkpt>
      <trkpt lat="45.52529" lon="6.4608">
        <ele>865.625</ele>
        <time>2013-08-03T07:20:00Z</time>
      </trkpt>
      <trkpt lat="45.52507" lon="6.4608">
        <ele>867.855</ele>
        <time>2013-08-03T07:20:06Z</time>
      </trkpt>
      <trkpt lat="45.52487" lon="6.46078">
        <ele>869.974</ele>
        <time>2013-08-03T07:20:12Z</time>
      </trkpt>
      <trkpt lat="45.52466" lon="6.46074">
        <ele>871.778</ele>
        <time>2013-08-03T07:20:19Z</time>
      </trkpt>
      <trkpt lat="45.52446" lon="6.46067">
        <ele>873.424</ele>
        <time>2013-08-03T07:20:25Z</time>
      </trkpt>
      <trkpt lat="45.52421" lon="6.46059">
        <ele>876.456</ele>
        <time>2013-08-03T07:20:34Z</time>
      </trkpt>
      <trkpt lat="45.52405" lon="6.46049">
        <ele>878.963</ele>
        <time>2013-08-03T07:20:42Z</time>
      </trkpt>
      <trkpt lat="45.52385" lon="6.4603">
        <ele>881.406</ele>
        <time>2013-08-03T07:20:51Z</time>
      </trkpt>
      <trkpt lat="45.52374" lon="6.46007">
        <ele>883.685</ele>
        <time>2013-08-03T07:20:58Z</time>
      </trkpt>
      <trkpt lat="45.52366" lon="6.45992">
        <ele>884.635</ele>
        <time>2013-08-03T07:21:03Z</time>
      </trkpt>
      <trkpt lat="45.52356" lon="6.45976">
        <ele>886.128</ele>
        <time>2013-08-03T07:21:08Z</time>
      </trkpt>
      <trkpt lat="45.52339" lon="6.45955">
        <ele>887.653</ele>
        <time>2013-08-03T07:21:14Z</time>
      </trkpt>
      <trkpt lat="45.52314" lon="6.45936">
        <ele>889.779</ele>
        <time>2013-08-03T07:21:22Z</time>
      </trkpt>
      <trkpt lat="45.52296" lon="6.45922">
        <ele>891.824</ele>
        <time>2013-08-03T07:21:29Z</time>
      </trkpt>
      <trkpt lat="45.52285" lon="6.45913">
        <ele>893.171</ele>
        <time>2013-08-03T07:21:34Z</time>
      </trkpt>
      <trkpt lat="45.5227" lon="6.45901">
        <ele>894.742</ele>
        <time>2013-08-03T07:21:40Z</time>
      </trkpt>
      <trkpt lat="45.52256" lon="6.4589">
        <ele>896.233</ele>
        <time>2013-08-03T07:21:45Z</time>
      </trkpt>
      <trkpt lat="45.52241" lon="6.45874">
        <ele>898.59</ele>
        <time>2013-08-03T07:21:52Z</time>
      </trkpt>
      <trkpt lat="45.52223" lon="6.45854">
        <ele>900.753</ele>
        <time>2013-08-03T07:21:58Z</time>
      </trkpt>
      <trkpt lat="45.52205" lon="6.45839">
        <ele>902.805</ele>
        <time>2013-08-03T07:22:05Z</time>
      </trkpt>
      <trkpt lat="45.52182" lon="6.45815">
        <ele>904.627</ele>
        <time>2013-08-03T07:22:13Z</time>
      </trkpt>
      <trkpt lat="45.52156" lon="6.45784">
        <ele>906.737</ele>
        <time>2013-08-03T07:22:22Z</time>
      </trkpt>
      <trkpt lat="45.5214" lon="6.45764">
        <ele>908.466</ele>
        <time>2013-08-03T07:22:29Z</time>
      </trkpt>
      <trkpt lat="45.52124" lon="6.45746">
        <ele>910.033</ele>
        <time>2013-08-03T07:22:36Z</time>
      </trkpt>
      <trkpt lat="45.52115" lon="6.45736">
        <ele>911.195</ele>
        <time>2013-08-03T07:22:41Z</time>
      </trkpt>
      <trkpt lat="45.52103" lon="6.45724">
        <ele>912.376</ele>
        <time>2013-08-03T07:22:46Z</time>
      </trkpt>
      <trkpt lat="45.52089" lon="6.45712">
        <ele>913.407</ele>
        <time>2013-08-03T07:22:51Z</time>
      </trkpt>
      <trkpt lat="45.52057" lon="6.45693">
        <ele>915.802</ele>
        <time>2013-08-03T07:23:02Z</time>
      </trkpt>
      <trkpt lat="45.52038" lon="6.45685">
        <ele>916.848</ele>
        <time>2013-08-03T07:23:08Z</time>
      </trkpt>
      <trkpt lat="45.52029" lon="6.4567">
        <ele>917.928</ele>
        <time>2013-08-03T07:23:12Z</time>
      </trkpt>
      <trkpt lat="45.52039" lon="6.45665">
        <ele>918.816</ele>
        <time>2013-08-03T07:23:15Z</time>
      </trkpt>
      <trkpt lat="45.52054" lon="6.45676">
        <ele>919.676</ele>
        <time>2013-08-03T07:23:19Z</time>
      </trkpt>
      <trkpt lat="45.52086" lon="6.45692">
        <ele>921.524</ele>
        <time>2013-08-03T07:23:28Z</time>
      </trkpt>
      <trkpt lat="45.5211" lon="6.45703">
        <ele>922.992</ele>
        <time>2013-08-03T07:23:35Z</time>
      </trkpt>
      <trkpt lat="45.52143" lon="6.45719">
        <ele>925.01</ele>
        <time>2013-08-03T07:23:45Z</time>
      </trkpt>
      <trkpt lat="45.52175" lon="6.45742">
        <ele>927.135</ele>
        <time>2013-08-03T07:23:55Z</time>
      </trkpt>
      <trkpt lat="45.52204" lon="6.45765">
        <ele>929.07</ele>
        <time>2013-08-03T07:24:05Z</time>
      </trkpt>
      <trkpt lat="45.52226" lon="6.45779">
        <ele>930.591</ele>
        <time>2013-08-03T07:24:12Z</time>
      </trkpt>
      <trkpt lat="45.52246" lon="6.45801">
        <ele>931.965</ele>
        <time>2013-08-03T07:24:19Z</time>
      </trkpt>
      <trkpt lat="45.52267" lon="6.45835">
        <ele>934.229</ele>
        <time>2013-08-03T07:24:29Z</time>
      </trkpt>
      <trkpt lat="45.52277" lon="6.4584">
        <ele>935.22</ele>
        <time>2013-08-03T07:24:33Z</time>
      </trkpt>
      <trkpt lat="45.5228" lon="6.4584">
        <ele>935.557</ele>
        <time>2013-08-03T07:24:34Z</time>
      </trkpt>
      <trkpt lat="45.52284" lon="6.45831">
        <ele>936.29</ele>
        <time>2013-08-03T07:24:38Z</time>
      </trkpt>
      <trkpt lat="45.52281" lon="6.45827">
        <ele>936.491</ele>
        <time>2013-08-03T07:24:39Z</time>
      </trkpt>
      <trkpt lat="45.52261" lon="6.45806">
        <ele>938.002</ele>
        <time>2013-08-03T07:24:45Z</time>
      </trkpt>
      <trkpt lat="45.52244" lon="6.45775">
        <ele>939.814</ele>
        <time>2013-08-03T07:24:53Z</time>
      </trkpt>
      <trkpt lat="45.52221" lon="6.45749">
        <ele>941.884</ele>
        <time>2013-08-03T07:25:02Z</time>
      </trkpt>
      <trkpt lat="45.52207" lon="6.45735">
        <ele>943.474</ele>
        <time>2013-08-03T07:25:08Z</time>
      </trkpt>
      <trkpt lat="45.52183" lon="6.45704">
        <ele>946.152</ele>
        <time>2013-08-03T07:25:19Z</time>
      </trkpt>
      <trkpt lat="45.52161" lon="6.45675">
        <ele>948.319</ele>
        <time>2013-08-03T07:25:29Z</time>
      </trkpt>
      <trkpt lat="45.52143" lon="6.45651">
        <ele>950.06</ele>
        <time>2013-08-03T07:25:37Z</time>
      </trkpt>
      <trkpt lat="45.52124" lon="6.45629">
        <ele>951.403</ele>
        <time>2013-08-03T07:25:45Z</time>
      </trkpt>
      <trkpt lat="45.52107" lon="6.4561">
        <ele>953.574</ele>
        <time>2013-08-03T07:25:52Z</time>
      </trkpt>
      <trkpt lat="45.52086" lon="6.4559">
        <ele>955.185</ele>
        <time>2013-08-03T07:26:00Z</time>
      </trkpt>
      <trkpt lat="45.52062" lon="6.4557">
        <ele>957.675</ele>
        <time>2013-08-03T07:26:10Z</time>
      </trkpt>
      <trkpt lat="45.52041" lon="6.45547">
        <ele>960.133</ele>
        <time>2013-08-03T07:26:19Z</time>
      </trkpt>
      <trkpt lat="45.52022" lon="6.4553">
        <ele>961.988</ele>
        <time>2013-08-03T07:26:27Z</time>
      </trkpt>
      <trkpt lat="45.52013" lon="6.45515">
        <ele>963.228</ele>
        <time>2013-08-03T07:26:32Z</time>
      </trkpt>
      <trkpt lat="45.51997" lon="6.45473">
        <ele>965.804</ele>
        <time>2013-08-03T07:26:42Z</time>
      </trkpt>
      <trkpt lat="45.51983" lon="6.45435">
        <ele>967.804</ele>
        <time>2013-08-03T07:26:51Z</time>
      </trkpt>
      <trkpt lat="45.51977" lon="6.45416">
        <ele>967.779</ele>
        <time>2013-08-03T07:26:55Z</time>
      </trkpt>
      <trkpt lat="45.51966" lon="6.45372">
        <ele>966.411</ele>
        <time>2013-08-03T07:27:00Z</time>
      </trkpt>
      <trkpt lat="45.51961" lon="6.45338">
        <ele>965.087</ele>
        <time>2013-08-03T07:27:03Z</time>
      </trkpt>
      <trkpt lat="45.51954" lon="6.45303">
        <ele>963.784</ele>
        <time>2013-08-03T07:27:06Z</time>
      </trkpt>
      <trkpt lat="45.51939" lon="6.45293">
        <ele>962.912</ele>
        <time>2013-08-03T07:27:08Z</time>
      </trkpt>
      <trkpt lat="45.51925" lon="6.45296">
        <ele>962.727</ele>
        <time>2013-08-03T07:27:10Z</time>
      </trkpt>
      <trkpt lat="45.51922" lon="6.45307">
        <ele>962.878</ele>
        <time>2013-08-03T07:27:11Z</time>
      </trkpt>
      <trkpt lat="45.51917" lon="6.45355">
        <ele>965.019</ele>
        <time>2013-08-03T07:27:16Z</time>
      </trkpt>
      <trkpt lat="45.51907" lon="6.45377">
        <ele>966.307</ele>
        <time>2013-08-03T07:27:21Z</time>
      </trkpt>
      <trkpt lat="45.51895" lon="6.45384">
        <ele>967.186</ele>
        <time>2013-08-03T07:27:24Z</time>
      </trkpt>
      <trkpt lat="45.51871" lon="6.45398">
        <ele>969.278</ele>
        <time>2013-08-03T07:27:30Z</time>
      </trkpt>
      <trkpt lat="45.51854" lon="6.45418">
        <ele>970.994</ele>
        <time>2013-08-03T07:27:36Z</time>
      </trkpt>
      <trkpt lat="45.51836" lon="6.45425">
        <ele>972.975</ele>
        <time>2013-08-03T07:27:43Z</time>
      </trkpt>
      <trkpt lat="45.51816" lon="6.45414">
        <ele>974.324</ele>
        <time>2013-08-03T07:27:49Z</time>
      </trkpt>
      <trkpt lat="45.51805" lon="6.45405">
        <ele>974.432</ele>
        <time>2013-08-03T07:27:52Z</time>
      </trkpt>
      <trkpt lat="45.51795" lon="6.45393">
        <ele>974.515</ele>
        <time>2013-08-03T07:27:55Z</time>
      </trkpt>
      <trkpt lat="45.51774" lon="6.45359">
        <ele>973.786</ele>
        <time>2013-08-03T07:28:01Z</time>
      </trkpt>
      <trkpt lat="45.5177" lon="6.45352">
        <ele>973.487</ele>
        <time>2013-08-03T07:28:02Z</time>
      </trkpt>
      <trkpt lat="45.51758" lon="6.45319">
        <ele>973.104</ele>
        <time>2013-08-03T07:28:06Z</time>
      </trkpt>
      <trkpt lat="45.51743" lon="6.45283">
        <ele>973.261</ele>
        <time>2013-08-03T07:28:10Z</time>
      </trkpt>
      <trkpt lat="45.51736" lon="6.45281">
        <ele>973.267</ele>
        <time>2013-08-03T07:28:11Z</time>
      </trkpt>
      <trkpt lat="45.51701" lon="6.45256">
        <ele>973.546</ele>
        <time>2013-08-03T07:28:17Z</time>
      </trkpt>
      <trkpt lat="45.51674" lon="6.45235">
        <ele>975.051</ele>
        <time>2013-08-03T07:28:22Z</time>
      </trkpt>
      <trkpt lat="45.51638" lon="6.45213">
        <ele>976.349</ele>
        <time>2013-08-03T07:28:28Z</time>
      </trkpt>
      <trkpt lat="45.51599" lon="6.45186">
        <ele>977.728</ele>
        <time>2013-08-03T07:28:35Z</time>
      </trkpt>
      <trkpt lat="45.51558" lon="6.45147">
        <ele>978.963</ele>
        <time>2013-08-03T07:28:44Z</time>
      </trkpt>
      <trkpt lat="45.51526" lon="6.45111">
        <ele>980.373</ele>
        <time>2013-08-03T07:28:52Z</time>
      </trkpt>
      <trkpt lat="45.51499" lon="6.45089">
        <ele>981.842</ele>
        <time>2013-08-03T07:28:59Z</time>
      </trkpt>
      <trkpt lat="45.51474" lon="6.45064">
        <ele>982.818</ele>
        <time>2013-08-03T07:29:06Z</time>
      </trkpt>
      <trkpt lat="45.51451" lon="6.45032">
        <ele>984.066</ele>
        <time>2013-08-03T07:29:13Z</time>
      </trkpt>
      <trkpt lat="45.51423" lon="6.45001">
        <ele>985.326</ele>
        <time>2013-08-03T07:29:21Z</time>
      </trkpt>
      <trkpt lat="45.51401" lon="6.44971">
        <ele>986.656</ele>
        <time>2013-08-03T07:29:28Z</time>
      </trkpt>
      <trkpt lat="45.51377" lon="6.44943">
        <ele>987.542</ele>
        <time>2013-08-03T07:29:35Z</time>
      </trkpt>
      <trkpt lat="45.51346" lon="6.44907">
        <ele>989.061</ele>
        <time>2013-08-03T07:29:44Z</time>
      </trkpt>
      <trkpt lat="45.5134" lon="6.44899">
        <ele>989.35</ele>
        <time>2013-08-03T07:29:46Z</time>
      </trkpt>
      <trkpt lat="45.5132" lon="6.44874">
        <ele>990.033</ele>
        <time>2013-08-03T07:29:52Z</time>
      </trkpt>
      <trkpt lat="45.51311" lon="6.44855">
        <ele>990.881</ele>
        <time>2013-08-03T07:29:56Z</time>
      </trkpt>
      <trkpt lat="45.51315" lon="6.44827">
        <ele>992.351</ele>
        <time>2013-08-03T07:30:01Z</time>
      </trkpt>
      <trkpt lat="45.51328" lon="6.44773">
        <ele>994.412</ele>
        <time>2013-08-03T07:30:10Z</time>
      </trkpt>
      <trkpt lat="45.51338" lon="6.44725">
        <ele>995.831</ele>
        <time>2013-08-03T07:30:18Z</time>
      </trkpt>
      <trkpt lat="45.51345" lon="6.44688">
        <ele>997.74</ele>
        <time>2013-08-03T07:30:25Z</time>
      </trkpt>
      <trkpt lat="45.51349" lon="6.44654">
        <ele>999.404</ele>
        <time>2013-08-03T07:30:32Z</time>
      </trkpt>
      <trkpt lat="45.51351" lon="6.4462">
        <ele>1001.121</ele>
        <time>2013-08-03T07:30:39Z</time>
      </trkpt>
      <trkpt lat="45.51344" lon="6.44598">
        <ele>1001.889</ele>
        <time>2013-08-03T07:30:44Z</time>
      </trkpt>
      <trkpt lat="45.51342" lon="6.44576">
        <ele>1002.642</ele>
        <time>2013-08-03T07:30:49Z</time>
      </trkpt>
      <trkpt lat="45.51343" lon="6.44547">
        <ele>1004.47</ele>
        <time>2013-08-03T07:30:56Z</time>
      </trkpt>
      <trkpt lat="45.51346" lon="6.44532">
        <ele>1005.484</ele>
        <time>2013-08-03T07:31:00Z</time>
      </trkpt>
      <trkpt lat="45.51351" lon="6.44507">
        <ele>1007.391</ele>
        <time>2013-08-03T07:31:06Z</time>
      </trkpt>
      <trkpt lat="45.51354" lon="6.44487">
        <ele>1008.788</ele>
        <time>2013-08-03T07:31:11Z</time>
      </trkpt>
      <trkpt lat="45.51337" lon="6.44472">
        <ele>1009.422</ele>
        <time>2013-08-03T07:31:15Z</time>
      </trkpt>
      <trkpt lat="45.51321" lon="6.44469">
        <ele>1009.348</ele>
        <time>2013-08-03T07:31:18Z</time>
      </trkpt>
      <trkpt lat="45.51293" lon="6.44483">
        <ele>1010.671</ele>
        <time>2013-08-03T07:31:24Z</time>
      </trkpt>
      <trkpt lat="45.51274" lon="6.44495">
        <ele>1012.593</ele>
        <time>2013-08-03T07:31:31Z</time>
      </trkpt>
      <trkpt lat="45.51254" lon="6.44509">
        <ele>1014.506</ele>
        <time>2013-08-03T07:31:39Z</time>
      </trkpt>
      <trkpt lat="45.5123" lon="6.44525">
        <ele>1016.573</ele>
        <time>2013-08-03T07:31:48Z</time>
      </trkpt>
      <trkpt lat="45.5121" lon="6.4454">
        <ele>1018.52</ele>
        <time>2013-08-03T07:31:56Z</time>
      </trkpt>
      <trkpt lat="45.51192" lon="6.4456">
        <ele>1020.381</ele>
        <time>2013-08-03T07:32:04Z</time>
      </trkpt>
      <trkpt lat="45.51173" lon="6.44583">
        <ele>1021.963</ele>
        <time>2013-08-03T07:32:12Z</time>
      </trkpt>
      <trkpt lat="45.51149" lon="6.44604">
        <ele>1023.554</ele>
        <time>2013-08-03T07:32:21Z</time>
      </trkpt>
      <trkpt lat="45.51128" lon="6.44615">
        <ele>1024.491</ele>
        <time>2013-08-03T07:32:27Z</time>
      </trkpt>
      <trkpt lat="45.51094" lon="6.44639">
        <ele>1024.924</ele>
        <time>2013-08-03T07:32:35Z</time>
      </trkpt>
      <trkpt lat="45.51067" lon="6.44657">
        <ele>1025.443</ele>
        <time>2013-08-03T07:32:41Z</time>
      </trkpt>
      <trkpt lat="45.51033" lon="6.44678">
        <ele>1025.889</ele>
        <time>2013-08-03T07:32:48Z</time>
      </trkpt>
      <trkpt lat="45.50996" lon="6.44689">
        <ele>1026.588</ele>
        <time>2013-08-03T07:32:55Z</time>
      </trkpt>
      <trkpt lat="45.50964" lon="6.44682">
        <ele>1027.29</ele>
        <time>2013-08-03T07:33:01Z</time>
      </trkpt>
      <trkpt lat="45.50923" lon="6.44656">
        <ele>1027.749</ele>
        <time>2013-08-03T07:33:09Z</time>
      </trkpt>
      <trkpt lat="45.50894" lon="6.44631">
        <ele>1027.73</ele>
        <time>2013-08-03T07:33:15Z</time>
      </trkpt>
      <trkpt lat="45.50884" lon="6.4462">
        <ele>1027.707</ele>
        <time>2013-08-03T07:33:17Z</time>
      </trkpt>
      <trkpt lat="45.50855" lon="6.44601">
        <ele>1028.218</ele>
        <time>2013-08-03T07:33:22Z</time>
      </trkpt>
      <trkpt lat="45.50822" lon="6.44588">
        <ele>1027.669</ele>
        <time>2013-08-03T07:33:27Z</time>
      </trkpt>
      <trkpt lat="45.50807" lon="6.4458">
        <ele>1027.454</ele>
        <time>2013-08-03T07:33:29Z</time>
      </trkpt>
      <trkpt lat="45.50769" lon="6.44538">
        <ele>1026.849</ele>
        <time>2013-08-03T07:33:35Z</time>
      </trkpt>
      <trkpt lat="45.50739" lon="6.44514">
        <ele>1025.519</ele>
        <time>2013-08-03T07:33:39Z</time>
      </trkpt>
      <trkpt lat="45.50713" lon="6.44507">
        <ele>1024.58</ele>
        <time>2013-08-03T07:33:42Z</time>
      </trkpt>
      <trkpt lat="45.50697" lon="6.44496">
        <ele>1023.828</ele>
        <time>2013-08-03T07:33:44Z</time>
      </trkpt>
      <trkpt lat="45.5066" lon="6.44488">
        <ele>1022.96</ele>
        <time>2013-08-03T07:33:48Z</time>
      </trkpt>
      <trkpt lat="45.50613" lon="6.44485">
        <ele>1021.561</ele>
        <time>2013-08-03T07:33:53Z</time>
      </trkpt>
      <trkpt lat="45.50594" lon="6.44481">
        <ele>1021.276</ele>
        <time>2013-08-03T07:33:55Z</time>
      </trkpt>
      <trkpt lat="45.50553" lon="6.44453">
        <ele>1019.497</ele>
        <time>2013-08-03T07:34:00Z</time>
      </trkpt>
      <trkpt lat="45.50533" lon="6.44426">
        <ele>1018.685</ele>
        <time>2013-08-03T07:34:03Z</time>
      </trkpt>
      <trkpt lat="45.50493" lon="6.44368">
        <ele>1017.559</ele>
        <time>2013-08-03T07:34:09Z</time>
      </trkpt>
      <trkpt lat="45.50469" lon="6.44333">
        <ele>1017.579</ele>
        <time>2013-08-03T07:34:13Z</time>
      </trkpt>
      <trkpt lat="45.50442" lon="6.44308">
        <ele>1017.764</ele>
        <time>2013-08-03T07:34:17Z</time>
      </trkpt>
      <trkpt lat="45.50426" lon="6.44277">
        <ele>1017.786</ele>
        <time>2013-08-03T07:34:21Z</time>
      </trkpt>
      <trkpt lat="45.50424" lon="6.44239">
        <ele>1017.804</ele>
        <time>2013-08-03T07:34:25Z</time>
      </trkpt>
      <trkpt lat="45.5042" lon="6.44233">
        <ele>1017.908</ele>
        <time>2013-08-03T07:34:26Z</time>
      </trkpt>
      <trkpt lat="45.50386" lon="6.44232">
        <ele>1019.197</ele>
        <time>2013-08-03T07:34:31Z</time>
      </trkpt>
      <trkpt lat="45.50358" lon="6.44225">
        <ele>1020.022</ele>
        <time>2013-08-03T07:34:35Z</time>
      </trkpt>
      <trkpt lat="45.50352" lon="6.4422">
        <ele>1019.986</ele>
        <time>2013-08-03T07:34:36Z</time>
      </trkpt>
      <trkpt lat="45.50301" lon="6.44177">
        <ele>1019.334</ele>
        <time>2013-08-03T07:34:44Z</time>
      </trkpt>
      <trkpt lat="45.50276" lon="6.44155">
        <ele>1019.311</ele>
        <time>2013-08-03T07:34:48Z</time>
      </trkpt>
      <trkpt lat="45.50254" lon="6.44114">
        <ele>1018.806</ele>
        <time>2013-08-03T07:34:53Z</time>
      </trkpt>
      <trkpt lat="45.50236" lon="6.44094">
        <ele>1018.758</ele>
        <time>2013-08-03T07:34:56Z</time>
      </trkpt>
      <trkpt lat="45.50229" lon="6.44091">
        <ele>1018.66</ele>
        <time>2013-08-03T07:34:57Z</time>
      </trkpt>
      <trkpt lat="45.50187" lon="6.44065">
        <ele>1018.028</ele>
        <time>2013-08-03T07:35:03Z</time>
      </trkpt>
      <trkpt lat="45.50144" lon="6.44019">
        <ele>1017.89</ele>
        <time>2013-08-03T07:35:10Z</time>
      </trkpt>
      <trkpt lat="45.50093" lon="6.43969">
        <ele>1017.757</ele>
        <time>2013-08-03T07:35:17Z</time>
      </trkpt>
      <trkpt lat="45.50049" lon="6.43921">
        <ele>1016.969</ele>
        <time>2013-08-03T07:35:24Z</time>
      </trkpt>
      <trkpt lat="45.50037" lon="6.43905">
        <ele>1016.76</ele>
        <time>2013-08-03T07:35:26Z</time>
      </trkpt>
      <trkpt lat="45.50009" lon="6.43885">
        <ele>1016.491</ele>
        <time>2013-08-03T07:35:30Z</time>
      </trkpt>
      <trkpt lat="45.49995" lon="6.43874">
        <ele>1016.499</ele>
        <time>2013-08-03T07:35:33Z</time>
      </trkpt>
      <trkpt lat="45.49979" lon="6.43848">
        <ele>1016.429</ele>
        <time>2013-08-03T07:35:36Z</time>
      </trkpt>
      <trkpt lat="45.49941" lon="6.43814">
        <ele>1016.017</ele>
        <time>2013-08-03T07:35:42Z</time>
      </trkpt>
      <trkpt lat="45.49912" lon="6.43773">
        <ele>1015.235</ele>
        <time>2013-08-03T07:35:47Z</time>
      </trkpt>
      <trkpt lat="45.49899" lon="6.43758">
        <ele>1014.981</ele>
        <time>2013-08-03T07:35:49Z</time>
      </trkpt>
      <trkpt lat="45.49879" lon="6.43722">
        <ele>1014.814</ele>
        <time>2013-08-03T07:35:53Z</time>
      </trkpt>
      <trkpt lat="45.49857" lon="6.43693">
        <ele>1014.517</ele>
        <time>2013-08-03T07:35:57Z</time>
      </trkpt>
      <trkpt lat="45.49814" lon="6.43633">
        <ele>1015.247</ele>
        <time>2013-08-03T07:36:05Z</time>
      </trkpt>
      <trkpt lat="45.49769" lon="6.43571">
        <ele>1015.779</ele>
        <time>2013-08-03T07:36:14Z</time>
      </trkpt>
      <trkpt lat="45.49742" lon="6.43527">
        <ele>1015.923</ele>
        <time>2013-08-03T07:36:20Z</time>
      </trkpt>
      <trkpt lat="45.49721" lon="6.43509">
        <ele>1016.26</ele>
        <time>2013-08-03T07:36:24Z</time>
      </trkpt>
      <trkpt lat="45.49698" lon="6.43495">
        <ele>1016.354</ele>
        <time>2013-08-03T07:36:28Z</time>
      </trkpt>
      <trkpt lat="45.49678" lon="6.43472">
        <ele>1016.26</ele>
        <time>2013-08-03T07:36:32Z</time>
      </trkpt>
      <trkpt lat="45.4966" lon="6.43459">
        <ele>1016.465</ele>
        <time>2013-08-03T07:36:35Z</time>
      </trkpt>
      <trkpt lat="45.49634" lon="6.43456">
        <ele>1016.921</ele>
        <time>2013-08-03T07:36:39Z</time>
      </trkpt>
      <trkpt lat="45.49614" lon="6.43448">
        <ele>1017.408</ele>
        <time>2013-08-03T07:36:42Z</time>
      </trkpt>
      <trkpt lat="45.49603" lon="6.43426">
        <ele>1018.014</ele>
        <time>2013-08-03T07:36:45Z</time>
      </trkpt>
      <trkpt lat="45.49584" lon="6.43373">
        <ele>1019.508</ele>
        <time>2013-08-03T07:36:52Z</time>
      </trkpt>
      <trkpt lat="45.49582" lon="6.43335">
        <ele>1020.179</ele>
        <time>2013-08-03T07:36:57Z</time>
      </trkpt>
      <trkpt lat="45.49582" lon="6.43272">
        <ele>1020.949</ele>
        <time>2013-08-03T07:37:05Z</time>
      </trkpt>
      <trkpt lat="45.49572" lon="6.43238">
        <ele>1021.651</ele>
        <time>2013-08-03T07:37:10Z</time>
      </trkpt>
      <trkpt lat="45.49554" lon="6.43224">
        <ele>1022.036</ele>
        <time>2013-08-03T07:37:14Z</time>
      </trkpt>
      <trkpt lat="45.49534" lon="6.43223">
        <ele>1022.671</ele>
        <time>2013-08-03T07:37:18Z</time>
      </trkpt>
      <trkpt lat="45.49525" lon="6.43228">
        <ele>1022.99</ele>
        <time>2013-08-03T07:37:20Z</time>
      </trkpt>
      <trkpt lat="45.49506" lon="6.43226">
        <ele>1024.221</ele>
        <time>2013-08-03T07:37:24Z</time>
      </trkpt>
      <trkpt lat="45.49489" lon="6.43215">
        <ele>1025.403</ele>
        <time>2013-08-03T07:37:28Z</time>
      </trkpt>
      <trkpt lat="45.49481" lon="6.4321">
        <ele>1026.037</ele>
        <time>2013-08-03T07:37:30Z</time>
      </trkpt>
      <trkpt lat="45.49461" lon="6.43206">
        <ele>1027.675</ele>
        <time>2013-08-03T07:37:35Z</time>
      </trkpt>
      <trkpt lat="45.4944" lon="6.43209">
        <ele>1029.115</ele>
        <time>2013-08-03T07:37:41Z</time>
      </trkpt>
      <trkpt lat="45.49415" lon="6.432">
        <ele>1030.974</ele>
        <time>2013-08-03T07:37:48Z</time>
      </trkpt>
      <trkpt lat="45.49393" lon="6.43193">
        <ele>1032.754</ele>
        <time>2013-08-03T07:37:55Z</time>
      </trkpt>
      <trkpt lat="45.49362" lon="6.43171">
        <ele>1034.659</ele>
        <time>2013-08-03T07:38:05Z</time>
      </trkpt>
      <trkpt lat="45.49328" lon="6.43138">
        <ele>1037.369</ele>
        <time>2013-08-03T07:38:18Z</time>
      </trkpt>
      <trkpt lat="45.49296" lon="6.43121">
        <ele>1040.278</ele>
        <time>2013-08-03T07:38:29Z</time>
      </trkpt>
      <trkpt lat="45.49269" lon="6.43105">
        <ele>1042.251</ele>
        <time>2013-08-03T07:38:38Z</time>
      </trkpt>
      <trkpt lat="45.49251" lon="6.43079">
        <ele>1044.454</ele>
        <time>2013-08-03T07:38:46Z</time>
      </trkpt>
      <trkpt lat="45.49239" lon="6.43076">
        <ele>1045.329</ele>
        <time>2013-08-03T07:38:50Z</time>
      </trkpt>
      <trkpt lat="45.49221" lon="6.43085">
        <ele>1047.041</ele>
        <time>2013-08-03T07:38:56Z</time>
      </trkpt>
      <trkpt lat="45.49201" lon="6.43097">
        <ele>1048.759</ele>
        <time>2013-08-03T07:39:02Z</time>
      </trkpt>
      <trkpt lat="45.49186" lon="6.43098">
        <ele>1049.74</ele>
        <time>2013-08-03T07:39:06Z</time>
      </trkpt>
      <trkpt lat="45.49165" lon="6.43076">
        <ele>1050.688</ele>
        <time>2013-08-03T07:39:13Z</time>
      </trkpt>
      <trkpt lat="45.49146" lon="6.43073">
        <ele>1051.754</ele>
        <time>2013-08-03T07:39:18Z</time>
      </trkpt>
      <trkpt lat="45.49143" lon="6.43057">
        <ele>1053.002</ele>
        <time>2013-08-03T07:39:22Z</time>
      </trkpt>
      <trkpt lat="45.49162" lon="6.43053">
        <ele>1054.308</ele>
        <time>2013-08-03T07:39:27Z</time>
      </trkpt>
      <trkpt lat="45.4917" lon="6.43057">
        <ele>1054.909</ele>
        <time>2013-08-03T07:39:29Z</time>
      </trkpt>
      <trkpt lat="45.49188" lon="6.43081">
        <ele>1055.657</ele>
        <time>2013-08-03T07:39:35Z</time>
      </trkpt>
      <trkpt lat="45.49198" lon="6.43086">
        <ele>1056.193</ele>
        <time>2013-08-03T07:39:38Z</time>
      </trkpt>
      <trkpt lat="45.4922" lon="6.43068">
        <ele>1057.382</ele>
        <time>2013-08-03T07:39:45Z</time>
      </trkpt>
      <trkpt lat="45.49234" lon="6.43051">
        <ele>1058.697</ele>
        <time>2013-08-03T07:39:50Z</time>
      </trkpt>
      <trkpt lat="45.49253" lon="6.43058">
        <ele>1059.875</ele>
        <time>2013-08-03T07:39:55Z</time>
      </trkpt>
      <trkpt lat="45.49279" lon="6.43077">
        <ele>1061.411</ele>
        <time>2013-08-03T07:40:03Z</time>
      </trkpt>
      <trkpt lat="45.49303" lon="6.43084">
        <ele>1062.51</ele>
        <time>2013-08-03T07:40:09Z</time>
      </trkpt>
      <trkpt lat="45.49333" lon="6.43094">
        <ele>1064.225</ele>
        <time>2013-08-03T07:40:17Z</time>
      </trkpt>
      <trkpt lat="45.49385" lon="6.43115">
        <ele>1067.772</ele>
        <time>2013-08-03T07:40:31Z</time>
      </trkpt>
      <trkpt lat="45.49417" lon="6.43123">
        <ele>1070.275</ele>
        <time>2013-08-03T07:40:40Z</time>
      </trkpt>
      <trkpt lat="45.49449" lon="6.43114">
        <ele>1072.543</ele>
        <time>2013-08-03T07:40:49Z</time>
      </trkpt>
      <trkpt lat="45.49475" lon="6.43108">
        <ele>1074.226</ele>
        <time>2013-08-03T07:40:56Z</time>
      </trkpt>
      <trkpt lat="45.49505" lon="6.43112">
        <ele>1076.023</ele>
        <time>2013-08-03T07:41:04Z</time>
      </trkpt>
      <trkpt lat="45.49509" lon="6.43112">
        <ele>1076.171</ele>
        <time>2013-08-03T07:41:05Z</time>
      </trkpt>
      <trkpt lat="45.49517" lon="6.43092">
        <ele>1076.52</ele>
        <time>2013-08-03T07:41:09Z</time>
      </trkpt>
      <trkpt lat="45.49503" lon="6.43112">
        <ele>1077.148</ele>
        <time>2013-08-03T07:41:12Z</time>
      </trkpt>
      <trkpt lat="45.49486" lon="6.43111">
        <ele>1077.148</ele>
        <time>2013-08-03T07:41:17Z</time>
      </trkpt>
      <trkpt lat="45.49458" lon="6.43089">
        <ele>1080.613</ele>
        <time>2013-08-03T07:41:24Z</time>
      </trkpt>
      <trkpt lat="45.49447" lon="6.4309">
        <ele>1081.916</ele>
        <time>2013-08-03T07:41:27Z</time>
      </trkpt>
      <trkpt lat="45.49423" lon="6.43091">
        <ele>1082.773</ele>
        <time>2013-08-03T07:41:35Z</time>
      </trkpt>
      <trkpt lat="45.49391" lon="6.43082">
        <ele>1084.264</ele>
        <time>2013-08-03T07:41:44Z</time>
      </trkpt>
      <trkpt lat="45.49375" lon="6.43076">
        <ele>1087.052</ele>
        <time>2013-08-03T07:41:49Z</time>
      </trkpt>
      <trkpt lat="45.49355" lon="6.43059">
        <ele>1088.618</ele>
        <time>2013-08-03T07:41:56Z</time>
      </trkpt>
      <trkpt lat="45.49334" lon="6.43044">
        <ele>1090.546</ele>
        <time>2013-08-03T07:42:03Z</time>
      </trkpt>
      <trkpt lat="45.49312" lon="6.43031">
        <ele>1092.306</ele>
        <time>2013-08-03T07:42:10Z</time>
      </trkpt>
      <trkpt lat="45.49278" lon="6.43011">
        <ele>1094.649</ele>
        <time>2013-08-03T07:42:20Z</time>
      </trkpt>
      <trkpt lat="45.49243" lon="6.42989">
        <ele>1097.233</ele>
        <time>2013-08-03T07:42:30Z</time>
      </trkpt>
      <trkpt lat="45.49214" lon="6.42971">
        <ele>1099.156</ele>
        <time>2013-08-03T07:42:39Z</time>
      </trkpt>
      <trkpt lat="45.4919" lon="6.42946">
        <ele>1101.21</ele>
        <time>2013-08-03T07:42:48Z</time>
      </trkpt>
      <trkpt lat="45.49166" lon="6.42942">
        <ele>1102.293</ele>
        <time>2013-08-03T07:42:55Z</time>
      </trkpt>
      <trkpt lat="45.49148" lon="6.42942">
        <ele>1103.384</ele>
        <time>2013-08-03T07:43:00Z</time>
      </trkpt>
      <trkpt lat="45.49133" lon="6.42925">
        <ele>1104.89</ele>
        <time>2013-08-03T07:43:05Z</time>
      </trkpt>
      <trkpt lat="45.49112" lon="6.42901">
        <ele>1106.921</ele>
        <time>2013-08-03T07:43:12Z</time>
      </trkpt>
      <trkpt lat="45.49095" lon="6.42876">
        <ele>1109.065</ele>
        <time>2013-08-03T07:43:20Z</time>
      </trkpt>
      <trkpt lat="45.49089" lon="6.42849">
        <ele>1110.664</ele>
        <time>2013-08-03T07:43:27Z</time>
      </trkpt>
      <trkpt lat="45.49083" lon="6.42821">
        <ele>1112.266</ele>
        <time>2013-08-03T07:43:34Z</time>
      </trkpt>
      <trkpt lat="45.49075" lon="6.42801">
        <ele>1113.668</ele>
        <time>2013-08-03T07:43:40Z</time>
      </trkpt>
      <trkpt lat="45.49062" lon="6.42802">
        <ele>1114.22</ele>
        <time>2013-08-03T07:43:44Z</time>
      </trkpt>
      <trkpt lat="45.49038" lon="6.4282">
        <ele>1115.667</ele>
        <time>2013-08-03T07:43:51Z</time>
      </trkpt>
      <trkpt lat="45.49017" lon="6.42832">
        <ele>1117.109</ele>
        <time>2013-08-03T07:43:58Z</time>
      </trkpt>
      <trkpt lat="45.49" lon="6.42844">
        <ele>1118.525</ele>
        <time>2013-08-03T07:44:04Z</time>
      </trkpt>
      <trkpt lat="45.48988" lon="6.42836">
        <ele>1119.542</ele>
        <time>2013-08-03T07:44:08Z</time>
      </trkpt>
      <trkpt lat="45.48966" lon="6.42812">
        <ele>1121.756</ele>
        <time>2013-08-03T07:44:16Z</time>
      </trkpt>
      <trkpt lat="45.48939" lon="6.42793">
        <ele>1124.182</ele>
        <time>2013-08-03T07:44:26Z</time>
      </trkpt>
      <trkpt lat="45.48918" lon="6.42778">
        <ele>1126.534</ele>
        <time>2013-08-03T07:44:35Z</time>
      </trkpt>
      <trkpt lat="45.4889" lon="6.42758">
        <ele>1129.384</ele>
        <time>2013-08-03T07:44:47Z</time>
      </trkpt>
      <trkpt lat="45.48872" lon="6.42747">
        <ele>1131.223</ele>
        <time>2013-08-03T07:44:55Z</time>
      </trkpt>
      <trkpt lat="45.48852" lon="6.42739">
        <ele>1132.896</ele>
        <time>2013-08-03T07:45:03Z</time>
      </trkpt>
      <trkpt lat="45.48834" lon="6.42737">
        <ele>1134.64</ele>
        <time>2013-08-03T07:45:10Z</time>
      </trkpt>
      <trkpt lat="45.48822" lon="6.42748">
        <ele>1136.248</ele>
        <time>2013-08-03T07:45:17Z</time>
      </trkpt>
      <trkpt lat="45.48811" lon="6.42773">
        <ele>1138.041</ele>
        <time>2013-08-03T07:45:25Z</time>
      </trkpt>
      <trkpt lat="45.48799" lon="6.42799">
        <ele>1139.992</ele>
        <time>2013-08-03T07:45:33Z</time>
      </trkpt>
      <trkpt lat="45.48788" lon="6.42822">
        <ele>1141.538</ele>
        <time>2013-08-03T07:45:40Z</time>
      </trkpt>
      <trkpt lat="45.48781" lon="6.4283">
        <ele>1142.355</ele>
        <time>2013-08-03T07:45:43Z</time>
      </trkpt>
      <trkpt lat="45.48766" lon="6.42826">
        <ele>1143.375</ele>
        <time>2013-08-03T07:45:47Z</time>
      </trkpt>
      <trkpt lat="45.48752" lon="6.42792">
        <ele>1145.94</ele>
        <time>2013-08-03T07:45:56Z</time>
      </trkpt>
      <trkpt lat="45.48742" lon="6.42765">
        <ele>1147.812</ele>
        <time>2013-08-03T07:46:04Z</time>
      </trkpt>
      <trkpt lat="45.48729" lon="6.42739">
        <ele>1149.763</ele>
        <time>2013-08-03T07:46:12Z</time>
      </trkpt>
      <trkpt lat="45.48712" lon="6.42736">
        <ele>1151.166</ele>
        <time>2013-08-03T07:46:18Z</time>
      </trkpt>
      <trkpt lat="45.48693" lon="6.42746">
        <ele>1152.708</ele>
        <time>2013-08-03T07:46:26Z</time>
      </trkpt>
      <trkpt lat="45.4867" lon="6.42754">
        <ele>1154.969</ele>
        <time>2013-08-03T07:46:35Z</time>
      </trkpt>
      <trkpt lat="45.48659" lon="6.42751">
        <ele>1155.612</ele>
        <time>2013-08-03T07:46:39Z</time>
      </trkpt>
      <trkpt lat="45.48653" lon="6.42739">
        <ele>1156.708</ele>
        <time>2013-08-03T07:46:43Z</time>
      </trkpt>
      <trkpt lat="45.48666" lon="6.42735">
        <ele>1158.225</ele>
        <time>2013-08-03T07:46:48Z</time>
      </trkpt>
      <trkpt lat="45.48669" lon="6.42735">
        <ele>1158.444</ele>
        <time>2013-08-03T07:46:49Z</time>
      </trkpt>
      <trkpt lat="45.48682" lon="6.42736">
        <ele>1159.758</ele>
        <time>2013-08-03T07:46:53Z</time>
      </trkpt>
      <trkpt lat="45.48697" lon="6.42712">
        <ele>1161.235</ele>
        <time>2013-08-03T07:47:00Z</time>
      </trkpt>
      <trkpt lat="45.48711" lon="6.4269">
        <ele>1163.351</ele>
        <time>2013-08-03T07:47:08Z</time>
      </trkpt>
      <trkpt lat="45.48728" lon="6.42678">
        <ele>1165.193</ele>
        <time>2013-08-03T07:47:16Z</time>
      </trkpt>
      <trkpt lat="45.4875" lon="6.42677">
        <ele>1167.245</ele>
        <time>2013-08-03T07:47:25Z</time>
      </trkpt>
      <trkpt lat="45.48767" lon="6.4269">
        <ele>1168.906</ele>
        <time>2013-08-03T07:47:32Z</time>
      </trkpt>
      <trkpt lat="45.48778" lon="6.42702">
        <ele>1170.288</ele>
        <time>2013-08-03T07:47:37Z</time>
      </trkpt>
      <trkpt lat="45.48781" lon="6.42702">
        <ele>1170.528</ele>
        <time>2013-08-03T07:47:38Z</time>
      </trkpt>
      <trkpt lat="45.48788" lon="6.42684">
        <ele>1171.741</ele>
        <time>2013-08-03T07:47:43Z</time>
      </trkpt>
      <trkpt lat="45.48784" lon="6.42678">
        <ele>1172.406</ele>
        <time>2013-08-03T07:47:45Z</time>
      </trkpt>
      <trkpt lat="45.4877" lon="6.42657">
        <ele>1174.079</ele>
        <time>2013-08-03T07:47:53Z</time>
      </trkpt>
      <trkpt lat="45.48754" lon="6.42635">
        <ele>1174.079</ele>
        <time>2013-08-03T07:48:02Z</time>
      </trkpt>
      <trkpt lat="45.48733" lon="6.42621">
        <ele>1178.547</ele>
        <time>2013-08-03T07:48:10Z</time>
      </trkpt>
      <trkpt lat="45.48707" lon="6.42622">
        <ele>1180.57</ele>
        <time>2013-08-03T07:48:20Z</time>
      </trkpt>
      <trkpt lat="45.48689" lon="6.42632">
        <ele>1182.132</ele>
        <time>2013-08-03T07:48:29Z</time>
      </trkpt>
      <trkpt lat="45.48668" lon="6.42653">
        <ele>1182.132</ele>
        <time>2013-08-03T07:48:39Z</time>
      </trkpt>
      <trkpt lat="45.48655" lon="6.42653">
        <ele>1182.782</ele>
        <time>2013-08-03T07:48:43Z</time>
      </trkpt>
      <trkpt lat="45.48643" lon="6.42646">
        <ele>1187.495</ele>
        <time>2013-08-03T07:48:48Z</time>
      </trkpt>
      <trkpt lat="45.48631" lon="6.42637">
        <ele>1188.749</ele>
        <time>2013-08-03T07:48:53Z</time>
      </trkpt>
      <trkpt lat="45.48603" lon="6.42616">
        <ele>1190.237</ele>
        <time>2013-08-03T07:49:02Z</time>
      </trkpt>
      <trkpt lat="45.48588" lon="6.42595">
        <ele>1191.348</ele>
        <time>2013-08-03T07:49:09Z</time>
      </trkpt>
      <trkpt lat="45.4858" lon="6.42572">
        <ele>1192.756</ele>
        <time>2013-08-03T07:49:15Z</time>
      </trkpt>
      <trkpt lat="45.48568" lon="6.42544">
        <ele>1194.666</ele>
        <time>2013-08-03T07:49:24Z</time>
      </trkpt>
      <trkpt lat="45.48555" lon="6.42531">
        <ele>1195.567</ele>
        <time>2013-08-03T07:49:30Z</time>
      </trkpt>
      <trkpt lat="45.48539" lon="6.42525">
        <ele>1196.335</ele>
        <time>2013-08-03T07:49:35Z</time>
      </trkpt>
      <trkpt lat="45.48529" lon="6.42522">
        <ele>1197.77</ele>
        <time>2013-08-03T07:49:38Z</time>
      </trkpt>
      <trkpt lat="45.48507" lon="6.42515">
        <ele>1199.875</ele>
        <time>2013-08-03T07:49:46Z</time>
      </trkpt>
      <trkpt lat="45.48477" lon="6.42507">
        <ele>1202.735</ele>
        <time>2013-08-03T07:49:57Z</time>
      </trkpt>
      <trkpt lat="45.4846" lon="6.42493">
        <ele>1203.993</ele>
        <time>2013-08-03T07:50:04Z</time>
      </trkpt>
      <trkpt lat="45.4844" lon="6.42469">
        <ele>1206.069</ele>
        <time>2013-08-03T07:50:12Z</time>
      </trkpt>
      <trkpt lat="45.48421" lon="6.42446">
        <ele>1208.184</ele>
        <time>2013-08-03T07:50:21Z</time>
      </trkpt>
      <trkpt lat="45.48399" lon="6.42429">
        <ele>1210.015</ele>
        <time>2013-08-03T07:50:30Z</time>
      </trkpt>
      <trkpt lat="45.48372" lon="6.42419">
        <ele>1212.28</ele>
        <time>2013-08-03T07:50:40Z</time>
      </trkpt>
      <trkpt lat="45.48351" lon="6.42401">
        <ele>1214.292</ele>
        <time>2013-08-03T07:50:49Z</time>
      </trkpt>
      <trkpt lat="45.48327" lon="6.42386">
        <ele>1216.874</ele>
        <time>2013-08-03T07:50:58Z</time>
      </trkpt>
      <trkpt lat="45.48298" lon="6.4237">
        <ele>1219.091</ele>
        <time>2013-08-03T07:51:08Z</time>
      </trkpt>
      <trkpt lat="45.48273" lon="6.42346">
        <ele>1221.664</ele>
        <time>2013-08-03T07:51:18Z</time>
      </trkpt>
      <trkpt lat="45.48261" lon="6.4232">
        <ele>1223.125</ele>
        <time>2013-08-03T07:51:25Z</time>
      </trkpt>
      <trkpt lat="45.48252" lon="6.42279">
        <ele>1225.358</ele>
        <time>2013-08-03T07:51:35Z</time>
      </trkpt>
      <trkpt lat="45.48243" lon="6.42235">
        <ele>1227.92</ele>
        <time>2013-08-03T07:51:46Z</time>
      </trkpt>
      <trkpt lat="45.48235" lon="6.42185">
        <ele>1230.519</ele>
        <time>2013-08-03T07:51:58Z</time>
      </trkpt>
      <trkpt lat="45.48225" lon="6.42164">
        <ele>1231.801</ele>
        <time>2013-08-03T07:52:04Z</time>
      </trkpt>
      <trkpt lat="45.48213" lon="6.42162">
        <ele>1232.673</ele>
        <time>2013-08-03T07:52:08Z</time>
      </trkpt>
      <trkpt lat="45.48201" lon="6.42168">
        <ele>1234.053</ele>
        <time>2013-08-03T07:52:12Z</time>
      </trkpt>
      <trkpt lat="45.48186" lon="6.4219">
        <ele>1235.886</ele>
        <time>2013-08-03T07:52:18Z</time>
      </trkpt>
      <trkpt lat="45.48172" lon="6.42191">
        <ele>1237.246</ele>
        <time>2013-08-03T07:52:23Z</time>
      </trkpt>
      <trkpt lat="45.48145" lon="6.42177">
        <ele>1239.495</ele>
        <time>2013-08-03T07:52:34Z</time>
      </trkpt>
      <trkpt lat="45.48123" lon="6.42166">
        <ele>1241.391</ele>
        <time>2013-08-03T07:52:43Z</time>
      </trkpt>
      <trkpt lat="45.48096" lon="6.42155">
        <ele>1243.674</ele>
        <time>2013-08-03T07:52:54Z</time>
      </trkpt>
      <trkpt lat="45.48069" lon="6.4215">
        <ele>1245.91</ele>
        <time>2013-08-03T07:53:04Z</time>
      </trkpt>
      <trkpt lat="45.4804" lon="6.42145">
        <ele>1247.832</ele>
        <time>2013-08-03T07:53:15Z</time>
      </trkpt>
      <trkpt lat="45.48019" lon="6.42137">
        <ele>1249.588</ele>
        <time>2013-08-03T07:53:23Z</time>
      </trkpt>
      <trkpt lat="45.47992" lon="6.42114">
        <ele>1252.511</ele>
        <time>2013-08-03T07:53:35Z</time>
      </trkpt>
      <trkpt lat="45.47975" lon="6.421">
        <ele>1253.699</ele>
        <time>2013-08-03T07:53:42Z</time>
      </trkpt>
      <trkpt lat="45.47955" lon="6.42088">
        <ele>1255.445</ele>
        <time>2013-08-03T07:53:49Z</time>
      </trkpt>
      <trkpt lat="45.4793" lon="6.42078">
        <ele>1257.212</ele>
        <time>2013-08-03T07:53:58Z</time>
      </trkpt>
      <trkpt lat="45.47911" lon="6.42074">
        <ele>1259.445</ele>
        <time>2013-08-03T07:54:05Z</time>
      </trkpt>
      <trkpt lat="45.4789" lon="6.42072">
        <ele>1261.231</ele>
        <time>2013-08-03T07:54:13Z</time>
      </trkpt>
      <trkpt lat="45.47866" lon="6.42072">
        <ele>1263.222</ele>
        <time>2013-08-03T07:54:22Z</time>
      </trkpt>
      <trkpt lat="45.47861" lon="6.42069">
        <ele>1263.598</ele>
        <time>2013-08-03T07:54:24Z</time>
      </trkpt>
      <trkpt lat="45.47853" lon="6.42059">
        <ele>1264.758</ele>
        <time>2013-08-03T07:54:29Z</time>
      </trkpt>
      <trkpt lat="45.47859" lon="6.42047">
        <ele>1265.497</ele>
        <time>2013-08-03T07:54:33Z</time>
      </trkpt>
      <trkpt lat="45.47866" lon="6.4204">
        <ele>1266.754</ele>
        <time>2013-08-03T07:54:36Z</time>
      </trkpt>
      <trkpt lat="45.47883" lon="6.42029">
        <ele>1268.473</ele>
        <time>2013-08-03T07:54:43Z</time>
      </trkpt>
      <trkpt lat="45.479" lon="6.42012">
        <ele>1270.306</ele>
        <time>2013-08-03T07:54:51Z</time>
      </trkpt>
      <trkpt lat="45.47918" lon="6.42011">
        <ele>1271.851</ele>
        <time>2013-08-03T07:54:57Z</time>
      </trkpt>
      <trkpt lat="45.47934" lon="6.4202">
        <ele>1272.921</ele>
        <time>2013-08-03T07:55:04Z</time>
      </trkpt>
      <trkpt lat="45.47945" lon="6.42012">
        <ele>1273.98</ele>
        <time>2013-08-03T07:55:09Z</time>
      </trkpt>
      <trkpt lat="45.4794" lon="6.41996">
        <ele>1274.825</ele>
        <time>2013-08-03T07:55:13Z</time>
      </trkpt>
      <trkpt lat="45.47937" lon="6.41994">
        <ele>1274.981</ele>
        <time>2013-08-03T07:55:14Z</time>
      </trkpt>
      <trkpt lat="45.47909" lon="6.41982">
        <ele>1275.158</ele>
        <time>2013-08-03T07:55:23Z</time>
      </trkpt>
      <trkpt lat="45.4789" lon="6.41975">
        <ele>1275.158</ele>
        <time>2013-08-03T07:55:31Z</time>
      </trkpt>
      <trkpt lat="45.47876" lon="6.4197">
        <ele>1275.158</ele>
        <time>2013-08-03T07:55:37Z</time>
      </trkpt>
      <trkpt lat="45.47856" lon="6.41955">
        <ele>1275.158</ele>
        <time>2013-08-03T07:55:46Z</time>
      </trkpt>
      <trkpt lat="45.47855" lon="6.41952">
        <ele>1275.158</ele>
        <time>2013-08-03T07:55:48Z</time>
      </trkpt>
      <trkpt lat="45.47844" lon="6.41926">
        <ele>1275.158</ele>
        <time>2013-08-03T07:55:55Z</time>
      </trkpt>
      <trkpt lat="45.47831" lon="6.419">
        <ele>1275.158</ele>
        <time>2013-08-03T07:56:02Z</time>
      </trkpt>
      <trkpt lat="45.47813" lon="6.41886">
        <ele>1286.53</ele>
        <time>2013-08-03T07:56:09Z</time>
      </trkpt>
      <trkpt lat="45.47811" lon="6.41881">
        <ele>1286.735</ele>
        <time>2013-08-03T07:56:10Z</time>
      </trkpt>
      <trkpt lat="45.47801" lon="6.41857">
        <ele>1288.335</ele>
        <time>2013-08-03T07:56:18Z</time>
      </trkpt>
      <trkpt lat="45.47788" lon="6.41822">
        <ele>1290.391</ele>
        <time>2013-08-03T07:56:28Z</time>
      </trkpt>
      <trkpt lat="45.47771" lon="6.41806">
        <ele>1291.537</ele>
        <time>2013-08-03T07:56:35Z</time>
      </trkpt>
      <trkpt lat="45.47745" lon="6.41791">
        <ele>1293.364</ele>
        <time>2013-08-03T07:56:44Z</time>
      </trkpt>
      <trkpt lat="45.47719" lon="6.41776">
        <ele>1295.655</ele>
        <time>2013-08-03T07:56:53Z</time>
      </trkpt>
      <trkpt lat="45.47699" lon="6.41766">
        <ele>1297.426</ele>
        <time>2013-08-03T07:57:00Z</time>
      </trkpt>
      <trkpt lat="45.47675" lon="6.41773">
        <ele>1298.942</ele>
        <time>2013-08-03T07:57:06Z</time>
      </trkpt>
      <trkpt lat="45.47668" lon="6.4178">
        <ele>1300.155</ele>
        <time>2013-08-03T07:57:11Z</time>
      </trkpt>
      <trkpt lat="45.47664" lon="6.41801">
        <ele>1301.963</ele>
        <time>2013-08-03T07:57:17Z</time>
      </trkpt>
      <trkpt lat="45.47664" lon="6.41828">
        <ele>1303.619</ele>
        <time>2013-08-03T07:57:24Z</time>
      </trkpt>
      <trkpt lat="45.47659" lon="6.41848">
        <ele>1305.059</ele>
        <time>2013-08-03T07:57:30Z</time>
      </trkpt>
      <trkpt lat="45.47647" lon="6.41856">
        <ele>1306.699</ele>
        <time>2013-08-03T07:57:35Z</time>
      </trkpt>
      <trkpt lat="45.47632" lon="6.41858">
        <ele>1308.396</ele>
        <time>2013-08-03T07:57:41Z</time>
      </trkpt>
      <trkpt lat="45.47606" lon="6.4186">
        <ele>1311.203</ele>
        <time>2013-08-03T07:57:52Z</time>
      </trkpt>
      <trkpt lat="45.47583" lon="6.41861">
        <ele>1313.809</ele>
        <time>2013-08-03T07:58:03Z</time>
      </trkpt>
      <trkpt lat="45.47564" lon="6.41848">
        <ele>1316.159</ele>
        <time>2013-08-03T07:58:13Z</time>
      </trkpt>
      <trkpt lat="45.47549" lon="6.41829">
        <ele>1318.329</ele>
        <time>2013-08-03T07:58:23Z</time>
      </trkpt>
      <trkpt lat="45.4753" lon="6.41802">
        <ele>1320.691</ele>
        <time>2013-08-03T07:58:35Z</time>
      </trkpt>
      <trkpt lat="45.47519" lon="6.41785">
        <ele>1322.429</ele>
        <time>2013-08-03T07:58:42Z</time>
      </trkpt>
      <trkpt lat="45.47501" lon="6.41769">
        <ele>1324.632</ele>
        <time>2013-08-03T07:58:50Z</time>
      </trkpt>
      <trkpt lat="45.47477" lon="6.41747">
        <ele>1327.422</ele>
        <time>2013-08-03T07:59:02Z</time>
      </trkpt>
      <trkpt lat="45.47453" lon="6.41724">
        <ele>1330.491</ele>
        <time>2013-08-03T07:59:15Z</time>
      </trkpt>
      <trkpt lat="45.47433" lon="6.41702">
        <ele>1333.193</ele>
        <time>2013-08-03T07:59:27Z</time>
      </trkpt>
      <trkpt lat="45.47412" lon="6.41671">
        <ele>1336.138</ele>
        <time>2013-08-03T07:59:41Z</time>
      </trkpt>
      <trkpt lat="45.47399" lon="6.41644">
        <ele>1338.317</ele>
        <time>2013-08-03T07:59:52Z</time>
      </trkpt>
      <trkpt lat="45.47391" lon="6.41616">
        <ele>1340.918</ele>
        <time>2013-08-03T08:00:02Z</time>
      </trkpt>
      <trkpt lat="45.47383" lon="6.41597">
        <ele>1342.458</ele>
        <time>2013-08-03T08:00:09Z</time>
      </trkpt>
      <trkpt lat="45.47371" lon="6.41573">
        <ele>1344.444</ele>
        <time>2013-08-03T08:00:18Z</time>
      </trkpt>
      <trkpt lat="45.47362" lon="6.41558">
        <ele>1344.444</ele>
        <time>2013-08-03T08:00:23Z</time>
      </trkpt>
      <trkpt lat="45.47345" lon="6.41525">
        <ele>1344.444</ele>
        <time>2013-08-03T08:00:35Z</time>
      </trkpt>
      <trkpt lat="45.47333" lon="6.41505">
        <ele>1344.444</ele>
        <time>2013-08-03T08:00:43Z</time>
      </trkpt>
      <trkpt lat="45.47332" lon="6.41502">
        <ele>1344.444</ele>
        <time>2013-08-03T08:00:45Z</time>
      </trkpt>
      <trkpt lat="45.4733" lon="6.41483">
        <ele>1344.444</ele>
        <time>2013-08-03T08:00:50Z</time>
      </trkpt>
      <trkpt lat="45.47345" lon="6.41476">
        <ele>1344.444</ele>
        <time>2013-08-03T08:00:54Z</time>
      </trkpt>
      <trkpt lat="45.4735" lon="6.41481">
        <ele>1344.444</ele>
        <time>2013-08-03T08:00:56Z</time>
      </trkpt>
      <trkpt lat="45.47368" lon="6.41524">
        <ele>1348.679</ele>
        <time>2013-08-03T08:01:05Z</time>
      </trkpt>
      <trkpt lat="45.47377" lon="6.41536">
        <ele>1355.982</ele>
        <time>2013-08-03T08:01:09Z</time>
      </trkpt>
      <trkpt lat="45.47404" lon="6.41572">
        <ele>1358.34</ele>
        <time>2013-08-03T08:01:21Z</time>
      </trkpt>
      <trkpt lat="45.47428" lon="6.41601">
        <ele>1360.626</ele>
        <time>2013-08-03T08:01:32Z</time>
      </trkpt>
      <trkpt lat="45.47455" lon="6.41629">
        <ele>1363.248</ele>
        <time>2013-08-03T08:01:44Z</time>
      </trkpt>
      <trkpt lat="45.47471" lon="6.41634">
        <ele>1364.585</ele>
        <time>2013-08-03T08:01:51Z</time>
      </trkpt>
      <trkpt lat="45.47491" lon="6.41626">
        <ele>1366.445</ele>
        <time>2013-08-03T08:01:59Z</time>
      </trkpt>
      <trkpt lat="45.47502" lon="6.41611">
        <ele>1367.93</ele>
        <time>2013-08-03T08:02:05Z</time>
      </trkpt>
      <trkpt lat="45.47509" lon="6.41585">
        <ele>1369.088</ele>
        <time>2013-08-03T08:02:11Z</time>
      </trkpt>
      <trkpt lat="45.47515" lon="6.41552">
        <ele>1370.557</ele>
        <time>2013-08-03T08:02:19Z</time>
      </trkpt>
      <trkpt lat="45.47519" lon="6.41524">
        <ele>1371.831</ele>
        <time>2013-08-03T08:02:26Z</time>
      </trkpt>
      <trkpt lat="45.47525" lon="6.41487">
        <ele>1373.697</ele>
        <time>2013-08-03T08:02:35Z</time>
      </trkpt>
      <trkpt lat="45.47529" lon="6.41453">
        <ele>1375.278</ele>
        <time>2013-08-03T08:02:43Z</time>
      </trkpt>
      <trkpt lat="45.47538" lon="6.41416">
        <ele>1377.172</ele>
        <time>2013-08-03T08:02:52Z</time>
      </trkpt>
      <trkpt lat="45.47551" lon="6.41388">
        <ele>1378.631</ele>
        <time>2013-08-03T08:03:00Z</time>
      </trkpt>
      <trkpt lat="45.47573" lon="6.41368">
        <ele>1380.446</ele>
        <time>2013-08-03T08:03:09Z</time>
      </trkpt>
      <trkpt lat="45.47582" lon="6.41356">
        <ele>1381.176</ele>
        <time>2013-08-03T08:03:14Z</time>
      </trkpt>
      <trkpt lat="45.47575" lon="6.41336">
        <ele>1382.169</ele>
        <time>2013-08-03T08:03:19Z</time>
      </trkpt>
      <trkpt lat="45.47564" lon="6.41339">
        <ele>1383.411</ele>
        <time>2013-08-03T08:03:23Z</time>
      </trkpt>
      <trkpt lat="45.47559" lon="6.41344">
        <ele>1383.766</ele>
        <time>2013-08-03T08:03:25Z</time>
      </trkpt>
      <trkpt lat="45.47541" lon="6.41373">
        <ele>1385.914</ele>
        <time>2013-08-03T08:03:35Z</time>
      </trkpt>
      <trkpt lat="45.47524" lon="6.41401">
        <ele>1387.976</ele>
        <time>2013-08-03T08:03:45Z</time>
      </trkpt>
      <trkpt lat="45.47511" lon="6.41431">
        <ele>1390.106</ele>
        <time>2013-08-03T08:03:55Z</time>
      </trkpt>
      <trkpt lat="45.47499" lon="6.4146">
        <ele>1392.618</ele>
        <time>2013-08-03T08:04:05Z</time>
      </trkpt>
      <trkpt lat="45.47493" lon="6.41475">
        <ele>1393.932</ele>
        <time>2013-08-03T08:04:11Z</time>
      </trkpt>
      <trkpt lat="45.47488" lon="6.41491">
        <ele>1395.277</ele>
        <time>2013-08-03T08:04:16Z</time>
      </trkpt>
      <trkpt lat="45.47475" lon="6.41509">
        <ele>1397.143</ele>
        <time>2013-08-03T08:04:23Z</time>
      </trkpt>
      <trkpt lat="45.47459" lon="6.41516">
        <ele>1399.111</ele>
        <time>2013-08-03T08:04:30Z</time>
      </trkpt>
      <trkpt lat="45.47449" lon="6.41502">
        <ele>1400.645</ele>
        <time>2013-08-03T08:04:36Z</time>
      </trkpt>
      <trkpt lat="45.47436" lon="6.41471">
        <ele>1403.112</ele>
        <time>2013-08-03T08:04:46Z</time>
      </trkpt>
      <trkpt lat="45.47426" lon="6.41439">
        <ele>1405.536</ele>
        <time>2013-08-03T08:04:56Z</time>
      </trkpt>
      <trkpt lat="45.47424" lon="6.41411">
        <ele>1407.831</ele>
        <time>2013-08-03T08:05:05Z</time>
      </trkpt>
      <trkpt lat="45.47426" lon="6.41381">
        <ele>1410.141</ele>
        <time>2013-08-03T08:05:15Z</time>
      </trkpt>
      <trkpt lat="45.47425" lon="6.41349">
        <ele>1412.472</ele>
        <time>2013-08-03T08:05:26Z</time>
      </trkpt>
      <trkpt lat="45.4742" lon="6.41316">
        <ele>1414.631</ele>
        <time>2013-08-03T08:05:37Z</time>
      </trkpt>
      <trkpt lat="45.47412" lon="6.41294">
        <ele>1416.698</ele>
        <time>2013-08-03T08:05:45Z</time>
      </trkpt>
      <trkpt lat="45.47398" lon="6.41268">
        <ele>1419.213</ele>
        <time>2013-08-03T08:05:56Z</time>
      </trkpt>
      <trkpt lat="45.47385" lon="6.41244">
        <ele>1421.748</ele>
        <time>2013-08-03T08:06:06Z</time>
      </trkpt>
      <trkpt lat="45.47379" lon="6.41225">
        <ele>1423.508</ele>
        <time>2013-08-03T08:06:13Z</time>
      </trkpt>
      <trkpt lat="45.47373" lon="6.41198">
        <ele>1425.386</ele>
        <time>2013-08-03T08:06:21Z</time>
      </trkpt>
      <trkpt lat="45.47363" lon="6.41181">
        <ele>1426.854</ele>
        <time>2013-08-03T08:06:27Z</time>
      </trkpt>
      <trkpt lat="45.4735" lon="6.41185">
        <ele>1428.46</ele>
        <time>2013-08-03T08:06:33Z</time>
      </trkpt>
      <trkpt lat="45.47331" lon="6.41196">
        <ele>1430.591</ele>
        <time>2013-08-03T08:06:42Z</time>
      </trkpt>
      <trkpt lat="45.4731" lon="6.41206">
        <ele>1432.825</ele>
        <time>2013-08-03T08:06:53Z</time>
      </trkpt>
      <trkpt lat="45.47293" lon="6.41195">
        <ele>1434.775</ele>
        <time>2013-08-03T08:07:02Z</time>
      </trkpt>
      <trkpt lat="45.47277" lon="6.41178">
        <ele>1436.822</ele>
        <time>2013-08-03T08:07:12Z</time>
      </trkpt>
      <trkpt lat="45.47269" lon="6.41165">
        <ele>1438.185</ele>
        <time>2013-08-03T08:07:18Z</time>
      </trkpt>
      <trkpt lat="45.47256" lon="6.41145">
        <ele>1440.279</ele>
        <time>2013-08-03T08:07:26Z</time>
      </trkpt>
      <trkpt lat="45.4724" lon="6.41122">
        <ele>1442.657</ele>
        <time>2013-08-03T08:07:35Z</time>
      </trkpt>
      <trkpt lat="45.47219" lon="6.41092">
        <ele>1445.842</ele>
        <time>2013-08-03T08:07:47Z</time>
      </trkpt>
      <trkpt lat="45.47204" lon="6.41069">
        <ele>1448.329</ele>
        <time>2013-08-03T08:07:56Z</time>
      </trkpt>
      <trkpt lat="45.47197" lon="6.41044">
        <ele>1450.156</ele>
        <time>2013-08-03T08:08:04Z</time>
      </trkpt>
      <trkpt lat="45.47193" lon="6.41014">
        <ele>1452.694</ele>
        <time>2013-08-03T08:08:14Z</time>
      </trkpt>
      <trkpt lat="45.47183" lon="6.40989">
        <ele>1454.523</ele>
        <time>2013-08-03T08:08:23Z</time>
      </trkpt>
      <trkpt lat="45.47172" lon="6.40969">
        <ele>1456.608</ele>
        <time>2013-08-03T08:08:32Z</time>
      </trkpt>
      <trkpt lat="45.47158" lon="6.40952">
        <ele>1458.496</ele>
        <time>2013-08-03T08:08:41Z</time>
      </trkpt>
      <trkpt lat="45.47146" lon="6.4094">
        <ele>1460.29</ele>
        <time>2013-08-03T08:08:48Z</time>
      </trkpt>
      <trkpt lat="45.47132" lon="6.40936">
        <ele>1461.686</ele>
        <time>2013-08-03T08:08:55Z</time>
      </trkpt>
      <trkpt lat="45.47115" lon="6.40926">
        <ele>1463.836</ele>
        <time>2013-08-03T08:09:04Z</time>
      </trkpt>
      <trkpt lat="45.47107" lon="6.40907">
        <ele>1465.958</ele>
        <time>2013-08-03T08:09:12Z</time>
      </trkpt>
      <trkpt lat="45.47106" lon="6.40879">
        <ele>1468.21</ele>
        <time>2013-08-03T08:09:22Z</time>
      </trkpt>
      <trkpt lat="45.47103" lon="6.4085">
        <ele>1470.102</ele>
        <time>2013-08-03T08:09:31Z</time>
      </trkpt>
      <trkpt lat="45.47093" lon="6.40835">
        <ele>1471.692</ele>
        <time>2013-08-03T08:09:38Z</time>
      </trkpt>
      <trkpt lat="45.47076" lon="6.40825">
        <ele>1473.753</ele>
        <time>2013-08-03T08:09:46Z</time>
      </trkpt>
      <trkpt lat="45.47059" lon="6.40823">
        <ele>1475.561</ele>
        <time>2013-08-03T08:09:53Z</time>
      </trkpt>
      <trkpt lat="45.47046" lon="6.40818">
        <ele>1476.964</ele>
        <time>2013-08-03T08:09:59Z</time>
      </trkpt>
      <trkpt lat="45.4703" lon="6.40806">
        <ele>1479.035</ele>
        <time>2013-08-03T08:10:08Z</time>
      </trkpt>
      <trkpt lat="45.4701" lon="6.40786">
        <ele>1481.641</ele>
        <time>2013-08-03T08:10:20Z</time>
      </trkpt>
      <trkpt lat="45.46998" lon="6.40761">
        <ele>1484.378</ele>
        <time>2013-08-03T08:10:31Z</time>
      </trkpt>
      <trkpt lat="45.46989" lon="6.40735">
        <ele>1486.661</ele>
        <time>2013-08-03T08:10:41Z</time>
      </trkpt>
      <trkpt lat="45.46979" lon="6.40701">
        <ele>1489.532</ele>
        <time>2013-08-03T08:10:54Z</time>
      </trkpt>
      <trkpt lat="45.46978" lon="6.4069">
        <ele>1490.536</ele>
        <time>2013-08-03T08:10:58Z</time>
      </trkpt>
      <trkpt lat="45.46972" lon="6.40662">
        <ele>1492.459</ele>
        <time>2013-08-03T08:11:07Z</time>
      </trkpt>
      <trkpt lat="45.46966" lon="6.40638">
        <ele>1494.214</ele>
        <time>2013-08-03T08:11:15Z</time>
      </trkpt>
      <trkpt lat="45.46961" lon="6.40628">
        <ele>1495.362</ele>
        <time>2013-08-03T08:11:20Z</time>
      </trkpt>
      <trkpt lat="45.46958" lon="6.40622">
        <ele>1495.316</ele>
        <time>2013-08-03T08:11:53Z</time>
      </trkpt>
      <trkpt lat="45.46958" lon="6.40622">
        <ele>1496.939</ele>
        <time>2013-08-03T08:15:43Z</time>
      </trkpt>
      <trkpt lat="45.46956" lon="6.40619">
        <ele>1496.914</ele>
        <time>2013-08-03T08:15:50Z</time>
      </trkpt>
      <trkpt lat="45.46956" lon="6.40617">
        <ele>1497.262</ele>
        <time>2013-08-03T08:15:53Z</time>
      </trkpt>
      <trkpt lat="45.46953" lon="6.40613">
        <ele>1497.485</ele>
        <time>2013-08-03T08:15:58Z</time>
      </trkpt>
      <trkpt lat="45.4695" lon="6.40597">
        <ele>1498.696</ele>
        <time>2013-08-03T08:16:04Z</time>
      </trkpt>
      <trkpt lat="45.46946" lon="6.40569">
        <ele>1500.698</ele>
        <time>2013-08-03T08:16:13Z</time>
      </trkpt>
      <trkpt lat="45.46943" lon="6.40542">
        <ele>1502.736</ele>
        <time>2013-08-03T08:16:22Z</time>
      </trkpt>
      <trkpt lat="45.46946" lon="6.40516">
        <ele>1504.575</ele>
        <time>2013-08-03T08:16:31Z</time>
      </trkpt>
      <trkpt lat="45.46955" lon="6.40481">
        <ele>1507.508</ele>
        <time>2013-08-03T08:16:43Z</time>
      </trkpt>
      <trkpt lat="45.46964" lon="6.40451">
        <ele>1509.865</ele>
        <time>2013-08-03T08:16:54Z</time>
      </trkpt>
      <trkpt lat="45.46971" lon="6.40425">
        <ele>1511.527</ele>
        <time>2013-08-03T08:17:03Z</time>
      </trkpt>
      <trkpt lat="45.46976" lon="6.40406">
        <ele>1513.369</ele>
        <time>2013-08-03T08:17:10Z</time>
      </trkpt>
      <trkpt lat="45.4698" lon="6.40383">
        <ele>1515.569</ele>
        <time>2013-08-03T08:17:19Z</time>
      </trkpt>
      <trkpt lat="45.46977" lon="6.40365">
        <ele>1516.888</ele>
        <time>2013-08-03T08:17:26Z</time>
      </trkpt>
      <trkpt lat="45.46965" lon="6.4033">
        <ele>1520.065</ele>
        <time>2013-08-03T08:17:39Z</time>
      </trkpt>
      <trkpt lat="45.46966" lon="6.40307">
        <ele>1521.702</ele>
        <time>2013-08-03T08:17:47Z</time>
      </trkpt>
      <trkpt lat="45.4697" lon="6.40278">
        <ele>1524.03</ele>
        <time>2013-08-03T08:17:57Z</time>
      </trkpt>
      <trkpt lat="45.46978" lon="6.40256">
        <ele>1526.132</ele>
        <time>2013-08-03T08:18:06Z</time>
      </trkpt>
      <trkpt lat="45.46989" lon="6.40229">
        <ele>1528.603</ele>
        <time>2013-08-03T08:18:17Z</time>
      </trkpt>
      <trkpt lat="45.46998" lon="6.40202">
        <ele>1531.333</ele>
        <time>2013-08-03T08:18:28Z</time>
      </trkpt>
      <trkpt lat="45.47005" lon="6.40167">
        <ele>1533.875</ele>
        <time>2013-08-03T08:18:41Z</time>
      </trkpt>
      <trkpt lat="45.47014" lon="6.40131">
        <ele>1536.676</ele>
        <time>2013-08-03T08:18:54Z</time>
      </trkpt>
      <trkpt lat="45.47016" lon="6.40114">
        <ele>1538.174</ele>
        <time>2013-08-03T08:19:00Z</time>
      </trkpt>
      <trkpt lat="45.47016" lon="6.40095">
        <ele>1539.825</ele>
        <time>2013-08-03T08:19:06Z</time>
      </trkpt>
      <trkpt lat="45.47008" lon="6.40069">
        <ele>1541.963</ele>
        <time>2013-08-03T08:19:14Z</time>
      </trkpt>
      <trkpt lat="45.46999" lon="6.40045">
        <ele>1543.875</ele>
        <time>2013-08-03T08:19:22Z</time>
      </trkpt>
      <trkpt lat="45.46986" lon="6.40025">
        <ele>1545.729</ele>
        <time>2013-08-03T08:19:30Z</time>
      </trkpt>
      <trkpt lat="45.46971" lon="6.40022">
        <ele>1547</ele>
        <time>2013-08-03T08:19:36Z</time>
      </trkpt>
      <trkpt lat="45.46953" lon="6.40032">
        <ele>1547.551</ele>
        <time>2013-08-03T08:19:43Z</time>
      </trkpt>
      <trkpt lat="45.46916" lon="6.40052">
        <ele>1548.502</ele>
        <time>2013-08-03T08:19:54Z</time>
      </trkpt>
      <trkpt lat="45.46875" lon="6.40072">
        <ele>1549.698</ele>
        <time>2013-08-03T08:20:05Z</time>
      </trkpt>
      <trkpt lat="45.46834" lon="6.40093">
        <ele>1551.201</ele>
        <time>2013-08-03T08:20:16Z</time>
      </trkpt>
      <trkpt lat="45.46802" lon="6.4011">
        <ele>1552.404</ele>
        <time>2013-08-03T08:20:25Z</time>
      </trkpt>
      <trkpt lat="45.46762" lon="6.40127">
        <ele>1554.414</ele>
        <time>2013-08-03T08:20:36Z</time>
      </trkpt>
      <trkpt lat="45.46738" lon="6.40129">
        <ele>1555.679</ele>
        <time>2013-08-03T08:20:43Z</time>
      </trkpt>
      <trkpt lat="45.46717" lon="6.4013">
        <ele>1557.05</ele>
        <time>2013-08-03T08:20:49Z</time>
      </trkpt>
      <trkpt lat="45.46698" lon="6.40139">
        <ele>1558.462</ele>
        <time>2013-08-03T08:20:55Z</time>
      </trkpt>
      <trkpt lat="45.46683" lon="6.40156">
        <ele>1559.688</ele>
        <time>2013-08-03T08:21:01Z</time>
      </trkpt>
      <trkpt lat="45.46666" lon="6.40182">
        <ele>1561.593</ele>
        <time>2013-08-03T08:21:09Z</time>
      </trkpt>
      <trkpt lat="45.46646" lon="6.40199">
        <ele>1562.837</ele>
        <time>2013-08-03T08:21:16Z</time>
      </trkpt>
      <trkpt lat="45.4662" lon="6.40212">
        <ele>1564.013</ele>
        <time>2013-08-03T08:21:24Z</time>
      </trkpt>
      <trkpt lat="45.46582" lon="6.40233">
        <ele>1565.381</ele>
        <time>2013-08-03T08:21:35Z</time>
      </trkpt>
      <trkpt lat="45.46574" lon="6.40234">
        <ele>1565.546</ele>
        <time>2013-08-03T08:21:37Z</time>
      </trkpt>
      <trkpt lat="45.46533" lon="6.40234">
        <ele>1566.485</ele>
        <time>2013-08-03T08:21:47Z</time>
      </trkpt>
      <trkpt lat="45.46498" lon="6.40225">
        <ele>1567.261</ele>
        <time>2013-08-03T08:21:55Z</time>
      </trkpt>
      <trkpt lat="45.46459" lon="6.40201">
        <ele>1568.287</ele>
        <time>2013-08-03T08:22:05Z</time>
      </trkpt>
      <trkpt lat="45.46432" lon="6.40189">
        <ele>1569.265</ele>
        <time>2013-08-03T08:22:12Z</time>
      </trkpt>
      <trkpt lat="45.46409" lon="6.40185">
        <ele>1569.897</ele>
        <time>2013-08-03T08:22:18Z</time>
      </trkpt>
      <trkpt lat="45.46388" lon="6.40182">
        <ele>1570.824</ele>
        <time>2013-08-03T08:22:23Z</time>
      </trkpt>
      <trkpt lat="45.46353" lon="6.4017">
        <ele>1572.29</ele>
        <time>2013-08-03T08:22:32Z</time>
      </trkpt>
      <trkpt lat="45.46328" lon="6.40157">
        <ele>1573.339</ele>
        <time>2013-08-03T08:22:39Z</time>
      </trkpt>
      <trkpt lat="45.46287" lon="6.40131">
        <ele>1575.494</ele>
        <time>2013-08-03T08:22:50Z</time>
      </trkpt>
      <trkpt lat="45.46248" lon="6.40103">
        <ele>1576.799</ele>
        <time>2013-08-03T08:23:01Z</time>
      </trkpt>
      <trkpt lat="45.46211" lon="6.40078">
        <ele>1578.465</ele>
        <time>2013-08-03T08:23:11Z</time>
      </trkpt>
      <trkpt lat="45.46165" lon="6.40043">
        <ele>1580.618</ele>
        <time>2013-08-03T08:23:24Z</time>
      </trkpt>
      <trkpt lat="45.46138" lon="6.40022">
        <ele>1581.924</ele>
        <time>2013-08-03T08:23:32Z</time>
      </trkpt>
      <trkpt lat="45.46117" lon="6.40008">
        <ele>1582.789</ele>
        <time>2013-08-03T08:23:38Z</time>
      </trkpt>
      <trkpt lat="45.46085" lon="6.39982">
        <ele>1584.19</ele>
        <time>2013-08-03T08:23:47Z</time>
      </trkpt>
      <trkpt lat="45.46061" lon="6.39962">
        <ele>1585.241</ele>
        <time>2013-08-03T08:23:54Z</time>
      </trkpt>
      <trkpt lat="45.46027" lon="6.39931">
        <ele>1586.733</ele>
        <time>2013-08-03T08:24:04Z</time>
      </trkpt>
      <trkpt lat="45.45989" lon="6.39898">
        <ele>1587.826</ele>
        <time>2013-08-03T08:24:15Z</time>
      </trkpt>
      <trkpt lat="45.45951" lon="6.39867">
        <ele>1589.334</ele>
        <time>2013-08-03T08:24:26Z</time>
      </trkpt>
      <trkpt lat="45.45944" lon="6.3986">
        <ele>1589.645</ele>
        <time>2013-08-03T08:24:28Z</time>
      </trkpt>
      <trkpt lat="45.45907" lon="6.39826">
        <ele>1590.202</ele>
        <time>2013-08-03T08:24:38Z</time>
      </trkpt>
      <trkpt lat="45.45887" lon="6.398">
        <ele>1590.529</ele>
        <time>2013-08-03T08:24:44Z</time>
      </trkpt>
      <trkpt lat="45.45857" lon="6.39749">
        <ele>1591.575</ele>
        <time>2013-08-03T08:24:54Z</time>
      </trkpt>
      <trkpt lat="45.45829" lon="6.39702">
        <ele>1592.398</ele>
        <time>2013-08-03T08:25:03Z</time>
      </trkpt>
      <trkpt lat="45.45822" lon="6.39693">
        <ele>1592.484</ele>
        <time>2013-08-03T08:25:05Z</time>
      </trkpt>
      <trkpt lat="45.4579" lon="6.39668">
        <ele>1593.331</ele>
        <time>2013-08-03T08:25:13Z</time>
      </trkpt>
      <trkpt lat="45.45775" lon="6.39656">
        <ele>1593.718</ele>
        <time>2013-08-03T08:25:17Z</time>
      </trkpt>
      <trkpt lat="45.45754" lon="6.39634">
        <ele>1594.589</ele>
        <time>2013-08-03T08:25:23Z</time>
      </trkpt>
      <trkpt lat="45.45743" lon="6.39611">
        <ele>1595.051</ele>
        <time>2013-08-03T08:25:28Z</time>
      </trkpt>
      <trkpt lat="45.45732" lon="6.39564">
        <ele>1596.682</ele>
        <time>2013-08-03T08:25:37Z</time>
      </trkpt>
      <trkpt lat="45.45726" lon="6.39525">
        <ele>1597.463</ele>
        <time>2013-08-03T08:25:44Z</time>
      </trkpt>
      <trkpt lat="45.45726" lon="6.39513">
        <ele>1597.617</ele>
        <time>2013-08-03T08:25:46Z</time>
      </trkpt>
      <trkpt lat="45.45723" lon="6.39477">
        <ele>1598.058</ele>
        <time>2013-08-03T08:25:52Z</time>
      </trkpt>
      <trkpt lat="45.45712" lon="6.39436">
        <ele>1598.209</ele>
        <time>2013-08-03T08:25:59Z</time>
      </trkpt>
      <trkpt lat="45.45693" lon="6.39408">
        <ele>1598.912</ele>
        <time>2013-08-03T08:26:05Z</time>
      </trkpt>
      <trkpt lat="45.45673" lon="6.39397">
        <ele>1599.548</ele>
        <time>2013-08-03T08:26:10Z</time>
      </trkpt>
      <trkpt lat="45.45658" lon="6.39404">
        <ele>1600.228</ele>
        <time>2013-08-03T08:26:14Z</time>
      </trkpt>
      <trkpt lat="45.45648" lon="6.39416">
        <ele>1600.529</ele>
        <time>2013-08-03T08:26:17Z</time>
      </trkpt>
      <trkpt lat="45.45628" lon="6.39453">
        <ele>1601.778</ele>
        <time>2013-08-03T08:26:25Z</time>
      </trkpt>
      <trkpt lat="45.45609" lon="6.39483">
        <ele>1603.222</ele>
        <time>2013-08-03T08:26:32Z</time>
      </trkpt>
      <trkpt lat="45.45584" lon="6.39521">
        <ele>1605.205</ele>
        <time>2013-08-03T08:26:42Z</time>
      </trkpt>
      <trkpt lat="45.45559" lon="6.39557">
        <ele>1606.974</ele>
        <time>2013-08-03T08:26:52Z</time>
      </trkpt>
      <trkpt lat="45.45534" lon="6.39588">
        <ele>1608.464</ele>
        <time>2013-08-03T08:27:01Z</time>
      </trkpt>
      <trkpt lat="45.455" lon="6.39628">
        <ele>1610.251</ele>
        <time>2013-08-03T08:27:13Z</time>
      </trkpt>
      <trkpt lat="45.4547" lon="6.39655">
        <ele>1611.39</ele>
        <time>2013-08-03T08:27:22Z</time>
      </trkpt>
      <trkpt lat="45.45438" lon="6.39678">
        <ele>1612.225</ele>
        <time>2013-08-03T08:27:31Z</time>
      </trkpt>
      <trkpt lat="45.45418" lon="6.39693">
        <ele>1612.991</ele>
        <time>2013-08-03T08:27:37Z</time>
      </trkpt>
      <trkpt lat="45.45375" lon="6.39719">
        <ele>1614.791</ele>
        <time>2013-08-03T08:27:48Z</time>
      </trkpt>
      <trkpt lat="45.45338" lon="6.39734">
        <ele>1616.265</ele>
        <time>2013-08-03T08:27:58Z</time>
      </trkpt>
      <trkpt lat="45.45299" lon="6.39737">
        <ele>1617.673</ele>
        <time>2013-08-03T08:28:08Z</time>
      </trkpt>
      <trkpt lat="45.45259" lon="6.39731">
        <ele>1618.95</ele>
        <time>2013-08-03T08:28:18Z</time>
      </trkpt>
      <trkpt lat="45.45232" lon="6.39725">
        <ele>1619.801</ele>
        <time>2013-08-03T08:28:25Z</time>
      </trkpt>
      <trkpt lat="45.45192" lon="6.39717">
        <ele>1621.193</ele>
        <time>2013-08-03T08:28:35Z</time>
      </trkpt>
      <trkpt lat="45.4516" lon="6.39712">
        <ele>1622.585</ele>
        <time>2013-08-03T08:28:43Z</time>
      </trkpt>
      <trkpt lat="45.45121" lon="6.39696">
        <ele>1624.404</ele>
        <time>2013-08-03T08:28:53Z</time>
      </trkpt>
      <trkpt lat="45.45088" lon="6.39682">
        <ele>1625.856</ele>
        <time>2013-08-03T08:29:02Z</time>
      </trkpt>
      <trkpt lat="45.45037" lon="6.3966">
        <ele>1628.255</ele>
        <time>2013-08-03T08:29:16Z</time>
      </trkpt>
      <trkpt lat="45.45001" lon="6.39645">
        <ele>1629.924</ele>
        <time>2013-08-03T08:29:26Z</time>
      </trkpt>
      <trkpt lat="45.44968" lon="6.39622">
        <ele>1631.65</ele>
        <time>2013-08-03T08:29:36Z</time>
      </trkpt>
      <trkpt lat="45.4495" lon="6.39606">
        <ele>1632.875</ele>
        <time>2013-08-03T08:29:42Z</time>
      </trkpt>
      <trkpt lat="45.4492" lon="6.39581">
        <ele>1635.32</ele>
        <time>2013-08-03T08:29:52Z</time>
      </trkpt>
      <trkpt lat="45.44897" lon="6.39561">
        <ele>1637.372</ele>
        <time>2013-08-03T08:30:00Z</time>
      </trkpt>
      <trkpt lat="45.4486" lon="6.39528">
        <ele>1641.064</ele>
        <time>2013-08-03T08:30:14Z</time>
      </trkpt>
      <trkpt lat="45.4483" lon="6.39502">
        <ele>1643.691</ele>
        <time>2013-08-03T08:30:26Z</time>
      </trkpt>
      <trkpt lat="45.44804" lon="6.39477">
        <ele>1646.116</ele>
        <time>2013-08-03T08:30:37Z</time>
      </trkpt>
      <trkpt lat="45.44781" lon="6.39456">
        <ele>1648.673</ele>
        <time>2013-08-03T08:30:47Z</time>
      </trkpt>
      <trkpt lat="45.44759" lon="6.39432">
        <ele>1651.189</ele>
        <time>2013-08-03T08:30:57Z</time>
      </trkpt>
      <trkpt lat="45.44735" lon="6.39403">
        <ele>1653.731</ele>
        <time>2013-08-03T08:31:08Z</time>
      </trkpt>
      <trkpt lat="45.44712" lon="6.39377">
        <ele>1656.238</ele>
        <time>2013-08-03T08:31:18Z</time>
      </trkpt>
      <trkpt lat="45.44687" lon="6.39346">
        <ele>1660.197</ele>
        <time>2013-08-03T08:31:32Z</time>
      </trkpt>
      <trkpt lat="45.44672" lon="6.39325">
        <ele>1662.999</ele>
        <time>2013-08-03T08:31:42Z</time>
      </trkpt>
      <trkpt lat="45.44658" lon="6.39302">
        <ele>1665.585</ele>
        <time>2013-08-03T08:31:52Z</time>
      </trkpt>
      <trkpt lat="45.44646" lon="6.39282">
        <ele>1668.028</ele>
        <time>2013-08-03T08:32:00Z</time>
      </trkpt>
      <trkpt lat="45.4463" lon="6.39256">
        <ele>1670.607</ele>
        <time>2013-08-03T08:32:11Z</time>
      </trkpt>
      <trkpt lat="45.44617" lon="6.39235">
        <ele>1672.822</ele>
        <time>2013-08-03T08:32:20Z</time>
      </trkpt>
      <trkpt lat="45.44605" lon="6.39215">
        <ele>1674.899</ele>
        <time>2013-08-03T08:32:28Z</time>
      </trkpt>
      <trkpt lat="45.44594" lon="6.39198">
        <ele>1676.411</ele>
        <time>2013-08-03T08:32:35Z</time>
      </trkpt>
      <trkpt lat="45.44454" lon="6.38599">
        <ele>1729.465</ele>
        <time>2013-08-03T08:36:00Z</time>
      </trkpt>
      <trkpt lat="45.44454" lon="6.38595">
        <ele>1729.561</ele>
        <time>2013-08-03T08:36:01Z</time>
      </trkpt>
      <trkpt lat="45.44454" lon="6.38588">
        <ele>1729.609</ele>
        <time>2013-08-03T08:36:03Z</time>
      </trkpt>
      <trkpt lat="45.44453" lon="6.38556">
        <ele>1734.659</ele>
        <time>2013-08-03T08:36:12Z</time>
      </trkpt>
      <trkpt lat="45.44453" lon="6.38529">
        <ele>1737.949</ele>
        <time>2013-08-03T08:36:20Z</time>
      </trkpt>
      <trkpt lat="45.44452" lon="6.38495">
        <ele>1741.986</ele>
        <time>2013-08-03T08:36:31Z</time>
      </trkpt>
      <trkpt lat="45.44451" lon="6.38464">
        <ele>1745.029</ele>
        <time>2013-08-03T08:36:41Z</time>
      </trkpt>
      <trkpt lat="45.4445" lon="6.38436">
        <ele>1748.331</ele>
        <time>2013-08-03T08:36:50Z</time>
      </trkpt>
      <trkpt lat="45.4445" lon="6.38403">
        <ele>1751.612</ele>
        <time>2013-08-03T08:37:01Z</time>
      </trkpt>
      <trkpt lat="45.44449" lon="6.38368">
        <ele>1754.644</ele>
        <time>2013-08-03T08:37:12Z</time>
      </trkpt>
      <trkpt lat="45.44449" lon="6.38365">
        <ele>1754.838</ele>
        <time>2013-08-03T08:37:13Z</time>
      </trkpt>
      <trkpt lat="45.44448" lon="6.38336">
        <ele>1756.479</ele>
        <time>2013-08-03T08:37:21Z</time>
      </trkpt>
      <trkpt lat="45.44446" lon="6.38304">
        <ele>1758.479</ele>
        <time>2013-08-03T08:37:29Z</time>
      </trkpt>
      <trkpt lat="45.44442" lon="6.3827">
        <ele>1760.912</ele>
        <time>2013-08-03T08:37:39Z</time>
      </trkpt>
      <trkpt lat="45.44438" lon="6.38244">
        <ele>1762.384</ele>
        <time>2013-08-03T08:37:47Z</time>
      </trkpt>
      <trkpt lat="45.4443" lon="6.38216">
        <ele>1764.421</ele>
        <time>2013-08-03T08:37:57Z</time>
      </trkpt>
      <trkpt lat="45.44422" lon="6.38193">
        <ele>1766.339</ele>
        <time>2013-08-03T08:38:05Z</time>
      </trkpt>
      <trkpt lat="45.4441" lon="6.38173">
        <ele>1768.144</ele>
        <time>2013-08-03T08:38:14Z</time>
      </trkpt>
      <trkpt lat="45.44396" lon="6.38155">
        <ele>1770.584</ele>
        <time>2013-08-03T08:38:23Z</time>
      </trkpt>
      <trkpt lat="45.44375" lon="6.3814">
        <ele>1772.762</ele>
        <time>2013-08-03T08:38:33Z</time>
      </trkpt>
      <trkpt lat="45.4435" lon="6.38133">
        <ele>1775.843</ele>
        <time>2013-08-03T08:38:45Z</time>
      </trkpt>
      <trkpt lat="45.44334" lon="6.3813">
        <ele>1777.584</ele>
        <time>2013-08-03T08:38:52Z</time>
      </trkpt>
      <trkpt lat="45.44321" lon="6.3813">
        <ele>1779.018</ele>
        <time>2013-08-03T08:38:58Z</time>
      </trkpt>
      <trkpt lat="45.44298" lon="6.38137">
        <ele>1781.419</ele>
        <time>2013-08-03T08:39:09Z</time>
      </trkpt>
      <trkpt lat="45.44282" lon="6.38144">
        <ele>1782.857</ele>
        <time>2013-08-03T08:39:16Z</time>
      </trkpt>
      <trkpt lat="45.44256" lon="6.38156">
        <ele>1785.076</ele>
        <time>2013-08-03T08:39:26Z</time>
      </trkpt>
      <trkpt lat="45.44238" lon="6.38169">
        <ele>1787.2</ele>
        <time>2013-08-03T08:39:34Z</time>
      </trkpt>
      <trkpt lat="45.44224" lon="6.38185">
        <ele>1788.766</ele>
        <time>2013-08-03T08:39:42Z</time>
      </trkpt>
      <trkpt lat="45.44213" lon="6.38211">
        <ele>1790.013</ele>
        <time>2013-08-03T08:39:50Z</time>
      </trkpt>
      <trkpt lat="45.44201" lon="6.38224">
        <ele>1791.005</ele>
        <time>2013-08-03T08:39:56Z</time>
      </trkpt>
      <trkpt lat="45.44194" lon="6.38218">
        <ele>1792.279</ele>
        <time>2013-08-03T08:40:01Z</time>
      </trkpt>
      <trkpt lat="45.44194" lon="6.3821">
        <ele>1792.809</ele>
        <time>2013-08-03T08:40:03Z</time>
      </trkpt>
      <trkpt lat="45.442" lon="6.38175">
        <ele>1795.581</ele>
        <time>2013-08-03T08:40:12Z</time>
      </trkpt>
      <trkpt lat="45.44207" lon="6.38143">
        <ele>1797.275</ele>
        <time>2013-08-03T08:40:21Z</time>
      </trkpt>
      <trkpt lat="45.44228" lon="6.38104">
        <ele>1799.304</ele>
        <time>2013-08-03T08:40:33Z</time>
      </trkpt>
      <trkpt lat="45.44248" lon="6.38079">
        <ele>1801.829</ele>
        <time>2013-08-03T08:40:43Z</time>
      </trkpt>
      <trkpt lat="45.4427" lon="6.38054">
        <ele>1803.846</ele>
        <time>2013-08-03T08:40:54Z</time>
      </trkpt>
      <trkpt lat="45.44285" lon="6.38026">
        <ele>1805.899</ele>
        <time>2013-08-03T08:41:04Z</time>
      </trkpt>
      <trkpt lat="45.44304" lon="6.38005">
        <ele>1808.199</ele>
        <time>2013-08-03T08:41:14Z</time>
      </trkpt>
      <trkpt lat="45.44324" lon="6.3799">
        <ele>1810.2</ele>
        <time>2013-08-03T08:41:24Z</time>
      </trkpt>
      <trkpt lat="45.44347" lon="6.37972">
        <ele>1812.717</ele>
        <time>2013-08-03T08:41:35Z</time>
      </trkpt>
      <trkpt lat="45.44364" lon="6.37961">
        <ele>1814.34</ele>
        <time>2013-08-03T08:41:43Z</time>
      </trkpt>
      <trkpt lat="45.44379" lon="6.37953">
        <ele>1815.785</ele>
        <time>2013-08-03T08:41:50Z</time>
      </trkpt>
      <trkpt lat="45.44396" lon="6.37946">
        <ele>1817.492</ele>
        <time>2013-08-03T08:41:57Z</time>
      </trkpt>
      <trkpt lat="45.44415" lon="6.37939">
        <ele>1819.324</ele>
        <time>2013-08-03T08:42:04Z</time>
      </trkpt>
      <trkpt lat="45.4443" lon="6.37935">
        <ele>1821.038</ele>
        <time>2013-08-03T08:42:11Z</time>
      </trkpt>
      <trkpt lat="45.44451" lon="6.37932">
        <ele>1822.946</ele>
        <time>2013-08-03T08:42:20Z</time>
      </trkpt>
      <trkpt lat="45.44472" lon="6.37929">
        <ele>1824.696</ele>
        <time>2013-08-03T08:42:29Z</time>
      </trkpt>
      <trkpt lat="45.44489" lon="6.3793">
        <ele>1826.41</ele>
        <time>2013-08-03T08:42:37Z</time>
      </trkpt>
      <trkpt lat="45.44507" lon="6.37939">
        <ele>1828.108</ele>
        <time>2013-08-03T08:42:46Z</time>
      </trkpt>
      <trkpt lat="45.44521" lon="6.37948">
        <ele>1829.531</ele>
        <time>2013-08-03T08:42:53Z</time>
      </trkpt>
      <trkpt lat="45.44537" lon="6.37962">
        <ele>1831.076</ele>
        <time>2013-08-03T08:43:01Z</time>
      </trkpt>
      <trkpt lat="45.44551" lon="6.37978">
        <ele>1832.883</ele>
        <time>2013-08-03T08:43:09Z</time>
      </trkpt>
      <trkpt lat="45.44565" lon="6.37997">
        <ele>1834.889</ele>
        <time>2013-08-03T08:43:18Z</time>
      </trkpt>
      <trkpt lat="45.44574" lon="6.3801">
        <ele>1836.076</ele>
        <time>2013-08-03T08:43:24Z</time>
      </trkpt>
      <trkpt lat="45.44581" lon="6.3802">
        <ele>1837.131</ele>
        <time>2013-08-03T08:43:28Z</time>
      </trkpt>
      <trkpt lat="45.44592" lon="6.38036">
        <ele>1838.528</ele>
        <time>2013-08-03T08:43:34Z</time>
      </trkpt>
      <trkpt lat="45.44607" lon="6.38057">
        <ele>1840.503</ele>
        <time>2013-08-03T08:43:43Z</time>
      </trkpt>
      <trkpt lat="45.44619" lon="6.38068">
        <ele>1842.015</ele>
        <time>2013-08-03T08:43:50Z</time>
      </trkpt>
      <trkpt lat="45.44628" lon="6.38063">
        <ele>1842.921</ele>
        <time>2013-08-03T08:43:55Z</time>
      </trkpt>
      <trkpt lat="45.4463" lon="6.38048">
        <ele>1843.934</ele>
        <time>2013-08-03T08:44:00Z</time>
      </trkpt>
      <trkpt lat="45.44623" lon="6.38032">
        <ele>1845.187</ele>
        <time>2013-08-03T08:44:07Z</time>
      </trkpt>
      <trkpt lat="45.44606" lon="6.38003">
        <ele>1847.189</ele>
        <time>2013-08-03T08:44:16Z</time>
      </trkpt>
      <trkpt lat="45.44594" lon="6.37978">
        <ele>1849.179</ele>
        <time>2013-08-03T08:44:24Z</time>
      </trkpt>
      <trkpt lat="45.44583" lon="6.37945">
        <ele>1851.243</ele>
        <time>2013-08-03T08:44:34Z</time>
      </trkpt>
      <trkpt lat="45.44568" lon="6.37904">
        <ele>1853.661</ele>
        <time>2013-08-03T08:44:46Z</time>
      </trkpt>
      <trkpt lat="45.44556" lon="6.37879">
        <ele>1855.39</ele>
        <time>2013-08-03T08:44:54Z</time>
      </trkpt>
      <trkpt lat="45.44538" lon="6.3786">
        <ele>1857.299</ele>
        <time>2013-08-03T08:45:02Z</time>
      </trkpt>
      <trkpt lat="45.44515" lon="6.37851">
        <ele>1860.11</ele>
        <time>2013-08-03T08:45:11Z</time>
      </trkpt>
      <trkpt lat="45.44491" lon="6.37845">
        <ele>1861.641</ele>
        <time>2013-08-03T08:45:20Z</time>
      </trkpt>
      <trkpt lat="45.44473" lon="6.37841">
        <ele>1863.53</ele>
        <time>2013-08-03T08:45:27Z</time>
      </trkpt>
      <trkpt lat="45.44459" lon="6.37839">
        <ele>1864.953</ele>
        <time>2013-08-03T08:45:34Z</time>
      </trkpt>
      <trkpt lat="45.44453" lon="6.37838">
        <ele>1865.706</ele>
        <time>2013-08-03T08:45:38Z</time>
      </trkpt>
      <trkpt lat="45.44453" lon="6.37838">
        <ele>1866.014</ele>
        <time>2013-08-03T08:45:39Z</time>
      </trkpt>
      <trkpt lat="45.44453" lon="6.37838">
        <ele>1866.214</ele>
        <time>2013-08-03T08:45:52Z</time>
      </trkpt>
      <trkpt lat="45.44436" lon="6.37833">
        <ele>1867.616</ele>
        <time>2013-08-03T08:49:56Z</time>
      </trkpt>
      <trkpt lat="45.44416" lon="6.37825">
        <ele>1869.648</ele>
        <time>2013-08-03T08:50:04Z</time>
      </trkpt>
      <trkpt lat="45.44392" lon="6.37807">
        <ele>1872.435</ele>
        <time>2013-08-03T08:50:16Z</time>
      </trkpt>
      <trkpt lat="45.44378" lon="6.37797">
        <ele>1874.18</ele>
        <time>2013-08-03T08:50:24Z</time>
      </trkpt>
      <trkpt lat="45.44365" lon="6.37787">
        <ele>1875.958</ele>
        <time>2013-08-03T08:50:31Z</time>
      </trkpt>
      <trkpt lat="45.44345" lon="6.37775">
        <ele>1878.293</ele>
        <time>2013-08-03T08:50:42Z</time>
      </trkpt>
      <trkpt lat="45.44323" lon="6.37767">
        <ele>1881</ele>
        <time>2013-08-03T08:50:52Z</time>
      </trkpt>
      <trkpt lat="45.44302" lon="6.3776">
        <ele>1882.79</ele>
        <time>2013-08-03T08:51:02Z</time>
      </trkpt>
      <trkpt lat="45.44278" lon="6.37759">
        <ele>1885.344</ele>
        <time>2013-08-03T08:51:13Z</time>
      </trkpt>
      <trkpt lat="45.4426" lon="6.37766">
        <ele>1887.636</ele>
        <time>2013-08-03T08:51:22Z</time>
      </trkpt>
      <trkpt lat="45.44239" lon="6.37782">
        <ele>1890.016</ele>
        <time>2013-08-03T08:51:33Z</time>
      </trkpt>
      <trkpt lat="45.4422" lon="6.37791">
        <ele>1891.903</ele>
        <time>2013-08-03T08:51:42Z</time>
      </trkpt>
      <trkpt lat="45.442" lon="6.37806">
        <ele>1894.373</ele>
        <time>2013-08-03T08:51:53Z</time>
      </trkpt>
      <trkpt lat="45.44183" lon="6.37823">
        <ele>1896.627</ele>
        <time>2013-08-03T08:52:03Z</time>
      </trkpt>
      <trkpt lat="45.44162" lon="6.37839">
        <ele>1898.367</ele>
        <time>2013-08-03T08:52:12Z</time>
      </trkpt>
      <trkpt lat="45.44141" lon="6.37853">
        <ele>1901.247</ele>
        <time>2013-08-03T08:52:23Z</time>
      </trkpt>
      <trkpt lat="45.44128" lon="6.37865">
        <ele>1902.859</ele>
        <time>2013-08-03T08:52:31Z</time>
      </trkpt>
      <trkpt lat="45.44122" lon="6.3787">
        <ele>1903.075</ele>
        <time>2013-08-03T08:52:34Z</time>
      </trkpt>
      <trkpt lat="45.44114" lon="6.37863">
        <ele>1904.276</ele>
        <time>2013-08-03T08:52:39Z</time>
      </trkpt>
      <trkpt lat="45.44121" lon="6.37843">
        <ele>1905.755</ele>
        <time>2013-08-03T08:52:44Z</time>
      </trkpt>
      <trkpt lat="45.44124" lon="6.37842">
        <ele>1905.882</ele>
        <time>2013-08-03T08:52:45Z</time>
      </trkpt>
      <trkpt lat="45.4414" lon="6.37825">
        <ele>1907.701</ele>
        <time>2013-08-03T08:52:53Z</time>
      </trkpt>
      <trkpt lat="45.44151" lon="6.37811">
        <ele>1909.079</ele>
        <time>2013-08-03T08:53:00Z</time>
      </trkpt>
      <trkpt lat="45.44167" lon="6.37786">
        <ele>1911.167</ele>
        <time>2013-08-03T08:53:11Z</time>
      </trkpt>
      <trkpt lat="45.4418" lon="6.37763">
        <ele>1913.193</ele>
        <time>2013-08-03T08:53:20Z</time>
      </trkpt>
      <trkpt lat="45.44193" lon="6.37748">
        <ele>1914.57</ele>
        <time>2013-08-03T08:53:27Z</time>
      </trkpt>
      <trkpt lat="45.44204" lon="6.37741">
        <ele>1915.497</ele>
        <time>2013-08-03T08:53:32Z</time>
      </trkpt>
      <trkpt lat="45.44217" lon="6.37731">
        <ele>1916.907</ele>
        <time>2013-08-03T08:53:38Z</time>
      </trkpt>
      <trkpt lat="45.44222" lon="6.3772">
        <ele>1917.807</ele>
        <time>2013-08-03T08:53:42Z</time>
      </trkpt>
      <trkpt lat="45.44213" lon="6.37707">
        <ele>1918.813</ele>
        <time>2013-08-03T08:53:47Z</time>
      </trkpt>
      <trkpt lat="45.44207" lon="6.37707">
        <ele>1919.314</ele>
        <time>2013-08-03T08:53:49Z</time>
      </trkpt>
      <trkpt lat="45.44177" lon="6.37729">
        <ele>1921.606</ele>
        <time>2013-08-03T08:54:00Z</time>
      </trkpt>
      <trkpt lat="45.44156" lon="6.37743">
        <ele>1923.625</ele>
        <time>2013-08-03T08:54:09Z</time>
      </trkpt>
      <trkpt lat="45.44134" lon="6.37759">
        <ele>1925.951</ele>
        <time>2013-08-03T08:54:19Z</time>
      </trkpt>
      <trkpt lat="45.44112" lon="6.37773">
        <ele>1928.307</ele>
        <time>2013-08-03T08:54:29Z</time>
      </trkpt>
      <trkpt lat="45.44089" lon="6.37786">
        <ele>1930.786</ele>
        <time>2013-08-03T08:54:39Z</time>
      </trkpt>
      <trkpt lat="45.44067" lon="6.37798">
        <ele>1932.831</ele>
        <time>2013-08-03T08:54:48Z</time>
      </trkpt>
      <trkpt lat="45.44042" lon="6.37814">
        <ele>1935.197</ele>
        <time>2013-08-03T08:54:59Z</time>
      </trkpt>
      <trkpt lat="45.44023" lon="6.37837">
        <ele>1937.173</ele>
        <time>2013-08-03T08:55:09Z</time>
      </trkpt>
      <trkpt lat="45.44004" lon="6.3787">
        <ele>1938.889</ele>
        <time>2013-08-03T08:55:20Z</time>
      </trkpt>
      <trkpt lat="45.43991" lon="6.37889">
        <ele>1939.93</ele>
        <time>2013-08-03T08:55:27Z</time>
      </trkpt>
      <trkpt lat="45.43975" lon="6.37899">
        <ele>1941.417</ele>
        <time>2013-08-03T08:55:33Z</time>
      </trkpt>
      <trkpt lat="45.43953" lon="6.37902">
        <ele>1943.66</ele>
        <time>2013-08-03T08:55:41Z</time>
      </trkpt>
      <trkpt lat="45.43935" lon="6.379">
        <ele>1944.808</ele>
        <time>2013-08-03T08:55:48Z</time>
      </trkpt>
      <trkpt lat="45.43919" lon="6.3789">
        <ele>1947.231</ele>
        <time>2013-08-03T08:55:54Z</time>
      </trkpt>
      <trkpt lat="45.43899" lon="6.37873">
        <ele>1949.309</ele>
        <time>2013-08-03T08:56:03Z</time>
      </trkpt>
      <trkpt lat="45.4388" lon="6.37857">
        <ele>1950.384</ele>
        <time>2013-08-03T08:56:13Z</time>
      </trkpt>
      <trkpt lat="45.43863" lon="6.37842">
        <ele>1950.384</ele>
        <time>2013-08-03T08:56:21Z</time>
      </trkpt>
      <trkpt lat="45.43842" lon="6.37821">
        <ele>1950.384</ele>
        <time>2013-08-03T08:56:32Z</time>
      </trkpt>
      <trkpt lat="45.43824" lon="6.37791">
        <ele>1952.76</ele>
        <time>2013-08-03T08:56:45Z</time>
      </trkpt>
      <trkpt lat="45.43812" lon="6.3777">
        <ele>1952.76</ele>
        <time>2013-08-03T08:56:55Z</time>
      </trkpt>
      <trkpt lat="45.43808" lon="6.37755">
        <ele>1952.76</ele>
        <time>2013-08-03T08:57:01Z</time>
      </trkpt>
      <trkpt lat="45.43808" lon="6.37747">
        <ele>1952.76</ele>
        <time>2013-08-03T08:57:04Z</time>
      </trkpt>
      <trkpt lat="45.4381" lon="6.37742">
        <ele>1954.491</ele>
        <time>2013-08-03T08:57:06Z</time>
      </trkpt>
      <trkpt lat="45.43823" lon="6.37737">
        <ele>1954.491</ele>
        <time>2013-08-03T08:57:08Z</time>
      </trkpt>
      <trkpt lat="45.43835" lon="6.37746">
        <ele>1956.297</ele>
        <time>2013-08-03T08:57:12Z</time>
      </trkpt>
      <trkpt lat="45.43858" lon="6.37777">
        <ele>1956.297</ele>
        <time>2013-08-03T08:57:22Z</time>
      </trkpt>
      <trkpt lat="45.43883" lon="6.37806">
        <ele>1956.297</ele>
        <time>2013-08-03T08:57:33Z</time>
      </trkpt>
      <trkpt lat="45.43897" lon="6.37816">
        <ele>1956.297</ele>
        <time>2013-08-03T08:57:39Z</time>
      </trkpt>
      <trkpt lat="45.4391" lon="6.37814">
        <ele>1956.297</ele>
        <time>2013-08-03T08:57:44Z</time>
      </trkpt>
      <trkpt lat="45.43913" lon="6.378">
        <ele>1956.297</ele>
        <time>2013-08-03T08:57:48Z</time>
      </trkpt>
      <trkpt lat="45.43913" lon="6.37796">
        <ele>1956.297</ele>
        <time>2013-08-03T08:57:49Z</time>
      </trkpt>
      <trkpt lat="45.43898" lon="6.37778">
        <ele>1956.297</ele>
        <time>2013-08-03T08:57:56Z</time>
      </trkpt>
      <trkpt lat="45.43884" lon="6.37761">
        <ele>1968.748</ele>
        <time>2013-08-03T08:58:00Z</time>
      </trkpt>
      <trkpt lat="45.43877" lon="6.37754">
        <ele>1972.893</ele>
        <time>2013-08-03T08:58:03Z</time>
      </trkpt>
      <trkpt lat="45.43858" lon="6.37733">
        <ele>1974.135</ele>
        <time>2013-08-03T08:58:10Z</time>
      </trkpt>
      <trkpt lat="45.43842" lon="6.37716">
        <ele>1974.982</ele>
        <time>2013-08-03T08:58:16Z</time>
      </trkpt>
      <trkpt lat="45.43818" lon="6.37691">
        <ele>1976.496</ele>
        <time>2013-08-03T08:58:25Z</time>
      </trkpt>
      <trkpt lat="45.43789" lon="6.37661">
        <ele>1978.413</ele>
        <time>2013-08-03T08:58:35Z</time>
      </trkpt>
      <trkpt lat="45.43755" lon="6.37626">
        <ele>1980.091</ele>
        <time>2013-08-03T08:58:46Z</time>
      </trkpt>
      <trkpt lat="45.43722" lon="6.37591">
        <ele>1981.069</ele>
        <time>2013-08-03T08:58:56Z</time>
      </trkpt>
      <trkpt lat="45.437" lon="6.37567">
        <ele>1981.923</ele>
        <time>2013-08-03T08:59:02Z</time>
      </trkpt>
      <trkpt lat="45.43663" lon="6.37549">
        <ele>1982.593</ele>
        <time>2013-08-03T08:59:11Z</time>
      </trkpt>
      <trkpt lat="45.43629" lon="6.37544">
        <ele>1982.811</ele>
        <time>2013-08-03T08:59:19Z</time>
      </trkpt>
      <trkpt lat="45.43591" lon="6.37546">
        <ele>1982.811</ele>
        <time>2013-08-03T08:59:28Z</time>
      </trkpt>
      <trkpt lat="45.43564" lon="6.37552">
        <ele>1983.571</ele>
        <time>2013-08-03T08:59:35Z</time>
      </trkpt>
      <trkpt lat="45.4354" lon="6.3756">
        <ele>1984.665</ele>
        <time>2013-08-03T08:59:42Z</time>
      </trkpt>
      <trkpt lat="45.43522" lon="6.37561">
        <ele>1985.099</ele>
        <time>2013-08-03T08:59:49Z</time>
      </trkpt>
      <trkpt lat="45.43509" lon="6.37559">
        <ele>1985.282</ele>
        <time>2013-08-03T08:59:56Z</time>
      </trkpt>
      <trkpt lat="45.435" lon="6.37556">
        <ele>1985.58</ele>
        <time>2013-08-03T09:00:02Z</time>
      </trkpt>
      <trkpt lat="45.43494" lon="6.37552">
        <ele>1985.693</ele>
        <time>2013-08-03T09:00:08Z</time>
      </trkpt>
      <trkpt lat="45.43494" lon="6.37552">
        <ele>1985.67</ele>
        <time>2013-08-03T09:00:24Z</time>
      </trkpt>
      <trkpt lat="45.43494" lon="6.37552">
        <ele>1985.603</ele>
        <time>2013-08-03T09:00:25Z</time>
      </trkpt>
      <trkpt lat="45.43527" lon="6.37538">
        <ele>1987.866</ele>
        <time>2013-08-03T09:06:40Z</time>
      </trkpt>
      <trkpt lat="45.43488" lon="6.37548">
        <ele>1987.911</ele>
        <time>2013-08-03T09:06:47Z</time>
      </trkpt>
      <trkpt lat="45.43491" lon="6.37549">
        <ele>1988.31</ele>
        <time>2013-08-03T09:08:15Z</time>
      </trkpt>
      <trkpt lat="45.43494" lon="6.37552">
        <ele>1988.374</ele>
        <time>2013-08-03T09:08:20Z</time>
      </trkpt>
      <trkpt lat="45.43494" lon="6.37552">
        <ele>1988.409</ele>
        <time>2013-08-03T09:08:36Z</time>
      </trkpt>
      <trkpt lat="45.43506" lon="6.37558">
        <ele>1988.637</ele>
        <time>2013-08-03T09:08:51Z</time>
      </trkpt>
      <trkpt lat="45.43515" lon="6.3756">
        <ele>1988.801</ele>
        <time>2013-08-03T09:08:59Z</time>
      </trkpt>
      <trkpt lat="45.43523" lon="6.37549">
        <ele>1988.865</ele>
        <time>2013-08-03T09:09:09Z</time>
      </trkpt>
      <trkpt lat="45.43524" lon="6.37545">
        <ele>1989.75</ele>
        <time>2013-08-03T09:09:17Z</time>
      </trkpt>
      <trkpt lat="45.43524" lon="6.37545">
        <ele>1990.047</ele>
        <time>2013-08-03T09:09:24Z</time>
      </trkpt>
      <trkpt lat="45.43524" lon="6.37545">
        <ele>1990.049</ele>
        <time>2013-08-03T09:09:27Z</time>
      </trkpt>
      <trkpt lat="45.43524" lon="6.37545">
        <ele>1996.061</ele>
        <time>2013-08-03T09:33:34Z</time>
      </trkpt>
      <trkpt lat="45.43524" lon="6.37545">
        <ele>1996.057</ele>
        <time>2013-08-03T09:33:36Z</time>
      </trkpt>
      <trkpt lat="45.43524" lon="6.37545">
        <ele>1995.436</ele>
        <time>2013-08-03T09:33:44Z</time>
      </trkpt>
      <trkpt lat="45.43524" lon="6.37545">
        <ele>1995.303</ele>
        <time>2013-08-03T09:33:49Z</time>
      </trkpt>
      <trkpt lat="45.43522" lon="6.37553">
        <ele>1995.129</ele>
        <time>2013-08-03T09:34:42Z</time>
      </trkpt>
      <trkpt lat="45.43521" lon="6.37555">
        <ele>1994.685</ele>
        <time>2013-08-03T09:34:50Z</time>
      </trkpt>
      <trkpt lat="45.43514" lon="6.3756">
        <ele>1995.015</ele>
        <time>2013-08-03T09:35:02Z</time>
      </trkpt>
      <trkpt lat="45.43514" lon="6.3756">
        <ele>1995.25</ele>
        <time>2013-08-03T09:35:03Z</time>
      </trkpt>
      <trkpt lat="45.43654" lon="6.37546">
        <ele>1993.094</ele>
        <time>2013-08-03T09:37:21Z</time>
      </trkpt>
      <trkpt lat="45.43671" lon="6.37553">
        <ele>1993.089</ele>
        <time>2013-08-03T09:37:24Z</time>
      </trkpt>
      <trkpt lat="45.43711" lon="6.37578">
        <ele>1992.769</ele>
        <time>2013-08-03T09:37:31Z</time>
      </trkpt>
      <trkpt lat="45.43758" lon="6.37629">
        <ele>1991.56</ele>
        <time>2013-08-03T09:37:40Z</time>
      </trkpt>
      <trkpt lat="45.43801" lon="6.37673">
        <ele>1989.953</ele>
        <time>2013-08-03T09:37:47Z</time>
      </trkpt>
      <trkpt lat="45.4385" lon="6.37724">
        <ele>1987.623</ele>
        <time>2013-08-03T09:37:54Z</time>
      </trkpt>
      <trkpt lat="45.43888" lon="6.37766">
        <ele>1985.708</ele>
        <time>2013-08-03T09:38:00Z</time>
      </trkpt>
      <trkpt lat="45.4391" lon="6.37792">
        <ele>1985.708</ele>
        <time>2013-08-03T09:38:03Z</time>
      </trkpt>
      <trkpt lat="45.43911" lon="6.37811">
        <ele>1985.708</ele>
        <time>2013-08-03T09:38:05Z</time>
      </trkpt>
      <trkpt lat="45.43903" lon="6.37816">
        <ele>1985.708</ele>
        <time>2013-08-03T09:38:07Z</time>
      </trkpt>
      <trkpt lat="45.43855" lon="6.37773">
        <ele>1985.708</ele>
        <time>2013-08-03T09:38:14Z</time>
      </trkpt>
      <trkpt lat="45.43842" lon="6.37756">
        <ele>1985.708</ele>
        <time>2013-08-03T09:38:15Z</time>
      </trkpt>
      <trkpt lat="45.43829" lon="6.3774">
        <ele>1985.708</ele>
        <time>2013-08-03T09:38:18Z</time>
      </trkpt>
      <trkpt lat="45.43809" lon="6.37743">
        <ele>1985.708</ele>
        <time>2013-08-03T09:38:20Z</time>
      </trkpt>
      <trkpt lat="45.43815" lon="6.37775">
        <ele>1985.708</ele>
        <time>2013-08-03T09:38:23Z</time>
      </trkpt>
      <trkpt lat="45.43844" lon="6.37823">
        <ele>1985.708</ele>
        <time>2013-08-03T09:38:27Z</time>
      </trkpt>
      <trkpt lat="45.4391" lon="6.37883">
        <ele>1977.2</ele>
        <time>2013-08-03T09:38:32Z</time>
      </trkpt>
      <trkpt lat="45.43949" lon="6.37902">
        <ele>1964.578</ele>
        <time>2013-08-03T09:38:35Z</time>
      </trkpt>
      <trkpt lat="45.43979" lon="6.37897">
        <ele>1958.41</ele>
        <time>2013-08-03T09:38:37Z</time>
      </trkpt>
      <trkpt lat="45.44003" lon="6.37872">
        <ele>1956.033</ele>
        <time>2013-08-03T09:38:39Z</time>
      </trkpt>
      <trkpt lat="45.4403" lon="6.37824">
        <ele>1953.193</ele>
        <time>2013-08-03T09:38:42Z</time>
      </trkpt>
      <trkpt lat="45.44053" lon="6.37807">
        <ele>1950.988</ele>
        <time>2013-08-03T09:38:44Z</time>
      </trkpt>
      <trkpt lat="45.44126" lon="6.37764">
        <ele>1945.536</ele>
        <time>2013-08-03T09:38:50Z</time>
      </trkpt>
      <trkpt lat="45.44191" lon="6.37719">
        <ele>1938.738</ele>
        <time>2013-08-03T09:38:55Z</time>
      </trkpt>
      <trkpt lat="45.44218" lon="6.37707">
        <ele>1934.789</ele>
        <time>2013-08-03T09:38:58Z</time>
      </trkpt>
      <trkpt lat="45.44222" lon="6.37715">
        <ele>1933.633</ele>
        <time>2013-08-03T09:38:59Z</time>
      </trkpt>
      <trkpt lat="45.44213" lon="6.37734">
        <ele>1932.113</ele>
        <time>2013-08-03T09:39:01Z</time>
      </trkpt>
      <trkpt lat="45.44189" lon="6.37752">
        <ele>1930.347</ele>
        <time>2013-08-03T09:39:04Z</time>
      </trkpt>
      <trkpt lat="45.44182" lon="6.3776">
        <ele>1929.71</ele>
        <time>2013-08-03T09:39:05Z</time>
      </trkpt>
      <trkpt lat="45.44155" lon="6.37806">
        <ele>1926.159</ele>
        <time>2013-08-03T09:39:09Z</time>
      </trkpt>
      <trkpt lat="45.44128" lon="6.37836">
        <ele>1923.873</ele>
        <time>2013-08-03T09:39:12Z</time>
      </trkpt>
      <trkpt lat="45.44113" lon="6.37862">
        <ele>1920.242</ele>
        <time>2013-08-03T09:39:15Z</time>
      </trkpt>
      <trkpt lat="45.44126" lon="6.3787">
        <ele>1918.716</ele>
        <time>2013-08-03T09:39:17Z</time>
      </trkpt>
      <trkpt lat="45.44157" lon="6.37843">
        <ele>1915.525</ele>
        <time>2013-08-03T09:39:21Z</time>
      </trkpt>
      <trkpt lat="45.44176" lon="6.37829">
        <ele>1914.547</ele>
        <time>2013-08-03T09:39:23Z</time>
      </trkpt>
      <trkpt lat="45.44196" lon="6.3781">
        <ele>1912.998</ele>
        <time>2013-08-03T09:39:25Z</time>
      </trkpt>
      <trkpt lat="45.44244" lon="6.3778">
        <ele>1909.067</ele>
        <time>2013-08-03T09:39:29Z</time>
      </trkpt>
      <trkpt lat="45.44282" lon="6.37759">
        <ele>1904.742</ele>
        <time>2013-08-03T09:39:32Z</time>
      </trkpt>
      <trkpt lat="45.44311" lon="6.37763">
        <ele>1901.759</ele>
        <time>2013-08-03T09:39:34Z</time>
      </trkpt>
      <trkpt lat="45.44383" lon="6.378">
        <ele>1895.22</ele>
        <time>2013-08-03T09:39:39Z</time>
      </trkpt>
      <trkpt lat="45.44411" lon="6.37821">
        <ele>1892.816</ele>
        <time>2013-08-03T09:39:41Z</time>
      </trkpt>
      <trkpt lat="45.44488" lon="6.37844">
        <ele>1884.279</ele>
        <time>2013-08-03T09:39:46Z</time>
      </trkpt>
      <trkpt lat="45.44503" lon="6.37848">
        <ele>1882.384</ele>
        <time>2013-08-03T09:39:47Z</time>
      </trkpt>
      <trkpt lat="45.44545" lon="6.37865">
        <ele>1877.778</ele>
        <time>2013-08-03T09:39:50Z</time>
      </trkpt>
      <trkpt lat="45.44564" lon="6.37892">
        <ele>1874.749</ele>
        <time>2013-08-03T09:39:52Z</time>
      </trkpt>
      <trkpt lat="45.4457" lon="6.3791">
        <ele>1873.439</ele>
        <time>2013-08-03T09:39:53Z</time>
      </trkpt>
      <trkpt lat="45.44604" lon="6.37999">
        <ele>1868.214</ele>
        <time>2013-08-03T09:39:58Z</time>
      </trkpt>
      <trkpt lat="45.44621" lon="6.38027">
        <ele>1865.609</ele>
        <time>2013-08-03T09:40:00Z</time>
      </trkpt>
      <trkpt lat="45.44629" lon="6.3806">
        <ele>1860.281</ele>
        <time>2013-08-03T09:40:03Z</time>
      </trkpt>
      <trkpt lat="45.44612" lon="6.38064">
        <ele>1858.191</ele>
        <time>2013-08-03T09:40:05Z</time>
      </trkpt>
      <trkpt lat="45.44605" lon="6.38056">
        <ele>1857.42</ele>
        <time>2013-08-03T09:40:06Z</time>
      </trkpt>
      <trkpt lat="45.44563" lon="6.37994">
        <ele>1853.685</ele>
        <time>2013-08-03T09:40:12Z</time>
      </trkpt>
      <trkpt lat="45.44546" lon="6.37971">
        <ele>1851.428</ele>
        <time>2013-08-03T09:40:14Z</time>
      </trkpt>
      <trkpt lat="45.44493" lon="6.37931">
        <ele>1847.249</ele>
        <time>2013-08-03T09:40:19Z</time>
      </trkpt>
      <trkpt lat="45.44454" lon="6.3793">
        <ele>1844.119</ele>
        <time>2013-08-03T09:40:22Z</time>
      </trkpt>
      <trkpt lat="45.44397" lon="6.37946">
        <ele>1839.693</ele>
        <time>2013-08-03T09:40:26Z</time>
      </trkpt>
      <trkpt lat="45.44329" lon="6.37987">
        <ele>1832.61</ele>
        <time>2013-08-03T09:40:31Z</time>
      </trkpt>
      <trkpt lat="45.44315" lon="6.37997">
        <ele>1830.977</ele>
        <time>2013-08-03T09:40:32Z</time>
      </trkpt>
      <trkpt lat="45.44279" lon="6.38035">
        <ele>1826.72</ele>
        <time>2013-08-03T09:40:35Z</time>
      </trkpt>
      <trkpt lat="45.44246" lon="6.38082">
        <ele>1823.247</ele>
        <time>2013-08-03T09:40:38Z</time>
      </trkpt>
      <trkpt lat="45.44207" lon="6.38144">
        <ele>1817.607</ele>
        <time>2013-08-03T09:40:42Z</time>
      </trkpt>
      <trkpt lat="45.442" lon="6.38178">
        <ele>1815.331</ele>
        <time>2013-08-03T09:40:44Z</time>
      </trkpt>
      <trkpt lat="45.44194" lon="6.38218">
        <ele>1810.039</ele>
        <time>2013-08-03T09:40:47Z</time>
      </trkpt>
      <trkpt lat="45.44206" lon="6.38221">
        <ele>1807.777</ele>
        <time>2013-08-03T09:40:49Z</time>
      </trkpt>
      <trkpt lat="45.44211" lon="6.38213">
        <ele>1807.393</ele>
        <time>2013-08-03T09:40:50Z</time>
      </trkpt>
      <trkpt lat="45.44245" lon="6.38164">
        <ele>1804.976</ele>
        <time>2013-08-03T09:40:55Z</time>
      </trkpt>
      <trkpt lat="45.44265" lon="6.38152">
        <ele>1804.092</ele>
        <time>2013-08-03T09:40:57Z</time>
      </trkpt>
      <trkpt lat="45.44298" lon="6.38137">
        <ele>1801.204</ele>
        <time>2013-08-03T09:41:00Z</time>
      </trkpt>
      <trkpt lat="45.44348" lon="6.38132">
        <ele>1797.415</ele>
        <time>2013-08-03T09:41:04Z</time>
      </trkpt>
      <trkpt lat="45.44387" lon="6.38148">
        <ele>1793.718</ele>
        <time>2013-08-03T09:41:07Z</time>
      </trkpt>
      <trkpt lat="45.4442" lon="6.38191">
        <ele>1790.262</ele>
        <time>2013-08-03T09:41:10Z</time>
      </trkpt>
      <trkpt lat="45.44435" lon="6.38228">
        <ele>1789.24</ele>
        <time>2013-08-03T09:41:12Z</time>
      </trkpt>
      <trkpt lat="45.44444" lon="6.3829">
        <ele>1785.803</ele>
        <time>2013-08-03T09:41:15Z</time>
      </trkpt>
      <trkpt lat="45.4445" lon="6.38435">
        <ele>1773.686</ele>
        <time>2013-08-03T09:41:22Z</time>
      </trkpt>
      <trkpt lat="45.44454" lon="6.38587">
        <ele>1761.996</ele>
        <time>2013-08-03T09:41:29Z</time>
      </trkpt>
      <trkpt lat="45.44461" lon="6.38695">
        <ele>1754.496</ele>
        <time>2013-08-03T09:41:34Z</time>
      </trkpt>
      <trkpt lat="45.44476" lon="6.38781">
        <ele>1747.442</ele>
        <time>2013-08-03T09:41:38Z</time>
      </trkpt>
      <trkpt lat="45.44503" lon="6.38862">
        <ele>1741.861</ele>
        <time>2013-08-03T09:41:42Z</time>
      </trkpt>
      <trkpt lat="45.44546" lon="6.38987">
        <ele>1731.581</ele>
        <time>2013-08-03T09:41:48Z</time>
      </trkpt>
      <trkpt lat="45.44564" lon="6.391">
        <ele>1723.139</ele>
        <time>2013-08-03T09:41:53Z</time>
      </trkpt>
      <trkpt lat="45.44566" lon="6.39121">
        <ele>1720.893</ele>
        <time>2013-08-03T09:41:54Z</time>
      </trkpt>
      <trkpt lat="45.44576" lon="6.3917">
        <ele>1714.827</ele>
        <time>2013-08-03T09:41:57Z</time>
      </trkpt>
      <trkpt lat="45.44611" lon="6.39225">
        <ele>1710.91</ele>
        <time>2013-08-03T09:42:01Z</time>
      </trkpt>
      <trkpt lat="45.44669" lon="6.3932">
        <ele>1703.289</ele>
        <time>2013-08-03T09:42:07Z</time>
      </trkpt>
      <trkpt lat="45.44714" lon="6.39379">
        <ele>1697.311</ele>
        <time>2013-08-03T09:42:11Z</time>
      </trkpt>
      <trkpt lat="45.448" lon="6.39474">
        <ele>1686.561</ele>
        <time>2013-08-03T09:42:18Z</time>
      </trkpt>
      <trkpt lat="45.44906" lon="6.39568">
        <ele>1675.85</ele>
        <time>2013-08-03T09:42:26Z</time>
      </trkpt>
      <trkpt lat="45.44996" lon="6.39641">
        <ele>1667.645</ele>
        <time>2013-08-03T09:42:33Z</time>
      </trkpt>
      <trkpt lat="45.45075" lon="6.39677">
        <ele>1663.107</ele>
        <time>2013-08-03T09:42:39Z</time>
      </trkpt>
      <trkpt lat="45.45163" lon="6.39712">
        <ele>1658.359</ele>
        <time>2013-08-03T09:42:46Z</time>
      </trkpt>
      <trkpt lat="45.45201" lon="6.39719">
        <ele>1656.795</ele>
        <time>2013-08-03T09:42:49Z</time>
      </trkpt>
      <trkpt lat="45.45262" lon="6.39731">
        <ele>1654.342</ele>
        <time>2013-08-03T09:42:54Z</time>
      </trkpt>
      <trkpt lat="45.4532" lon="6.39737">
        <ele>1651.568</ele>
        <time>2013-08-03T09:42:59Z</time>
      </trkpt>
      <trkpt lat="45.45364" lon="6.39725">
        <ele>1650.091</ele>
        <time>2013-08-03T09:43:03Z</time>
      </trkpt>
      <trkpt lat="45.45406" lon="6.39702">
        <ele>1648.354</ele>
        <time>2013-08-03T09:43:07Z</time>
      </trkpt>
      <trkpt lat="45.45485" lon="6.39642">
        <ele>1644.756</ele>
        <time>2013-08-03T09:43:15Z</time>
      </trkpt>
      <trkpt lat="45.45538" lon="6.39584">
        <ele>1642.498</ele>
        <time>2013-08-03T09:43:21Z</time>
      </trkpt>
      <trkpt lat="45.45603" lon="6.39493">
        <ele>1638.088</ele>
        <time>2013-08-03T09:43:29Z</time>
      </trkpt>
      <trkpt lat="45.45642" lon="6.39428">
        <ele>1635.146</ele>
        <time>2013-08-03T09:43:34Z</time>
      </trkpt>
      <trkpt lat="45.45672" lon="6.39397">
        <ele>1632.657</ele>
        <time>2013-08-03T09:43:37Z</time>
      </trkpt>
      <trkpt lat="45.45692" lon="6.39407">
        <ele>1631.443</ele>
        <time>2013-08-03T09:43:39Z</time>
      </trkpt>
      <trkpt lat="45.45714" lon="6.3944">
        <ele>1630.388</ele>
        <time>2013-08-03T09:43:42Z</time>
      </trkpt>
      <trkpt lat="45.45722" lon="6.39467">
        <ele>1630.178</ele>
        <time>2013-08-03T09:43:44Z</time>
      </trkpt>
      <trkpt lat="45.45736" lon="6.39584">
        <ele>1628.406</ele>
        <time>2013-08-03T09:43:52Z</time>
      </trkpt>
      <trkpt lat="45.4574" lon="6.39598">
        <ele>1628.079</ele>
        <time>2013-08-03T09:43:53Z</time>
      </trkpt>
      <trkpt lat="45.45762" lon="6.39646">
        <ele>1626.929</ele>
        <time>2013-08-03T09:43:57Z</time>
      </trkpt>
      <trkpt lat="45.45772" lon="6.39654">
        <ele>1626.489</ele>
        <time>2013-08-03T09:43:58Z</time>
      </trkpt>
      <trkpt lat="45.4581" lon="6.39682">
        <ele>1624.821</ele>
        <time>2013-08-03T09:44:02Z</time>
      </trkpt>
      <trkpt lat="45.45841" lon="6.39723">
        <ele>1624.278</ele>
        <time>2013-08-03T09:44:06Z</time>
      </trkpt>
      <trkpt lat="45.45887" lon="6.39798">
        <ele>1623.221</ele>
        <time>2013-08-03T09:44:13Z</time>
      </trkpt>
      <trkpt lat="45.45922" lon="6.39841">
        <ele>1621.598</ele>
        <time>2013-08-03T09:44:18Z</time>
      </trkpt>
      <trkpt lat="45.45977" lon="6.39888">
        <ele>1619.938</ele>
        <time>2013-08-03T09:44:25Z</time>
      </trkpt>
      <trkpt lat="45.46028" lon="6.39931">
        <ele>1618.661</ele>
        <time>2013-08-03T09:44:31Z</time>
      </trkpt>
      <trkpt lat="45.46088" lon="6.39985">
        <ele>1616.285</ele>
        <time>2013-08-03T09:44:38Z</time>
      </trkpt>
      <trkpt lat="45.46156" lon="6.40035">
        <ele>1613.799</ele>
        <time>2013-08-03T09:44:45Z</time>
      </trkpt>
      <trkpt lat="45.46215" lon="6.40081">
        <ele>1611.054</ele>
        <time>2013-08-03T09:44:51Z</time>
      </trkpt>
      <trkpt lat="45.46225" lon="6.40087">
        <ele>1610.775</ele>
        <time>2013-08-03T09:44:52Z</time>
      </trkpt>
      <trkpt lat="45.46245" lon="6.40101">
        <ele>1609.645</ele>
        <time>2013-08-03T09:44:54Z</time>
      </trkpt>
      <trkpt lat="45.46306" lon="6.40144">
        <ele>1607.298</ele>
        <time>2013-08-03T09:45:00Z</time>
      </trkpt>
      <trkpt lat="45.46368" lon="6.40176">
        <ele>1604.699</ele>
        <time>2013-08-03T09:45:06Z</time>
      </trkpt>
      <trkpt lat="45.46412" lon="6.40185">
        <ele>1602.935</ele>
        <time>2013-08-03T09:45:10Z</time>
      </trkpt>
      <trkpt lat="45.46434" lon="6.4019">
        <ele>1602.135</ele>
        <time>2013-08-03T09:45:12Z</time>
      </trkpt>
      <trkpt lat="45.46487" lon="6.40219">
        <ele>1600.325</ele>
        <time>2013-08-03T09:45:17Z</time>
      </trkpt>
      <trkpt lat="45.4653" lon="6.40233">
        <ele>1598.36</ele>
        <time>2013-08-03T09:45:21Z</time>
      </trkpt>
      <trkpt lat="45.4656" lon="6.40236">
        <ele>1597.484</ele>
        <time>2013-08-03T09:45:24Z</time>
      </trkpt>
      <trkpt lat="45.46598" lon="6.40225">
        <ele>1596.607</ele>
        <time>2013-08-03T09:45:28Z</time>
      </trkpt>
      <trkpt lat="45.46647" lon="6.40198">
        <ele>1596.766</ele>
        <time>2013-08-03T09:45:33Z</time>
      </trkpt>
      <trkpt lat="45.46672" lon="6.40174">
        <ele>1595.403</ele>
        <time>2013-08-03T09:45:36Z</time>
      </trkpt>
      <trkpt lat="45.46679" lon="6.40163">
        <ele>1595.007</ele>
        <time>2013-08-03T09:45:37Z</time>
      </trkpt>
      <trkpt lat="45.46719" lon="6.4013">
        <ele>1591.305</ele>
        <time>2013-08-03T09:45:41Z</time>
      </trkpt>
      <trkpt lat="45.46754" lon="6.40127">
        <ele>1588.934</ele>
        <time>2013-08-03T09:45:44Z</time>
      </trkpt>
      <trkpt lat="45.46789" lon="6.40117">
        <ele>1586.974</ele>
        <time>2013-08-03T09:45:47Z</time>
      </trkpt>
      <trkpt lat="45.46857" lon="6.40081">
        <ele>1584.107</ele>
        <time>2013-08-03T09:45:53Z</time>
      </trkpt>
      <trkpt lat="45.46934" lon="6.40043">
        <ele>1580.597</ele>
        <time>2013-08-03T09:46:00Z</time>
      </trkpt>
      <trkpt lat="45.46944" lon="6.40037">
        <ele>1580.397</ele>
        <time>2013-08-03T09:46:01Z</time>
      </trkpt>
      <trkpt lat="45.46983" lon="6.40024">
        <ele>1578.829</ele>
        <time>2013-08-03T09:46:05Z</time>
      </trkpt>
      <trkpt lat="45.46997" lon="6.40041">
        <ele>1577.82</ele>
        <time>2013-08-03T09:46:07Z</time>
      </trkpt>
      <trkpt lat="45.47008" lon="6.40068">
        <ele>1576.332</ele>
        <time>2013-08-03T09:46:09Z</time>
      </trkpt>
      <trkpt lat="45.47015" lon="6.40117">
        <ele>1573.297</ele>
        <time>2013-08-03T09:46:12Z</time>
      </trkpt>
      <trkpt lat="45.47005" lon="6.40171">
        <ele>1570.406</ele>
        <time>2013-08-03T09:46:15Z</time>
      </trkpt>
      <trkpt lat="45.46983" lon="6.40242">
        <ele>1564.73</ele>
        <time>2013-08-03T09:46:19Z</time>
      </trkpt>
      <trkpt lat="45.46965" lon="6.40316">
        <ele>1557.203</ele>
        <time>2013-08-03T09:46:23Z</time>
      </trkpt>
      <trkpt lat="45.46969" lon="6.40348">
        <ele>1553.551</ele>
        <time>2013-08-03T09:46:25Z</time>
      </trkpt>
      <trkpt lat="45.46979" lon="6.40388">
        <ele>1552.065</ele>
        <time>2013-08-03T09:46:27Z</time>
      </trkpt>
      <trkpt lat="45.46971" lon="6.40427">
        <ele>1549.486</ele>
        <time>2013-08-03T09:46:29Z</time>
      </trkpt>
      <trkpt lat="45.46948" lon="6.40509">
        <ele>1544.374</ele>
        <time>2013-08-03T09:46:33Z</time>
      </trkpt>
      <trkpt lat="45.46946" lon="6.40566">
        <ele>1539.561</ele>
        <time>2013-08-03T09:46:36Z</time>
      </trkpt>
      <trkpt lat="45.46951" lon="6.40608">
        <ele>1535.983</ele>
        <time>2013-08-03T09:46:38Z</time>
      </trkpt>
      <trkpt lat="45.46989" lon="6.40735">
        <ele>1527.281</ele>
        <time>2013-08-03T09:46:44Z</time>
      </trkpt>
      <trkpt lat="45.47012" lon="6.40789">
        <ele>1521.954</ele>
        <time>2013-08-03T09:46:47Z</time>
      </trkpt>
      <trkpt lat="45.4705" lon="6.40821">
        <ele>1517.549</ele>
        <time>2013-08-03T09:46:50Z</time>
      </trkpt>
      <trkpt lat="45.47064" lon="6.40824">
        <ele>1517.549</ele>
        <time>2013-08-03T09:46:51Z</time>
      </trkpt>
      <trkpt lat="45.47095" lon="6.40837">
        <ele>1514.367</ele>
        <time>2013-08-03T09:46:53Z</time>
      </trkpt>
      <trkpt lat="45.47106" lon="6.40874">
        <ele>1511.457</ele>
        <time>2013-08-03T09:46:55Z</time>
      </trkpt>
      <trkpt lat="45.47107" lon="6.40909">
        <ele>1506.699</ele>
        <time>2013-08-03T09:46:57Z</time>
      </trkpt>
      <trkpt lat="45.47123" lon="6.40932">
        <ele>1503.803</ele>
        <time>2013-08-03T09:46:59Z</time>
      </trkpt>
      <trkpt lat="45.47159" lon="6.40954">
        <ele>1497.577</ele>
        <time>2013-08-03T09:47:02Z</time>
      </trkpt>
      <trkpt lat="45.47188" lon="6.40997">
        <ele>1493.901</ele>
        <time>2013-08-03T09:47:05Z</time>
      </trkpt>
      <trkpt lat="45.472" lon="6.41059">
        <ele>1489.374</ele>
        <time>2013-08-03T09:47:08Z</time>
      </trkpt>
      <trkpt lat="45.47207" lon="6.41077">
        <ele>1488.689</ele>
        <time>2013-08-03T09:47:09Z</time>
      </trkpt>
      <trkpt lat="45.47262" lon="6.41154">
        <ele>1480.797</ele>
        <time>2013-08-03T09:47:14Z</time>
      </trkpt>
      <trkpt lat="45.47306" lon="6.41205">
        <ele>1474.368</ele>
        <time>2013-08-03T09:47:18Z</time>
      </trkpt>
      <trkpt lat="45.47327" lon="6.41199">
        <ele>1470.525</ele>
        <time>2013-08-03T09:47:20Z</time>
      </trkpt>
      <trkpt lat="45.47362" lon="6.41181">
        <ele>1466.177</ele>
        <time>2013-08-03T09:47:23Z</time>
      </trkpt>
      <trkpt lat="45.47374" lon="6.41203">
        <ele>1463.175</ele>
        <time>2013-08-03T09:47:25Z</time>
      </trkpt>
      <trkpt lat="45.47386" lon="6.41246">
        <ele>1461.146</ele>
        <time>2013-08-03T09:47:28Z</time>
      </trkpt>
      <trkpt lat="45.47392" lon="6.4126">
        <ele>1460.664</ele>
        <time>2013-08-03T09:47:29Z</time>
      </trkpt>
      <trkpt lat="45.47424" lon="6.41343">
        <ele>1454.412</ele>
        <time>2013-08-03T09:47:34Z</time>
      </trkpt>
      <trkpt lat="45.47426" lon="6.41363">
        <ele>1452.711</ele>
        <time>2013-08-03T09:47:35Z</time>
      </trkpt>
      <trkpt lat="45.47425" lon="6.41404">
        <ele>1449.908</ele>
        <time>2013-08-03T09:47:37Z</time>
      </trkpt>
      <trkpt lat="45.47424" lon="6.41425">
        <ele>1448.341</ele>
        <time>2013-08-03T09:47:39Z</time>
      </trkpt>
      <trkpt lat="45.47357" lon="6.41492">
        <ele>1448.341</ele>
        <time>2013-08-03T09:47:41Z</time>
      </trkpt>
      <trkpt lat="45.47461" lon="6.41516">
        <ele>1442.791</ele>
        <time>2013-08-03T09:47:44Z</time>
      </trkpt>
      <trkpt lat="45.47477" lon="6.41506">
        <ele>1438.041</ele>
        <time>2013-08-03T09:47:46Z</time>
      </trkpt>
      <trkpt lat="45.47489" lon="6.41486">
        <ele>1434.829</ele>
        <time>2013-08-03T09:47:48Z</time>
      </trkpt>
      <trkpt lat="45.47521" lon="6.41407">
        <ele>1430.009</ele>
        <time>2013-08-03T09:47:53Z</time>
      </trkpt>
      <trkpt lat="45.47547" lon="6.41362">
        <ele>1425.57</ele>
        <time>2013-08-03T09:47:56Z</time>
      </trkpt>
      <trkpt lat="45.47572" lon="6.41336">
        <ele>1421.753</ele>
        <time>2013-08-03T09:47:59Z</time>
      </trkpt>
      <trkpt lat="45.4758" lon="6.41339">
        <ele>1420.079</ele>
        <time>2013-08-03T09:48:00Z</time>
      </trkpt>
      <trkpt lat="45.47579" lon="6.41361">
        <ele>1418.193</ele>
        <time>2013-08-03T09:48:02Z</time>
      </trkpt>
      <trkpt lat="45.47574" lon="6.41366">
        <ele>1418.193</ele>
        <time>2013-08-03T09:48:03Z</time>
      </trkpt>
      <trkpt lat="45.47549" lon="6.41393">
        <ele>1416.223</ele>
        <time>2013-08-03T09:48:06Z</time>
      </trkpt>
      <trkpt lat="45.47533" lon="6.41433">
        <ele>1414.255</ele>
        <time>2013-08-03T09:48:09Z</time>
      </trkpt>
      <trkpt lat="45.47527" lon="6.41467">
        <ele>1413.496</ele>
        <time>2013-08-03T09:48:11Z</time>
      </trkpt>
      <trkpt lat="45.4751" lon="6.4158">
        <ele>1408.121</ele>
        <time>2013-08-03T09:48:18Z</time>
      </trkpt>
      <trkpt lat="45.47494" lon="6.41624">
        <ele>1404.84</ele>
        <time>2013-08-03T09:48:21Z</time>
      </trkpt>
      <trkpt lat="45.47469" lon="6.41634">
        <ele>1402.734</ele>
        <time>2013-08-03T09:48:23Z</time>
      </trkpt>
      <trkpt lat="45.47445" lon="6.4162">
        <ele>1401.793</ele>
        <time>2013-08-03T09:48:25Z</time>
      </trkpt>
      <trkpt lat="45.47435" lon="6.41609">
        <ele>1401.207</ele>
        <time>2013-08-03T09:48:26Z</time>
      </trkpt>
      <trkpt lat="45.47415" lon="6.41586">
        <ele>1400.482</ele>
        <time>2013-08-03T09:48:28Z</time>
      </trkpt>
      <trkpt lat="45.47376" lon="6.41535">
        <ele>1395.198</ele>
        <time>2013-08-03T09:48:32Z</time>
      </trkpt>
      <trkpt lat="45.47367" lon="6.41522">
        <ele>1394.188</ele>
        <time>2013-08-03T09:48:34Z</time>
      </trkpt>
      <trkpt lat="45.47351" lon="6.41481">
        <ele>1394.188</ele>
        <time>2013-08-03T09:48:37Z</time>
      </trkpt>
      <trkpt lat="45.47344" lon="6.41476">
        <ele>1394.188</ele>
        <time>2013-08-03T09:48:39Z</time>
      </trkpt>
      <trkpt lat="45.47328" lon="6.41488">
        <ele>1394.188</ele>
        <time>2013-08-03T09:48:41Z</time>
      </trkpt>
      <trkpt lat="45.47361" lon="6.41554">
        <ele>1394.188</ele>
        <time>2013-08-03T09:48:47Z</time>
      </trkpt>
      <trkpt lat="45.47374" lon="6.41578">
        <ele>1394.188</ele>
        <time>2013-08-03T09:48:48Z</time>
      </trkpt>
      <trkpt lat="45.47396" lon="6.41634">
        <ele>1380.805</ele>
        <time>2013-08-03T09:48:52Z</time>
      </trkpt>
      <trkpt lat="45.47401" lon="6.4165">
        <ele>1378.414</ele>
        <time>2013-08-03T09:48:53Z</time>
      </trkpt>
      <trkpt lat="45.47435" lon="6.41704">
        <ele>1374.698</ele>
        <time>2013-08-03T09:48:57Z</time>
      </trkpt>
      <trkpt lat="45.47446" lon="6.41716">
        <ele>1373.51</ele>
        <time>2013-08-03T09:48:58Z</time>
      </trkpt>
      <trkpt lat="45.47505" lon="6.41772">
        <ele>1366.656</ele>
        <time>2013-08-03T09:49:03Z</time>
      </trkpt>
      <trkpt lat="45.47549" lon="6.41829">
        <ele>1361.351</ele>
        <time>2013-08-03T09:49:07Z</time>
      </trkpt>
      <trkpt lat="45.47582" lon="6.41861">
        <ele>1356.164</ele>
        <time>2013-08-03T09:49:10Z</time>
      </trkpt>
      <trkpt lat="45.4761" lon="6.41859">
        <ele>1352.859</ele>
        <time>2013-08-03T09:49:12Z</time>
      </trkpt>
      <trkpt lat="45.47637" lon="6.41857">
        <ele>1350.394</ele>
        <time>2013-08-03T09:49:14Z</time>
      </trkpt>
      <trkpt lat="45.47664" lon="6.41838">
        <ele>1344.482</ele>
        <time>2013-08-03T09:49:17Z</time>
      </trkpt>
      <trkpt lat="45.47664" lon="6.41826">
        <ele>1344.482</ele>
        <time>2013-08-03T09:49:18Z</time>
      </trkpt>
      <trkpt lat="45.47672" lon="6.41776">
        <ele>1339.877</ele>
        <time>2013-08-03T09:49:21Z</time>
      </trkpt>
      <trkpt lat="45.47691" lon="6.41765">
        <ele>1337.825</ele>
        <time>2013-08-03T09:49:23Z</time>
      </trkpt>
      <trkpt lat="45.47712" lon="6.41773">
        <ele>1336.17</ele>
        <time>2013-08-03T09:49:25Z</time>
      </trkpt>
      <trkpt lat="45.47768" lon="6.41804">
        <ele>1332.326</ele>
        <time>2013-08-03T09:49:30Z</time>
      </trkpt>
      <trkpt lat="45.47795" lon="6.41835">
        <ele>1329.95</ele>
        <time>2013-08-03T09:49:33Z</time>
      </trkpt>
      <trkpt lat="45.47799" lon="6.4185">
        <ele>1329.181</ele>
        <time>2013-08-03T09:49:34Z</time>
      </trkpt>
      <trkpt lat="45.47832" lon="6.41901">
        <ele>1325.052</ele>
        <time>2013-08-03T09:49:38Z</time>
      </trkpt>
      <trkpt lat="45.4784" lon="6.41911">
        <ele>1324.339</ele>
        <time>2013-08-03T09:49:39Z</time>
      </trkpt>
      <trkpt lat="45.47845" lon="6.41927">
        <ele>1323.61</ele>
        <time>2013-08-03T09:49:41Z</time>
      </trkpt>
      <trkpt lat="45.47876" lon="6.4197">
        <ele>1319.461</ele>
        <time>2013-08-03T09:49:45Z</time>
      </trkpt>
      <trkpt lat="45.47886" lon="6.41974">
        <ele>1318.844</ele>
        <time>2013-08-03T09:49:46Z</time>
      </trkpt>
      <trkpt lat="45.47929" lon="6.4199">
        <ele>1315.135</ele>
        <time>2013-08-03T09:49:50Z</time>
      </trkpt>
      <trkpt lat="45.47945" lon="6.42009">
        <ele>1311.804</ele>
        <time>2013-08-03T09:49:53Z</time>
      </trkpt>
      <trkpt lat="45.47939" lon="6.4202">
        <ele>1309.554</ele>
        <time>2013-08-03T09:49:55Z</time>
      </trkpt>
      <trkpt lat="45.47917" lon="6.4201">
        <ele>1306.738</ele>
        <time>2013-08-03T09:50:00Z</time>
      </trkpt>
      <trkpt lat="45.47864" lon="6.42042">
        <ele>1303.16</ele>
        <time>2013-08-03T09:50:05Z</time>
      </trkpt>
      <trkpt lat="45.47853" lon="6.42058">
        <ele>1301.081</ele>
        <time>2013-08-03T09:50:09Z</time>
      </trkpt>
      <trkpt lat="45.47861" lon="6.42069">
        <ele>1300.815</ele>
        <time>2013-08-03T09:50:12Z</time>
      </trkpt>
      <trkpt lat="45.47882" lon="6.42072">
        <ele>1298.319</ele>
        <time>2013-08-03T09:50:17Z</time>
      </trkpt>
      <trkpt lat="45.47893" lon="6.42073">
        <ele>1296.998</ele>
        <time>2013-08-03T09:50:21Z</time>
      </trkpt>
      <trkpt lat="45.47921" lon="6.42077">
        <ele>1295.459</ele>
        <time>2013-08-03T09:50:27Z</time>
      </trkpt>
      <trkpt lat="45.47959" lon="6.42089">
        <ele>1293.098</ele>
        <time>2013-08-03T09:50:33Z</time>
      </trkpt>
      <trkpt lat="45.48004" lon="6.42126">
        <ele>1288.567</ele>
        <time>2013-08-03T09:50:40Z</time>
      </trkpt>
      <trkpt lat="45.48032" lon="6.42142">
        <ele>1286.579</ele>
        <time>2013-08-03T09:50:44Z</time>
      </trkpt>
      <trkpt lat="45.48066" lon="6.42149">
        <ele>1283.948</ele>
        <time>2013-08-03T09:50:48Z</time>
      </trkpt>
      <trkpt lat="45.48073" lon="6.4215">
        <ele>1283.212</ele>
        <time>2013-08-03T09:50:49Z</time>
      </trkpt>
      <trkpt lat="45.48112" lon="6.42162">
        <ele>1280.484</ele>
        <time>2013-08-03T09:50:54Z</time>
      </trkpt>
      <trkpt lat="45.48139" lon="6.42174">
        <ele>1278.426</ele>
        <time>2013-08-03T09:50:57Z</time>
      </trkpt>
      <trkpt lat="45.48176" lon="6.42192">
        <ele>1275.42</ele>
        <time>2013-08-03T09:51:01Z</time>
      </trkpt>
      <trkpt lat="45.48192" lon="6.42185">
        <ele>1273.213</ele>
        <time>2013-08-03T09:51:03Z</time>
      </trkpt>
      <trkpt lat="45.4822" lon="6.42162">
        <ele>1269.965</ele>
        <time>2013-08-03T09:51:07Z</time>
      </trkpt>
      <trkpt lat="45.48233" lon="6.4218">
        <ele>1268.409</ele>
        <time>2013-08-03T09:51:09Z</time>
      </trkpt>
      <trkpt lat="45.48236" lon="6.42192">
        <ele>1267.636</ele>
        <time>2013-08-03T09:51:10Z</time>
      </trkpt>
      <trkpt lat="45.48254" lon="6.42289">
        <ele>1263.756</ele>
        <time>2013-08-03T09:51:17Z</time>
      </trkpt>
      <trkpt lat="45.48257" lon="6.42304">
        <ele>1263.457</ele>
        <time>2013-08-03T09:51:18Z</time>
      </trkpt>
      <trkpt lat="45.48279" lon="6.42352">
        <ele>1260.568</ele>
        <time>2013-08-03T09:51:22Z</time>
      </trkpt>
      <trkpt lat="45.48306" lon="6.42376">
        <ele>1257.674</ele>
        <time>2013-08-03T09:51:25Z</time>
      </trkpt>
      <trkpt lat="45.4836" lon="6.42409">
        <ele>1253.383</ele>
        <time>2013-08-03T09:51:30Z</time>
      </trkpt>
      <trkpt lat="45.4837" lon="6.42417">
        <ele>1252.258</ele>
        <time>2013-08-03T09:51:31Z</time>
      </trkpt>
      <trkpt lat="45.48394" lon="6.42428">
        <ele>1250.241</ele>
        <time>2013-08-03T09:51:33Z</time>
      </trkpt>
      <trkpt lat="45.48439" lon="6.42468">
        <ele>1246.772</ele>
        <time>2013-08-03T09:51:37Z</time>
      </trkpt>
      <trkpt lat="45.4845" lon="6.42481">
        <ele>1245.698</ele>
        <time>2013-08-03T09:51:38Z</time>
      </trkpt>
      <trkpt lat="45.48482" lon="6.42508">
        <ele>1242.802</ele>
        <time>2013-08-03T09:51:41Z</time>
      </trkpt>
      <trkpt lat="45.48531" lon="6.42522">
        <ele>1239.854</ele>
        <time>2013-08-03T09:51:45Z</time>
      </trkpt>
      <trkpt lat="45.48543" lon="6.42527">
        <ele>1237.862</ele>
        <time>2013-08-03T09:51:47Z</time>
      </trkpt>
      <trkpt lat="45.48571" lon="6.42549">
        <ele>1234.708</ele>
        <time>2013-08-03T09:51:49Z</time>
      </trkpt>
      <trkpt lat="45.48586" lon="6.42592">
        <ele>1230.584</ele>
        <time>2013-08-03T09:51:52Z</time>
      </trkpt>
      <trkpt lat="45.48603" lon="6.42615">
        <ele>1228.948</ele>
        <time>2013-08-03T09:51:54Z</time>
      </trkpt>
      <trkpt lat="45.48649" lon="6.42649">
        <ele>1224.99</ele>
        <time>2013-08-03T09:51:59Z</time>
      </trkpt>
      <trkpt lat="45.48664" lon="6.42653">
        <ele>1224.145</ele>
        <time>2013-08-03T09:52:01Z</time>
      </trkpt>
      <trkpt lat="45.48679" lon="6.42642">
        <ele>1223.521</ele>
        <time>2013-08-03T09:52:03Z</time>
      </trkpt>
      <trkpt lat="45.48686" lon="6.42635">
        <ele>1222.869</ele>
        <time>2013-08-03T09:52:04Z</time>
      </trkpt>
      <trkpt lat="45.4872" lon="6.42621">
        <ele>1218.584</ele>
        <time>2013-08-03T09:52:08Z</time>
      </trkpt>
      <trkpt lat="45.48751" lon="6.42633">
        <ele>1215.478</ele>
        <time>2013-08-03T09:52:12Z</time>
      </trkpt>
      <trkpt lat="45.48772" lon="6.42662">
        <ele>1213.348</ele>
        <time>2013-08-03T09:52:15Z</time>
      </trkpt>
      <trkpt lat="45.48786" lon="6.42681">
        <ele>1210.956</ele>
        <time>2013-08-03T09:52:17Z</time>
      </trkpt>
      <trkpt lat="45.48788" lon="6.42698">
        <ele>1208.478</ele>
        <time>2013-08-03T09:52:19Z</time>
      </trkpt>
      <trkpt lat="45.48783" lon="6.42702">
        <ele>1207.91</ele>
        <time>2013-08-03T09:52:20Z</time>
      </trkpt>
      <trkpt lat="45.48762" lon="6.42684">
        <ele>1206.709</ele>
        <time>2013-08-03T09:52:23Z</time>
      </trkpt>
      <trkpt lat="45.48746" lon="6.42677">
        <ele>1206.709</ele>
        <time>2013-08-03T09:52:26Z</time>
      </trkpt>
      <trkpt lat="45.48727" lon="6.42678">
        <ele>1206.709</ele>
        <time>2013-08-03T09:52:28Z</time>
      </trkpt>
      <trkpt lat="45.48708" lon="6.42693">
        <ele>1206.709</ele>
        <time>2013-08-03T09:52:29Z</time>
      </trkpt>
      <trkpt lat="45.48687" lon="6.42731">
        <ele>1206.709</ele>
        <time>2013-08-03T09:52:33Z</time>
      </trkpt>
      <trkpt lat="45.48679" lon="6.42737">
        <ele>1206.709</ele>
        <time>2013-08-03T09:52:34Z</time>
      </trkpt>
      <trkpt lat="45.48658" lon="6.42736">
        <ele>1206.709</ele>
        <time>2013-08-03T09:52:37Z</time>
      </trkpt>
      <trkpt lat="45.48681" lon="6.4279">
        <ele>1204.486</ele>
        <time>2013-08-03T09:52:40Z</time>
      </trkpt>
      <trkpt lat="45.48687" lon="6.4275">
        <ele>1195.953</ele>
        <time>2013-08-03T09:52:42Z</time>
      </trkpt>
      <trkpt lat="45.48713" lon="6.42736">
        <ele>1188.86</ele>
        <time>2013-08-03T09:52:45Z</time>
      </trkpt>
      <trkpt lat="45.48733" lon="6.42744">
        <ele>1187.888</ele>
        <time>2013-08-03T09:52:47Z</time>
      </trkpt>
      <trkpt lat="45.48739" lon="6.42756">
        <ele>1187.304</ele>
        <time>2013-08-03T09:52:48Z</time>
      </trkpt>
      <trkpt lat="45.48754" lon="6.42797">
        <ele>1184.481</ele>
        <time>2013-08-03T09:52:51Z</time>
      </trkpt>
      <trkpt lat="45.48764" lon="6.42822">
        <ele>1183.338</ele>
        <time>2013-08-03T09:52:53Z</time>
      </trkpt>
      <trkpt lat="45.48778" lon="6.42831">
        <ele>1181.049</ele>
        <time>2013-08-03T09:52:55Z</time>
      </trkpt>
      <trkpt lat="45.4879" lon="6.42818">
        <ele>1179.61</ele>
        <time>2013-08-03T09:52:57Z</time>
      </trkpt>
      <trkpt lat="45.48811" lon="6.42772">
        <ele>1177.053</ele>
        <time>2013-08-03T09:53:01Z</time>
      </trkpt>
      <trkpt lat="45.4884" lon="6.42737">
        <ele>1173.009</ele>
        <time>2013-08-03T09:53:05Z</time>
      </trkpt>
      <trkpt lat="45.48859" lon="6.4274">
        <ele>1170.642</ele>
        <time>2013-08-03T09:53:07Z</time>
      </trkpt>
      <trkpt lat="45.48871" lon="6.42747">
        <ele>1169.662</ele>
        <time>2013-08-03T09:53:08Z</time>
      </trkpt>
      <trkpt lat="45.48942" lon="6.42795">
        <ele>1163.385</ele>
        <time>2013-08-03T09:53:14Z</time>
      </trkpt>
      <trkpt lat="45.48982" lon="6.42829">
        <ele>1159.159</ele>
        <time>2013-08-03T09:53:18Z</time>
      </trkpt>
      <trkpt lat="45.49003" lon="6.42844">
        <ele>1156.151</ele>
        <time>2013-08-03T09:53:21Z</time>
      </trkpt>
      <trkpt lat="45.49016" lon="6.42833">
        <ele>1154.477</ele>
        <time>2013-08-03T09:53:23Z</time>
      </trkpt>
      <trkpt lat="45.49031" lon="6.4282">
        <ele>1153.407</ele>
        <time>2013-08-03T09:53:25Z</time>
      </trkpt>
      <trkpt lat="45.49056" lon="6.42808">
        <ele>1152.146</ele>
        <time>2013-08-03T09:53:28Z</time>
      </trkpt>
      <trkpt lat="45.49077" lon="6.42802">
        <ele>1150.535</ele>
        <time>2013-08-03T09:53:31Z</time>
      </trkpt>
      <trkpt lat="45.49083" lon="6.42821">
        <ele>1149.359</ele>
        <time>2013-08-03T09:53:33Z</time>
      </trkpt>
      <trkpt lat="45.49092" lon="6.42862">
        <ele>1148.142</ele>
        <time>2013-08-03T09:53:36Z</time>
      </trkpt>
      <trkpt lat="45.49116" lon="6.42906">
        <ele>1145.06</ele>
        <time>2013-08-03T09:53:40Z</time>
      </trkpt>
      <trkpt lat="45.49133" lon="6.42925">
        <ele>1142.87</ele>
        <time>2013-08-03T09:53:42Z</time>
      </trkpt>
      <trkpt lat="45.49154" lon="6.42943">
        <ele>1140.335</ele>
        <time>2013-08-03T09:53:45Z</time>
      </trkpt>
      <trkpt lat="45.49173" lon="6.42941">
        <ele>1139.467</ele>
        <time>2013-08-03T09:53:47Z</time>
      </trkpt>
      <trkpt lat="45.49194" lon="6.4295">
        <ele>1138.619</ele>
        <time>2013-08-03T09:53:49Z</time>
      </trkpt>
      <trkpt lat="45.49262" lon="6.43001">
        <ele>1133.921</ele>
        <time>2013-08-03T09:53:56Z</time>
      </trkpt>
      <trkpt lat="45.4934" lon="6.43048">
        <ele>1128.669</ele>
        <time>2013-08-03T09:54:03Z</time>
      </trkpt>
      <trkpt lat="45.49359" lon="6.43064">
        <ele>1127.065</ele>
        <time>2013-08-03T09:54:05Z</time>
      </trkpt>
      <trkpt lat="45.49399" lon="6.43085">
        <ele>1124.508</ele>
        <time>2013-08-03T09:54:10Z</time>
      </trkpt>
      <trkpt lat="45.49421" lon="6.43091">
        <ele>1124.508</ele>
        <time>2013-08-03T09:54:12Z</time>
      </trkpt>
      <trkpt lat="45.49444" lon="6.4309">
        <ele>1124.508</ele>
        <time>2013-08-03T09:54:14Z</time>
      </trkpt>
      <trkpt lat="45.49473" lon="6.43108">
        <ele>1124.508</ele>
        <time>2013-08-03T09:54:17Z</time>
      </trkpt>
      <trkpt lat="45.49519" lon="6.431">
        <ele>1114.348</ele>
        <time>2013-08-03T09:54:21Z</time>
      </trkpt>
      <trkpt lat="45.49516" lon="6.43091">
        <ele>1114.348</ele>
        <time>2013-08-03T09:54:22Z</time>
      </trkpt>
      <trkpt lat="45.49518" lon="6.43103">
        <ele>1113.96</ele>
        <time>2013-08-03T09:54:24Z</time>
      </trkpt>
      <trkpt lat="45.49501" lon="6.43095">
        <ele>1113.96</ele>
        <time>2013-08-03T09:54:26Z</time>
      </trkpt>
      <trkpt lat="45.49495" lon="6.43112">
        <ele>1113.96</ele>
        <time>2013-08-03T09:54:29Z</time>
      </trkpt>
      <trkpt lat="45.49469" lon="6.43108">
        <ele>1113.96</ele>
        <time>2013-08-03T09:54:32Z</time>
      </trkpt>
      <trkpt lat="45.4945" lon="6.43114">
        <ele>1113.057</ele>
        <time>2013-08-03T09:54:33Z</time>
      </trkpt>
      <trkpt lat="45.49395" lon="6.4312">
        <ele>1105.824</ele>
        <time>2013-08-03T09:54:38Z</time>
      </trkpt>
      <trkpt lat="45.49316" lon="6.43087">
        <ele>1100.129</ele>
        <time>2013-08-03T09:54:45Z</time>
      </trkpt>
      <trkpt lat="45.49295" lon="6.43083">
        <ele>1098.806</ele>
        <time>2013-08-03T09:54:47Z</time>
      </trkpt>
      <trkpt lat="45.49248" lon="6.43054">
        <ele>1096.077</ele>
        <time>2013-08-03T09:54:52Z</time>
      </trkpt>
      <trkpt lat="45.49229" lon="6.43056">
        <ele>1094.784</ele>
        <time>2013-08-03T09:54:54Z</time>
      </trkpt>
      <trkpt lat="45.49204" lon="6.43082">
        <ele>1092.807</ele>
        <time>2013-08-03T09:54:57Z</time>
      </trkpt>
      <trkpt lat="45.49185" lon="6.43077">
        <ele>1091.522</ele>
        <time>2013-08-03T09:54:59Z</time>
      </trkpt>
      <trkpt lat="45.49172" lon="6.43059">
        <ele>1090.891</ele>
        <time>2013-08-03T09:55:01Z</time>
      </trkpt>
      <trkpt lat="45.49157" lon="6.43052">
        <ele>1089.891</ele>
        <time>2013-08-03T09:55:03Z</time>
      </trkpt>
      <trkpt lat="45.49142" lon="6.43062">
        <ele>1089.267</ele>
        <time>2013-08-03T09:55:05Z</time>
      </trkpt>
      <trkpt lat="45.49156" lon="6.43076">
        <ele>1088.306</ele>
        <time>2013-08-03T09:55:07Z</time>
      </trkpt>
      <trkpt lat="45.49181" lon="6.43091">
        <ele>1086.132</ele>
        <time>2013-08-03T09:55:10Z</time>
      </trkpt>
      <trkpt lat="45.49197" lon="6.43099">
        <ele>1085.259</ele>
        <time>2013-08-03T09:55:12Z</time>
      </trkpt>
      <trkpt lat="45.49242" lon="6.43076">
        <ele>1082.701</ele>
        <time>2013-08-03T09:55:17Z</time>
      </trkpt>
      <trkpt lat="45.4926" lon="6.43091">
        <ele>1080.309</ele>
        <time>2013-08-03T09:55:20Z</time>
      </trkpt>
      <trkpt lat="45.49282" lon="6.43115">
        <ele>1077.131</ele>
        <time>2013-08-03T09:55:24Z</time>
      </trkpt>
      <trkpt lat="45.49311" lon="6.43127">
        <ele>1075.979</ele>
        <time>2013-08-03T09:55:28Z</time>
      </trkpt>
      <trkpt lat="45.49363" lon="6.43172">
        <ele>1071.83</ele>
        <time>2013-08-03T09:55:34Z</time>
      </trkpt>
      <trkpt lat="45.49383" lon="6.43185">
        <ele>1070.243</ele>
        <time>2013-08-03T09:55:36Z</time>
      </trkpt>
      <trkpt lat="45.49422" lon="6.43202">
        <ele>1067.263</ele>
        <time>2013-08-03T09:55:40Z</time>
      </trkpt>
      <trkpt lat="45.49462" lon="6.43206">
        <ele>1063.812</ele>
        <time>2013-08-03T09:55:44Z</time>
      </trkpt>
      <trkpt lat="45.49489" lon="6.43214">
        <ele>1061.803</ele>
        <time>2013-08-03T09:55:47Z</time>
      </trkpt>
      <trkpt lat="45.49514" lon="6.4323">
        <ele>1058.803</ele>
        <time>2013-08-03T09:55:50Z</time>
      </trkpt>
      <trkpt lat="45.49527" lon="6.43226">
        <ele>1057.47</ele>
        <time>2013-08-03T09:55:52Z</time>
      </trkpt>
      <trkpt lat="45.49554" lon="6.43224">
        <ele>1056.143</ele>
        <time>2013-08-03T09:55:55Z</time>
      </trkpt>
      <trkpt lat="45.49576" lon="6.43245">
        <ele>1055.752</ele>
        <time>2013-08-03T09:55:58Z</time>
      </trkpt>
      <trkpt lat="45.49582" lon="6.43269">
        <ele>1055.452</ele>
        <time>2013-08-03T09:56:00Z</time>
      </trkpt>
      <trkpt lat="45.49582" lon="6.43325">
        <ele>1055.17</ele>
        <time>2013-08-03T09:56:04Z</time>
      </trkpt>
      <trkpt lat="45.49585" lon="6.4338">
        <ele>1054.159</ele>
        <time>2013-08-03T09:56:08Z</time>
      </trkpt>
      <trkpt lat="45.49599" lon="6.43412">
        <ele>1052.935</ele>
        <time>2013-08-03T09:56:11Z</time>
      </trkpt>
      <trkpt lat="45.49607" lon="6.43434">
        <ele>1051.294</ele>
        <time>2013-08-03T09:56:14Z</time>
      </trkpt>
      <trkpt lat="45.49621" lon="6.43456">
        <ele>1050.65</ele>
        <time>2013-08-03T09:56:18Z</time>
      </trkpt>
      <trkpt lat="45.49638" lon="6.43456">
        <ele>1050.12</ele>
        <time>2013-08-03T09:56:21Z</time>
      </trkpt>
      <trkpt lat="45.49668" lon="6.43464">
        <ele>1049.597</ele>
        <time>2013-08-03T09:56:25Z</time>
      </trkpt>
      <trkpt lat="45.4968" lon="6.43475">
        <ele>1049.511</ele>
        <time>2013-08-03T09:56:27Z</time>
      </trkpt>
      <trkpt lat="45.49716" lon="6.43506">
        <ele>1049.013</ele>
        <time>2013-08-03T09:56:33Z</time>
      </trkpt>
      <trkpt lat="45.49723" lon="6.4351">
        <ele>1048.892</ele>
        <time>2013-08-03T09:56:34Z</time>
      </trkpt>
      <trkpt lat="45.49747" lon="6.43536">
        <ele>1048.822</ele>
        <time>2013-08-03T09:56:38Z</time>
      </trkpt>
      <trkpt lat="45.49777" lon="6.43583">
        <ele>1048.214</ele>
        <time>2013-08-03T09:56:43Z</time>
      </trkpt>
      <trkpt lat="45.4982" lon="6.43643">
        <ele>1047.805</ele>
        <time>2013-08-03T09:56:50Z</time>
      </trkpt>
      <trkpt lat="45.49843" lon="6.4368">
        <ele>1047.318</ele>
        <time>2013-08-03T09:56:54Z</time>
      </trkpt>
      <trkpt lat="45.49865" lon="6.43699">
        <ele>1046.751</ele>
        <time>2013-08-03T09:56:57Z</time>
      </trkpt>
      <trkpt lat="45.49882" lon="6.43727">
        <ele>1046.588</ele>
        <time>2013-08-03T09:57:00Z</time>
      </trkpt>
      <trkpt lat="45.49914" lon="6.43776">
        <ele>1045.754</ele>
        <time>2013-08-03T09:57:06Z</time>
      </trkpt>
      <trkpt lat="45.49925" lon="6.43792">
        <ele>1045.825</ele>
        <time>2013-08-03T09:57:08Z</time>
      </trkpt>
      <trkpt lat="45.49962" lon="6.43831">
        <ele>1046.787</ele>
        <time>2013-08-03T09:57:14Z</time>
      </trkpt>
      <trkpt lat="45.49974" lon="6.43843">
        <ele>1047.09</ele>
        <time>2013-08-03T09:57:16Z</time>
      </trkpt>
      <trkpt lat="45.49987" lon="6.43859">
        <ele>1047.303</ele>
        <time>2013-08-03T09:57:18Z</time>
      </trkpt>
      <trkpt lat="45.50014" lon="6.43891">
        <ele>1047.667</ele>
        <time>2013-08-03T09:57:22Z</time>
      </trkpt>
      <trkpt lat="45.50001" lon="6.4388">
        <ele>1047.703</ele>
        <time>2013-08-03T09:57:23Z</time>
      </trkpt>
      <trkpt lat="45.50041" lon="6.43912">
        <ele>1047.763</ele>
        <time>2013-08-03T09:57:27Z</time>
      </trkpt>
      <trkpt lat="45.50069" lon="6.43947">
        <ele>1047.782</ele>
        <time>2013-08-03T09:57:32Z</time>
      </trkpt>
      <trkpt lat="45.50105" lon="6.4398">
        <ele>1047.731</ele>
        <time>2013-08-03T09:57:38Z</time>
      </trkpt>
      <trkpt lat="45.50136" lon="6.4401">
        <ele>1048.049</ele>
        <time>2013-08-03T09:57:43Z</time>
      </trkpt>
      <trkpt lat="45.5017" lon="6.4405">
        <ele>1048.598</ele>
        <time>2013-08-03T09:57:49Z</time>
      </trkpt>
      <trkpt lat="45.50187" lon="6.44066">
        <ele>1048.582</ele>
        <time>2013-08-03T09:57:52Z</time>
      </trkpt>
      <trkpt lat="45.50213" lon="6.44085">
        <ele>1048.802</ele>
        <time>2013-08-03T09:57:57Z</time>
      </trkpt>
      <trkpt lat="45.50226" lon="6.4409">
        <ele>1048.731</ele>
        <time>2013-08-03T09:57:59Z</time>
      </trkpt>
      <trkpt lat="45.50253" lon="6.44113">
        <ele>1048.579</ele>
        <time>2013-08-03T09:58:03Z</time>
      </trkpt>
      <trkpt lat="45.50261" lon="6.4413">
        <ele>1048.831</ele>
        <time>2013-08-03T09:58:05Z</time>
      </trkpt>
      <trkpt lat="45.50283" lon="6.44163">
        <ele>1048.515</ele>
        <time>2013-08-03T09:58:10Z</time>
      </trkpt>
      <trkpt lat="45.50289" lon="6.44167">
        <ele>1048.279</ele>
        <time>2013-08-03T09:58:11Z</time>
      </trkpt>
      <trkpt lat="45.50322" lon="6.44195">
        <ele>1048.298</ele>
        <time>2013-08-03T09:58:17Z</time>
      </trkpt>
      <trkpt lat="45.50348" lon="6.44217">
        <ele>1048.374</ele>
        <time>2013-08-03T09:58:22Z</time>
      </trkpt>
      <trkpt lat="45.50372" lon="6.44232">
        <ele>1048.654</ele>
        <time>2013-08-03T09:58:26Z</time>
      </trkpt>
      <trkpt lat="45.50379" lon="6.44232">
        <ele>1048.879</ele>
        <time>2013-08-03T09:58:27Z</time>
      </trkpt>
      <trkpt lat="45.50423" lon="6.44237">
        <ele>1048.938</ele>
        <time>2013-08-03T09:58:32Z</time>
      </trkpt>
      <trkpt lat="45.50426" lon="6.44261">
        <ele>1048.845</ele>
        <time>2013-08-03T09:58:34Z</time>
      </trkpt>
      <trkpt lat="45.50429" lon="6.44296">
        <ele>1048.745</ele>
        <time>2013-08-03T09:58:37Z</time>
      </trkpt>
      <trkpt lat="45.50449" lon="6.44312">
        <ele>1048.495</ele>
        <time>2013-08-03T09:58:40Z</time>
      </trkpt>
      <trkpt lat="45.50464" lon="6.44326">
        <ele>1048.248</ele>
        <time>2013-08-03T09:58:42Z</time>
      </trkpt>
      <trkpt lat="45.50476" lon="6.44345">
        <ele>1047.98</ele>
        <time>2013-08-03T09:58:44Z</time>
      </trkpt>
      <trkpt lat="45.50502" lon="6.44378">
        <ele>1047.133</ele>
        <time>2013-08-03T09:58:48Z</time>
      </trkpt>
      <trkpt lat="45.50526" lon="6.44409">
        <ele>1047.184</ele>
        <time>2013-08-03T09:58:52Z</time>
      </trkpt>
      <trkpt lat="45.50549" lon="6.4445">
        <ele>1047.263</ele>
        <time>2013-08-03T09:58:57Z</time>
      </trkpt>
      <trkpt lat="45.50572" lon="6.44468">
        <ele>1048.117</ele>
        <time>2013-08-03T09:59:01Z</time>
      </trkpt>
      <trkpt lat="45.50614" lon="6.44485">
        <ele>1048.735</ele>
        <time>2013-08-03T09:59:08Z</time>
      </trkpt>
      <trkpt lat="45.5065" lon="6.44488">
        <ele>1049.43</ele>
        <time>2013-08-03T09:59:14Z</time>
      </trkpt>
      <trkpt lat="45.50674" lon="6.44489">
        <ele>1049.982</ele>
        <time>2013-08-03T09:59:18Z</time>
      </trkpt>
      <trkpt lat="45.50703" lon="6.44502">
        <ele>1050.714</ele>
        <time>2013-08-03T09:59:23Z</time>
      </trkpt>
      <trkpt lat="45.50714" lon="6.44507">
        <ele>1051.173</ele>
        <time>2013-08-03T09:59:25Z</time>
      </trkpt>
      <trkpt lat="45.50738" lon="6.44514">
        <ele>1051.83</ele>
        <time>2013-08-03T09:59:29Z</time>
      </trkpt>
      <trkpt lat="45.5076" lon="6.44529">
        <ele>1052.777</ele>
        <time>2013-08-03T09:59:33Z</time>
      </trkpt>
      <trkpt lat="45.50788" lon="6.4456">
        <ele>1054.043</ele>
        <time>2013-08-03T09:59:39Z</time>
      </trkpt>
      <trkpt lat="45.5082" lon="6.44587">
        <ele>1054.602</ele>
        <time>2013-08-03T09:59:46Z</time>
      </trkpt>
      <trkpt lat="45.50859" lon="6.44602">
        <ele>1055.379</ele>
        <time>2013-08-03T09:59:53Z</time>
      </trkpt>
      <trkpt lat="45.5088" lon="6.44617">
        <ele>1055.825</ele>
        <time>2013-08-03T09:59:57Z</time>
      </trkpt>
      <trkpt lat="45.50913" lon="6.44648">
        <ele>1055.594</ele>
        <time>2013-08-03T10:00:03Z</time>
      </trkpt>
      <trkpt lat="45.50963" lon="6.44681">
        <ele>1055.524</ele>
        <time>2013-08-03T10:00:11Z</time>
      </trkpt>
      <trkpt lat="45.50976" lon="6.44687">
        <ele>1055.281</ele>
        <time>2013-08-03T10:00:13Z</time>
      </trkpt>
      <trkpt lat="45.51003" lon="6.44689">
        <ele>1054.332</ele>
        <time>2013-08-03T10:00:17Z</time>
      </trkpt>
      <trkpt lat="45.51055" lon="6.44665">
        <ele>1053.619</ele>
        <time>2013-08-03T10:00:24Z</time>
      </trkpt>
      <trkpt lat="45.51121" lon="6.4462">
        <ele>1052.799</ele>
        <time>2013-08-03T10:00:33Z</time>
      </trkpt>
      <trkpt lat="45.51129" lon="6.44615">
        <ele>1052.507</ele>
        <time>2013-08-03T10:00:34Z</time>
      </trkpt>
      <trkpt lat="45.51152" lon="6.44603">
        <ele>1051.972</ele>
        <time>2013-08-03T10:00:37Z</time>
      </trkpt>
      <trkpt lat="45.51179" lon="6.44576">
        <ele>1050.983</ele>
        <time>2013-08-03T10:00:41Z</time>
      </trkpt>
      <trkpt lat="45.51215" lon="6.44536">
        <ele>1048.712</ele>
        <time>2013-08-03T10:00:46Z</time>
      </trkpt>
      <trkpt lat="45.51241" lon="6.44518">
        <ele>1047.005</ele>
        <time>2013-08-03T10:00:49Z</time>
      </trkpt>
      <trkpt lat="45.51282" lon="6.4449">
        <ele>1042.825</ele>
        <time>2013-08-03T10:00:53Z</time>
      </trkpt>
      <trkpt lat="45.51293" lon="6.44484">
        <ele>1042.255</ele>
        <time>2013-08-03T10:00:54Z</time>
      </trkpt>
      <trkpt lat="45.51325" lon="6.44469">
        <ele>1038.824</ele>
        <time>2013-08-03T10:00:57Z</time>
      </trkpt>
      <trkpt lat="45.51344" lon="6.44477">
        <ele>1037.658</ele>
        <time>2013-08-03T10:00:59Z</time>
      </trkpt>
      <trkpt lat="45.51353" lon="6.44485">
        <ele>1037.43</ele>
        <time>2013-08-03T10:01:00Z</time>
      </trkpt>
      <trkpt lat="45.51347" lon="6.44526">
        <ele>1035.589</ele>
        <time>2013-08-03T10:01:03Z</time>
      </trkpt>
      <trkpt lat="45.51344" lon="6.44538">
        <ele>1034.905</ele>
        <time>2013-08-03T10:01:04Z</time>
      </trkpt>
      <trkpt lat="45.51342" lon="6.44565">
        <ele>1033.525</ele>
        <time>2013-08-03T10:01:06Z</time>
      </trkpt>
      <trkpt lat="45.51351" lon="6.44621">
        <ele>1030.627</ele>
        <time>2013-08-03T10:01:10Z</time>
      </trkpt>
      <trkpt lat="45.51348" lon="6.44664">
        <ele>1029.674</ele>
        <time>2013-08-03T10:01:12Z</time>
      </trkpt>
      <trkpt lat="45.51337" lon="6.44737">
        <ele>1027.273</ele>
        <time>2013-08-03T10:01:16Z</time>
      </trkpt>
      <trkpt lat="45.51319" lon="6.44803">
        <ele>1024.886</ele>
        <time>2013-08-03T10:01:20Z</time>
      </trkpt>
      <trkpt lat="45.5131" lon="6.44847">
        <ele>1022.247</ele>
        <time>2013-08-03T10:01:23Z</time>
      </trkpt>
      <trkpt lat="45.51318" lon="6.4487">
        <ele>1020.865</ele>
        <time>2013-08-03T10:01:25Z</time>
      </trkpt>
      <trkpt lat="45.51325" lon="6.4488">
        <ele>1020.588</ele>
        <time>2013-08-03T10:01:26Z</time>
      </trkpt>
      <trkpt lat="45.51332" lon="6.44889">
        <ele>1020.195</ele>
        <time>2013-08-03T10:01:27Z</time>
      </trkpt>
      <trkpt lat="45.51398" lon="6.44968">
        <ele>1016.83</ele>
        <time>2013-08-03T10:01:35Z</time>
      </trkpt>
      <trkpt lat="45.51422" lon="6.44999">
        <ele>1015.562</ele>
        <time>2013-08-03T10:01:38Z</time>
      </trkpt>
      <trkpt lat="45.51438" lon="6.45017">
        <ele>1014.557</ele>
        <time>2013-08-03T10:01:40Z</time>
      </trkpt>
      <trkpt lat="45.51462" lon="6.45048">
        <ele>1012.807</ele>
        <time>2013-08-03T10:01:43Z</time>
      </trkpt>
      <trkpt lat="45.51497" lon="6.45088">
        <ele>1011.408</ele>
        <time>2013-08-03T10:01:47Z</time>
      </trkpt>
      <trkpt lat="45.51507" lon="6.45094">
        <ele>1011.063</ele>
        <time>2013-08-03T10:01:48Z</time>
      </trkpt>
      <trkpt lat="45.5156" lon="6.4515">
        <ele>1008.258</ele>
        <time>2013-08-03T10:01:54Z</time>
      </trkpt>
      <trkpt lat="45.51612" lon="6.45196">
        <ele>1005.673</ele>
        <time>2013-08-03T10:02:00Z</time>
      </trkpt>
      <trkpt lat="45.51668" lon="6.45231">
        <ele>1004.296</ele>
        <time>2013-08-03T10:02:06Z</time>
      </trkpt>
      <trkpt lat="45.51704" lon="6.4526">
        <ele>1002.703</ele>
        <time>2013-08-03T10:02:10Z</time>
      </trkpt>
      <trkpt lat="45.51729" lon="6.45279">
        <ele>1000.936</ele>
        <time>2013-08-03T10:02:13Z</time>
      </trkpt>
      <trkpt lat="45.5175" lon="6.4529">
        <ele>1000.191</ele>
        <time>2013-08-03T10:02:15Z</time>
      </trkpt>
      <trkpt lat="45.51757" lon="6.45317">
        <ele>999.63</ele>
        <time>2013-08-03T10:02:17Z</time>
      </trkpt>
      <trkpt lat="45.51781" lon="6.4537">
        <ele>999.566</ele>
        <time>2013-08-03T10:02:22Z</time>
      </trkpt>
      <trkpt lat="45.51802" lon="6.45402">
        <ele>999.194</ele>
        <time>2013-08-03T10:02:26Z</time>
      </trkpt>
      <trkpt lat="45.51819" lon="6.45415">
        <ele>999.964</ele>
        <time>2013-08-03T10:02:29Z</time>
      </trkpt>
      <trkpt lat="45.51845" lon="6.45424">
        <ele>999.508</ele>
        <time>2013-08-03T10:02:33Z</time>
      </trkpt>
      <trkpt lat="45.51853" lon="6.45419">
        <ele>999.339</ele>
        <time>2013-08-03T10:02:34Z</time>
      </trkpt>
      <trkpt lat="45.5187" lon="6.454">
        <ele>998.445</ele>
        <time>2013-08-03T10:02:36Z</time>
      </trkpt>
      <trkpt lat="45.51894" lon="6.45384">
        <ele>995.714</ele>
        <time>2013-08-03T10:02:39Z</time>
      </trkpt>
      <trkpt lat="45.51917" lon="6.45355">
        <ele>993.539</ele>
        <time>2013-08-03T10:02:42Z</time>
      </trkpt>
      <trkpt lat="45.51922" lon="6.45305">
        <ele>991.536</ele>
        <time>2013-08-03T10:02:45Z</time>
      </trkpt>
      <trkpt lat="45.51936" lon="6.4529">
        <ele>989.803</ele>
        <time>2013-08-03T10:02:47Z</time>
      </trkpt>
      <trkpt lat="45.51949" lon="6.45297">
        <ele>988.025</ele>
        <time>2013-08-03T10:02:49Z</time>
      </trkpt>
      <trkpt lat="45.51953" lon="6.45302">
        <ele>987.766</ele>
        <time>2013-08-03T10:02:50Z</time>
      </trkpt>
      <trkpt lat="45.5196" lon="6.45323">
        <ele>987.925</ele>
        <time>2013-08-03T10:02:52Z</time>
      </trkpt>
      <trkpt lat="45.5197" lon="6.45387">
        <ele>989.879</ele>
        <time>2013-08-03T10:02:59Z</time>
      </trkpt>
      <trkpt lat="45.51978" lon="6.4542">
        <ele>991.491</ele>
        <time>2013-08-03T10:03:03Z</time>
      </trkpt>
      <trkpt lat="45.51992" lon="6.4546">
        <ele>992.872</ele>
        <time>2013-08-03T10:03:08Z</time>
      </trkpt>
      <trkpt lat="45.52012" lon="6.45512">
        <ele>990.854</ele>
        <time>2013-08-03T10:03:13Z</time>
      </trkpt>
      <trkpt lat="45.52039" lon="6.45546">
        <ele>988.609</ele>
        <time>2013-08-03T10:03:17Z</time>
      </trkpt>
      <trkpt lat="45.52077" lon="6.45583">
        <ele>985.045</ele>
        <time>2013-08-03T10:03:21Z</time>
      </trkpt>
      <trkpt lat="45.52119" lon="6.45624">
        <ele>981.134</ele>
        <time>2013-08-03T10:03:25Z</time>
      </trkpt>
      <trkpt lat="45.52188" lon="6.4571">
        <ele>974.558</ele>
        <time>2013-08-03T10:03:32Z</time>
      </trkpt>
      <trkpt lat="45.52229" lon="6.45757">
        <ele>970.797</ele>
        <time>2013-08-03T10:03:36Z</time>
      </trkpt>
      <trkpt lat="45.52242" lon="6.45794">
        <ele>969.151</ele>
        <time>2013-08-03T10:03:38Z</time>
      </trkpt>
      <trkpt lat="45.52275" lon="6.45822">
        <ele>965.022</ele>
        <time>2013-08-03T10:03:41Z</time>
      </trkpt>
      <trkpt lat="45.52258" lon="6.45803">
        <ele>961.927</ele>
        <time>2013-08-03T10:03:43Z</time>
      </trkpt>
      <trkpt lat="45.52282" lon="6.45837">
        <ele>960.767</ele>
        <time>2013-08-03T10:03:45Z</time>
      </trkpt>
      <trkpt lat="45.52257" lon="6.45801">
        <ele>959.328</ele>
        <time>2013-08-03T10:03:48Z</time>
      </trkpt>
      <trkpt lat="45.52218" lon="6.45774">
        <ele>957.467</ele>
        <time>2013-08-03T10:03:52Z</time>
      </trkpt>
      <trkpt lat="45.52171" lon="6.45739">
        <ele>954.599</ele>
        <time>2013-08-03T10:03:57Z</time>
      </trkpt>
      <trkpt lat="45.52118" lon="6.45707">
        <ele>951.875</ele>
        <time>2013-08-03T10:04:02Z</time>
      </trkpt>
      <trkpt lat="45.52073" lon="6.45686">
        <ele>948.292</ele>
        <time>2013-08-03T10:04:06Z</time>
      </trkpt>
      <trkpt lat="45.52034" lon="6.45664">
        <ele>944.827</ele>
        <time>2013-08-03T10:04:10Z</time>
      </trkpt>
      <trkpt lat="45.52029" lon="6.45672">
        <ele>942.424</ele>
        <time>2013-08-03T10:04:12Z</time>
      </trkpt>
      <trkpt lat="45.52032" lon="6.45681">
        <ele>941.377</ele>
        <time>2013-08-03T10:04:14Z</time>
      </trkpt>
      <trkpt lat="45.52066" lon="6.45698">
        <ele>939.921</ele>
        <time>2013-08-03T10:04:18Z</time>
      </trkpt>
      <trkpt lat="45.52085" lon="6.4571">
        <ele>939.306</ele>
        <time>2013-08-03T10:04:20Z</time>
      </trkpt>
      <trkpt lat="45.52134" lon="6.45757">
        <ele>936.644</ele>
        <time>2013-08-03T10:04:25Z</time>
      </trkpt>
      <trkpt lat="45.52163" lon="6.45793">
        <ele>933.39</ele>
        <time>2013-08-03T10:04:28Z</time>
      </trkpt>
      <trkpt lat="45.52197" lon="6.45832">
        <ele>930.156</ele>
        <time>2013-08-03T10:04:31Z</time>
      </trkpt>
      <trkpt lat="45.52254" lon="6.45888">
        <ele>924.015</ele>
        <time>2013-08-03T10:04:36Z</time>
      </trkpt>
      <trkpt lat="45.52316" lon="6.45937">
        <ele>918.259</ele>
        <time>2013-08-03T10:04:41Z</time>
      </trkpt>
      <trkpt lat="45.52341" lon="6.45957">
        <ele>916.206</ele>
        <time>2013-08-03T10:04:43Z</time>
      </trkpt>
      <trkpt lat="45.52371" lon="6.46002">
        <ele>913.259</ele>
        <time>2013-08-03T10:04:46Z</time>
      </trkpt>
      <trkpt lat="45.52412" lon="6.46056">
        <ele>908.836</ele>
        <time>2013-08-03T10:04:50Z</time>
      </trkpt>
      <trkpt lat="45.52425" lon="6.4606">
        <ele>907.295</ele>
        <time>2013-08-03T10:04:51Z</time>
      </trkpt>
      <trkpt lat="45.52508" lon="6.4608">
        <ele>900.564</ele>
        <time>2013-08-03T10:04:57Z</time>
      </trkpt>
      <trkpt lat="45.52564" lon="6.46082">
        <ele>896.368</ele>
        <time>2013-08-03T10:05:01Z</time>
      </trkpt>
      <trkpt lat="45.52638" lon="6.46092">
        <ele>891.942</ele>
        <time>2013-08-03T10:05:06Z</time>
      </trkpt>
      <trkpt lat="45.52674" lon="6.46097">
        <ele>889.343</ele>
        <time>2013-08-03T10:05:09Z</time>
      </trkpt>
      <trkpt lat="45.52687" lon="6.46098">
        <ele>888.31</ele>
        <time>2013-08-03T10:05:10Z</time>
      </trkpt>
      <trkpt lat="45.52712" lon="6.46103">
        <ele>886.665</ele>
        <time>2013-08-03T10:05:12Z</time>
      </trkpt>
      <trkpt lat="45.5275" lon="6.46121">
        <ele>884.531</ele>
        <time>2013-08-03T10:05:15Z</time>
      </trkpt>
      <trkpt lat="45.52775" lon="6.46169">
        <ele>882.977</ele>
        <time>2013-08-03T10:05:18Z</time>
      </trkpt>
      <trkpt lat="45.52827" lon="6.46249">
        <ele>879.266</ele>
        <time>2013-08-03T10:05:24Z</time>
      </trkpt>
      <trkpt lat="45.52863" lon="6.46294">
        <ele>876.951</ele>
        <time>2013-08-03T10:05:28Z</time>
      </trkpt>
      <trkpt lat="45.52873" lon="6.46305">
        <ele>876.328</ele>
        <time>2013-08-03T10:05:29Z</time>
      </trkpt>
      <trkpt lat="45.52925" lon="6.46347">
        <ele>873.069</ele>
        <time>2013-08-03T10:05:34Z</time>
      </trkpt>
      <trkpt lat="45.52969" lon="6.46376">
        <ele>870.529</ele>
        <time>2013-08-03T10:05:38Z</time>
      </trkpt>
      <trkpt lat="45.5298" lon="6.46384">
        <ele>869.692</ele>
        <time>2013-08-03T10:05:39Z</time>
      </trkpt>
      <trkpt lat="45.5303" lon="6.46376">
        <ele>865.575</ele>
        <time>2013-08-03T10:05:43Z</time>
      </trkpt>
      <trkpt lat="45.53066" lon="6.46383">
        <ele>863.582</ele>
        <time>2013-08-03T10:05:46Z</time>
      </trkpt>
      <trkpt lat="45.53115" lon="6.46361">
        <ele>861.044</ele>
        <time>2013-08-03T10:05:50Z</time>
      </trkpt>
      <trkpt lat="45.53183" lon="6.46329">
        <ele>857.461</ele>
        <time>2013-08-03T10:05:55Z</time>
      </trkpt>
      <trkpt lat="45.53239" lon="6.46306">
        <ele>854.182</ele>
        <time>2013-08-03T10:06:00Z</time>
      </trkpt>
      <trkpt lat="45.5329" lon="6.46296">
        <ele>851.238</ele>
        <time>2013-08-03T10:06:04Z</time>
      </trkpt>
      <trkpt lat="45.53301" lon="6.46295">
        <ele>850.948</ele>
        <time>2013-08-03T10:06:05Z</time>
      </trkpt>
      <trkpt lat="45.53339" lon="6.46293">
        <ele>848.569</ele>
        <time>2013-08-03T10:06:08Z</time>
      </trkpt>
      <trkpt lat="45.53366" lon="6.46279">
        <ele>845.767</ele>
        <time>2013-08-03T10:06:11Z</time>
      </trkpt>
      <trkpt lat="45.53369" lon="6.46265">
        <ele>844.589</ele>
        <time>2013-08-03T10:06:12Z</time>
      </trkpt>
      <trkpt lat="45.5338" lon="6.46229">
        <ele>842.544</ele>
        <time>2013-08-03T10:06:14Z</time>
      </trkpt>
      <trkpt lat="45.5341" lon="6.46206">
        <ele>840.413</ele>
        <time>2013-08-03T10:06:17Z</time>
      </trkpt>
      <trkpt lat="45.53458" lon="6.46211">
        <ele>837.784</ele>
        <time>2013-08-03T10:06:21Z</time>
      </trkpt>
      <trkpt lat="45.53499" lon="6.46206">
        <ele>835.165</ele>
        <time>2013-08-03T10:06:24Z</time>
      </trkpt>
      <trkpt lat="45.53524" lon="6.46201">
        <ele>833.518</ele>
        <time>2013-08-03T10:06:26Z</time>
      </trkpt>
      <trkpt lat="45.53566" lon="6.46176">
        <ele>830.508</ele>
        <time>2013-08-03T10:06:30Z</time>
      </trkpt>
      <trkpt lat="45.53611" lon="6.4611">
        <ele>826.902</ele>
        <time>2013-08-03T10:06:35Z</time>
      </trkpt>
      <trkpt lat="45.53643" lon="6.46085">
        <ele>822.947</ele>
        <time>2013-08-03T10:06:38Z</time>
      </trkpt>
      <trkpt lat="45.5367" lon="6.46025">
        <ele>818</ele>
        <time>2013-08-03T10:06:42Z</time>
      </trkpt>
      <trkpt lat="45.53701" lon="6.45987">
        <ele>814.346</ele>
        <time>2013-08-03T10:06:45Z</time>
      </trkpt>
      <trkpt lat="45.53736" lon="6.45979">
        <ele>810.225</ele>
        <time>2013-08-03T10:06:48Z</time>
      </trkpt>
      <trkpt lat="45.53792" lon="6.45965">
        <ele>806.643</ele>
        <time>2013-08-03T10:06:52Z</time>
      </trkpt>
      <trkpt lat="45.53834" lon="6.45971">
        <ele>803.2</ele>
        <time>2013-08-03T10:06:55Z</time>
      </trkpt>
      <trkpt lat="45.53893" lon="6.45967">
        <ele>799.163</ele>
        <time>2013-08-03T10:06:59Z</time>
      </trkpt>
      <trkpt lat="45.53949" lon="6.45964">
        <ele>795.597</ele>
        <time>2013-08-03T10:07:03Z</time>
      </trkpt>
      <trkpt lat="45.53977" lon="6.4596">
        <ele>793.489</ele>
        <time>2013-08-03T10:07:05Z</time>
      </trkpt>
      <trkpt lat="45.54045" lon="6.45979">
        <ele>788.597</ele>
        <time>2013-08-03T10:07:10Z</time>
      </trkpt>
      <trkpt lat="45.54058" lon="6.45983">
        <ele>787.852</ele>
        <time>2013-08-03T10:07:11Z</time>
      </trkpt>
      <trkpt lat="45.54083" lon="6.45994">
        <ele>786.435</ele>
        <time>2013-08-03T10:07:13Z</time>
      </trkpt>
      <trkpt lat="45.54134" lon="6.45985">
        <ele>781.492</ele>
        <time>2013-08-03T10:07:17Z</time>
      </trkpt>
      <trkpt lat="45.54165" lon="6.45985">
        <ele>779.596</ele>
        <time>2013-08-03T10:07:19Z</time>
      </trkpt>
      <trkpt lat="45.54218" lon="6.46006">
        <ele>775.421</ele>
        <time>2013-08-03T10:07:23Z</time>
      </trkpt>
      <trkpt lat="45.54279" lon="6.46047">
        <ele>769.837</ele>
        <time>2013-08-03T10:07:28Z</time>
      </trkpt>
      <trkpt lat="45.5432" lon="6.46059">
        <ele>767.877</ele>
        <time>2013-08-03T10:07:31Z</time>
      </trkpt>
      <trkpt lat="45.5438" lon="6.46095">
        <ele>763.267</ele>
        <time>2013-08-03T10:07:36Z</time>
      </trkpt>
      <trkpt lat="45.54393" lon="6.461">
        <ele>762.249</ele>
        <time>2013-08-03T10:07:37Z</time>
      </trkpt>
      <trkpt lat="45.54461" lon="6.46099">
        <ele>756.868</ele>
        <time>2013-08-03T10:07:42Z</time>
      </trkpt>
      <trkpt lat="45.54515" lon="6.46091">
        <ele>753.544</ele>
        <time>2013-08-03T10:07:46Z</time>
      </trkpt>
      <trkpt lat="45.54568" lon="6.46069">
        <ele>749.875</ele>
        <time>2013-08-03T10:07:50Z</time>
      </trkpt>
      <trkpt lat="45.54602" lon="6.46025">
        <ele>744.104</ele>
        <time>2013-08-03T10:07:54Z</time>
      </trkpt>
      <trkpt lat="45.54629" lon="6.46013">
        <ele>741.945</ele>
        <time>2013-08-03T10:07:56Z</time>
      </trkpt>
      <trkpt lat="45.54663" lon="6.46004">
        <ele>739.67</ele>
        <time>2013-08-03T10:07:59Z</time>
      </trkpt>
      <trkpt lat="45.54694" lon="6.45986">
        <ele>737.221</ele>
        <time>2013-08-03T10:08:02Z</time>
      </trkpt>
      <trkpt lat="45.54702" lon="6.45964">
        <ele>734.566</ele>
        <time>2013-08-03T10:08:04Z</time>
      </trkpt>
      <trkpt lat="45.54717" lon="6.45936">
        <ele>731.536</ele>
        <time>2013-08-03T10:08:06Z</time>
      </trkpt>
      <trkpt lat="45.54715" lon="6.45911">
        <ele>729.591</ele>
        <time>2013-08-03T10:08:08Z</time>
      </trkpt>
      <trkpt lat="45.54721" lon="6.45954">
        <ele>728.299</ele>
        <time>2013-08-03T10:08:10Z</time>
      </trkpt>
      <trkpt lat="45.54715" lon="6.45982">
        <ele>727.056</ele>
        <time>2013-08-03T10:08:13Z</time>
      </trkpt>
      <trkpt lat="45.54691" lon="6.46025">
        <ele>724.831</ele>
        <time>2013-08-03T10:08:17Z</time>
      </trkpt>
      <trkpt lat="45.54682" lon="6.46034">
        <ele>724.021</ele>
        <time>2013-08-03T10:08:18Z</time>
      </trkpt>
      <trkpt lat="45.54637" lon="6.46062">
        <ele>720.986</ele>
        <time>2013-08-03T10:08:22Z</time>
      </trkpt>
      <trkpt lat="45.54629" lon="6.46106">
        <ele>717.221</ele>
        <time>2013-08-03T10:08:25Z</time>
      </trkpt>
      <trkpt lat="45.54631" lon="6.46113">
        <ele>715.686</ele>
        <time>2013-08-03T10:08:26Z</time>
      </trkpt>
      <trkpt lat="45.5464" lon="6.46114">
        <ele>713.66</ele>
        <time>2013-08-03T10:08:28Z</time>
      </trkpt>
      <trkpt lat="45.54674" lon="6.46073">
        <ele>709.738</ele>
        <time>2013-08-03T10:08:33Z</time>
      </trkpt>
      <trkpt lat="45.54729" lon="6.46043">
        <ele>705.857</ele>
        <time>2013-08-03T10:08:38Z</time>
      </trkpt>
      <trkpt lat="45.54766" lon="6.46025">
        <ele>703.272</ele>
        <time>2013-08-03T10:08:41Z</time>
      </trkpt>
      <trkpt lat="45.54779" lon="6.4602">
        <ele>702.099</ele>
        <time>2013-08-03T10:08:42Z</time>
      </trkpt>
      <trkpt lat="45.54823" lon="6.46023">
        <ele>698.87</ele>
        <time>2013-08-03T10:08:45Z</time>
      </trkpt>
      <trkpt lat="45.54839" lon="6.46029">
        <ele>697.538</ele>
        <time>2013-08-03T10:08:46Z</time>
      </trkpt>
      <trkpt lat="45.54895" lon="6.46051">
        <ele>692.811</ele>
        <time>2013-08-03T10:08:50Z</time>
      </trkpt>
      <trkpt lat="45.54949" lon="6.4608">
        <ele>688.087</ele>
        <time>2013-08-03T10:08:54Z</time>
      </trkpt>
      <trkpt lat="45.54965" lon="6.46102">
        <ele>683.349</ele>
        <time>2013-08-03T10:08:57Z</time>
      </trkpt>
      <trkpt lat="45.54952" lon="6.46105">
        <ele>681.799</ele>
        <time>2013-08-03T10:08:59Z</time>
      </trkpt>
      <trkpt lat="45.54928" lon="6.46091">
        <ele>679.303</ele>
        <time>2013-08-03T10:09:02Z</time>
      </trkpt>
      <trkpt lat="45.54908" lon="6.46093">
        <ele>678.384</ele>
        <time>2013-08-03T10:09:04Z</time>
      </trkpt>
      <trkpt lat="45.54855" lon="6.46115">
        <ele>674.155</ele>
        <time>2013-08-03T10:09:09Z</time>
      </trkpt>
      <trkpt lat="45.54835" lon="6.46132">
        <ele>671.945</ele>
        <time>2013-08-03T10:09:11Z</time>
      </trkpt>
      <trkpt lat="45.54811" lon="6.46208">
        <ele>665.818</ele>
        <time>2013-08-03T10:09:16Z</time>
      </trkpt>
      <trkpt lat="45.54802" lon="6.46214">
        <ele>665.141</ele>
        <time>2013-08-03T10:09:17Z</time>
      </trkpt>
      <trkpt lat="45.54782" lon="6.46223">
        <ele>662.575</ele>
        <time>2013-08-03T10:09:19Z</time>
      </trkpt>
      <trkpt lat="45.54745" lon="6.46239">
        <ele>658.812</ele>
        <time>2013-08-03T10:09:22Z</time>
      </trkpt>
      <trkpt lat="45.54701" lon="6.46335">
        <ele>655.363</ele>
        <time>2013-08-03T10:09:25Z</time>
      </trkpt>
      <trkpt lat="45.54687" lon="6.46249">
        <ele>653.891</ele>
        <time>2013-08-03T10:09:26Z</time>
      </trkpt>
      <trkpt lat="45.5463" lon="6.46239">
        <ele>648.356</ele>
        <time>2013-08-03T10:09:30Z</time>
      </trkpt>
      <trkpt lat="45.54572" lon="6.4623">
        <ele>641.467</ele>
        <time>2013-08-03T10:09:34Z</time>
      </trkpt>
      <trkpt lat="45.545" lon="6.46234">
        <ele>633.492</ele>
        <time>2013-08-03T10:09:39Z</time>
      </trkpt>
      <trkpt lat="45.54476" lon="6.46257">
        <ele>626.104</ele>
        <time>2013-08-03T10:09:42Z</time>
      </trkpt>
      <trkpt lat="45.54477" lon="6.46258">
        <ele>624.503</ele>
        <time>2013-08-03T10:09:44Z</time>
      </trkpt>
      <trkpt lat="45.54484" lon="6.46259">
        <ele>623.535</ele>
        <time>2013-08-03T10:09:46Z</time>
      </trkpt>
      <trkpt lat="45.54507" lon="6.4625">
        <ele>622.631</ele>
        <time>2013-08-03T10:09:48Z</time>
      </trkpt>
      <trkpt lat="45.54539" lon="6.46254">
        <ele>619.922</ele>
        <time>2013-08-03T10:09:51Z</time>
      </trkpt>
      <trkpt lat="45.54604" lon="6.46276">
        <ele>614.852</ele>
        <time>2013-08-03T10:09:56Z</time>
      </trkpt>
      <trkpt lat="45.54674" lon="6.46297">
        <ele>608.558</ele>
        <time>2013-08-03T10:10:01Z</time>
      </trkpt>
      <trkpt lat="45.54727" lon="6.46317">
        <ele>601.837</ele>
        <time>2013-08-03T10:10:05Z</time>
      </trkpt>
      <trkpt lat="45.54749" lon="6.46342">
        <ele>598.798</ele>
        <time>2013-08-03T10:10:07Z</time>
      </trkpt>
      <trkpt lat="45.54765" lon="6.4634">
        <ele>594.254</ele>
        <time>2013-08-03T10:10:10Z</time>
      </trkpt>
      <trkpt lat="45.54746" lon="6.4634">
        <ele>592.087</ele>
        <time>2013-08-03T10:10:13Z</time>
      </trkpt>
      <trkpt lat="45.54715" lon="6.46335">
        <ele>589.525</ele>
        <time>2013-08-03T10:10:17Z</time>
      </trkpt>
      <trkpt lat="45.54668" lon="6.46337">
        <ele>585.957</ele>
        <time>2013-08-03T10:10:21Z</time>
      </trkpt>
      <trkpt lat="45.54655" lon="6.46337">
        <ele>584.791</ele>
        <time>2013-08-03T10:10:22Z</time>
      </trkpt>
      <trkpt lat="45.54573" lon="6.46342">
        <ele>578.319</ele>
        <time>2013-08-03T10:10:28Z</time>
      </trkpt>
      <trkpt lat="45.54513" lon="6.4635">
        <ele>573.546</ele>
        <time>2013-08-03T10:10:32Z</time>
      </trkpt>
      <trkpt lat="45.54443" lon="6.46371">
        <ele>566.752</ele>
        <time>2013-08-03T10:10:37Z</time>
      </trkpt>
      <trkpt lat="45.54429" lon="6.46377">
        <ele>566.15</ele>
        <time>2013-08-03T10:10:38Z</time>
      </trkpt>
      <trkpt lat="45.54389" lon="6.46389">
        <ele>560.948</ele>
        <time>2013-08-03T10:10:42Z</time>
      </trkpt>
      <trkpt lat="45.54389" lon="6.46391">
        <ele>559.303</ele>
        <time>2013-08-03T10:10:45Z</time>
      </trkpt>
      <trkpt lat="45.54443" lon="6.465">
        <ele>558.595</ele>
        <time>2013-08-03T10:10:47Z</time>
      </trkpt>
      <trkpt lat="45.54433" lon="6.46389">
        <ele>558.069</ele>
        <time>2013-08-03T10:10:53Z</time>
      </trkpt>
      <trkpt lat="45.54443" lon="6.46387">
        <ele>558.071</ele>
        <time>2013-08-03T10:10:54Z</time>
      </trkpt>
      <trkpt lat="45.54484" lon="6.4638">
        <ele>556.818</ele>
        <time>2013-08-03T10:10:58Z</time>
      </trkpt>
      <trkpt lat="45.54563" lon="6.46378">
        <ele>554.523</ele>
        <time>2013-08-03T10:11:04Z</time>
      </trkpt>
      <trkpt lat="45.54615" lon="6.46384">
        <ele>551.826</ele>
        <time>2013-08-03T10:11:09Z</time>
      </trkpt>
      <trkpt lat="45.54669" lon="6.46396">
        <ele>546.912</ele>
        <time>2013-08-03T10:11:13Z</time>
      </trkpt>
      <trkpt lat="45.54705" lon="6.46405">
        <ele>542.908</ele>
        <time>2013-08-03T10:11:16Z</time>
      </trkpt>
      <trkpt lat="45.54703" lon="6.46427">
        <ele>541.182</ele>
        <time>2013-08-03T10:11:17Z</time>
      </trkpt>
      <trkpt lat="45.5467" lon="6.46424">
        <ele>536.503</ele>
        <time>2013-08-03T10:11:22Z</time>
      </trkpt>
      <trkpt lat="45.54616" lon="6.4643">
        <ele>533.88</ele>
        <time>2013-08-03T10:11:26Z</time>
      </trkpt>
      <trkpt lat="45.54553" lon="6.46436">
        <ele>528.728</ele>
        <time>2013-08-03T10:11:31Z</time>
      </trkpt>
      <trkpt lat="45.54505" lon="6.46442">
        <ele>525.628</ele>
        <time>2013-08-03T10:11:35Z</time>
      </trkpt>
      <trkpt lat="45.54462" lon="6.46459">
        <ele>521.73</ele>
        <time>2013-08-03T10:11:39Z</time>
      </trkpt>
      <trkpt lat="45.54453" lon="6.46465">
        <ele>520.347</ele>
        <time>2013-08-03T10:11:40Z</time>
      </trkpt>
      <trkpt lat="45.54432" lon="6.46475">
        <ele>517.256</ele>
        <time>2013-08-03T10:11:43Z</time>
      </trkpt>
      <trkpt lat="45.54433" lon="6.46481">
        <ele>515.11</ele>
        <time>2013-08-03T10:11:46Z</time>
      </trkpt>
      <trkpt lat="45.54439" lon="6.46494">
        <ele>514.798</ele>
        <time>2013-08-03T10:11:49Z</time>
      </trkpt>
      <trkpt lat="45.54441" lon="6.46498">
        <ele>514.815</ele>
        <time>2013-08-03T10:11:50Z</time>
      </trkpt>
      <trkpt lat="45.54443" lon="6.465">
        <ele>514.658</ele>
        <time>2013-08-03T10:11:56Z</time>
      </trkpt>
      <trkpt lat="45.54443" lon="6.465">
        <ele>514.458</ele>
        <time>2013-08-03T10:11:58Z</time>
      </trkpt>
      <trkpt lat="45.54478" lon="6.46485">
        <ele>512.752</ele>
        <time>2013-08-03T10:13:28Z</time>
      </trkpt>
      <trkpt lat="45.54491" lon="6.46482">
        <ele>512.396</ele>
        <time>2013-08-03T10:13:33Z</time>
      </trkpt>
      <trkpt lat="45.54505" lon="6.46477">
        <ele>511.13</ele>
        <time>2013-08-03T10:13:38Z</time>
      </trkpt>
      <trkpt lat="45.54518" lon="6.46477">
        <ele>509.657</ele>
        <time>2013-08-03T10:13:43Z</time>
      </trkpt>
      <trkpt lat="45.54538" lon="6.46475">
        <ele>508.299</ele>
        <time>2013-08-03T10:13:47Z</time>
      </trkpt>
      <trkpt lat="45.54575" lon="6.46477">
        <ele>505.758</ele>
        <time>2013-08-03T10:13:52Z</time>
      </trkpt>
      <trkpt lat="45.54634" lon="6.46494">
        <ele>501.652</ele>
        <time>2013-08-03T10:13:58Z</time>
      </trkpt>
      <trkpt lat="45.54668" lon="6.46504">
        <ele>498.817</ele>
        <time>2013-08-03T10:14:01Z</time>
      </trkpt>
      <trkpt lat="45.54714" lon="6.46519">
        <ele>494.703</ele>
        <time>2013-08-03T10:14:05Z</time>
      </trkpt>
      <trkpt lat="45.5479" lon="6.4658">
        <ele>488.189</ele>
        <time>2013-08-03T10:14:12Z</time>
      </trkpt>
      <trkpt lat="45.54875" lon="6.46656">
        <ele>480.885</ele>
        <time>2013-08-03T10:14:20Z</time>
      </trkpt>
      <trkpt lat="45.54895" lon="6.46675">
        <ele>480.092</ele>
        <time>2013-08-03T10:14:22Z</time>
      </trkpt>
      <trkpt lat="45.54987" lon="6.46758">
        <ele>473.273</ele>
        <time>2013-08-03T10:14:31Z</time>
      </trkpt>
      <trkpt lat="45.55046" lon="6.46802">
        <ele>469.409</ele>
        <time>2013-08-03T10:14:37Z</time>
      </trkpt>
      <trkpt lat="45.55106" lon="6.46825">
        <ele>467.808</ele>
        <time>2013-08-03T10:14:43Z</time>
      </trkpt>
      <trkpt lat="45.55153" lon="6.46837">
        <ele>466.973</ele>
        <time>2013-08-03T10:14:48Z</time>
      </trkpt>
      <trkpt lat="45.55189" lon="6.46835">
        <ele>466.408</ele>
        <time>2013-08-03T10:14:52Z</time>
      </trkpt>
      <trkpt lat="45.55232" lon="6.46819">
        <ele>465.48</ele>
        <time>2013-08-03T10:14:57Z</time>
      </trkpt>
      <trkpt lat="45.55297" lon="6.46785">
        <ele>464.528</ele>
        <time>2013-08-03T10:15:05Z</time>
      </trkpt>
      <trkpt lat="45.55356" lon="6.46755">
        <ele>464.573</ele>
        <time>2013-08-03T10:15:13Z</time>
      </trkpt>
      <trkpt lat="45.55437" lon="6.46713">
        <ele>464.364</ele>
        <time>2013-08-03T10:15:24Z</time>
      </trkpt>
      <trkpt lat="45.55484" lon="6.46692">
        <ele>465.021</ele>
        <time>2013-08-03T10:15:31Z</time>
      </trkpt>
      <trkpt lat="45.55535" lon="6.4667">
        <ele>463.488</ele>
        <time>2013-08-03T10:15:38Z</time>
      </trkpt>
      <trkpt lat="45.55593" lon="6.46645">
        <ele>460.754</ele>
        <time>2013-08-03T10:15:45Z</time>
      </trkpt>
      <trkpt lat="45.55657" lon="6.46614">
        <ele>458.651</ele>
        <time>2013-08-03T10:15:52Z</time>
      </trkpt>
      <trkpt lat="45.55729" lon="6.46578">
        <ele>457.572</ele>
        <time>2013-08-03T10:16:00Z</time>
      </trkpt>
      <trkpt lat="45.55804" lon="6.4653">
        <ele>457.126</ele>
        <time>2013-08-03T10:16:09Z</time>
      </trkpt>
      <trkpt lat="45.55864" lon="6.46498">
        <ele>455.984</ele>
        <time>2013-08-03T10:16:16Z</time>
      </trkpt>
      <trkpt lat="45.55889" lon="6.46483">
        <ele>455.609</ele>
        <time>2013-08-03T10:16:19Z</time>
      </trkpt>
      <trkpt lat="45.55945" lon="6.46485">
        <ele>455.382</ele>
        <time>2013-08-03T10:16:25Z</time>
      </trkpt>
      <trkpt lat="45.5598" lon="6.46494">
        <ele>454.818</ele>
        <time>2013-08-03T10:16:29Z</time>
      </trkpt>
      <trkpt lat="45.56039" lon="6.46504">
        <ele>455.35</ele>
        <time>2013-08-03T10:16:36Z</time>
      </trkpt>
      <trkpt lat="45.56074" lon="6.46514">
        <ele>455.247</ele>
        <time>2013-08-03T10:16:40Z</time>
      </trkpt>
      <trkpt lat="45.561" lon="6.46521">
        <ele>455.003</ele>
        <time>2013-08-03T10:16:43Z</time>
      </trkpt>
      <trkpt lat="45.56128" lon="6.46519">
        <ele>454.596</ele>
        <time>2013-08-03T10:16:47Z</time>
      </trkpt>
      <trkpt lat="45.56135" lon="6.46509">
        <ele>454.653</ele>
        <time>2013-08-03T10:16:48Z</time>
      </trkpt>
      <trkpt lat="45.56201" lon="6.46434">
        <ele>454.039</ele>
        <time>2013-08-03T10:16:57Z</time>
      </trkpt>
      <trkpt lat="45.56263" lon="6.46366">
        <ele>454.135</ele>
        <time>2013-08-03T10:17:06Z</time>
      </trkpt>
      <trkpt lat="45.56324" lon="6.46357">
        <ele>452.918</ele>
        <time>2013-08-03T10:17:16Z</time>
      </trkpt>
      <trkpt lat="45.56395" lon="6.46367">
        <ele>452.103</ele>
        <time>2013-08-03T10:17:21Z</time>
      </trkpt>
      <trkpt lat="45.56518" lon="6.46346">
        <ele>450.777</ele>
        <time>2013-08-03T10:17:35Z</time>
      </trkpt>
      <trkpt lat="45.56575" lon="6.46371">
        <ele>449.683</ele>
        <time>2013-08-03T10:17:41Z</time>
      </trkpt>
      <trkpt lat="45.56634" lon="6.464">
        <ele>449.544</ele>
        <time>2013-08-03T10:17:48Z</time>
      </trkpt>
      <trkpt lat="45.56684" lon="6.46403">
        <ele>448.113</ele>
        <time>2013-08-03T10:17:53Z</time>
      </trkpt>
      <trkpt lat="45.56754" lon="6.46387">
        <ele>448.232</ele>
        <time>2013-08-03T10:18:01Z</time>
      </trkpt>
      <trkpt lat="45.56799" lon="6.46385">
        <ele>447.671</ele>
        <time>2013-08-03T10:18:07Z</time>
      </trkpt>
      <trkpt lat="45.56807" lon="6.46385">
        <ele>447.537</ele>
        <time>2013-08-03T10:18:08Z</time>
      </trkpt>
      <trkpt lat="45.56874" lon="6.4641">
        <ele>448.032</ele>
        <time>2013-08-03T10:18:16Z</time>
      </trkpt>
      <trkpt lat="45.56904" lon="6.46427">
        <ele>447.914</ele>
        <time>2013-08-03T10:18:20Z</time>
      </trkpt>
      <trkpt lat="45.56926" lon="6.46415">
        <ele>448.33</ele>
        <time>2013-08-03T10:18:24Z</time>
      </trkpt>
      <trkpt lat="45.56934" lon="6.46408">
        <ele>448.505</ele>
        <time>2013-08-03T10:18:25Z</time>
      </trkpt>
      <trkpt lat="45.56986" lon="6.46371">
        <ele>447.246</ele>
        <time>2013-08-03T10:18:31Z</time>
      </trkpt>
      <trkpt lat="45.57004" lon="6.46363">
        <ele>446.363</ele>
        <time>2013-08-03T10:18:33Z</time>
      </trkpt>
      <trkpt lat="45.57041" lon="6.46349">
        <ele>445.824</ele>
        <time>2013-08-03T10:18:37Z</time>
      </trkpt>
      <trkpt lat="45.57075" lon="6.46327">
        <ele>446.194</ele>
        <time>2013-08-03T10:18:42Z</time>
      </trkpt>
      <trkpt lat="45.57113" lon="6.46302">
        <ele>445.088</ele>
        <time>2013-08-03T10:18:47Z</time>
      </trkpt>
      <trkpt lat="45.57149" lon="6.46273">
        <ele>444.669</ele>
        <time>2013-08-03T10:18:51Z</time>
      </trkpt>
      <trkpt lat="45.57178" lon="6.46247">
        <ele>444.189</ele>
        <time>2013-08-03T10:18:54Z</time>
      </trkpt>
      <trkpt lat="45.57208" lon="6.46234">
        <ele>444.089</ele>
        <time>2013-08-03T10:18:57Z</time>
      </trkpt>
      <trkpt lat="45.57252" lon="6.46212">
        <ele>443.562</ele>
        <time>2013-08-03T10:19:02Z</time>
      </trkpt>
      <trkpt lat="45.57301" lon="6.46172">
        <ele>442.813</ele>
        <time>2013-08-03T10:19:08Z</time>
      </trkpt>
      <trkpt lat="45.57332" lon="6.46152">
        <ele>442.623</ele>
        <time>2013-08-03T10:19:12Z</time>
      </trkpt>
      <trkpt lat="45.57347" lon="6.46123">
        <ele>443.437</ele>
        <time>2013-08-03T10:19:16Z</time>
      </trkpt>
      <trkpt lat="45.57372" lon="6.4609">
        <ele>442.976</ele>
        <time>2013-08-03T10:19:19Z</time>
      </trkpt>
      <trkpt lat="45.57427" lon="6.46053">
        <ele>441.341</ele>
        <time>2013-08-03T10:19:25Z</time>
      </trkpt>
      <trkpt lat="45.57464" lon="6.46028">
        <ele>440.53</ele>
        <time>2013-08-03T10:19:29Z</time>
      </trkpt>
      <trkpt lat="45.57515" lon="6.45994">
        <ele>440.715</ele>
        <time>2013-08-03T10:19:35Z</time>
      </trkpt>
      <trkpt lat="45.57552" lon="6.4597">
        <ele>441.145</ele>
        <time>2013-08-03T10:19:40Z</time>
      </trkpt>
      <trkpt lat="45.57596" lon="6.45939">
        <ele>441.138</ele>
        <time>2013-08-03T10:19:46Z</time>
      </trkpt>
      <trkpt lat="45.57636" lon="6.45899">
        <ele>441.104</ele>
        <time>2013-08-03T10:19:52Z</time>
      </trkpt>
      <trkpt lat="45.57672" lon="6.45862">
        <ele>440.513</ele>
        <time>2013-08-03T10:19:57Z</time>
      </trkpt>
      <trkpt lat="45.57723" lon="6.45808">
        <ele>439.343</ele>
        <time>2013-08-03T10:20:04Z</time>
      </trkpt>
      <trkpt lat="45.57762" lon="6.4576">
        <ele>438.47</ele>
        <time>2013-08-03T10:20:10Z</time>
      </trkpt>
      <trkpt lat="45.57817" lon="6.45676">
        <ele>436.967</ele>
        <time>2013-08-03T10:20:19Z</time>
      </trkpt>
      <trkpt lat="45.57875" lon="6.45576">
        <ele>436.165</ele>
        <time>2013-08-03T10:20:29Z</time>
      </trkpt>
      <trkpt lat="45.57919" lon="6.45523">
        <ele>434.789</ele>
        <time>2013-08-03T10:20:35Z</time>
      </trkpt>
      <trkpt lat="45.57963" lon="6.45479">
        <ele>434.034</ele>
        <time>2013-08-03T10:20:41Z</time>
      </trkpt>
      <trkpt lat="45.58027" lon="6.45433">
        <ele>433.493</ele>
        <time>2013-08-03T10:20:49Z</time>
      </trkpt>
      <trkpt lat="45.58077" lon="6.45406">
        <ele>432.895</ele>
        <time>2013-08-03T10:20:55Z</time>
      </trkpt>
      <trkpt lat="45.58111" lon="6.45392">
        <ele>432.6</ele>
        <time>2013-08-03T10:20:59Z</time>
      </trkpt>
      <trkpt lat="45.58135" lon="6.45364">
        <ele>432.358</ele>
        <time>2013-08-03T10:21:03Z</time>
      </trkpt>
      <trkpt lat="45.58142" lon="6.45336">
        <ele>432.51</ele>
        <time>2013-08-03T10:21:06Z</time>
      </trkpt>
      <trkpt lat="45.58156" lon="6.45271">
        <ele>433.03</ele>
        <time>2013-08-03T10:21:11Z</time>
      </trkpt>
      <trkpt lat="45.58167" lon="6.45245">
        <ele>432.241</ele>
        <time>2013-08-03T10:21:13Z</time>
      </trkpt>
      <trkpt lat="45.58206" lon="6.45204">
        <ele>431.661</ele>
        <time>2013-08-03T10:21:18Z</time>
      </trkpt>
      <trkpt lat="45.58223" lon="6.45198">
        <ele>431.577</ele>
        <time>2013-08-03T10:21:20Z</time>
      </trkpt>
      <trkpt lat="45.58273" lon="6.45189">
        <ele>431.87</ele>
        <time>2013-08-03T10:21:26Z</time>
      </trkpt>
      <trkpt lat="45.58303" lon="6.45158">
        <ele>432.149</ele>
        <time>2013-08-03T10:21:31Z</time>
      </trkpt>
      <trkpt lat="45.58313" lon="6.45142">
        <ele>432.446</ele>
        <time>2013-08-03T10:21:33Z</time>
      </trkpt>
      <trkpt lat="45.58322" lon="6.45124">
        <ele>432.551</ele>
        <time>2013-08-03T10:21:35Z</time>
      </trkpt>
      <trkpt lat="45.58355" lon="6.45077">
        <ele>432.835</ele>
        <time>2013-08-03T10:21:41Z</time>
      </trkpt>
      <trkpt lat="45.584" lon="6.45033">
        <ele>431.953</ele>
        <time>2013-08-03T10:21:47Z</time>
      </trkpt>
      <trkpt lat="45.58423" lon="6.45008">
        <ele>431.421</ele>
        <time>2013-08-03T10:21:50Z</time>
      </trkpt>
      <trkpt lat="45.5846" lon="6.44948">
        <ele>430.411</ele>
        <time>2013-08-03T10:21:56Z</time>
      </trkpt>
      <trkpt lat="45.5851" lon="6.44866">
        <ele>430.18</ele>
        <time>2013-08-03T10:22:04Z</time>
      </trkpt>
      <trkpt lat="45.58564" lon="6.44794">
        <ele>428.619</ele>
        <time>2013-08-03T10:22:12Z</time>
      </trkpt>
      <trkpt lat="45.5861" lon="6.4472">
        <ele>428.57</ele>
        <time>2013-08-03T10:22:20Z</time>
      </trkpt>
      <trkpt lat="45.58642" lon="6.44669">
        <ele>428.629</ele>
        <time>2013-08-03T10:22:26Z</time>
      </trkpt>
      <trkpt lat="45.58673" lon="6.44626">
        <ele>429.462</ele>
        <time>2013-08-03T10:22:31Z</time>
      </trkpt>
      <trkpt lat="45.58694" lon="6.44606">
        <ele>429.346</ele>
        <time>2013-08-03T10:22:34Z</time>
      </trkpt>
      <trkpt lat="45.58743" lon="6.44595">
        <ele>428.812</ele>
        <time>2013-08-03T10:22:40Z</time>
      </trkpt>
      <trkpt lat="45.58796" lon="6.44587">
        <ele>429.558</ele>
        <time>2013-08-03T10:22:47Z</time>
      </trkpt>
      <trkpt lat="45.58839" lon="6.44583">
        <ele>430.066</ele>
        <time>2013-08-03T10:22:53Z</time>
      </trkpt>
      <trkpt lat="45.58879" lon="6.44586">
        <ele>430.89</ele>
        <time>2013-08-03T10:22:59Z</time>
      </trkpt>
      <trkpt lat="45.58918" lon="6.44593">
        <ele>431.899</ele>
        <time>2013-08-03T10:23:05Z</time>
      </trkpt>
      <trkpt lat="45.58961" lon="6.44599">
        <ele>432.979</ele>
        <time>2013-08-03T10:23:11Z</time>
      </trkpt>
      <trkpt lat="45.59017" lon="6.4461">
        <ele>433.463</ele>
        <time>2013-08-03T10:23:19Z</time>
      </trkpt>
      <trkpt lat="45.59059" lon="6.44619">
        <ele>432.856</ele>
        <time>2013-08-03T10:23:25Z</time>
      </trkpt>
      <trkpt lat="45.59114" lon="6.44628">
        <ele>431.057</ele>
        <time>2013-08-03T10:23:32Z</time>
      </trkpt>
      <trkpt lat="45.59184" lon="6.44638">
        <ele>428.974</ele>
        <time>2013-08-03T10:23:40Z</time>
      </trkpt>
      <trkpt lat="45.59244" lon="6.44644">
        <ele>426.926</ele>
        <time>2013-08-03T10:23:46Z</time>
      </trkpt>
      <trkpt lat="45.59293" lon="6.44629">
        <ele>425.553</ele>
        <time>2013-08-03T10:23:51Z</time>
      </trkpt>
      <trkpt lat="45.59343" lon="6.44609">
        <ele>424.108</ele>
        <time>2013-08-03T10:23:56Z</time>
      </trkpt>
      <trkpt lat="45.59376" lon="6.44606">
        <ele>422.892</ele>
        <time>2013-08-03T10:23:59Z</time>
      </trkpt>
      <trkpt lat="45.59401" lon="6.44606">
        <ele>422.213</ele>
        <time>2013-08-03T10:24:03Z</time>
      </trkpt>
      <trkpt lat="45.59401" lon="6.44606">
        <ele>421.795</ele>
        <time>2013-08-03T10:24:05Z</time>
      </trkpt>
      <trkpt lat="45.59444" lon="6.44663">
        <ele>421.355</ele>
        <time>2013-08-03T10:24:10Z</time>
      </trkpt>
      <trkpt lat="45.59457" lon="6.4469">
        <ele>421.631</ele>
        <time>2013-08-03T10:24:13Z</time>
      </trkpt>
      <trkpt lat="45.59452" lon="6.44707">
        <ele>421.791</ele>
        <time>2013-08-03T10:24:15Z</time>
      </trkpt>
      <trkpt lat="45.59446" lon="6.4471">
        <ele>421.992</ele>
        <time>2013-08-03T10:24:16Z</time>
      </trkpt>
      <trkpt lat="45.59419" lon="6.44723">
        <ele>423.447</ele>
        <time>2013-08-03T10:24:21Z</time>
      </trkpt>
      <trkpt lat="45.59419" lon="6.44747">
        <ele>423.97</ele>
        <time>2013-08-03T10:24:24Z</time>
      </trkpt>
      <trkpt lat="45.5942" lon="6.44755">
        <ele>424.185</ele>
        <time>2013-08-03T10:24:25Z</time>
      </trkpt>
      <trkpt lat="45.59427" lon="6.44787">
        <ele>423.882</ele>
        <time>2013-08-03T10:24:29Z</time>
      </trkpt>
      <trkpt lat="45.59427" lon="6.44788">
        <ele>423.13</ele>
        <time>2013-08-03T10:24:33Z</time>
      </trkpt>
      <trkpt lat="45.59446" lon="6.44816">
        <ele>423.137</ele>
        <time>2013-08-03T10:24:34Z</time>
      </trkpt>
      <trkpt lat="45.59469" lon="6.44819">
        <ele>422.493</ele>
        <time>2013-08-03T10:24:40Z</time>
      </trkpt>
      <trkpt lat="45.59508" lon="6.44806">
        <ele>421.171</ele>
        <time>2013-08-03T10:24:45Z</time>
      </trkpt>
      <trkpt lat="45.59557" lon="6.4479">
        <ele>419.999</ele>
        <time>2013-08-03T10:24:51Z</time>
      </trkpt>
      <trkpt lat="45.5958" lon="6.44777">
        <ele>419.795</ele>
        <time>2013-08-03T10:24:54Z</time>
      </trkpt>
      <trkpt lat="45.59615" lon="6.44774">
        <ele>419.128</ele>
        <time>2013-08-03T10:24:58Z</time>
      </trkpt>
      <trkpt lat="45.59694" lon="6.44796">
        <ele>419.369</ele>
        <time>2013-08-03T10:25:08Z</time>
      </trkpt>
      <trkpt lat="45.5975" lon="6.44813">
        <ele>419.135</ele>
        <time>2013-08-03T10:25:15Z</time>
      </trkpt>
      <trkpt lat="45.59807" lon="6.44834">
        <ele>417.925</ele>
        <time>2013-08-03T10:25:22Z</time>
      </trkpt>
      <trkpt lat="45.59863" lon="6.4485">
        <ele>415.485</ele>
        <time>2013-08-03T10:25:28Z</time>
      </trkpt>
      <trkpt lat="45.59873" lon="6.44853">
        <ele>415.225</ele>
        <time>2013-08-03T10:25:29Z</time>
      </trkpt>
      <trkpt lat="45.5995" lon="6.44875">
        <ele>413.829</ele>
        <time>2013-08-03T10:25:37Z</time>
      </trkpt>
      <trkpt lat="45.59969" lon="6.44882">
        <ele>413.456</ele>
        <time>2013-08-03T10:25:39Z</time>
      </trkpt>
      <trkpt lat="45.6001" lon="6.44916">
        <ele>413.517</ele>
        <time>2013-08-03T10:25:44Z</time>
      </trkpt>
      <trkpt lat="45.60018" lon="6.44922">
        <ele>413.6</ele>
        <time>2013-08-03T10:25:45Z</time>
      </trkpt>
      <trkpt lat="45.60064" lon="6.44939">
        <ele>414.281</ele>
        <time>2013-08-03T10:25:50Z</time>
      </trkpt>
      <trkpt lat="45.60073" lon="6.4494">
        <ele>414.255</ele>
        <time>2013-08-03T10:25:51Z</time>
      </trkpt>
      <trkpt lat="45.6011" lon="6.44932">
        <ele>414.029</ele>
        <time>2013-08-03T10:25:55Z</time>
      </trkpt>
      <trkpt lat="45.6014" lon="6.44934">
        <ele>412.947</ele>
        <time>2013-08-03T10:25:58Z</time>
      </trkpt>
      <trkpt lat="45.60208" lon="6.44954">
        <ele>411.401</ele>
        <time>2013-08-03T10:26:05Z</time>
      </trkpt>
      <trkpt lat="45.60281" lon="6.44977">
        <ele>411.128</ele>
        <time>2013-08-03T10:26:13Z</time>
      </trkpt>
      <trkpt lat="45.6036" lon="6.45002">
        <ele>411.142</ele>
        <time>2013-08-03T10:26:22Z</time>
      </trkpt>
      <trkpt lat="45.60419" lon="6.4502">
        <ele>411.021</ele>
        <time>2013-08-03T10:26:29Z</time>
      </trkpt>
      <trkpt lat="45.60486" lon="6.45039">
        <ele>410.884</ele>
        <time>2013-08-03T10:26:37Z</time>
      </trkpt>
      <trkpt lat="45.60552" lon="6.45059">
        <ele>410.258</ele>
        <time>2013-08-03T10:26:45Z</time>
      </trkpt>
      <trkpt lat="45.60616" lon="6.45081">
        <ele>409.164</ele>
        <time>2013-08-03T10:26:53Z</time>
      </trkpt>
      <trkpt lat="45.6068" lon="6.451">
        <ele>408.335</ele>
        <time>2013-08-03T10:27:01Z</time>
      </trkpt>
      <trkpt lat="45.60759" lon="6.45125">
        <ele>407.963</ele>
        <time>2013-08-03T10:27:11Z</time>
      </trkpt>
      <trkpt lat="45.60808" lon="6.45146">
        <ele>409.634</ele>
        <time>2013-08-03T10:27:18Z</time>
      </trkpt>
      <trkpt lat="45.60848" lon="6.45164">
        <ele>411.843</ele>
        <time>2013-08-03T10:27:25Z</time>
      </trkpt>
      <trkpt lat="45.60891" lon="6.45176">
        <ele>412.669</ele>
        <time>2013-08-03T10:27:32Z</time>
      </trkpt>
      <trkpt lat="45.60901" lon="6.45176">
        <ele>414.112</ele>
        <time>2013-08-03T10:27:38Z</time>
      </trkpt>
      <trkpt lat="45.60956" lon="6.4517">
        <ele>412.944</ele>
        <time>2013-08-03T10:27:42Z</time>
      </trkpt>
      <trkpt lat="45.6099" lon="6.45172">
        <ele>411.7</ele>
        <time>2013-08-03T10:27:46Z</time>
      </trkpt>
      <trkpt lat="45.61046" lon="6.45189">
        <ele>409.097</ele>
        <time>2013-08-03T10:27:52Z</time>
      </trkpt>
      <trkpt lat="45.61098" lon="6.45205">
        <ele>406.732</ele>
        <time>2013-08-03T10:27:57Z</time>
      </trkpt>
      <trkpt lat="45.61178" lon="6.45229">
        <ele>405.89</ele>
        <time>2013-08-03T10:28:05Z</time>
      </trkpt>
      <trkpt lat="45.61261" lon="6.45254">
        <ele>405.899</ele>
        <time>2013-08-03T10:28:14Z</time>
      </trkpt>
      <trkpt lat="45.61312" lon="6.45274">
        <ele>405.692</ele>
        <time>2013-08-03T10:28:20Z</time>
      </trkpt>
      <trkpt lat="45.61357" lon="6.45298">
        <ele>406.206</ele>
        <time>2013-08-03T10:28:26Z</time>
      </trkpt>
      <trkpt lat="45.61386" lon="6.45305">
        <ele>406.651</ele>
        <time>2013-08-03T10:28:30Z</time>
      </trkpt>
      <trkpt lat="45.61437" lon="6.45296">
        <ele>407.416</ele>
        <time>2013-08-03T10:28:37Z</time>
      </trkpt>
      <trkpt lat="45.61483" lon="6.45288">
        <ele>408.696</ele>
        <time>2013-08-03T10:28:44Z</time>
      </trkpt>
      <trkpt lat="45.61523" lon="6.45278">
        <ele>409.966</ele>
        <time>2013-08-03T10:28:51Z</time>
      </trkpt>
      <trkpt lat="45.61527" lon="6.45275">
        <ele>410.117</ele>
        <time>2013-08-03T10:28:52Z</time>
      </trkpt>
      <trkpt lat="45.61548" lon="6.45257">
        <ele>411.325</ele>
        <time>2013-08-03T10:28:57Z</time>
      </trkpt>
      <trkpt lat="45.61576" lon="6.45228">
        <ele>412.278</ele>
        <time>2013-08-03T10:29:04Z</time>
      </trkpt>
      <trkpt lat="45.61606" lon="6.4521">
        <ele>413.432</ele>
        <time>2013-08-03T10:29:10Z</time>
      </trkpt>
      <trkpt lat="45.61641" lon="6.4519">
        <ele>415.452</ele>
        <time>2013-08-03T10:29:17Z</time>
      </trkpt>
      <trkpt lat="45.61677" lon="6.45171">
        <ele>416.439</ele>
        <time>2013-08-03T10:29:24Z</time>
      </trkpt>
      <trkpt lat="45.61717" lon="6.45152">
        <ele>416.646</ele>
        <time>2013-08-03T10:29:31Z</time>
      </trkpt>
      <trkpt lat="45.61758" lon="6.45129">
        <ele>417.149</ele>
        <time>2013-08-03T10:29:38Z</time>
      </trkpt>
      <trkpt lat="45.61802" lon="6.4511">
        <ele>416.561</ele>
        <time>2013-08-03T10:29:45Z</time>
      </trkpt>
      <trkpt lat="45.61847" lon="6.45091">
        <ele>415.485</ele>
        <time>2013-08-03T10:29:51Z</time>
      </trkpt>
      <trkpt lat="45.619" lon="6.4507">
        <ele>412.539</ele>
        <time>2013-08-03T10:29:57Z</time>
      </trkpt>
      <trkpt lat="45.61989" lon="6.45032">
        <ele>408.404</ele>
        <time>2013-08-03T10:30:06Z</time>
      </trkpt>
      <trkpt lat="45.62053" lon="6.45004">
        <ele>405.698</ele>
        <time>2013-08-03T10:30:12Z</time>
      </trkpt>
      <trkpt lat="45.62083" lon="6.4499">
        <ele>404.166</ele>
        <time>2013-08-03T10:30:15Z</time>
      </trkpt>
      <trkpt lat="45.62094" lon="6.44988">
        <ele>403.4</ele>
        <time>2013-08-03T10:30:17Z</time>
      </trkpt>
      <trkpt lat="45.62129" lon="6.44972">
        <ele>402.376</ele>
        <time>2013-08-03T10:30:21Z</time>
      </trkpt>
      <trkpt lat="45.62138" lon="6.44969">
        <ele>402.169</ele>
        <time>2013-08-03T10:30:22Z</time>
      </trkpt>
      <trkpt lat="45.62216" lon="6.4495">
        <ele>400.065</ele>
        <time>2013-08-03T10:30:30Z</time>
      </trkpt>
      <trkpt lat="45.62286" lon="6.44931">
        <ele>399.17</ele>
        <time>2013-08-03T10:30:37Z</time>
      </trkpt>
      <trkpt lat="45.62316" lon="6.44923">
        <ele>398.503</ele>
        <time>2013-08-03T10:30:40Z</time>
      </trkpt>
      <trkpt lat="45.62332" lon="6.44919">
        <ele>397.468</ele>
        <time>2013-08-03T10:30:44Z</time>
      </trkpt>
      <trkpt lat="45.62374" lon="6.44905">
        <ele>397.377</ele>
        <time>2013-08-03T10:30:47Z</time>
      </trkpt>
      <trkpt lat="45.62454" lon="6.44897">
        <ele>395.996</ele>
        <time>2013-08-03T10:30:55Z</time>
      </trkpt>
      <trkpt lat="45.62522" lon="6.4488">
        <ele>395.389</ele>
        <time>2013-08-03T10:31:02Z</time>
      </trkpt>
      <trkpt lat="45.62588" lon="6.44866">
        <ele>395.164</ele>
        <time>2013-08-03T10:31:09Z</time>
      </trkpt>
      <trkpt lat="45.62629" lon="6.44855">
        <ele>393.491</ele>
        <time>2013-08-03T10:31:14Z</time>
      </trkpt>
      <trkpt lat="45.6267" lon="6.44844">
        <ele>392.778</ele>
        <time>2013-08-03T10:31:19Z</time>
      </trkpt>
      <trkpt lat="45.62721" lon="6.44826">
        <ele>392.322</ele>
        <time>2013-08-03T10:31:25Z</time>
      </trkpt>
      <trkpt lat="45.628" lon="6.44798">
        <ele>391.624</ele>
        <time>2013-08-03T10:31:34Z</time>
      </trkpt>
      <trkpt lat="45.6285" lon="6.44774">
        <ele>391.501</ele>
        <time>2013-08-03T10:31:40Z</time>
      </trkpt>
      <trkpt lat="45.62908" lon="6.44746">
        <ele>390.927</ele>
        <time>2013-08-03T10:31:47Z</time>
      </trkpt>
      <trkpt lat="45.6295" lon="6.44739">
        <ele>389.973</ele>
        <time>2013-08-03T10:31:52Z</time>
      </trkpt>
      <trkpt lat="45.62967" lon="6.44736">
        <ele>389.981</ele>
        <time>2013-08-03T10:31:55Z</time>
      </trkpt>
      <trkpt lat="45.62956" lon="6.44713">
        <ele>390.204</ele>
        <time>2013-08-03T10:31:58Z</time>
      </trkpt>
      <trkpt lat="45.62942" lon="6.44645">
        <ele>390.361</ele>
        <time>2013-08-03T10:32:04Z</time>
      </trkpt>
      <trkpt lat="45.6293" lon="6.44582">
        <ele>390.811</ele>
        <time>2013-08-03T10:32:09Z</time>
      </trkpt>
      <trkpt lat="45.62919" lon="6.44522">
        <ele>391.136</ele>
        <time>2013-08-03T10:32:14Z</time>
      </trkpt>
      <trkpt lat="45.62917" lon="6.4451">
        <ele>391.033</ele>
        <time>2013-08-03T10:32:15Z</time>
      </trkpt>
      <trkpt lat="45.62911" lon="6.44478">
        <ele>391.2</ele>
        <time>2013-08-03T10:32:18Z</time>
      </trkpt>
      <trkpt lat="45.62944" lon="6.44474">
        <ele>391.614</ele>
        <time>2013-08-03T10:32:21Z</time>
      </trkpt>
      <trkpt lat="45.62957" lon="6.4447">
        <ele>391.819</ele>
        <time>2013-08-03T10:32:24Z</time>
      </trkpt>
      <trkpt lat="45.62956" lon="6.44445">
        <ele>391.844</ele>
        <time>2013-08-03T10:32:28Z</time>
      </trkpt>
      <trkpt lat="45.62944" lon="6.44452">
        <ele>391.356</ele>
        <time>2013-08-03T10:32:32Z</time>
      </trkpt>
      <trkpt lat="45.62921" lon="6.44465">
        <ele>390.275</ele>
        <time>2013-08-03T10:32:37Z</time>
      </trkpt>
      <trkpt lat="45.62918" lon="6.44466">
        <ele>390.178</ele>
        <time>2013-08-03T10:32:38Z</time>
      </trkpt>
      <trkpt lat="45.62902" lon="6.44438">
        <ele>390.137</ele>
        <time>2013-08-03T10:32:40Z</time>
      </trkpt>
      <trkpt lat="45.62896" lon="6.44407">
        <ele>390.085</ele>
        <time>2013-08-03T10:32:43Z</time>
      </trkpt>
      <trkpt lat="45.62912" lon="6.44353">
        <ele>390.274</ele>
        <time>2013-08-03T10:32:48Z</time>
      </trkpt>
      <trkpt lat="45.62933" lon="6.44345">
        <ele>390.128</ele>
        <time>2013-08-03T10:32:51Z</time>
      </trkpt>
      <trkpt lat="45.6294" lon="6.44345">
        <ele>390.217</ele>
        <time>2013-08-03T10:32:52Z</time>
      </trkpt>
      <trkpt lat="45.6298" lon="6.44349">
        <ele>390.378</ele>
        <time>2013-08-03T10:32:58Z</time>
      </trkpt>
      <trkpt lat="45.63031" lon="6.44336">
        <ele>389.041</ele>
        <time>2013-08-03T10:33:05Z</time>
      </trkpt>
      <trkpt lat="45.63082" lon="6.44321">
        <ele>388.167</ele>
        <time>2013-08-03T10:33:12Z</time>
      </trkpt>
      <trkpt lat="45.63157" lon="6.443">
        <ele>387.776</ele>
        <time>2013-08-03T10:33:22Z</time>
      </trkpt>
      <trkpt lat="45.63218" lon="6.4428">
        <ele>387.354</ele>
        <time>2013-08-03T10:33:30Z</time>
      </trkpt>
      <trkpt lat="45.6329" lon="6.44252">
        <ele>386.707</ele>
        <time>2013-08-03T10:33:39Z</time>
      </trkpt>
      <trkpt lat="45.63365" lon="6.44224">
        <ele>386.597</ele>
        <time>2013-08-03T10:33:48Z</time>
      </trkpt>
      <trkpt lat="45.63452" lon="6.44189">
        <ele>386.143</ele>
        <time>2013-08-03T10:33:58Z</time>
      </trkpt>
      <trkpt lat="45.63503" lon="6.44171">
        <ele>385.175</ele>
        <time>2013-08-03T10:34:04Z</time>
      </trkpt>
      <trkpt lat="45.63578" lon="6.44144">
        <ele>384.686</ele>
        <time>2013-08-03T10:34:13Z</time>
      </trkpt>
      <trkpt lat="45.63635" lon="6.44122">
        <ele>384.425</ele>
        <time>2013-08-03T10:34:20Z</time>
      </trkpt>
      <trkpt lat="45.63703" lon="6.441">
        <ele>383.569</ele>
        <time>2013-08-03T10:34:29Z</time>
      </trkpt>
      <trkpt lat="45.63762" lon="6.44079">
        <ele>384.085</ele>
        <time>2013-08-03T10:34:37Z</time>
      </trkpt>
      <trkpt lat="45.63825" lon="6.44057">
        <ele>383.874</ele>
        <time>2013-08-03T10:34:45Z</time>
      </trkpt>
      <trkpt lat="45.6388" lon="6.4404">
        <ele>382.569</ele>
        <time>2013-08-03T10:34:52Z</time>
      </trkpt>
      <trkpt lat="45.63927" lon="6.44024">
        <ele>381.465</ele>
        <time>2013-08-03T10:34:58Z</time>
      </trkpt>
      <trkpt lat="45.63996" lon="6.44001">
        <ele>380.933</ele>
        <time>2013-08-03T10:35:07Z</time>
      </trkpt>
      <trkpt lat="45.6404" lon="6.43983">
        <ele>380.205</ele>
        <time>2013-08-03T10:35:13Z</time>
      </trkpt>
      <trkpt lat="45.64124" lon="6.43955">
        <ele>379.218</ele>
        <time>2013-08-03T10:35:24Z</time>
      </trkpt>
      <trkpt lat="45.64197" lon="6.43929">
        <ele>378.702</ele>
        <time>2013-08-03T10:35:34Z</time>
      </trkpt>
      <trkpt lat="45.64255" lon="6.43907">
        <ele>378.093</ele>
        <time>2013-08-03T10:35:42Z</time>
      </trkpt>
      <trkpt lat="45.64306" lon="6.43888">
        <ele>377.819</ele>
        <time>2013-08-03T10:35:49Z</time>
      </trkpt>
      <trkpt lat="45.64368" lon="6.43862">
        <ele>376.728</ele>
        <time>2013-08-03T10:35:58Z</time>
      </trkpt>
      <trkpt lat="45.64375" lon="6.43858">
        <ele>376.573</ele>
        <time>2013-08-03T10:35:59Z</time>
      </trkpt>
      <trkpt lat="45.64401" lon="6.43831">
        <ele>376.798</ele>
        <time>2013-08-03T10:36:04Z</time>
      </trkpt>
      <trkpt lat="45.64407" lon="6.43808">
        <ele>377.202</ele>
        <time>2013-08-03T10:36:07Z</time>
      </trkpt>
      <trkpt lat="45.64407" lon="6.43798">
        <ele>377.329</ele>
        <time>2013-08-03T10:36:08Z</time>
      </trkpt>
      <trkpt lat="45.64399" lon="6.43723">
        <ele>377.664</ele>
        <time>2013-08-03T10:36:15Z</time>
      </trkpt>
      <trkpt lat="45.64397" lon="6.43702">
        <ele>378.03</ele>
        <time>2013-08-03T10:36:17Z</time>
      </trkpt>
      <trkpt lat="45.64395" lon="6.43671">
        <ele>377.897</ele>
        <time>2013-08-03T10:36:20Z</time>
      </trkpt>
      <trkpt lat="45.6442" lon="6.43656">
        <ele>377.679</ele>
        <time>2013-08-03T10:36:23Z</time>
      </trkpt>
      <trkpt lat="45.64476" lon="6.43658">
        <ele>377.64</ele>
        <time>2013-08-03T10:36:30Z</time>
      </trkpt>
      <trkpt lat="45.64524" lon="6.43664">
        <ele>376.834</ele>
        <time>2013-08-03T10:36:36Z</time>
      </trkpt>
      <trkpt lat="45.64589" lon="6.43682">
        <ele>375.08</ele>
        <time>2013-08-03T10:36:44Z</time>
      </trkpt>
      <trkpt lat="45.64644" lon="6.43699">
        <ele>375.065</ele>
        <time>2013-08-03T10:36:51Z</time>
      </trkpt>
      <trkpt lat="45.6466" lon="6.43705">
        <ele>375.034</ele>
        <time>2013-08-03T10:36:53Z</time>
      </trkpt>
      <trkpt lat="45.64713" lon="6.43733">
        <ele>374.611</ele>
        <time>2013-08-03T10:37:00Z</time>
      </trkpt>
      <trkpt lat="45.64721" lon="6.43736">
        <ele>374.589</ele>
        <time>2013-08-03T10:37:01Z</time>
      </trkpt>
      <trkpt lat="45.64753" lon="6.43739">
        <ele>374.827</ele>
        <time>2013-08-03T10:37:05Z</time>
      </trkpt>
      <trkpt lat="45.64815" lon="6.43718">
        <ele>374.278</ele>
        <time>2013-08-03T10:37:13Z</time>
      </trkpt>
      <trkpt lat="45.6488" lon="6.43694">
        <ele>374.39</ele>
        <time>2013-08-03T10:37:21Z</time>
      </trkpt>
      <trkpt lat="45.64946" lon="6.43668">
        <ele>374.168</ele>
        <time>2013-08-03T10:37:29Z</time>
      </trkpt>
      <trkpt lat="45.6501" lon="6.43642">
        <ele>373.806</ele>
        <time>2013-08-03T10:37:37Z</time>
      </trkpt>
      <trkpt lat="45.65063" lon="6.43617">
        <ele>373.474</ele>
        <time>2013-08-03T10:37:44Z</time>
      </trkpt>
      <trkpt lat="45.65106" lon="6.43589">
        <ele>372.924</ele>
        <time>2013-08-03T10:37:50Z</time>
      </trkpt>
      <trkpt lat="45.65126" lon="6.43576">
        <ele>372.566</ele>
        <time>2013-08-03T10:37:53Z</time>
      </trkpt>
      <trkpt lat="45.65141" lon="6.43565">
        <ele>372.19</ele>
        <time>2013-08-03T10:37:56Z</time>
      </trkpt>
      <trkpt lat="45.65141" lon="6.43565">
        <ele>371.905</ele>
        <time>2013-08-03T10:37:57Z</time>
      </trkpt>
      <trkpt lat="45.65157" lon="6.43599">
        <ele>371.548</ele>
        <time>2013-08-03T10:37:59Z</time>
      </trkpt>
      <trkpt lat="45.65173" lon="6.43631">
        <ele>371.936</ele>
        <time>2013-08-03T10:38:03Z</time>
      </trkpt>
      <trkpt lat="45.65189" lon="6.43662">
        <ele>373.284</ele>
        <time>2013-08-03T10:38:08Z</time>
      </trkpt>
      <trkpt lat="45.65206" lon="6.43696">
        <ele>374.556</ele>
        <time>2013-08-03T10:38:14Z</time>
      </trkpt>
      <trkpt lat="45.65222" lon="6.43709">
        <ele>376.038</ele>
        <time>2013-08-03T10:38:18Z</time>
      </trkpt>
      <trkpt lat="45.65229" lon="6.43705">
        <ele>376.268</ele>
        <time>2013-08-03T10:38:20Z</time>
      </trkpt>
      <trkpt lat="45.65238" lon="6.437">
        <ele>376.633</ele>
        <time>2013-08-03T10:38:22Z</time>
      </trkpt>
      <trkpt lat="45.65258" lon="6.43703">
        <ele>377.964</ele>
        <time>2013-08-03T10:38:26Z</time>
      </trkpt>
      <trkpt lat="45.65269" lon="6.43723">
        <ele>379.563</ele>
        <time>2013-08-03T10:38:30Z</time>
      </trkpt>
      <trkpt lat="45.65281" lon="6.43739">
        <ele>381.523</ele>
        <time>2013-08-03T10:38:36Z</time>
      </trkpt>
      <trkpt lat="45.65281" lon="6.43739">
        <ele>381.942</ele>
        <time>2013-08-03T10:38:40Z</time>
      </trkpt>
      <trkpt lat="45.65299" lon="6.43762">
        <ele>382.526</ele>
        <time>2013-08-03T10:38:43Z</time>
      </trkpt>
      <trkpt lat="45.65317" lon="6.4374">
        <ele>382.315</ele>
        <time>2013-08-03T10:38:47Z</time>
      </trkpt>
      <trkpt lat="45.65334" lon="6.43732">
        <ele>382.691</ele>
        <time>2013-08-03T10:38:50Z</time>
      </trkpt>
      <trkpt lat="45.65352" lon="6.43722">
        <ele>383.516</ele>
        <time>2013-08-03T10:38:54Z</time>
      </trkpt>
      <trkpt lat="45.6538" lon="6.43674">
        <ele>382.796</ele>
        <time>2013-08-03T10:39:01Z</time>
      </trkpt>
      <trkpt lat="45.65384" lon="6.43667">
        <ele>382.643</ele>
        <time>2013-08-03T10:39:02Z</time>
      </trkpt>
      <trkpt lat="45.65413" lon="6.43632">
        <ele>381.108</ele>
        <time>2013-08-03T10:39:07Z</time>
      </trkpt>
      <trkpt lat="45.65448" lon="6.43604">
        <ele>380.759</ele>
        <time>2013-08-03T10:39:12Z</time>
      </trkpt>
      <trkpt lat="45.65493" lon="6.43592">
        <ele>381.366</ele>
        <time>2013-08-03T10:39:18Z</time>
      </trkpt>
      <trkpt lat="45.65529" lon="6.43578">
        <ele>381.795</ele>
        <time>2013-08-03T10:39:23Z</time>
      </trkpt>
      <trkpt lat="45.65581" lon="6.43559">
        <ele>379.714</ele>
        <time>2013-08-03T10:39:29Z</time>
      </trkpt>
      <trkpt lat="45.65589" lon="6.43557">
        <ele>379.485</ele>
        <time>2013-08-03T10:39:30Z</time>
      </trkpt>
      <trkpt lat="45.65598" lon="6.43554">
        <ele>379.439</ele>
        <time>2013-08-03T10:39:31Z</time>
      </trkpt>
      <trkpt lat="45.6563" lon="6.43537">
        <ele>378</ele>
        <time>2013-08-03T10:39:35Z</time>
      </trkpt>
      <trkpt lat="45.6565" lon="6.43511">
        <ele>376.197</ele>
        <time>2013-08-03T10:39:38Z</time>
      </trkpt>
      <trkpt lat="45.65692" lon="6.43477">
        <ele>375.024</ele>
        <time>2013-08-03T10:39:43Z</time>
      </trkpt>
      <trkpt lat="45.65757" lon="6.4344">
        <ele>374.471</ele>
        <time>2013-08-03T10:39:50Z</time>
      </trkpt>
      <trkpt lat="45.65819" lon="6.43414">
        <ele>373.766</ele>
        <time>2013-08-03T10:39:57Z</time>
      </trkpt>
      <trkpt lat="45.65861" lon="6.43406">
        <ele>372.778</ele>
        <time>2013-08-03T10:40:02Z</time>
      </trkpt>
      <trkpt lat="45.65877" lon="6.43401">
        <ele>372.563</ele>
        <time>2013-08-03T10:40:04Z</time>
      </trkpt>
      <trkpt lat="45.65944" lon="6.43363">
        <ele>371.677</ele>
        <time>2013-08-03T10:40:12Z</time>
      </trkpt>
      <trkpt lat="45.65985" lon="6.43332">
        <ele>371.046</ele>
        <time>2013-08-03T10:40:17Z</time>
      </trkpt>
      <trkpt lat="45.6603" lon="6.43313">
        <ele>370.161</ele>
        <time>2013-08-03T10:40:22Z</time>
      </trkpt>
      <trkpt lat="45.66076" lon="6.43315">
        <ele>370.24</ele>
        <time>2013-08-03T10:40:27Z</time>
      </trkpt>
      <trkpt lat="45.66119" lon="6.43323">
        <ele>370.625</ele>
        <time>2013-08-03T10:40:32Z</time>
      </trkpt>
      <trkpt lat="45.66175" lon="6.43308">
        <ele>369.357</ele>
        <time>2013-08-03T10:40:39Z</time>
      </trkpt>
      <trkpt lat="45.66183" lon="6.43306">
        <ele>369.266</ele>
        <time>2013-08-03T10:40:40Z</time>
      </trkpt>
      <trkpt lat="45.66217" lon="6.43274">
        <ele>368.902</ele>
        <time>2013-08-03T10:40:45Z</time>
      </trkpt>
      <trkpt lat="45.66222" lon="6.43263">
        <ele>368.992</ele>
        <time>2013-08-03T10:40:46Z</time>
      </trkpt>
      <trkpt lat="45.66247" lon="6.43196">
        <ele>369.71</ele>
        <time>2013-08-03T10:40:52Z</time>
      </trkpt>
      <trkpt lat="45.66274" lon="6.43113">
        <ele>367.315</ele>
        <time>2013-08-03T10:40:59Z</time>
      </trkpt>
      <trkpt lat="45.66278" lon="6.431">
        <ele>366.784</ele>
        <time>2013-08-03T10:41:00Z</time>
      </trkpt>
      <trkpt lat="45.66303" lon="6.43056">
        <ele>365.891</ele>
        <time>2013-08-03T10:41:04Z</time>
      </trkpt>
      <trkpt lat="45.6635" lon="6.43011">
        <ele>365.146</ele>
        <time>2013-08-03T10:41:10Z</time>
      </trkpt>
      <trkpt lat="45.66391" lon="6.4298">
        <ele>365.151</ele>
        <time>2013-08-03T10:41:15Z</time>
      </trkpt>
      <trkpt lat="45.66417" lon="6.42947">
        <ele>365.441</ele>
        <time>2013-08-03T10:41:19Z</time>
      </trkpt>
      <trkpt lat="45.66438" lon="6.42894">
        <ele>364.561</ele>
        <time>2013-08-03T10:41:24Z</time>
      </trkpt>
      <trkpt lat="45.66439" lon="6.42858">
        <ele>364.661</ele>
        <time>2013-08-03T10:41:27Z</time>
      </trkpt>
      <trkpt lat="45.66437" lon="6.42845">
        <ele>364.759</ele>
        <time>2013-08-03T10:41:28Z</time>
      </trkpt>
      <trkpt lat="45.66425" lon="6.42799">
        <ele>365.45</ele>
        <time>2013-08-03T10:41:32Z</time>
      </trkpt>
      <trkpt lat="45.66422" lon="6.42752">
        <ele>366.169</ele>
        <time>2013-08-03T10:41:36Z</time>
      </trkpt>
      <trkpt lat="45.66425" lon="6.42741">
        <ele>366.464</ele>
        <time>2013-08-03T10:41:37Z</time>
      </trkpt>
      <trkpt lat="45.6645" lon="6.42681">
        <ele>367.405</ele>
        <time>2013-08-03T10:41:43Z</time>
      </trkpt>
      <trkpt lat="45.66487" lon="6.4263">
        <ele>366.882</ele>
        <time>2013-08-03T10:41:49Z</time>
      </trkpt>
      <trkpt lat="45.66507" lon="6.42606">
        <ele>365.691</ele>
        <time>2013-08-03T10:41:52Z</time>
      </trkpt>
      <trkpt lat="45.66525" lon="6.42552">
        <ele>364.593</ele>
        <time>2013-08-03T10:41:57Z</time>
      </trkpt>
      <trkpt lat="45.66525" lon="6.42518">
        <ele>364.972</ele>
        <time>2013-08-03T10:42:00Z</time>
      </trkpt>
      <trkpt lat="45.6652" lon="6.42434">
        <ele>363.945</ele>
        <time>2013-08-03T10:42:07Z</time>
      </trkpt>
      <trkpt lat="45.66509" lon="6.42295">
        <ele>361.641</ele>
        <time>2013-08-03T10:42:17Z</time>
      </trkpt>
      <trkpt lat="45.66499" lon="6.42165">
        <ele>360.758</ele>
        <time>2013-08-03T10:42:27Z</time>
      </trkpt>
      <trkpt lat="45.66499" lon="6.42103">
        <ele>360.89</ele>
        <time>2013-08-03T10:42:32Z</time>
      </trkpt>
      <trkpt lat="45.66508" lon="6.42033">
        <ele>360.39</ele>
        <time>2013-08-03T10:42:38Z</time>
      </trkpt>
      <trkpt lat="45.66533" lon="6.41897">
        <ele>359.567</ele>
        <time>2013-08-03T10:42:50Z</time>
      </trkpt>
      <trkpt lat="45.66541" lon="6.41827">
        <ele>359.76</ele>
        <time>2013-08-03T10:42:56Z</time>
      </trkpt>
      <trkpt lat="45.66542" lon="6.41792">
        <ele>359.805</ele>
        <time>2013-08-03T10:42:59Z</time>
      </trkpt>
      <trkpt lat="45.66548" lon="6.41736">
        <ele>359.376</ele>
        <time>2013-08-03T10:43:04Z</time>
      </trkpt>
      <trkpt lat="45.66564" lon="6.41682">
        <ele>358.858</ele>
        <time>2013-08-03T10:43:09Z</time>
      </trkpt>
      <trkpt lat="45.66572" lon="6.41661">
        <ele>358.684</ele>
        <time>2013-08-03T10:43:11Z</time>
      </trkpt>
      <trkpt lat="45.66585" lon="6.41616">
        <ele>358.779</ele>
        <time>2013-08-03T10:43:15Z</time>
      </trkpt>
      <trkpt lat="45.66599" lon="6.41516">
        <ele>358.24</ele>
        <time>2013-08-03T10:43:23Z</time>
      </trkpt>
      <trkpt lat="45.6662" lon="6.41422">
        <ele>356.984</ele>
        <time>2013-08-03T10:43:31Z</time>
      </trkpt>
      <trkpt lat="45.66642" lon="6.41344">
        <ele>356.826</ele>
        <time>2013-08-03T10:43:38Z</time>
      </trkpt>
      <trkpt lat="45.66669" lon="6.41286">
        <ele>356.285</ele>
        <time>2013-08-03T10:43:44Z</time>
      </trkpt>
      <trkpt lat="45.66719" lon="6.41206">
        <ele>355.892</ele>
        <time>2013-08-03T10:43:53Z</time>
      </trkpt>
      <trkpt lat="45.66738" lon="6.41155">
        <ele>355.612</ele>
        <time>2013-08-03T10:43:58Z</time>
      </trkpt>
      <trkpt lat="45.66751" lon="6.41088">
        <ele>355.238</ele>
        <time>2013-08-03T10:44:04Z</time>
      </trkpt>
      <trkpt lat="45.66772" lon="6.4105">
        <ele>355.065</ele>
        <time>2013-08-03T10:44:08Z</time>
      </trkpt>
      <trkpt lat="45.66813" lon="6.41001">
        <ele>355.367</ele>
        <time>2013-08-03T10:44:14Z</time>
      </trkpt>
      <trkpt lat="45.66818" lon="6.40992">
        <ele>355.232</ele>
        <time>2013-08-03T10:44:15Z</time>
      </trkpt>
      <trkpt lat="45.66834" lon="6.40937">
        <ele>354.681</ele>
        <time>2013-08-03T10:44:20Z</time>
      </trkpt>
      <trkpt lat="45.66844" lon="6.40839">
        <ele>354.549</ele>
        <time>2013-08-03T10:44:29Z</time>
      </trkpt>
      <trkpt lat="45.66851" lon="6.40772">
        <ele>354.262</ele>
        <time>2013-08-03T10:44:35Z</time>
      </trkpt>
      <trkpt lat="45.66857" lon="6.40718">
        <ele>354.163</ele>
        <time>2013-08-03T10:44:40Z</time>
      </trkpt>
      <trkpt lat="45.66858" lon="6.40696">
        <ele>353.69</ele>
        <time>2013-08-03T10:44:44Z</time>
      </trkpt>
      <trkpt lat="45.66861" lon="6.40655">
        <ele>353.733</ele>
        <time>2013-08-03T10:44:47Z</time>
      </trkpt>
      <trkpt lat="45.66862" lon="6.40589">
        <ele>353.567</ele>
        <time>2013-08-03T10:44:53Z</time>
      </trkpt>
      <trkpt lat="45.66862" lon="6.40515">
        <ele>353.523</ele>
        <time>2013-08-03T10:44:59Z</time>
      </trkpt>
      <trkpt lat="45.66871" lon="6.40461">
        <ele>354.03</ele>
        <time>2013-08-03T10:45:04Z</time>
      </trkpt>
      <trkpt lat="45.66894" lon="6.40356">
        <ele>353.444</ele>
        <time>2013-08-03T10:45:14Z</time>
      </trkpt>
      <trkpt lat="45.66901" lon="6.40302">
        <ele>352.546</ele>
        <time>2013-08-03T10:45:19Z</time>
      </trkpt>
      <trkpt lat="45.66895" lon="6.40248">
        <ele>352.63</ele>
        <time>2013-08-03T10:45:24Z</time>
      </trkpt>
      <trkpt lat="45.66881" lon="6.40178">
        <ele>352.688</ele>
        <time>2013-08-03T10:45:31Z</time>
      </trkpt>
      <trkpt lat="45.66877" lon="6.40158">
        <ele>352.671</ele>
        <time>2013-08-03T10:45:33Z</time>
      </trkpt>
      <trkpt lat="45.66869" lon="6.40128">
        <ele>352.488</ele>
        <time>2013-08-03T10:45:36Z</time>
      </trkpt>
      <trkpt lat="45.66826" lon="6.40052">
        <ele>351.932</ele>
        <time>2013-08-03T10:45:45Z</time>
      </trkpt>
      <trkpt lat="45.66796" lon="6.4">
        <ele>351.567</ele>
        <time>2013-08-03T10:45:51Z</time>
      </trkpt>
      <trkpt lat="45.66784" lon="6.39946">
        <ele>351.395</ele>
        <time>2013-08-03T10:45:56Z</time>
      </trkpt>
      <trkpt lat="45.66773" lon="6.39877">
        <ele>351.345</ele>
        <time>2013-08-03T10:46:02Z</time>
      </trkpt>
      <trkpt lat="45.66766" lon="6.39809">
        <ele>351.451</ele>
        <time>2013-08-03T10:46:08Z</time>
      </trkpt>
      <trkpt lat="45.66766" lon="6.39738">
        <ele>351.356</ele>
        <time>2013-08-03T10:46:14Z</time>
      </trkpt>
      <trkpt lat="45.66768" lon="6.3968">
        <ele>351.914</ele>
        <time>2013-08-03T10:46:19Z</time>
      </trkpt>
      <trkpt lat="45.66779" lon="6.39624">
        <ele>351.396</ele>
        <time>2013-08-03T10:46:24Z</time>
      </trkpt>
      <trkpt lat="45.6681" lon="6.39534">
        <ele>351.945</ele>
        <time>2013-08-03T10:46:33Z</time>
      </trkpt>
      <trkpt lat="45.66828" lon="6.39488">
        <ele>352.519</ele>
        <time>2013-08-03T10:46:39Z</time>
      </trkpt>
      <trkpt lat="45.66833" lon="6.39432">
        <ele>352.636</ele>
        <time>2013-08-03T10:46:46Z</time>
      </trkpt>
      <trkpt lat="45.66839" lon="6.39374">
        <ele>353.05</ele>
        <time>2013-08-03T10:46:52Z</time>
      </trkpt>
      <trkpt lat="45.66849" lon="6.39289">
        <ele>352.68</ele>
        <time>2013-08-03T10:47:00Z</time>
      </trkpt>
      <trkpt lat="45.66851" lon="6.39261">
        <ele>352.955</ele>
        <time>2013-08-03T10:47:04Z</time>
      </trkpt>
      <trkpt lat="45.66852" lon="6.3925">
        <ele>353.158</ele>
        <time>2013-08-03T10:47:07Z</time>
      </trkpt>
      <trkpt lat="45.66852" lon="6.3925">
        <ele>353.073</ele>
        <time>2013-08-03T10:47:08Z</time>
      </trkpt>
      <trkpt lat="45.66852" lon="6.3925">
        <ele>352.46</ele>
        <time>2013-08-03T10:49:07Z</time>
      </trkpt>
      <trkpt lat="45.66851" lon="6.39256">
        <ele>352.454</ele>
        <time>2013-08-03T10:49:11Z</time>
      </trkpt>
      <trkpt lat="45.66853" lon="6.39243">
        <ele>352.791</ele>
        <time>2013-08-03T10:49:20Z</time>
      </trkpt>
      <trkpt lat="45.66856" lon="6.3921">
        <ele>353.173</ele>
        <time>2013-08-03T10:49:28Z</time>
      </trkpt>
      <trkpt lat="45.66858" lon="6.39183">
        <ele>353.269</ele>
        <time>2013-08-03T10:49:33Z</time>
      </trkpt>
      <trkpt lat="45.66862" lon="6.39146">
        <ele>352.657</ele>
        <time>2013-08-03T10:49:39Z</time>
      </trkpt>
      <trkpt lat="45.66865" lon="6.39125">
        <ele>352.222</ele>
        <time>2013-08-03T10:49:42Z</time>
      </trkpt>
      <trkpt lat="45.66869" lon="6.39111">
        <ele>351.965</ele>
        <time>2013-08-03T10:49:44Z</time>
      </trkpt>
      <trkpt lat="45.66876" lon="6.39082">
        <ele>351.452</ele>
        <time>2013-08-03T10:49:48Z</time>
      </trkpt>
      <trkpt lat="45.66899" lon="6.39072">
        <ele>351.537</ele>
        <time>2013-08-03T10:49:51Z</time>
      </trkpt>
      <trkpt lat="45.66955" lon="6.39092">
        <ele>351.676</ele>
        <time>2013-08-03T10:50:00Z</time>
      </trkpt>
      <trkpt lat="45.67012" lon="6.39112">
        <ele>351.842</ele>
        <time>2013-08-03T10:50:09Z</time>
      </trkpt>
      <trkpt lat="45.67083" lon="6.39137">
        <ele>352.161</ele>
        <time>2013-08-03T10:50:20Z</time>
      </trkpt>
      <trkpt lat="45.67145" lon="6.3916">
        <ele>352.668</ele>
        <time>2013-08-03T10:50:30Z</time>
      </trkpt>
      <trkpt lat="45.67195" lon="6.39178">
        <ele>352.551</ele>
        <time>2013-08-03T10:50:38Z</time>
      </trkpt>
      <trkpt lat="45.67245" lon="6.39196">
        <ele>352.991</ele>
        <time>2013-08-03T10:50:46Z</time>
      </trkpt>
      <trkpt lat="45.67302" lon="6.39218">
        <ele>353.672</ele>
        <time>2013-08-03T10:50:55Z</time>
      </trkpt>
      <trkpt lat="45.67363" lon="6.39239">
        <ele>354.081</ele>
        <time>2013-08-03T10:51:05Z</time>
      </trkpt>
      <trkpt lat="45.67414" lon="6.39257">
        <ele>354.745</ele>
        <time>2013-08-03T10:51:14Z</time>
      </trkpt>
      <trkpt lat="45.67454" lon="6.39268">
        <ele>354.894</ele>
        <time>2013-08-03T10:51:21Z</time>
      </trkpt>
      <trkpt lat="45.67512" lon="6.39285">
        <ele>355.292</ele>
        <time>2013-08-03T10:51:31Z</time>
      </trkpt>
      <trkpt lat="45.67573" lon="6.39305">
        <ele>355.707</ele>
        <time>2013-08-03T10:51:41Z</time>
      </trkpt>
      <trkpt lat="45.67606" lon="6.39315">
        <ele>355.507</ele>
        <time>2013-08-03T10:51:47Z</time>
      </trkpt>
      <trkpt lat="45.6763" lon="6.39326">
        <ele>355.941</ele>
        <time>2013-08-03T10:51:51Z</time>
      </trkpt>
      <trkpt lat="45.67635" lon="6.39328">
        <ele>356.235</ele>
        <time>2013-08-03T10:51:52Z</time>
      </trkpt>
      <trkpt lat="45.67646" lon="6.39363">
        <ele>357.556</ele>
        <time>2013-08-03T10:51:56Z</time>
      </trkpt>
      <trkpt lat="45.67644" lon="6.3937">
        <ele>357.97</ele>
        <time>2013-08-03T10:51:57Z</time>
      </trkpt>
      <trkpt lat="45.67632" lon="6.39437">
        <ele>359.511</ele>
        <time>2013-08-03T10:52:06Z</time>
      </trkpt>
      <trkpt lat="45.67627" lon="6.39467">
        <ele>359.099</ele>
        <time>2013-08-03T10:52:10Z</time>
      </trkpt>
      <trkpt lat="45.67623" lon="6.39485">
        <ele>358.748</ele>
        <time>2013-08-03T10:52:13Z</time>
      </trkpt>
      <trkpt lat="45.67622" lon="6.39488">
        <ele>357.881</ele>
        <time>2013-08-03T10:52:16Z</time>
      </trkpt>
      <trkpt lat="45.67697" lon="6.39508">
        <ele>356.624</ele>
        <time>2013-08-03T10:52:24Z</time>
      </trkpt>
      <trkpt lat="45.67754" lon="6.39518">
        <ele>356.455</ele>
        <time>2013-08-03T10:52:32Z</time>
      </trkpt>
      <trkpt lat="45.67782" lon="6.39528">
        <ele>357.055</ele>
        <time>2013-08-03T10:52:36Z</time>
      </trkpt>
      <trkpt lat="45.67807" lon="6.39534">
        <ele>357.038</ele>
        <time>2013-08-03T10:52:40Z</time>
      </trkpt>
      <trkpt lat="45.67813" lon="6.39535">
        <ele>357.103</ele>
        <time>2013-08-03T10:52:41Z</time>
      </trkpt>
      <trkpt lat="45.67839" lon="6.39555">
        <ele>357.383</ele>
        <time>2013-08-03T10:52:47Z</time>
      </trkpt>
      <trkpt lat="45.67836" lon="6.39591">
        <ele>357.411</ele>
        <time>2013-08-03T10:52:53Z</time>
      </trkpt>
      <trkpt lat="45.67948" lon="6.39476">
        <ele>357.521</ele>
        <time>2013-08-03T10:52:59Z</time>
      </trkpt>
      <trkpt lat="45.67982" lon="6.39487">
        <ele>357.505</ele>
        <time>2013-08-03T10:53:04Z</time>
      </trkpt>
      <trkpt lat="45.68027" lon="6.39502">
        <ele>357.322</ele>
        <time>2013-08-03T10:53:10Z</time>
      </trkpt>
      <trkpt lat="45.68073" lon="6.3952">
        <ele>357.754</ele>
        <time>2013-08-03T10:53:17Z</time>
      </trkpt>
      <trkpt lat="45.68079" lon="6.39522">
        <ele>357.838</ele>
        <time>2013-08-03T10:53:18Z</time>
      </trkpt>
      <trkpt lat="45.68113" lon="6.3963">
        <ele>357.236</ele>
        <time>2013-08-03T10:53:26Z</time>
      </trkpt>
      <trkpt lat="45.68122" lon="6.3964">
        <ele>357.041</ele>
        <time>2013-08-03T10:53:29Z</time>
      </trkpt>
      <trkpt lat="45.68199" lon="6.39559">
        <ele>356.531</ele>
        <time>2013-08-03T10:53:37Z</time>
      </trkpt>
      <trkpt lat="45.68212" lon="6.39561">
        <ele>356.649</ele>
        <time>2013-08-03T10:53:40Z</time>
      </trkpt>
      <trkpt lat="45.68274" lon="6.3961">
        <ele>356.684</ele>
        <time>2013-08-03T10:53:46Z</time>
      </trkpt>
      <trkpt lat="45.68317" lon="6.39639">
        <ele>356.778</ele>
        <time>2013-08-03T10:53:53Z</time>
      </trkpt>
      <trkpt lat="45.68365" lon="6.39671">
        <ele>356.89</ele>
        <time>2013-08-03T10:54:00Z</time>
      </trkpt>
      <trkpt lat="45.68394" lon="6.3969">
        <ele>356.852</ele>
        <time>2013-08-03T10:54:05Z</time>
      </trkpt>
      <trkpt lat="45.68439" lon="6.39718">
        <ele>356.759</ele>
        <time>2013-08-03T10:54:12Z</time>
      </trkpt>
      <trkpt lat="45.68473" lon="6.39741">
        <ele>356.992</ele>
        <time>2013-08-03T10:54:18Z</time>
      </trkpt>
      <trkpt lat="45.68517" lon="6.39768">
        <ele>357.523</ele>
        <time>2013-08-03T10:54:25Z</time>
      </trkpt>
      <trkpt lat="45.68567" lon="6.398">
        <ele>357.735</ele>
        <time>2013-08-03T10:54:33Z</time>
      </trkpt>
      <trkpt lat="45.68611" lon="6.39828">
        <ele>357.985</ele>
        <time>2013-08-03T10:54:40Z</time>
      </trkpt>
      <trkpt lat="45.68649" lon="6.39852">
        <ele>358.27</ele>
        <time>2013-08-03T10:54:46Z</time>
      </trkpt>
      <trkpt lat="45.6868" lon="6.39872">
        <ele>358.431</ele>
        <time>2013-08-03T10:54:51Z</time>
      </trkpt>
      <trkpt lat="45.6871" lon="6.39891">
        <ele>358.736</ele>
        <time>2013-08-03T10:54:56Z</time>
      </trkpt>
      <trkpt lat="45.68735" lon="6.3999">
        <ele>359.527</ele>
        <time>2013-08-03T10:55:04Z</time>
      </trkpt>
      <trkpt lat="45.68763" lon="6.40043">
        <ele>361.795</ele>
        <time>2013-08-03T10:55:13Z</time>
      </trkpt>
      <trkpt lat="45.68783" lon="6.40078">
        <ele>363.105</ele>
        <time>2013-08-03T10:55:19Z</time>
      </trkpt>
      <trkpt lat="45.68801" lon="6.40112">
        <ele>364.116</ele>
        <time>2013-08-03T10:55:25Z</time>
      </trkpt>
      <trkpt lat="45.6891" lon="6.40021">
        <ele>364.16</ele>
        <time>2013-08-03T10:55:34Z</time>
      </trkpt>
      <trkpt lat="45.68963" lon="6.40055">
        <ele>364.278</ele>
        <time>2013-08-03T10:55:43Z</time>
      </trkpt>
      <trkpt lat="45.69015" lon="6.40081">
        <ele>364.523</ele>
        <time>2013-08-03T10:55:52Z</time>
      </trkpt>
      <trkpt lat="45.69066" lon="6.40102">
        <ele>364.516</ele>
        <time>2013-08-03T10:56:00Z</time>
      </trkpt>
      <trkpt lat="45.69126" lon="6.40127">
        <ele>364.705</ele>
        <time>2013-08-03T10:56:09Z</time>
      </trkpt>
      <trkpt lat="45.69175" lon="6.40143">
        <ele>364.332</ele>
        <time>2013-08-03T10:56:17Z</time>
      </trkpt>
      <trkpt lat="45.69228" lon="6.40159">
        <ele>364.388</ele>
        <time>2013-08-03T10:56:25Z</time>
      </trkpt>
      <trkpt lat="45.69268" lon="6.40171">
        <ele>364.603</ele>
        <time>2013-08-03T10:56:31Z</time>
      </trkpt>
      <trkpt lat="45.69301" lon="6.40184">
        <ele>364.868</ele>
        <time>2013-08-03T10:56:37Z</time>
      </trkpt>
      <trkpt lat="45.69306" lon="6.40186">
        <ele>364.882</ele>
        <time>2013-08-03T10:56:38Z</time>
      </trkpt>
      <trkpt lat="45.693" lon="6.40281">
        <ele>365.05</ele>
        <time>2013-08-03T10:56:42Z</time>
      </trkpt>
      <trkpt lat="45.6931" lon="6.40308">
        <ele>364.905</ele>
        <time>2013-08-03T10:56:46Z</time>
      </trkpt>
      <trkpt lat="45.69321" lon="6.40311">
        <ele>364.923</ele>
        <time>2013-08-03T10:56:48Z</time>
      </trkpt>
      <trkpt lat="45.69358" lon="6.40312">
        <ele>365.364</ele>
        <time>2013-08-03T10:56:54Z</time>
      </trkpt>
      <trkpt lat="45.69379" lon="6.4031">
        <ele>365.679</ele>
        <time>2013-08-03T10:56:57Z</time>
      </trkpt>
      <trkpt lat="45.69411" lon="6.40326">
        <ele>366.417</ele>
        <time>2013-08-03T10:57:02Z</time>
      </trkpt>
      <trkpt lat="45.69416" lon="6.40331">
        <ele>366.562</ele>
        <time>2013-08-03T10:57:03Z</time>
      </trkpt>
      <trkpt lat="45.69441" lon="6.40351">
        <ele>367.182</ele>
        <time>2013-08-03T10:57:10Z</time>
      </trkpt>
      <trkpt lat="45.69479" lon="6.40405">
        <ele>367.246</ele>
        <time>2013-08-03T10:57:16Z</time>
      </trkpt>
      <trkpt lat="45.69493" lon="6.40421">
        <ele>367.103</ele>
        <time>2013-08-03T10:57:19Z</time>
      </trkpt>
      <trkpt lat="45.69522" lon="6.40438">
        <ele>366.853</ele>
        <time>2013-08-03T10:57:24Z</time>
      </trkpt>
      <trkpt lat="45.69568" lon="6.40455">
        <ele>366.355</ele>
        <time>2013-08-03T10:57:31Z</time>
      </trkpt>
      <trkpt lat="45.69619" lon="6.40476">
        <ele>365.761</ele>
        <time>2013-08-03T10:57:39Z</time>
      </trkpt>
      <trkpt lat="45.69658" lon="6.40493">
        <ele>365.933</ele>
        <time>2013-08-03T10:57:45Z</time>
      </trkpt>
      <trkpt lat="45.69712" lon="6.40516">
        <ele>365.932</ele>
        <time>2013-08-03T10:57:53Z</time>
      </trkpt>
      <trkpt lat="45.69749" lon="6.40532">
        <ele>366.52</ele>
        <time>2013-08-03T10:57:59Z</time>
      </trkpt>
      <trkpt lat="45.69808" lon="6.40555">
        <ele>366.283</ele>
        <time>2013-08-03T10:58:08Z</time>
      </trkpt>
      <trkpt lat="45.69851" lon="6.40576">
        <ele>366.543</ele>
        <time>2013-08-03T10:58:15Z</time>
      </trkpt>
      <trkpt lat="45.69886" lon="6.40592">
        <ele>366.119</ele>
        <time>2013-08-03T10:58:21Z</time>
      </trkpt>
      <trkpt lat="45.69939" lon="6.40619">
        <ele>367.186</ele>
        <time>2013-08-03T10:58:29Z</time>
      </trkpt>
      <trkpt lat="45.7" lon="6.4066">
        <ele>367.963</ele>
        <time>2013-08-03T10:58:39Z</time>
      </trkpt>
      <trkpt lat="45.70048" lon="6.40696">
        <ele>368.431</ele>
        <time>2013-08-03T10:58:47Z</time>
      </trkpt>
      <trkpt lat="45.70092" lon="6.40722">
        <ele>369.183</ele>
        <time>2013-08-03T10:58:54Z</time>
      </trkpt>
      <trkpt lat="45.70141" lon="6.40741">
        <ele>369.927</ele>
        <time>2013-08-03T10:59:02Z</time>
      </trkpt>
      <trkpt lat="45.70183" lon="6.40747">
        <ele>370.858</ele>
        <time>2013-08-03T10:59:09Z</time>
      </trkpt>
      <trkpt lat="45.70225" lon="6.4075">
        <ele>371.703</ele>
        <time>2013-08-03T10:59:16Z</time>
      </trkpt>
      <trkpt lat="45.70278" lon="6.4075">
        <ele>372.99</ele>
        <time>2013-08-03T10:59:25Z</time>
      </trkpt>
      <trkpt lat="45.70318" lon="6.40754">
        <ele>374.153</ele>
        <time>2013-08-03T10:59:32Z</time>
      </trkpt>
      <trkpt lat="45.70344" lon="6.40747">
        <ele>374.47</ele>
        <time>2013-08-03T10:59:37Z</time>
      </trkpt>
      <trkpt lat="45.70351" lon="6.40728">
        <ele>374.716</ele>
        <time>2013-08-03T10:59:40Z</time>
      </trkpt>
      <trkpt lat="45.70353" lon="6.40718">
        <ele>374.888</ele>
        <time>2013-08-03T10:59:41Z</time>
      </trkpt>
      <trkpt lat="45.70357" lon="6.40643">
        <ele>376.132</ele>
        <time>2013-08-03T10:59:50Z</time>
      </trkpt>
      <trkpt lat="45.70358" lon="6.40603">
        <ele>376.576</ele>
        <time>2013-08-03T10:59:55Z</time>
      </trkpt>
      <trkpt lat="45.7036" lon="6.4058">
        <ele>376.497</ele>
        <time>2013-08-03T10:59:58Z</time>
      </trkpt>
      <trkpt lat="45.70371" lon="6.40578">
        <ele>376.424</ele>
        <time>2013-08-03T10:59:59Z</time>
      </trkpt>
      <trkpt lat="45.70429" lon="6.40577">
        <ele>375.761</ele>
        <time>2013-08-03T11:00:07Z</time>
      </trkpt>
      <trkpt lat="45.70494" lon="6.40569">
        <ele>374.987</ele>
        <time>2013-08-03T11:00:15Z</time>
      </trkpt>
      <trkpt lat="45.70561" lon="6.40549">
        <ele>373.559</ele>
        <time>2013-08-03T11:00:23Z</time>
      </trkpt>
      <trkpt lat="45.70626" lon="6.40528">
        <ele>373.529</ele>
        <time>2013-08-03T11:00:31Z</time>
      </trkpt>
      <trkpt lat="45.70688" lon="6.40514">
        <ele>373.848</ele>
        <time>2013-08-03T11:00:39Z</time>
      </trkpt>
      <trkpt lat="45.70743" lon="6.40518">
        <ele>374.436</ele>
        <time>2013-08-03T11:00:46Z</time>
      </trkpt>
      <trkpt lat="45.70795" lon="6.40536">
        <ele>374.939</ele>
        <time>2013-08-03T11:00:53Z</time>
      </trkpt>
      <trkpt lat="45.7086" lon="6.40555">
        <ele>375.395</ele>
        <time>2013-08-03T11:01:02Z</time>
      </trkpt>
      <trkpt lat="45.70903" lon="6.4056">
        <ele>375.786</ele>
        <time>2013-08-03T11:01:08Z</time>
      </trkpt>
      <trkpt lat="45.7096" lon="6.40559">
        <ele>375.277</ele>
        <time>2013-08-03T11:01:16Z</time>
      </trkpt>
      <trkpt lat="45.71003" lon="6.40559">
        <ele>376.52</ele>
        <time>2013-08-03T11:01:22Z</time>
      </trkpt>
      <trkpt lat="45.71064" lon="6.40564">
        <ele>376.918</ele>
        <time>2013-08-03T11:01:30Z</time>
      </trkpt>
      <trkpt lat="45.71128" lon="6.4058">
        <ele>377.486</ele>
        <time>2013-08-03T11:01:39Z</time>
      </trkpt>
      <trkpt lat="45.71185" lon="6.40601">
        <ele>378.185</ele>
        <time>2013-08-03T11:01:47Z</time>
      </trkpt>
      <trkpt lat="45.71248" lon="6.40629">
        <ele>378.485</ele>
        <time>2013-08-03T11:01:56Z</time>
      </trkpt>
      <trkpt lat="45.7132" lon="6.40662">
        <ele>379.224</ele>
        <time>2013-08-03T11:02:06Z</time>
      </trkpt>
      <trkpt lat="45.7139" lon="6.40697">
        <ele>379.748</ele>
        <time>2013-08-03T11:02:16Z</time>
      </trkpt>
      <trkpt lat="45.71475" lon="6.40737">
        <ele>380.844</ele>
        <time>2013-08-03T11:02:28Z</time>
      </trkpt>
      <trkpt lat="45.71567" lon="6.4078">
        <ele>381.894</ele>
        <time>2013-08-03T11:02:41Z</time>
      </trkpt>
      <trkpt lat="45.71654" lon="6.40822">
        <ele>382.635</ele>
        <time>2013-08-03T11:02:53Z</time>
      </trkpt>
      <trkpt lat="45.71726" lon="6.40855">
        <ele>383.359</ele>
        <time>2013-08-03T11:03:03Z</time>
      </trkpt>
      <trkpt lat="45.71798" lon="6.40889">
        <ele>383.566</ele>
        <time>2013-08-03T11:03:13Z</time>
      </trkpt>
      <trkpt lat="45.71872" lon="6.40922">
        <ele>384.881</ele>
        <time>2013-08-03T11:03:23Z</time>
      </trkpt>
      <trkpt lat="45.71921" lon="6.40948">
        <ele>384.789</ele>
        <time>2013-08-03T11:03:30Z</time>
      </trkpt>
      <trkpt lat="45.71961" lon="6.40972">
        <ele>385.063</ele>
        <time>2013-08-03T11:03:36Z</time>
      </trkpt>
      <trkpt lat="45.7204" lon="6.41019">
        <ele>386.261</ele>
        <time>2013-08-03T11:03:47Z</time>
      </trkpt>
      <trkpt lat="45.72107" lon="6.41071">
        <ele>386.653</ele>
        <time>2013-08-03T11:03:57Z</time>
      </trkpt>
      <trkpt lat="45.72173" lon="6.41125">
        <ele>387.175</ele>
        <time>2013-08-03T11:04:07Z</time>
      </trkpt>
      <trkpt lat="45.72226" lon="6.41169">
        <ele>387.639</ele>
        <time>2013-08-03T11:04:15Z</time>
      </trkpt>
      <trkpt lat="45.72293" lon="6.41224">
        <ele>388.23</ele>
        <time>2013-08-03T11:04:25Z</time>
      </trkpt>
      <trkpt lat="45.72366" lon="6.41284">
        <ele>389.435</ele>
        <time>2013-08-03T11:04:36Z</time>
      </trkpt>
      <trkpt lat="45.7245" lon="6.41355">
        <ele>390.193</ele>
        <time>2013-08-03T11:04:49Z</time>
      </trkpt>
      <trkpt lat="45.72516" lon="6.41412">
        <ele>390.635</ele>
        <time>2013-08-03T11:04:59Z</time>
      </trkpt>
      <trkpt lat="45.72568" lon="6.41455">
        <ele>391.423</ele>
        <time>2013-08-03T11:05:07Z</time>
      </trkpt>
      <trkpt lat="45.72575" lon="6.41459">
        <ele>391.495</ele>
        <time>2013-08-03T11:05:08Z</time>
      </trkpt>
      <trkpt lat="45.72617" lon="6.41479">
        <ele>390.896</ele>
        <time>2013-08-03T11:05:14Z</time>
      </trkpt>
      <trkpt lat="45.72639" lon="6.41494">
        <ele>390.825</ele>
        <time>2013-08-03T11:05:17Z</time>
      </trkpt>
      <trkpt lat="45.72639" lon="6.41494">
        <ele>390.671</ele>
        <time>2013-08-03T11:05:20Z</time>
      </trkpt>
      <trkpt lat="45.72653" lon="6.41527">
        <ele>390.613</ele>
        <time>2013-08-03T11:05:21Z</time>
      </trkpt>
      <trkpt lat="45.72687" lon="6.4155">
        <ele>391.492</ele>
        <time>2013-08-03T11:05:26Z</time>
      </trkpt>
      <trkpt lat="45.72693" lon="6.41558">
        <ele>391.867</ele>
        <time>2013-08-03T11:05:27Z</time>
      </trkpt>
      <trkpt lat="45.72758" lon="6.41615">
        <ele>393.168</ele>
        <time>2013-08-03T11:05:37Z</time>
      </trkpt>
      <trkpt lat="45.72831" lon="6.41676">
        <ele>394.372</ele>
        <time>2013-08-03T11:05:48Z</time>
      </trkpt>
      <trkpt lat="45.72882" lon="6.41718">
        <ele>394.737</ele>
        <time>2013-08-03T11:05:56Z</time>
      </trkpt>
      <trkpt lat="45.72939" lon="6.41766">
        <ele>395.268</ele>
        <time>2013-08-03T11:06:05Z</time>
      </trkpt>
      <trkpt lat="45.72995" lon="6.41814">
        <ele>396.095</ele>
        <time>2013-08-03T11:06:14Z</time>
      </trkpt>
      <trkpt lat="45.73036" lon="6.41847">
        <ele>396.217</ele>
        <time>2013-08-03T11:06:21Z</time>
      </trkpt>
      <trkpt lat="45.7308" lon="6.4188">
        <ele>398.235</ele>
        <time>2013-08-03T11:06:29Z</time>
      </trkpt>
      <trkpt lat="45.73095" lon="6.41892">
        <ele>399.523</ele>
        <time>2013-08-03T11:06:32Z</time>
      </trkpt>
      <trkpt lat="45.73119" lon="6.41912">
        <ele>400.892</ele>
        <time>2013-08-03T11:06:37Z</time>
      </trkpt>
      <trkpt lat="45.73129" lon="6.41919">
        <ele>400.967</ele>
        <time>2013-08-03T11:06:39Z</time>
      </trkpt>
      <trkpt lat="45.73168" lon="6.41952">
        <ele>400.095</ele>
        <time>2013-08-03T11:06:46Z</time>
      </trkpt>
      <trkpt lat="45.73217" lon="6.42002">
        <ele>399.203</ele>
        <time>2013-08-03T11:06:54Z</time>
      </trkpt>
      <trkpt lat="45.73275" lon="6.42048">
        <ele>399.627</ele>
        <time>2013-08-03T11:07:03Z</time>
      </trkpt>
      <trkpt lat="45.73341" lon="6.42103">
        <ele>400.308</ele>
        <time>2013-08-03T11:07:14Z</time>
      </trkpt>
      <trkpt lat="45.73394" lon="6.42148">
        <ele>400.888</ele>
        <time>2013-08-03T11:07:23Z</time>
      </trkpt>
      <trkpt lat="45.7347" lon="6.42212">
        <ele>402.075</ele>
        <time>2013-08-03T11:07:35Z</time>
      </trkpt>
      <trkpt lat="45.73516" lon="6.42243">
        <ele>402.589</ele>
        <time>2013-08-03T11:07:42Z</time>
      </trkpt>
      <trkpt lat="45.73522" lon="6.42246">
        <ele>402.58</ele>
        <time>2013-08-03T11:07:43Z</time>
      </trkpt>
      <trkpt lat="45.73541" lon="6.4225">
        <ele>402.314</ele>
        <time>2013-08-03T11:07:46Z</time>
      </trkpt>
      <trkpt lat="45.73551" lon="6.42254">
        <ele>402.419</ele>
        <time>2013-08-03T11:07:48Z</time>
      </trkpt>
      <trkpt lat="45.73556" lon="6.42257">
        <ele>402.49</ele>
        <time>2013-08-03T11:07:49Z</time>
      </trkpt>
      <trkpt lat="45.7361" lon="6.42285">
        <ele>402.804</ele>
        <time>2013-08-03T11:07:57Z</time>
      </trkpt>
      <trkpt lat="45.73675" lon="6.4231">
        <ele>403.386</ele>
        <time>2013-08-03T11:08:06Z</time>
      </trkpt>
      <trkpt lat="45.73759" lon="6.42333">
        <ele>404.177</ele>
        <time>2013-08-03T11:08:17Z</time>
      </trkpt>
      <trkpt lat="45.73812" lon="6.42348">
        <ele>405.157</ele>
        <time>2013-08-03T11:08:27Z</time>
      </trkpt>
      <trkpt lat="45.73899" lon="6.42356">
        <ele>405.765</ele>
        <time>2013-08-03T11:08:36Z</time>
      </trkpt>
      <trkpt lat="45.73935" lon="6.42349">
        <ele>406.181</ele>
        <time>2013-08-03T11:08:41Z</time>
      </trkpt>
      <trkpt lat="45.7396" lon="6.42341">
        <ele>406.634</ele>
        <time>2013-08-03T11:08:45Z</time>
      </trkpt>
      <trkpt lat="45.73978" lon="6.42335">
        <ele>406.529</ele>
        <time>2013-08-03T11:08:48Z</time>
      </trkpt>
      <trkpt lat="45.74037" lon="6.42312">
        <ele>407.641</ele>
        <time>2013-08-03T11:08:57Z</time>
      </trkpt>
      <trkpt lat="45.74104" lon="6.4228">
        <ele>408.383</ele>
        <time>2013-08-03T11:09:07Z</time>
      </trkpt>
      <trkpt lat="45.7411" lon="6.42277">
        <ele>408.399</ele>
        <time>2013-08-03T11:09:08Z</time>
      </trkpt>
      <trkpt lat="45.74128" lon="6.42245">
        <ele>408.142</ele>
        <time>2013-08-03T11:09:12Z</time>
      </trkpt>
      <trkpt lat="45.74141" lon="6.4223">
        <ele>408.114</ele>
        <time>2013-08-03T11:09:14Z</time>
      </trkpt>
      <trkpt lat="45.74162" lon="6.42234">
        <ele>407.932</ele>
        <time>2013-08-03T11:09:17Z</time>
      </trkpt>
      <trkpt lat="45.74168" lon="6.42232">
        <ele>407.905</ele>
        <time>2013-08-03T11:09:18Z</time>
      </trkpt>
      <trkpt lat="45.74231" lon="6.422">
        <ele>408.433</ele>
        <time>2013-08-03T11:09:27Z</time>
      </trkpt>
      <trkpt lat="45.74291" lon="6.42166">
        <ele>409.218</ele>
        <time>2013-08-03T11:09:36Z</time>
      </trkpt>
      <trkpt lat="45.74337" lon="6.42142">
        <ele>409.958</ele>
        <time>2013-08-03T11:09:43Z</time>
      </trkpt>
      <trkpt lat="45.74385" lon="6.42115">
        <ele>410.141</ele>
        <time>2013-08-03T11:09:50Z</time>
      </trkpt>
      <trkpt lat="45.74451" lon="6.42077">
        <ele>410.638</ele>
        <time>2013-08-03T11:10:00Z</time>
      </trkpt>
      <trkpt lat="45.7446" lon="6.42074">
        <ele>410.65</ele>
        <time>2013-08-03T11:10:04Z</time>
      </trkpt>
      <trkpt lat="45.74478" lon="6.42017">
        <ele>410.306</ele>
        <time>2013-08-03T11:10:09Z</time>
      </trkpt>
      <trkpt lat="45.74488" lon="6.4199">
        <ele>411.028</ele>
        <time>2013-08-03T11:10:12Z</time>
      </trkpt>
      <trkpt lat="45.745" lon="6.41981">
        <ele>411.004</ele>
        <time>2013-08-03T11:10:14Z</time>
      </trkpt>
      <trkpt lat="45.74512" lon="6.41959">
        <ele>411.074</ele>
        <time>2013-08-03T11:10:18Z</time>
      </trkpt>
      <trkpt lat="45.74515" lon="6.41929">
        <ele>410.983</ele>
        <time>2013-08-03T11:10:21Z</time>
      </trkpt>
      <trkpt lat="45.7452" lon="6.4192">
        <ele>410.885</ele>
        <time>2013-08-03T11:10:22Z</time>
      </trkpt>
      <trkpt lat="45.74553" lon="6.4187">
        <ele>411.115</ele>
        <time>2013-08-03T11:10:29Z</time>
      </trkpt>
      <trkpt lat="45.74572" lon="6.41826">
        <ele>411.336</ele>
        <time>2013-08-03T11:10:34Z</time>
      </trkpt>
      <trkpt lat="45.74581" lon="6.41795">
        <ele>411.346</ele>
        <time>2013-08-03T11:10:37Z</time>
      </trkpt>
      <trkpt lat="45.74609" lon="6.41733">
        <ele>411.603</ele>
        <time>2013-08-03T11:10:44Z</time>
      </trkpt>
      <trkpt lat="45.74629" lon="6.4169">
        <ele>411.957</ele>
        <time>2013-08-03T11:10:49Z</time>
      </trkpt>
      <trkpt lat="45.74644" lon="6.41657">
        <ele>412.443</ele>
        <time>2013-08-03T11:10:53Z</time>
      </trkpt>
      <trkpt lat="45.74654" lon="6.41631">
        <ele>412.523</ele>
        <time>2013-08-03T11:10:57Z</time>
      </trkpt>
      <trkpt lat="45.74624" lon="6.41588">
        <ele>412.57</ele>
        <time>2013-08-03T11:10:59Z</time>
      </trkpt>
      <trkpt lat="45.74614" lon="6.41573">
        <ele>412.587</ele>
        <time>2013-08-03T11:11:01Z</time>
      </trkpt>
      <trkpt lat="45.74582" lon="6.41548">
        <ele>413.03</ele>
        <time>2013-08-03T11:11:06Z</time>
      </trkpt>
      <trkpt lat="45.74562" lon="6.41519">
        <ele>412.987</ele>
        <time>2013-08-03T11:11:10Z</time>
      </trkpt>
      <trkpt lat="45.74559" lon="6.41479">
        <ele>412.557</ele>
        <time>2013-08-03T11:11:14Z</time>
      </trkpt>
      <trkpt lat="45.74627" lon="6.41401">
        <ele>412.737</ele>
        <time>2013-08-03T11:11:17Z</time>
      </trkpt>
      <trkpt lat="45.74571" lon="6.41342">
        <ele>413.072</ele>
        <time>2013-08-03T11:11:20Z</time>
      </trkpt>
      <trkpt lat="45.74605" lon="6.41338">
        <ele>413.037</ele>
        <time>2013-08-03T11:11:27Z</time>
      </trkpt>
      <trkpt lat="45.74622" lon="6.41336">
        <ele>413.445</ele>
        <time>2013-08-03T11:11:30Z</time>
      </trkpt>
      <trkpt lat="45.74653" lon="6.41333">
        <ele>413.967</ele>
        <time>2013-08-03T11:11:35Z</time>
      </trkpt>
      <trkpt lat="45.74658" lon="6.41332">
        <ele>413.891</ele>
        <time>2013-08-03T11:11:36Z</time>
      </trkpt>
      <trkpt lat="45.74684" lon="6.4133">
        <ele>413.509</ele>
        <time>2013-08-03T11:11:41Z</time>
      </trkpt>
      <trkpt lat="45.7471" lon="6.41329">
        <ele>414.016</ele>
        <time>2013-08-03T11:11:49Z</time>
      </trkpt>
      <trkpt lat="45.74736" lon="6.41278">
        <ele>414.191</ele>
        <time>2013-08-03T11:11:55Z</time>
      </trkpt>
      <trkpt lat="45.74744" lon="6.41264">
        <ele>414.024</ele>
        <time>2013-08-03T11:12:00Z</time>
      </trkpt>
      <trkpt lat="45.74749" lon="6.41256">
        <ele>414.144</ele>
        <time>2013-08-03T11:12:04Z</time>
      </trkpt>
      <trkpt lat="45.74803" lon="6.41291">
        <ele>414.921</ele>
        <time>2013-08-03T11:12:10Z</time>
      </trkpt>
      <trkpt lat="45.74814" lon="6.41269">
        <ele>414.903</ele>
        <time>2013-08-03T11:12:16Z</time>
      </trkpt>
      <trkpt lat="45.74823" lon="6.41251">
        <ele>415.093</ele>
        <time>2013-08-03T11:12:20Z</time>
      </trkpt>
      <trkpt lat="45.74837" lon="6.41226">
        <ele>415.246</ele>
        <time>2013-08-03T11:12:25Z</time>
      </trkpt>
      <trkpt lat="45.74865" lon="6.41178">
        <ele>415.943</ele>
        <time>2013-08-03T11:12:34Z</time>
      </trkpt>
      <trkpt lat="45.74892" lon="6.4113">
        <ele>416.253</ele>
        <time>2013-08-03T11:12:42Z</time>
      </trkpt>
      <trkpt lat="45.74903" lon="6.41117">
        <ele>415.881</ele>
        <time>2013-08-03T11:12:45Z</time>
      </trkpt>
      <trkpt lat="45.74926" lon="6.41078">
        <ele>416.336</ele>
        <time>2013-08-03T11:12:52Z</time>
      </trkpt>
      <trkpt lat="45.74944" lon="6.41039">
        <ele>417.313</ele>
        <time>2013-08-03T11:12:58Z</time>
      </trkpt>
      <trkpt lat="45.74969" lon="6.40976">
        <ele>418.111</ele>
        <time>2013-08-03T11:13:07Z</time>
      </trkpt>
      <trkpt lat="45.74986" lon="6.40924">
        <ele>418.421</ele>
        <time>2013-08-03T11:13:15Z</time>
      </trkpt>
      <trkpt lat="45.74995" lon="6.40898">
        <ele>418.55</ele>
        <time>2013-08-03T11:13:20Z</time>
      </trkpt>
      <trkpt lat="45.75001" lon="6.40846">
        <ele>418.167</ele>
        <time>2013-08-03T11:13:27Z</time>
      </trkpt>
      <trkpt lat="45.75" lon="6.40849">
        <ele>418.261</ele>
        <time>2013-08-03T11:13:31Z</time>
      </trkpt>
      <trkpt lat="45.75007" lon="6.40825">
        <ele>418.658</ele>
        <time>2013-08-03T11:13:36Z</time>
      </trkpt>
      <trkpt lat="45.75016" lon="6.40795">
        <ele>418.818</ele>
        <time>2013-08-03T11:13:42Z</time>
      </trkpt>
      <trkpt lat="45.75027" lon="6.40765">
        <ele>418.743</ele>
        <time>2013-08-03T11:13:48Z</time>
      </trkpt>
      <trkpt lat="45.75038" lon="6.40734">
        <ele>419.204</ele>
        <time>2013-08-03T11:13:54Z</time>
      </trkpt>
      <trkpt lat="45.75051" lon="6.40697">
        <ele>419.776</ele>
        <time>2013-08-03T11:14:01Z</time>
      </trkpt>
      <trkpt lat="45.75064" lon="6.40654">
        <ele>420.427</ele>
        <time>2013-08-03T11:14:09Z</time>
      </trkpt>
      <trkpt lat="45.75085" lon="6.40585">
        <ele>420.984</ele>
        <time>2013-08-03T11:14:20Z</time>
      </trkpt>
      <trkpt lat="45.75097" lon="6.40551">
        <ele>421.361</ele>
        <time>2013-08-03T11:14:26Z</time>
      </trkpt>
      <trkpt lat="45.7511" lon="6.40512">
        <ele>421.269</ele>
        <time>2013-08-03T11:14:33Z</time>
      </trkpt>
      <trkpt lat="45.75128" lon="6.40467">
        <ele>422.22</ele>
        <time>2013-08-03T11:14:41Z</time>
      </trkpt>
      <trkpt lat="45.75149" lon="6.40413">
        <ele>422.397</ele>
        <time>2013-08-03T11:14:50Z</time>
      </trkpt>
      <trkpt lat="45.75166" lon="6.40376">
        <ele>422.616</ele>
        <time>2013-08-03T11:14:57Z</time>
      </trkpt>
      <trkpt lat="45.7518" lon="6.40343">
        <ele>422.807</ele>
        <time>2013-08-03T11:15:04Z</time>
      </trkpt>
      <trkpt lat="45.75192" lon="6.40323">
        <ele>422.878</ele>
        <time>2013-08-03T11:15:08Z</time>
      </trkpt>
      <trkpt lat="45.75207" lon="6.40301">
        <ele>423.537</ele>
        <time>2013-08-03T11:15:14Z</time>
      </trkpt>
      <trkpt lat="45.75218" lon="6.40288">
        <ele>423.485</ele>
        <time>2013-08-03T11:15:18Z</time>
      </trkpt>
      <trkpt lat="45.75218" lon="6.40288">
        <ele>423.961</ele>
        <time>2013-08-03T11:15:25Z</time>
      </trkpt>
      <trkpt lat="45.75311" lon="6.40288">
        <ele>424.766</ele>
        <time>2013-08-03T11:15:35Z</time>
      </trkpt>
      <trkpt lat="45.75351" lon="6.40273">
        <ele>424.802</ele>
        <time>2013-08-03T11:15:43Z</time>
      </trkpt>
      <trkpt lat="45.75404" lon="6.40256">
        <ele>425.652</ele>
        <time>2013-08-03T11:15:53Z</time>
      </trkpt>
      <trkpt lat="45.75455" lon="6.40237">
        <ele>425.933</ele>
        <time>2013-08-03T11:16:02Z</time>
      </trkpt>
      <trkpt lat="45.7551" lon="6.40211">
        <ele>425.992</ele>
        <time>2013-08-03T11:16:10Z</time>
      </trkpt>
      <trkpt lat="45.7557" lon="6.4013">
        <ele>426.087</ele>
        <time>2013-08-03T11:16:17Z</time>
      </trkpt>
      <trkpt lat="45.75605" lon="6.40051">
        <ele>426.23</ele>
        <time>2013-08-03T11:16:27Z</time>
      </trkpt>
      <trkpt lat="45.75635" lon="6.39983">
        <ele>427.429</ele>
        <time>2013-08-03T11:16:36Z</time>
      </trkpt>
      <trkpt lat="45.75664" lon="6.39917">
        <ele>426.779</ele>
        <time>2013-08-03T11:16:46Z</time>
      </trkpt>
      <trkpt lat="45.75673" lon="6.39899">
        <ele>426.615</ele>
        <time>2013-08-03T11:16:49Z</time>
      </trkpt>
      <trkpt lat="45.75698" lon="6.39843">
        <ele>426.602</ele>
        <time>2013-08-03T11:16:57Z</time>
      </trkpt>
      <trkpt lat="45.75731" lon="6.39765">
        <ele>427.543</ele>
        <time>2013-08-03T11:17:09Z</time>
      </trkpt>
      <trkpt lat="45.75755" lon="6.39711">
        <ele>428.145</ele>
        <time>2013-08-03T11:17:17Z</time>
      </trkpt>
      <trkpt lat="45.75787" lon="6.39634">
        <ele>428.413</ele>
        <time>2013-08-03T11:17:28Z</time>
      </trkpt>
      <trkpt lat="45.75819" lon="6.39562">
        <ele>429.042</ele>
        <time>2013-08-03T11:17:39Z</time>
      </trkpt>
      <trkpt lat="45.7585" lon="6.3949">
        <ele>429.229</ele>
        <time>2013-08-03T11:17:49Z</time>
      </trkpt>
      <trkpt lat="45.75881" lon="6.39421">
        <ele>429.996</ele>
        <time>2013-08-03T11:17:59Z</time>
      </trkpt>
      <trkpt lat="45.75921" lon="6.39331">
        <ele>431.108</ele>
        <time>2013-08-03T11:18:12Z</time>
      </trkpt>
      <trkpt lat="45.75959" lon="6.39241">
        <ele>431.373</ele>
        <time>2013-08-03T11:18:25Z</time>
      </trkpt>
      <trkpt lat="45.75988" lon="6.39178">
        <ele>430.654</ele>
        <time>2013-08-03T11:18:34Z</time>
      </trkpt>
      <trkpt lat="45.76018" lon="6.39111">
        <ele>431.653</ele>
        <time>2013-08-03T11:18:44Z</time>
      </trkpt>
      <trkpt lat="45.76034" lon="6.39072">
        <ele>432.181</ele>
        <time>2013-08-03T11:18:50Z</time>
      </trkpt>
      <trkpt lat="45.76041" lon="6.39055">
        <ele>431.805</ele>
        <time>2013-08-03T11:18:54Z</time>
      </trkpt>
      <trkpt lat="45.76059" lon="6.39015">
        <ele>431.646</ele>
        <time>2013-08-03T11:19:02Z</time>
      </trkpt>
      <trkpt lat="45.76077" lon="6.38974">
        <ele>432.599</ele>
        <time>2013-08-03T11:19:09Z</time>
      </trkpt>
      <trkpt lat="45.76103" lon="6.38917">
        <ele>432.558</ele>
        <time>2013-08-03T11:19:19Z</time>
      </trkpt>
      <trkpt lat="45.76132" lon="6.38856">
        <ele>433.225</ele>
        <time>2013-08-03T11:19:29Z</time>
      </trkpt>
      <trkpt lat="45.76152" lon="6.38817">
        <ele>433.468</ele>
        <time>2013-08-03T11:19:36Z</time>
      </trkpt>
      <trkpt lat="45.76184" lon="6.38767">
        <ele>434.059</ele>
        <time>2013-08-03T11:19:46Z</time>
      </trkpt>
      <trkpt lat="45.76207" lon="6.38683">
        <ele>433.853</ele>
        <time>2013-08-03T11:19:56Z</time>
      </trkpt>
      <trkpt lat="45.76256" lon="6.38613">
        <ele>433.996</ele>
        <time>2013-08-03T11:20:08Z</time>
      </trkpt>
      <trkpt lat="45.76297" lon="6.38562">
        <ele>434.868</ele>
        <time>2013-08-03T11:20:17Z</time>
      </trkpt>
      <trkpt lat="45.76338" lon="6.38515">
        <ele>435.033</ele>
        <time>2013-08-03T11:20:26Z</time>
      </trkpt>
      <trkpt lat="45.76382" lon="6.38462">
        <ele>434.641</ele>
        <time>2013-08-03T11:20:36Z</time>
      </trkpt>
      <trkpt lat="45.76419" lon="6.3842">
        <ele>434.638</ele>
        <time>2013-08-03T11:20:44Z</time>
      </trkpt>
      <trkpt lat="45.76458" lon="6.38368">
        <ele>435.13</ele>
        <time>2013-08-03T11:20:53Z</time>
      </trkpt>
      <trkpt lat="45.76499" lon="6.38305">
        <ele>434.727</ele>
        <time>2013-08-03T11:21:03Z</time>
      </trkpt>
      <trkpt lat="45.76527" lon="6.38257">
        <ele>433.931</ele>
        <time>2013-08-03T11:21:10Z</time>
      </trkpt>
      <trkpt lat="45.76563" lon="6.38187">
        <ele>435.161</ele>
        <time>2013-08-03T11:21:19Z</time>
      </trkpt>
      <trkpt lat="45.76589" lon="6.38113">
        <ele>435.762</ele>
        <time>2013-08-03T11:21:28Z</time>
      </trkpt>
      <trkpt lat="45.76613" lon="6.3805">
        <ele>435.266</ele>
        <time>2013-08-03T11:21:36Z</time>
      </trkpt>
      <trkpt lat="45.76633" lon="6.37981">
        <ele>435.621</ele>
        <time>2013-08-03T11:21:44Z</time>
      </trkpt>
      <trkpt lat="45.76648" lon="6.37918">
        <ele>435.692</ele>
        <time>2013-08-03T11:21:51Z</time>
      </trkpt>
      <trkpt lat="45.76657" lon="6.37865">
        <ele>435.833</ele>
        <time>2013-08-03T11:21:57Z</time>
      </trkpt>
      <trkpt lat="45.76661" lon="6.37839">
        <ele>436.115</ele>
        <time>2013-08-03T11:22:00Z</time>
      </trkpt>
      <trkpt lat="45.76667" lon="6.37785">
        <ele>436.244</ele>
        <time>2013-08-03T11:22:06Z</time>
      </trkpt>
      <trkpt lat="45.76671" lon="6.37727">
        <ele>436.506</ele>
        <time>2013-08-03T11:22:12Z</time>
      </trkpt>
      <trkpt lat="45.76674" lon="6.3767">
        <ele>436.267</ele>
        <time>2013-08-03T11:22:18Z</time>
      </trkpt>
      <trkpt lat="45.76676" lon="6.37624">
        <ele>435.995</ele>
        <time>2013-08-03T11:22:23Z</time>
      </trkpt>
      <trkpt lat="45.76678" lon="6.37566">
        <ele>436.5</ele>
        <time>2013-08-03T11:22:30Z</time>
      </trkpt>
      <trkpt lat="45.76678" lon="6.37543">
        <ele>436.094</ele>
        <time>2013-08-03T11:22:33Z</time>
      </trkpt>
      <trkpt lat="45.76679" lon="6.37503">
        <ele>436.223</ele>
        <time>2013-08-03T11:22:38Z</time>
      </trkpt>
      <trkpt lat="45.76679" lon="6.37453">
        <ele>436.847</ele>
        <time>2013-08-03T11:22:44Z</time>
      </trkpt>
      <trkpt lat="45.76679" lon="6.37409">
        <ele>437.219</ele>
        <time>2013-08-03T11:22:49Z</time>
      </trkpt>
      <trkpt lat="45.76679" lon="6.37348">
        <ele>437.322</ele>
        <time>2013-08-03T11:22:56Z</time>
      </trkpt>
      <trkpt lat="45.7668" lon="6.37297">
        <ele>438.331</ele>
        <time>2013-08-03T11:23:02Z</time>
      </trkpt>
      <trkpt lat="45.7668" lon="6.37288">
        <ele>438.403</ele>
        <time>2013-08-03T11:23:03Z</time>
      </trkpt>
      <trkpt lat="45.76682" lon="6.37236">
        <ele>437.852</ele>
        <time>2013-08-03T11:23:10Z</time>
      </trkpt>
      <trkpt lat="45.76684" lon="6.37185">
        <ele>438.187</ele>
        <time>2013-08-03T11:23:17Z</time>
      </trkpt>
      <trkpt lat="45.76684" lon="6.37178">
        <ele>438.226</ele>
        <time>2013-08-03T11:23:18Z</time>
      </trkpt>
      <trkpt lat="45.76685" lon="6.37136">
        <ele>438.576</ele>
        <time>2013-08-03T11:23:24Z</time>
      </trkpt>
      <trkpt lat="45.76686" lon="6.3707">
        <ele>439.736</ele>
        <time>2013-08-03T11:23:32Z</time>
      </trkpt>
      <trkpt lat="45.76688" lon="6.37005">
        <ele>440.056</ele>
        <time>2013-08-03T11:23:40Z</time>
      </trkpt>
      <trkpt lat="45.76688" lon="6.36947">
        <ele>440.679</ele>
        <time>2013-08-03T11:23:47Z</time>
      </trkpt>
      <trkpt lat="45.76688" lon="6.36891">
        <ele>441.122</ele>
        <time>2013-08-03T11:23:54Z</time>
      </trkpt>
      <trkpt lat="45.76688" lon="6.36856">
        <ele>441.324</ele>
        <time>2013-08-03T11:23:59Z</time>
      </trkpt>
      <trkpt lat="45.76688" lon="6.3685">
        <ele>441.338</ele>
        <time>2013-08-03T11:24:00Z</time>
      </trkpt>
      <trkpt lat="45.76685" lon="6.36799">
        <ele>441.733</ele>
        <time>2013-08-03T11:24:07Z</time>
      </trkpt>
      <trkpt lat="45.76675" lon="6.36717">
        <ele>442.81</ele>
        <time>2013-08-03T11:24:17Z</time>
      </trkpt>
      <trkpt lat="45.76659" lon="6.36642">
        <ele>443.104</ele>
        <time>2013-08-03T11:24:26Z</time>
      </trkpt>
      <trkpt lat="45.76642" lon="6.36576">
        <ele>443.499</ele>
        <time>2013-08-03T11:24:34Z</time>
      </trkpt>
      <trkpt lat="45.76617" lon="6.36507">
        <ele>444.207</ele>
        <time>2013-08-03T11:24:43Z</time>
      </trkpt>
      <trkpt lat="45.76597" lon="6.36454">
        <ele>445.087</ele>
        <time>2013-08-03T11:24:50Z</time>
      </trkpt>
      <trkpt lat="45.76573" lon="6.36393">
        <ele>445.953</ele>
        <time>2013-08-03T11:24:58Z</time>
      </trkpt>
      <trkpt lat="45.76555" lon="6.36329">
        <ele>446.389</ele>
        <time>2013-08-03T11:25:06Z</time>
      </trkpt>
      <trkpt lat="45.76542" lon="6.36279">
        <ele>445.691</ele>
        <time>2013-08-03T11:25:13Z</time>
      </trkpt>
      <trkpt lat="45.76534" lon="6.36226">
        <ele>446.328</ele>
        <time>2013-08-03T11:25:20Z</time>
      </trkpt>
      <trkpt lat="45.76527" lon="6.36163">
        <ele>447.694</ele>
        <time>2013-08-03T11:25:28Z</time>
      </trkpt>
      <trkpt lat="45.76525" lon="6.36104">
        <ele>448.577</ele>
        <time>2013-08-03T11:25:35Z</time>
      </trkpt>
      <trkpt lat="45.76525" lon="6.36027">
        <ele>448.344</ele>
        <time>2013-08-03T11:25:44Z</time>
      </trkpt>
      <trkpt lat="45.76524" lon="6.35962">
        <ele>448.946</ele>
        <time>2013-08-03T11:25:52Z</time>
      </trkpt>
      <trkpt lat="45.76522" lon="6.3589">
        <ele>449.678</ele>
        <time>2013-08-03T11:26:01Z</time>
      </trkpt>
      <trkpt lat="45.76522" lon="6.35828">
        <ele>449.772</ele>
        <time>2013-08-03T11:26:09Z</time>
      </trkpt>
      <trkpt lat="45.76523" lon="6.35746">
        <ele>450.547</ele>
        <time>2013-08-03T11:26:19Z</time>
      </trkpt>
      <trkpt lat="45.76524" lon="6.35676">
        <ele>450.376</ele>
        <time>2013-08-03T11:26:27Z</time>
      </trkpt>
      <trkpt lat="45.76526" lon="6.35613">
        <ele>451.05</ele>
        <time>2013-08-03T11:26:34Z</time>
      </trkpt>
      <trkpt lat="45.76528" lon="6.35532">
        <ele>451.543</ele>
        <time>2013-08-03T11:26:43Z</time>
      </trkpt>
      <trkpt lat="45.76531" lon="6.35442">
        <ele>451.405</ele>
        <time>2013-08-03T11:26:53Z</time>
      </trkpt>
      <trkpt lat="45.76527" lon="6.35367">
        <ele>451.899</ele>
        <time>2013-08-03T11:27:01Z</time>
      </trkpt>
      <trkpt lat="45.76515" lon="6.35293">
        <ele>451.704</ele>
        <time>2013-08-03T11:27:09Z</time>
      </trkpt>
      <trkpt lat="45.76505" lon="6.35231">
        <ele>451.324</ele>
        <time>2013-08-03T11:27:16Z</time>
      </trkpt>
      <trkpt lat="45.76496" lon="6.35182">
        <ele>451.604</ele>
        <time>2013-08-03T11:27:22Z</time>
      </trkpt>
      <trkpt lat="45.7648" lon="6.35095">
        <ele>452.388</ele>
        <time>2013-08-03T11:27:32Z</time>
      </trkpt>
      <trkpt lat="45.76465" lon="6.35018">
        <ele>452.725</ele>
        <time>2013-08-03T11:27:41Z</time>
      </trkpt>
      <trkpt lat="45.76458" lon="6.34978">
        <ele>452.387</ele>
        <time>2013-08-03T11:27:46Z</time>
      </trkpt>
      <trkpt lat="45.76447" lon="6.34923">
        <ele>453.307</ele>
        <time>2013-08-03T11:27:53Z</time>
      </trkpt>
      <trkpt lat="45.76446" lon="6.34917">
        <ele>453.58</ele>
        <time>2013-08-03T11:27:54Z</time>
      </trkpt>
      <trkpt lat="45.76441" lon="6.34894">
        <ele>453.6</ele>
        <time>2013-08-03T11:27:58Z</time>
      </trkpt>
      <trkpt lat="45.76438" lon="6.34879">
        <ele>453.464</ele>
        <time>2013-08-03T11:28:01Z</time>
      </trkpt>
      <trkpt lat="45.7643" lon="6.34839">
        <ele>453.624</ele>
        <time>2013-08-03T11:28:07Z</time>
      </trkpt>
      <trkpt lat="45.76419" lon="6.34781">
        <ele>454.568</ele>
        <time>2013-08-03T11:28:14Z</time>
      </trkpt>
      <trkpt lat="45.76403" lon="6.34693">
        <ele>455.667</ele>
        <time>2013-08-03T11:28:24Z</time>
      </trkpt>
      <trkpt lat="45.76389" lon="6.34616">
        <ele>456.278</ele>
        <time>2013-08-03T11:28:33Z</time>
      </trkpt>
      <trkpt lat="45.76376" lon="6.34546">
        <ele>456.82</ele>
        <time>2013-08-03T11:28:42Z</time>
      </trkpt>
      <trkpt lat="45.76361" lon="6.34472">
        <ele>457.428</ele>
        <time>2013-08-03T11:28:51Z</time>
      </trkpt>
      <trkpt lat="45.76351" lon="6.3442">
        <ele>457.115</ele>
        <time>2013-08-03T11:28:58Z</time>
      </trkpt>
      <trkpt lat="45.76343" lon="6.34375">
        <ele>456.879</ele>
        <time>2013-08-03T11:29:05Z</time>
      </trkpt>
      <trkpt lat="45.76342" lon="6.34369">
        <ele>456.868</ele>
        <time>2013-08-03T11:29:06Z</time>
      </trkpt>
      <trkpt lat="45.76338" lon="6.34348">
        <ele>456.594</ele>
        <time>2013-08-03T11:29:10Z</time>
      </trkpt>
      <trkpt lat="45.76334" lon="6.34326">
        <ele>457.139</ele>
        <time>2013-08-03T11:29:16Z</time>
      </trkpt>
      <trkpt lat="45.7633" lon="6.34306">
        <ele>457.076</ele>
        <time>2013-08-03T11:29:21Z</time>
      </trkpt>
      <trkpt lat="45.76325" lon="6.34281">
        <ele>457.216</ele>
        <time>2013-08-03T11:29:27Z</time>
      </trkpt>
      <trkpt lat="45.76362" lon="6.34321">
        <ele>457.343</ele>
        <time>2013-08-03T11:29:31Z</time>
      </trkpt>
      <trkpt lat="45.76316" lon="6.34287">
        <ele>457.295</ele>
        <time>2013-08-03T11:29:34Z</time>
      </trkpt>
      <trkpt lat="45.76318" lon="6.3431">
        <ele>457.272</ele>
        <time>2013-08-03T11:29:38Z</time>
      </trkpt>
      <trkpt lat="45.76327" lon="6.34333">
        <ele>457.256</ele>
        <time>2013-08-03T11:29:42Z</time>
      </trkpt>
      <trkpt lat="45.76337" lon="6.34333">
        <ele>457.303</ele>
        <time>2013-08-03T11:29:45Z</time>
      </trkpt>
    </trkseg>
  </trk>
</gpx>